
<gpx xmlns="http://www.topografix.com/GPX/1/1" xmlns:gpxx="http://www.garmin.com/xmlschemas/GpxExtensions/v3" xmlns:xsi="http://www.w3.org/2001/XMLSchema-instance" version="1.1" creator="Adze - http://kobotsw.com/apps/adze" xsi:schemaLocation="http://www.topografix.com/GPX/1/1 http://www.topografix.com/GPX/1/1/gpx.xsd http://www.garmin.com/xmlschemas/GpxExtensions/v3 http://www.garmin.com/xmlschemas/GpxExtensionsv3.xsd">
    <metadata>
        <name>Untitled Document</name>
        <time>2018-02-26T01:45:12.505Z</time>
    </metadata>
    <wpt lon="100.974443" lat="12.906300">
        <name>Horseshoe point resort</name>
    </wpt>
    <trk>
        <name>Bhhb horseshoe point, Sunday ride</name>
        <extensions>
            <gpxx:TrackExtension>
                <gpxx:DisplayColor>DarkMagenta</gpxx:DisplayColor>
            </gpxx:TrackExtension>
        </extensions>
        <trkseg>
            <trkpt lon="100.974600" lat="12.906075">
                <ele>78.700000</ele>
                <time>2018-02-25T02:29:33Z</time>
            </trkpt>
            <trkpt lon="100.974570" lat="12.906059">
                <ele>78.600000</ele>
                <time>2018-02-25T02:29:37Z</time>
            </trkpt>
            <trkpt lon="100.974544" lat="12.906048">
                <ele>78.400000</ele>
                <time>2018-02-25T02:29:41Z</time>
            </trkpt>
            <trkpt lon="100.974464" lat="12.906009">
                <ele>77.900000</ele>
                <time>2018-02-25T02:31:53Z</time>
            </trkpt>
            <trkpt lon="100.974382" lat="12.906007">
                <ele>77.400000</ele>
                <time>2018-02-25T02:53:59Z</time>
            </trkpt>
            <trkpt lon="100.974362" lat="12.905983">
                <ele>77.400000</ele>
                <time>2018-02-25T02:54:02Z</time>
            </trkpt>
            <trkpt lon="100.974332" lat="12.905975">
                <ele>77.300000</ele>
                <time>2018-02-25T02:54:09Z</time>
            </trkpt>
            <trkpt lon="100.974302" lat="12.905961">
                <ele>77.200000</ele>
                <time>2018-02-25T02:54:12Z</time>
            </trkpt>
            <trkpt lon="100.974286" lat="12.905938">
                <ele>77.100000</ele>
                <time>2018-02-25T02:54:15Z</time>
            </trkpt>
            <trkpt lon="100.974263" lat="12.905906">
                <ele>77.000000</ele>
                <time>2018-02-25T02:54:18Z</time>
            </trkpt>
            <trkpt lon="100.974248" lat="12.905881">
                <ele>76.900000</ele>
                <time>2018-02-25T02:54:20Z</time>
            </trkpt>
            <trkpt lon="100.974228" lat="12.905849">
                <ele>76.800000</ele>
                <time>2018-02-25T02:54:23Z</time>
            </trkpt>
            <trkpt lon="100.974201" lat="12.905831">
                <ele>76.800000</ele>
                <time>2018-02-25T02:54:26Z</time>
            </trkpt>
            <trkpt lon="100.974167" lat="12.905816">
                <ele>76.700000</ele>
                <time>2018-02-25T02:54:29Z</time>
            </trkpt>
            <trkpt lon="100.974144" lat="12.905799">
                <ele>76.500000</ele>
                <time>2018-02-25T02:54:32Z</time>
            </trkpt>
            <trkpt lon="100.974126" lat="12.905778">
                <ele>76.400000</ele>
                <time>2018-02-25T02:54:40Z</time>
            </trkpt>
            <trkpt lon="100.974181" lat="12.905807">
                <ele>76.700000</ele>
                <time>2018-02-25T02:56:13Z</time>
            </trkpt>
            <trkpt lon="100.974217" lat="12.905807">
                <ele>76.800000</ele>
                <time>2018-02-25T02:56:17Z</time>
            </trkpt>
            <trkpt lon="100.974245" lat="12.905831">
                <ele>76.800000</ele>
                <time>2018-02-25T02:56:20Z</time>
            </trkpt>
            <trkpt lon="100.974266" lat="12.905862">
                <ele>76.900000</ele>
                <time>2018-02-25T02:56:23Z</time>
            </trkpt>
            <trkpt lon="100.974283" lat="12.905890">
                <ele>77.000000</ele>
                <time>2018-02-25T02:56:26Z</time>
            </trkpt>
            <trkpt lon="100.974299" lat="12.905920">
                <ele>77.200000</ele>
                <time>2018-02-25T02:56:30Z</time>
            </trkpt>
            <trkpt lon="100.974305" lat="12.905950">
                <ele>77.300000</ele>
                <time>2018-02-25T02:56:33Z</time>
            </trkpt>
            <trkpt lon="100.974331" lat="12.905977">
                <ele>77.400000</ele>
                <time>2018-02-25T02:56:37Z</time>
            </trkpt>
            <trkpt lon="100.974338" lat="12.906003">
                <ele>77.400000</ele>
                <time>2018-02-25T02:56:40Z</time>
            </trkpt>
            <trkpt lon="100.974339" lat="12.906033">
                <ele>77.500000</ele>
                <time>2018-02-25T02:56:43Z</time>
            </trkpt>
            <trkpt lon="100.974348" lat="12.906058">
                <ele>77.500000</ele>
                <time>2018-02-25T02:56:47Z</time>
            </trkpt>
            <trkpt lon="100.974370" lat="12.906082">
                <ele>77.600000</ele>
                <time>2018-02-25T02:56:50Z</time>
            </trkpt>
            <trkpt lon="100.974395" lat="12.906100">
                <ele>77.600000</ele>
                <time>2018-02-25T02:56:53Z</time>
            </trkpt>
            <trkpt lon="100.974416" lat="12.906119">
                <ele>77.700000</ele>
                <time>2018-02-25T02:56:59Z</time>
            </trkpt>
            <trkpt lon="100.974448" lat="12.906108">
                <ele>77.900000</ele>
                <time>2018-02-25T02:57:24Z</time>
            </trkpt>
            <trkpt lon="100.974468" lat="12.906083">
                <ele>77.800000</ele>
                <time>2018-02-25T02:57:30Z</time>
            </trkpt>
            <trkpt lon="100.974490" lat="12.906061">
                <ele>78.100000</ele>
                <time>2018-02-25T02:57:35Z</time>
            </trkpt>
            <trkpt lon="100.974488" lat="12.906030">
                <ele>78.100000</ele>
                <time>2018-02-25T02:57:40Z</time>
            </trkpt>
            <trkpt lon="100.974497" lat="12.905995">
                <ele>78.100000</ele>
                <time>2018-02-25T02:57:43Z</time>
            </trkpt>
            <trkpt lon="100.974535" lat="12.905984">
                <ele>78.300000</ele>
                <time>2018-02-25T02:58:04Z</time>
            </trkpt>
            <trkpt lon="100.974571" lat="12.905973">
                <ele>78.500000</ele>
                <time>2018-02-25T02:58:07Z</time>
            </trkpt>
            <trkpt lon="100.974609" lat="12.905963">
                <ele>78.500000</ele>
                <time>2018-02-25T02:58:09Z</time>
            </trkpt>
            <trkpt lon="100.974609" lat="12.905991">
                <ele>78.500000</ele>
                <time>2018-02-25T02:58:14Z</time>
            </trkpt>
            <trkpt lon="100.974588" lat="12.906010">
                <ele>78.500000</ele>
                <time>2018-02-25T02:58:17Z</time>
            </trkpt>
            <trkpt lon="100.974571" lat="12.906038">
                <ele>78.500000</ele>
                <time>2018-02-25T02:58:20Z</time>
            </trkpt>
            <trkpt lon="100.974561" lat="12.906068">
                <ele>78.300000</ele>
                <time>2018-02-25T02:58:24Z</time>
            </trkpt>
            <trkpt lon="100.974569" lat="12.906095">
                <ele>78.300000</ele>
                <time>2018-02-25T02:58:32Z</time>
            </trkpt>
            <trkpt lon="100.974551" lat="12.906120">
                <ele>78.400000</ele>
                <time>2018-02-25T03:03:01Z</time>
            </trkpt>
            <trkpt lon="100.974516" lat="12.906149">
                <ele>78.400000</ele>
                <time>2018-02-25T03:03:03Z</time>
            </trkpt>
            <trkpt lon="100.974486" lat="12.906178">
                <ele>78.300000</ele>
                <time>2018-02-25T03:03:05Z</time>
            </trkpt>
            <trkpt lon="100.974446" lat="12.906209">
                <ele>78.300000</ele>
                <time>2018-02-25T03:03:07Z</time>
            </trkpt>
            <trkpt lon="100.974411" lat="12.906254">
                <ele>78.500000</ele>
                <time>2018-02-25T03:03:09Z</time>
            </trkpt>
            <trkpt lon="100.974400" lat="12.906284">
                <ele>78.500000</ele>
                <time>2018-02-25T03:03:10Z</time>
            </trkpt>
            <trkpt lon="100.974392" lat="12.906315">
                <ele>78.900000</ele>
                <time>2018-02-25T03:03:11Z</time>
            </trkpt>
            <trkpt lon="100.974393" lat="12.906354">
                <ele>79.300000</ele>
                <time>2018-02-25T03:03:12Z</time>
            </trkpt>
            <trkpt lon="100.974406" lat="12.906395">
                <ele>79.800000</ele>
                <time>2018-02-25T03:03:13Z</time>
            </trkpt>
            <trkpt lon="100.974426" lat="12.906431">
                <ele>79.900000</ele>
                <time>2018-02-25T03:03:14Z</time>
            </trkpt>
            <trkpt lon="100.974451" lat="12.906465">
                <ele>80.100000</ele>
                <time>2018-02-25T03:03:15Z</time>
            </trkpt>
            <trkpt lon="100.974491" lat="12.906497">
                <ele>79.800000</ele>
                <time>2018-02-25T03:03:16Z</time>
            </trkpt>
            <trkpt lon="100.974510" lat="12.906535">
                <ele>79.600000</ele>
                <time>2018-02-25T03:03:17Z</time>
            </trkpt>
            <trkpt lon="100.974536" lat="12.906562">
                <ele>79.400000</ele>
                <time>2018-02-25T03:03:18Z</time>
            </trkpt>
            <trkpt lon="100.974561" lat="12.906599">
                <ele>79.200000</ele>
                <time>2018-02-25T03:03:19Z</time>
            </trkpt>
            <trkpt lon="100.974582" lat="12.906635">
                <ele>79.000000</ele>
                <time>2018-02-25T03:03:20Z</time>
            </trkpt>
            <trkpt lon="100.974606" lat="12.906660">
                <ele>79.000000</ele>
                <time>2018-02-25T03:03:21Z</time>
            </trkpt>
            <trkpt lon="100.974639" lat="12.906695">
                <ele>79.000000</ele>
                <time>2018-02-25T03:03:22Z</time>
            </trkpt>
            <trkpt lon="100.974667" lat="12.906741">
                <ele>78.800000</ele>
                <time>2018-02-25T03:03:23Z</time>
            </trkpt>
            <trkpt lon="100.974696" lat="12.906762">
                <ele>78.500000</ele>
                <time>2018-02-25T03:03:24Z</time>
            </trkpt>
            <trkpt lon="100.974720" lat="12.906780">
                <ele>78.300000</ele>
                <time>2018-02-25T03:03:25Z</time>
            </trkpt>
            <trkpt lon="100.974742" lat="12.906824">
                <ele>78.100000</ele>
                <time>2018-02-25T03:03:26Z</time>
            </trkpt>
            <trkpt lon="100.974762" lat="12.906867">
                <ele>78.000000</ele>
                <time>2018-02-25T03:03:27Z</time>
            </trkpt>
            <trkpt lon="100.974769" lat="12.906908">
                <ele>77.900000</ele>
                <time>2018-02-25T03:03:28Z</time>
            </trkpt>
            <trkpt lon="100.974771" lat="12.906942">
                <ele>77.900000</ele>
                <time>2018-02-25T03:03:29Z</time>
            </trkpt>
            <trkpt lon="100.974764" lat="12.906984">
                <ele>77.800000</ele>
                <time>2018-02-25T03:03:30Z</time>
            </trkpt>
            <trkpt lon="100.974758" lat="12.907026">
                <ele>77.700000</ele>
                <time>2018-02-25T03:03:31Z</time>
            </trkpt>
            <trkpt lon="100.974753" lat="12.907067">
                <ele>77.600000</ele>
                <time>2018-02-25T03:03:32Z</time>
            </trkpt>
            <trkpt lon="100.974733" lat="12.907109">
                <ele>77.800000</ele>
                <time>2018-02-25T03:03:33Z</time>
            </trkpt>
            <trkpt lon="100.974703" lat="12.907146">
                <ele>77.800000</ele>
                <time>2018-02-25T03:03:34Z</time>
            </trkpt>
            <trkpt lon="100.974665" lat="12.907178">
                <ele>77.900000</ele>
                <time>2018-02-25T03:03:35Z</time>
            </trkpt>
            <trkpt lon="100.974639" lat="12.907189">
                <ele>78.000000</ele>
                <time>2018-02-25T03:03:36Z</time>
            </trkpt>
            <trkpt lon="100.974584" lat="12.907200">
                <ele>77.900000</ele>
                <time>2018-02-25T03:03:37Z</time>
            </trkpt>
            <trkpt lon="100.974531" lat="12.907204">
                <ele>78.000000</ele>
                <time>2018-02-25T03:03:38Z</time>
            </trkpt>
            <trkpt lon="100.974480" lat="12.907196">
                <ele>78.300000</ele>
                <time>2018-02-25T03:03:39Z</time>
            </trkpt>
            <trkpt lon="100.974420" lat="12.907201">
                <ele>78.400000</ele>
                <time>2018-02-25T03:03:40Z</time>
            </trkpt>
            <trkpt lon="100.974365" lat="12.907215">
                <ele>78.300000</ele>
                <time>2018-02-25T03:03:41Z</time>
            </trkpt>
            <trkpt lon="100.974322" lat="12.907218">
                <ele>78.100000</ele>
                <time>2018-02-25T03:03:42Z</time>
            </trkpt>
            <trkpt lon="100.974270" lat="12.907217">
                <ele>77.900000</ele>
                <time>2018-02-25T03:03:43Z</time>
            </trkpt>
            <trkpt lon="100.974211" lat="12.907208">
                <ele>77.600000</ele>
                <time>2018-02-25T03:03:44Z</time>
            </trkpt>
            <trkpt lon="100.974158" lat="12.907217">
                <ele>77.300000</ele>
                <time>2018-02-25T03:03:45Z</time>
            </trkpt>
            <trkpt lon="100.974113" lat="12.907229">
                <ele>77.000000</ele>
                <time>2018-02-25T03:03:46Z</time>
            </trkpt>
            <trkpt lon="100.974067" lat="12.907230">
                <ele>76.700000</ele>
                <time>2018-02-25T03:03:47Z</time>
            </trkpt>
            <trkpt lon="100.974018" lat="12.907243">
                <ele>76.400000</ele>
                <time>2018-02-25T03:03:48Z</time>
            </trkpt>
            <trkpt lon="100.973974" lat="12.907243">
                <ele>76.400000</ele>
                <time>2018-02-25T03:03:49Z</time>
            </trkpt>
            <trkpt lon="100.973925" lat="12.907239">
                <ele>76.300000</ele>
                <time>2018-02-25T03:03:50Z</time>
            </trkpt>
            <trkpt lon="100.973879" lat="12.907240">
                <ele>76.300000</ele>
                <time>2018-02-25T03:03:51Z</time>
            </trkpt>
            <trkpt lon="100.973829" lat="12.907247">
                <ele>76.300000</ele>
                <time>2018-02-25T03:03:52Z</time>
            </trkpt>
            <trkpt lon="100.973780" lat="12.907249">
                <ele>76.200000</ele>
                <time>2018-02-25T03:03:53Z</time>
            </trkpt>
            <trkpt lon="100.973741" lat="12.907251">
                <ele>76.200000</ele>
                <time>2018-02-25T03:03:54Z</time>
            </trkpt>
            <trkpt lon="100.973694" lat="12.907254">
                <ele>76.200000</ele>
                <time>2018-02-25T03:03:55Z</time>
            </trkpt>
            <trkpt lon="100.973658" lat="12.907263">
                <ele>76.200000</ele>
                <time>2018-02-25T03:03:56Z</time>
            </trkpt>
            <trkpt lon="100.973612" lat="12.907273">
                <ele>76.100000</ele>
                <time>2018-02-25T03:03:57Z</time>
            </trkpt>
            <trkpt lon="100.973570" lat="12.907268">
                <ele>76.100000</ele>
                <time>2018-02-25T03:03:58Z</time>
            </trkpt>
            <trkpt lon="100.973529" lat="12.907268">
                <ele>75.900000</ele>
                <time>2018-02-25T03:03:59Z</time>
            </trkpt>
            <trkpt lon="100.973491" lat="12.907265">
                <ele>75.600000</ele>
                <time>2018-02-25T03:04:00Z</time>
            </trkpt>
            <trkpt lon="100.973450" lat="12.907265">
                <ele>75.400000</ele>
                <time>2018-02-25T03:04:01Z</time>
            </trkpt>
            <trkpt lon="100.973409" lat="12.907271">
                <ele>75.100000</ele>
                <time>2018-02-25T03:04:02Z</time>
            </trkpt>
            <trkpt lon="100.973362" lat="12.907275">
                <ele>74.800000</ele>
                <time>2018-02-25T03:04:03Z</time>
            </trkpt>
            <trkpt lon="100.973324" lat="12.907282">
                <ele>74.200000</ele>
                <time>2018-02-25T03:04:04Z</time>
            </trkpt>
            <trkpt lon="100.973287" lat="12.907272">
                <ele>74.400000</ele>
                <time>2018-02-25T03:04:05Z</time>
            </trkpt>
            <trkpt lon="100.973242" lat="12.907270">
                <ele>74.100000</ele>
                <time>2018-02-25T03:04:06Z</time>
            </trkpt>
            <trkpt lon="100.973206" lat="12.907275">
                <ele>73.800000</ele>
                <time>2018-02-25T03:04:07Z</time>
            </trkpt>
            <trkpt lon="100.973170" lat="12.907283">
                <ele>73.200000</ele>
                <time>2018-02-25T03:04:08Z</time>
            </trkpt>
            <trkpt lon="100.973133" lat="12.907285">
                <ele>72.700000</ele>
                <time>2018-02-25T03:04:09Z</time>
            </trkpt>
            <trkpt lon="100.973095" lat="12.907286">
                <ele>72.200000</ele>
                <time>2018-02-25T03:04:10Z</time>
            </trkpt>
            <trkpt lon="100.973061" lat="12.907289">
                <ele>71.700000</ele>
                <time>2018-02-25T03:04:11Z</time>
            </trkpt>
            <trkpt lon="100.973029" lat="12.907293">
                <ele>71.600000</ele>
                <time>2018-02-25T03:04:12Z</time>
            </trkpt>
            <trkpt lon="100.972998" lat="12.907296">
                <ele>71.500000</ele>
                <time>2018-02-25T03:04:13Z</time>
            </trkpt>
            <trkpt lon="100.972967" lat="12.907299">
                <ele>71.400000</ele>
                <time>2018-02-25T03:04:14Z</time>
            </trkpt>
            <trkpt lon="100.972934" lat="12.907300">
                <ele>71.400000</ele>
                <time>2018-02-25T03:04:15Z</time>
            </trkpt>
            <trkpt lon="100.972899" lat="12.907300">
                <ele>71.400000</ele>
                <time>2018-02-25T03:04:16Z</time>
            </trkpt>
            <trkpt lon="100.972862" lat="12.907302">
                <ele>71.300000</ele>
                <time>2018-02-25T03:04:17Z</time>
            </trkpt>
            <trkpt lon="100.972824" lat="12.907306">
                <ele>71.300000</ele>
                <time>2018-02-25T03:04:18Z</time>
            </trkpt>
            <trkpt lon="100.972785" lat="12.907312">
                <ele>71.300000</ele>
                <time>2018-02-25T03:04:19Z</time>
            </trkpt>
            <trkpt lon="100.972746" lat="12.907318">
                <ele>71.300000</ele>
                <time>2018-02-25T03:04:20Z</time>
            </trkpt>
            <trkpt lon="100.972706" lat="12.907321">
                <ele>71.000000</ele>
                <time>2018-02-25T03:04:21Z</time>
            </trkpt>
            <trkpt lon="100.972666" lat="12.907325">
                <ele>71.000000</ele>
                <time>2018-02-25T03:04:22Z</time>
            </trkpt>
            <trkpt lon="100.972627" lat="12.907329">
                <ele>70.900000</ele>
                <time>2018-02-25T03:04:23Z</time>
            </trkpt>
            <trkpt lon="100.972587" lat="12.907332">
                <ele>70.900000</ele>
                <time>2018-02-25T03:04:24Z</time>
            </trkpt>
            <trkpt lon="100.972546" lat="12.907336">
                <ele>70.900000</ele>
                <time>2018-02-25T03:04:25Z</time>
            </trkpt>
            <trkpt lon="100.972506" lat="12.907339">
                <ele>70.800000</ele>
                <time>2018-02-25T03:04:26Z</time>
            </trkpt>
            <trkpt lon="100.972467" lat="12.907341">
                <ele>70.800000</ele>
                <time>2018-02-25T03:04:27Z</time>
            </trkpt>
            <trkpt lon="100.972427" lat="12.907342">
                <ele>70.800000</ele>
                <time>2018-02-25T03:04:28Z</time>
            </trkpt>
            <trkpt lon="100.972388" lat="12.907345">
                <ele>70.800000</ele>
                <time>2018-02-25T03:04:29Z</time>
            </trkpt>
            <trkpt lon="100.972348" lat="12.907346">
                <ele>70.700000</ele>
                <time>2018-02-25T03:04:30Z</time>
            </trkpt>
            <trkpt lon="100.972309" lat="12.907350">
                <ele>70.600000</ele>
                <time>2018-02-25T03:04:31Z</time>
            </trkpt>
            <trkpt lon="100.972272" lat="12.907353">
                <ele>70.400000</ele>
                <time>2018-02-25T03:04:32Z</time>
            </trkpt>
            <trkpt lon="100.972234" lat="12.907355">
                <ele>70.200000</ele>
                <time>2018-02-25T03:04:33Z</time>
            </trkpt>
            <trkpt lon="100.972195" lat="12.907356">
                <ele>70.000000</ele>
                <time>2018-02-25T03:04:34Z</time>
            </trkpt>
            <trkpt lon="100.972156" lat="12.907352">
                <ele>69.700000</ele>
                <time>2018-02-25T03:04:35Z</time>
            </trkpt>
            <trkpt lon="100.972119" lat="12.907343">
                <ele>69.300000</ele>
                <time>2018-02-25T03:04:36Z</time>
            </trkpt>
            <trkpt lon="100.972085" lat="12.907321">
                <ele>69.300000</ele>
                <time>2018-02-25T03:04:37Z</time>
            </trkpt>
            <trkpt lon="100.972058" lat="12.907292">
                <ele>68.600000</ele>
                <time>2018-02-25T03:04:38Z</time>
            </trkpt>
            <trkpt lon="100.972044" lat="12.907259">
                <ele>68.400000</ele>
                <time>2018-02-25T03:04:39Z</time>
            </trkpt>
            <trkpt lon="100.972038" lat="12.907221">
                <ele>68.300000</ele>
                <time>2018-02-25T03:04:40Z</time>
            </trkpt>
            <trkpt lon="100.972038" lat="12.907185">
                <ele>68.200000</ele>
                <time>2018-02-25T03:04:41Z</time>
            </trkpt>
            <trkpt lon="100.972036" lat="12.907155">
                <ele>67.800000</ele>
                <time>2018-02-25T03:04:42Z</time>
            </trkpt>
            <trkpt lon="100.972032" lat="12.907125">
                <ele>67.800000</ele>
                <time>2018-02-25T03:04:43Z</time>
            </trkpt>
            <trkpt lon="100.972030" lat="12.907098">
                <ele>67.900000</ele>
                <time>2018-02-25T03:04:44Z</time>
            </trkpt>
            <trkpt lon="100.972027" lat="12.907051">
                <ele>68.100000</ele>
                <time>2018-02-25T03:04:46Z</time>
            </trkpt>
            <trkpt lon="100.972028" lat="12.907001">
                <ele>68.300000</ele>
                <time>2018-02-25T03:04:48Z</time>
            </trkpt>
            <trkpt lon="100.972030" lat="12.906963">
                <ele>68.500000</ele>
                <time>2018-02-25T03:04:50Z</time>
            </trkpt>
            <trkpt lon="100.972034" lat="12.906929">
                <ele>68.700000</ele>
                <time>2018-02-25T03:04:52Z</time>
            </trkpt>
            <trkpt lon="100.972027" lat="12.906893">
                <ele>68.900000</ele>
                <time>2018-02-25T03:04:54Z</time>
            </trkpt>
            <trkpt lon="100.971994" lat="12.906881">
                <ele>69.000000</ele>
                <time>2018-02-25T03:04:57Z</time>
            </trkpt>
            <trkpt lon="100.971975" lat="12.906907">
                <ele>68.700000</ele>
                <time>2018-02-25T03:04:59Z</time>
            </trkpt>
            <trkpt lon="100.971977" lat="12.906947">
                <ele>68.400000</ele>
                <time>2018-02-25T03:05:01Z</time>
            </trkpt>
            <trkpt lon="100.971977" lat="12.906994">
                <ele>68.100000</ele>
                <time>2018-02-25T03:05:03Z</time>
            </trkpt>
            <trkpt lon="100.971973" lat="12.907048">
                <ele>67.800000</ele>
                <time>2018-02-25T03:05:05Z</time>
            </trkpt>
            <trkpt lon="100.971970" lat="12.907076">
                <ele>67.600000</ele>
                <time>2018-02-25T03:05:06Z</time>
            </trkpt>
            <trkpt lon="100.971965" lat="12.907108">
                <ele>67.500000</ele>
                <time>2018-02-25T03:05:07Z</time>
            </trkpt>
            <trkpt lon="100.971965" lat="12.907148">
                <ele>67.300000</ele>
                <time>2018-02-25T03:05:08Z</time>
            </trkpt>
            <trkpt lon="100.971969" lat="12.907190">
                <ele>67.300000</ele>
                <time>2018-02-25T03:05:09Z</time>
            </trkpt>
            <trkpt lon="100.971978" lat="12.907232">
                <ele>67.300000</ele>
                <time>2018-02-25T03:05:10Z</time>
            </trkpt>
            <trkpt lon="100.971989" lat="12.907265">
                <ele>67.400000</ele>
                <time>2018-02-25T03:05:11Z</time>
            </trkpt>
            <trkpt lon="100.972031" lat="12.907323">
                <ele>68.000000</ele>
                <time>2018-02-25T03:05:12Z</time>
            </trkpt>
            <trkpt lon="100.972043" lat="12.907378">
                <ele>68.600000</ele>
                <time>2018-02-25T03:05:13Z</time>
            </trkpt>
            <trkpt lon="100.972052" lat="12.907419">
                <ele>68.900000</ele>
                <time>2018-02-25T03:05:14Z</time>
            </trkpt>
            <trkpt lon="100.972063" lat="12.907470">
                <ele>69.100000</ele>
                <time>2018-02-25T03:05:15Z</time>
            </trkpt>
            <trkpt lon="100.972082" lat="12.907509">
                <ele>69.100000</ele>
                <time>2018-02-25T03:05:16Z</time>
            </trkpt>
            <trkpt lon="100.972105" lat="12.907559">
                <ele>69.100000</ele>
                <time>2018-02-25T03:05:17Z</time>
            </trkpt>
            <trkpt lon="100.972113" lat="12.907601">
                <ele>69.000000</ele>
                <time>2018-02-25T03:05:18Z</time>
            </trkpt>
            <trkpt lon="100.972103" lat="12.907642">
                <ele>69.000000</ele>
                <time>2018-02-25T03:05:19Z</time>
            </trkpt>
            <trkpt lon="100.972104" lat="12.907698">
                <ele>69.200000</ele>
                <time>2018-02-25T03:05:20Z</time>
            </trkpt>
            <trkpt lon="100.972108" lat="12.907753">
                <ele>69.300000</ele>
                <time>2018-02-25T03:05:21Z</time>
            </trkpt>
            <trkpt lon="100.972122" lat="12.907803">
                <ele>69.300000</ele>
                <time>2018-02-25T03:05:22Z</time>
            </trkpt>
            <trkpt lon="100.972138" lat="12.907845">
                <ele>69.100000</ele>
                <time>2018-02-25T03:05:23Z</time>
            </trkpt>
            <trkpt lon="100.972144" lat="12.907901">
                <ele>69.000000</ele>
                <time>2018-02-25T03:05:24Z</time>
            </trkpt>
            <trkpt lon="100.972146" lat="12.907935">
                <ele>69.000000</ele>
                <time>2018-02-25T03:05:25Z</time>
            </trkpt>
            <trkpt lon="100.972151" lat="12.907982">
                <ele>69.000000</ele>
                <time>2018-02-25T03:05:26Z</time>
            </trkpt>
            <trkpt lon="100.972165" lat="12.908032">
                <ele>69.000000</ele>
                <time>2018-02-25T03:05:27Z</time>
            </trkpt>
            <trkpt lon="100.972181" lat="12.908079">
                <ele>68.800000</ele>
                <time>2018-02-25T03:05:28Z</time>
            </trkpt>
            <trkpt lon="100.972215" lat="12.908122">
                <ele>68.800000</ele>
                <time>2018-02-25T03:05:29Z</time>
            </trkpt>
            <trkpt lon="100.972239" lat="12.908169">
                <ele>69.300000</ele>
                <time>2018-02-25T03:05:30Z</time>
            </trkpt>
            <trkpt lon="100.972240" lat="12.908212">
                <ele>70.100000</ele>
                <time>2018-02-25T03:05:31Z</time>
            </trkpt>
            <trkpt lon="100.972250" lat="12.908258">
                <ele>70.600000</ele>
                <time>2018-02-25T03:05:32Z</time>
            </trkpt>
            <trkpt lon="100.972271" lat="12.908308">
                <ele>70.900000</ele>
                <time>2018-02-25T03:05:33Z</time>
            </trkpt>
            <trkpt lon="100.972289" lat="12.908349">
                <ele>71.200000</ele>
                <time>2018-02-25T03:05:34Z</time>
            </trkpt>
            <trkpt lon="100.972311" lat="12.908401">
                <ele>71.400000</ele>
                <time>2018-02-25T03:05:35Z</time>
            </trkpt>
            <trkpt lon="100.972324" lat="12.908456">
                <ele>71.900000</ele>
                <time>2018-02-25T03:05:36Z</time>
            </trkpt>
            <trkpt lon="100.972348" lat="12.908505">
                <ele>71.900000</ele>
                <time>2018-02-25T03:05:37Z</time>
            </trkpt>
            <trkpt lon="100.972366" lat="12.908549">
                <ele>72.100000</ele>
                <time>2018-02-25T03:05:38Z</time>
            </trkpt>
            <trkpt lon="100.972390" lat="12.908600">
                <ele>72.100000</ele>
                <time>2018-02-25T03:05:39Z</time>
            </trkpt>
            <trkpt lon="100.972411" lat="12.908647">
                <ele>72.100000</ele>
                <time>2018-02-25T03:05:40Z</time>
            </trkpt>
            <trkpt lon="100.972426" lat="12.908700">
                <ele>71.800000</ele>
                <time>2018-02-25T03:05:41Z</time>
            </trkpt>
            <trkpt lon="100.972459" lat="12.908745">
                <ele>71.800000</ele>
                <time>2018-02-25T03:05:42Z</time>
            </trkpt>
            <trkpt lon="100.972469" lat="12.908802">
                <ele>71.300000</ele>
                <time>2018-02-25T03:05:43Z</time>
            </trkpt>
            <trkpt lon="100.972480" lat="12.908851">
                <ele>71.100000</ele>
                <time>2018-02-25T03:05:44Z</time>
            </trkpt>
            <trkpt lon="100.972494" lat="12.908897">
                <ele>70.800000</ele>
                <time>2018-02-25T03:05:45Z</time>
            </trkpt>
            <trkpt lon="100.972518" lat="12.908940">
                <ele>70.300000</ele>
                <time>2018-02-25T03:05:46Z</time>
            </trkpt>
            <trkpt lon="100.972533" lat="12.908975">
                <ele>69.900000</ele>
                <time>2018-02-25T03:05:47Z</time>
            </trkpt>
            <trkpt lon="100.972544" lat="12.909010">
                <ele>69.400000</ele>
                <time>2018-02-25T03:05:48Z</time>
            </trkpt>
            <trkpt lon="100.972559" lat="12.909038">
                <ele>69.100000</ele>
                <time>2018-02-25T03:05:49Z</time>
            </trkpt>
            <trkpt lon="100.972575" lat="12.909066">
                <ele>69.000000</ele>
                <time>2018-02-25T03:05:50Z</time>
            </trkpt>
            <trkpt lon="100.972593" lat="12.909091">
                <ele>68.600000</ele>
                <time>2018-02-25T03:05:51Z</time>
            </trkpt>
            <trkpt lon="100.972576" lat="12.909126">
                <ele>68.200000</ele>
                <time>2018-02-25T03:05:52Z</time>
            </trkpt>
            <trkpt lon="100.972588" lat="12.909155">
                <ele>68.200000</ele>
                <time>2018-02-25T03:05:53Z</time>
            </trkpt>
            <trkpt lon="100.972597" lat="12.909184">
                <ele>68.000000</ele>
                <time>2018-02-25T03:05:54Z</time>
            </trkpt>
            <trkpt lon="100.972615" lat="12.909219">
                <ele>67.500000</ele>
                <time>2018-02-25T03:05:55Z</time>
            </trkpt>
            <trkpt lon="100.972633" lat="12.909252">
                <ele>67.100000</ele>
                <time>2018-02-25T03:05:56Z</time>
            </trkpt>
            <trkpt lon="100.972648" lat="12.909284">
                <ele>67.100000</ele>
                <time>2018-02-25T03:05:57Z</time>
            </trkpt>
            <trkpt lon="100.972663" lat="12.909316">
                <ele>66.800000</ele>
                <time>2018-02-25T03:05:58Z</time>
            </trkpt>
            <trkpt lon="100.972677" lat="12.909348">
                <ele>66.500000</ele>
                <time>2018-02-25T03:05:59Z</time>
            </trkpt>
            <trkpt lon="100.972686" lat="12.909376">
                <ele>66.100000</ele>
                <time>2018-02-25T03:06:00Z</time>
            </trkpt>
            <trkpt lon="100.972698" lat="12.909413">
                <ele>65.900000</ele>
                <time>2018-02-25T03:06:02Z</time>
            </trkpt>
            <trkpt lon="100.972708" lat="12.909442">
                <ele>65.800000</ele>
                <time>2018-02-25T03:06:04Z</time>
            </trkpt>
            <trkpt lon="100.972713" lat="12.909479">
                <ele>65.600000</ele>
                <time>2018-02-25T03:06:06Z</time>
            </trkpt>
            <trkpt lon="100.972712" lat="12.909517">
                <ele>65.300000</ele>
                <time>2018-02-25T03:06:08Z</time>
            </trkpt>
            <trkpt lon="100.972705" lat="12.909563">
                <ele>65.100000</ele>
                <time>2018-02-25T03:06:10Z</time>
            </trkpt>
            <trkpt lon="100.972704" lat="12.909617">
                <ele>64.800000</ele>
                <time>2018-02-25T03:06:12Z</time>
            </trkpt>
            <trkpt lon="100.972709" lat="12.909648">
                <ele>64.500000</ele>
                <time>2018-02-25T03:06:13Z</time>
            </trkpt>
            <trkpt lon="100.972716" lat="12.909677">
                <ele>64.300000</ele>
                <time>2018-02-25T03:06:14Z</time>
            </trkpt>
            <trkpt lon="100.972732" lat="12.909719">
                <ele>64.200000</ele>
                <time>2018-02-25T03:06:16Z</time>
            </trkpt>
            <trkpt lon="100.972759" lat="12.909764">
                <ele>64.000000</ele>
                <time>2018-02-25T03:06:18Z</time>
            </trkpt>
            <trkpt lon="100.972778" lat="12.909789">
                <ele>64.200000</ele>
                <time>2018-02-25T03:06:19Z</time>
            </trkpt>
            <trkpt lon="100.972797" lat="12.909818">
                <ele>64.200000</ele>
                <time>2018-02-25T03:06:20Z</time>
            </trkpt>
            <trkpt lon="100.972811" lat="12.909847">
                <ele>64.200000</ele>
                <time>2018-02-25T03:06:21Z</time>
            </trkpt>
            <trkpt lon="100.972821" lat="12.909878">
                <ele>64.100000</ele>
                <time>2018-02-25T03:06:22Z</time>
            </trkpt>
            <trkpt lon="100.972826" lat="12.909911">
                <ele>64.100000</ele>
                <time>2018-02-25T03:06:23Z</time>
            </trkpt>
            <trkpt lon="100.972822" lat="12.909942">
                <ele>64.100000</ele>
                <time>2018-02-25T03:06:24Z</time>
            </trkpt>
            <trkpt lon="100.972807" lat="12.909969">
                <ele>64.100000</ele>
                <time>2018-02-25T03:06:25Z</time>
            </trkpt>
            <trkpt lon="100.972748" lat="12.909995">
                <ele>64.100000</ele>
                <time>2018-02-25T03:06:26Z</time>
            </trkpt>
            <trkpt lon="100.972705" lat="12.910021">
                <ele>64.100000</ele>
                <time>2018-02-25T03:06:27Z</time>
            </trkpt>
            <trkpt lon="100.972663" lat="12.910048">
                <ele>64.100000</ele>
                <time>2018-02-25T03:06:28Z</time>
            </trkpt>
            <trkpt lon="100.972622" lat="12.910078">
                <ele>64.000000</ele>
                <time>2018-02-25T03:06:29Z</time>
            </trkpt>
            <trkpt lon="100.972584" lat="12.910092">
                <ele>64.000000</ele>
                <time>2018-02-25T03:06:30Z</time>
            </trkpt>
            <trkpt lon="100.972539" lat="12.910120">
                <ele>64.000000</ele>
                <time>2018-02-25T03:06:31Z</time>
            </trkpt>
            <trkpt lon="100.972503" lat="12.910137">
                <ele>64.000000</ele>
                <time>2018-02-25T03:06:32Z</time>
            </trkpt>
            <trkpt lon="100.972462" lat="12.910155">
                <ele>63.900000</ele>
                <time>2018-02-25T03:06:33Z</time>
            </trkpt>
            <trkpt lon="100.972418" lat="12.910177">
                <ele>63.900000</ele>
                <time>2018-02-25T03:06:34Z</time>
            </trkpt>
            <trkpt lon="100.972379" lat="12.910207">
                <ele>63.800000</ele>
                <time>2018-02-25T03:06:35Z</time>
            </trkpt>
            <trkpt lon="100.972346" lat="12.910240">
                <ele>63.700000</ele>
                <time>2018-02-25T03:06:36Z</time>
            </trkpt>
            <trkpt lon="100.972315" lat="12.910272">
                <ele>63.600000</ele>
                <time>2018-02-25T03:06:37Z</time>
            </trkpt>
            <trkpt lon="100.972280" lat="12.910308">
                <ele>63.400000</ele>
                <time>2018-02-25T03:06:38Z</time>
            </trkpt>
            <trkpt lon="100.972246" lat="12.910345">
                <ele>63.300000</ele>
                <time>2018-02-25T03:06:39Z</time>
            </trkpt>
            <trkpt lon="100.972209" lat="12.910381">
                <ele>63.300000</ele>
                <time>2018-02-25T03:06:40Z</time>
            </trkpt>
            <trkpt lon="100.972173" lat="12.910421">
                <ele>63.200000</ele>
                <time>2018-02-25T03:06:41Z</time>
            </trkpt>
            <trkpt lon="100.972145" lat="12.910461">
                <ele>63.200000</ele>
                <time>2018-02-25T03:06:42Z</time>
            </trkpt>
            <trkpt lon="100.972112" lat="12.910500">
                <ele>63.100000</ele>
                <time>2018-02-25T03:06:43Z</time>
            </trkpt>
            <trkpt lon="100.972065" lat="12.910532">
                <ele>63.000000</ele>
                <time>2018-02-25T03:06:44Z</time>
            </trkpt>
            <trkpt lon="100.972010" lat="12.910578">
                <ele>62.900000</ele>
                <time>2018-02-25T03:06:45Z</time>
            </trkpt>
            <trkpt lon="100.971984" lat="12.910624">
                <ele>62.800000</ele>
                <time>2018-02-25T03:06:46Z</time>
            </trkpt>
            <trkpt lon="100.971945" lat="12.910668">
                <ele>62.700000</ele>
                <time>2018-02-25T03:06:47Z</time>
            </trkpt>
            <trkpt lon="100.971899" lat="12.910711">
                <ele>62.600000</ele>
                <time>2018-02-25T03:06:48Z</time>
            </trkpt>
            <trkpt lon="100.971851" lat="12.910756">
                <ele>62.500000</ele>
                <time>2018-02-25T03:06:49Z</time>
            </trkpt>
            <trkpt lon="100.971813" lat="12.910801">
                <ele>62.500000</ele>
                <time>2018-02-25T03:06:50Z</time>
            </trkpt>
            <trkpt lon="100.971789" lat="12.910842">
                <ele>62.400000</ele>
                <time>2018-02-25T03:06:51Z</time>
            </trkpt>
            <trkpt lon="100.971744" lat="12.910892">
                <ele>62.300000</ele>
                <time>2018-02-25T03:06:52Z</time>
            </trkpt>
            <trkpt lon="100.971703" lat="12.910938">
                <ele>62.200000</ele>
                <time>2018-02-25T03:06:53Z</time>
            </trkpt>
            <trkpt lon="100.971668" lat="12.910989">
                <ele>62.200000</ele>
                <time>2018-02-25T03:06:54Z</time>
            </trkpt>
            <trkpt lon="100.971627" lat="12.911043">
                <ele>62.100000</ele>
                <time>2018-02-25T03:06:55Z</time>
            </trkpt>
            <trkpt lon="100.971592" lat="12.911098">
                <ele>62.000000</ele>
                <time>2018-02-25T03:06:56Z</time>
            </trkpt>
            <trkpt lon="100.971565" lat="12.911154">
                <ele>61.900000</ele>
                <time>2018-02-25T03:06:57Z</time>
            </trkpt>
            <trkpt lon="100.971545" lat="12.911206">
                <ele>61.900000</ele>
                <time>2018-02-25T03:06:58Z</time>
            </trkpt>
            <trkpt lon="100.971518" lat="12.911258">
                <ele>61.800000</ele>
                <time>2018-02-25T03:06:59Z</time>
            </trkpt>
            <trkpt lon="100.971491" lat="12.911317">
                <ele>61.700000</ele>
                <time>2018-02-25T03:07:00Z</time>
            </trkpt>
            <trkpt lon="100.971469" lat="12.911355">
                <ele>61.600000</ele>
                <time>2018-02-25T03:07:01Z</time>
            </trkpt>
            <trkpt lon="100.971441" lat="12.911407">
                <ele>61.600000</ele>
                <time>2018-02-25T03:07:02Z</time>
            </trkpt>
            <trkpt lon="100.971420" lat="12.911463">
                <ele>61.500000</ele>
                <time>2018-02-25T03:07:03Z</time>
            </trkpt>
            <trkpt lon="100.971405" lat="12.911520">
                <ele>61.500000</ele>
                <time>2018-02-25T03:07:04Z</time>
            </trkpt>
            <trkpt lon="100.971380" lat="12.911577">
                <ele>61.400000</ele>
                <time>2018-02-25T03:07:05Z</time>
            </trkpt>
            <trkpt lon="100.971354" lat="12.911636">
                <ele>61.400000</ele>
                <time>2018-02-25T03:07:06Z</time>
            </trkpt>
            <trkpt lon="100.971320" lat="12.911695">
                <ele>61.300000</ele>
                <time>2018-02-25T03:07:07Z</time>
            </trkpt>
            <trkpt lon="100.971279" lat="12.911728">
                <ele>61.300000</ele>
                <time>2018-02-25T03:07:08Z</time>
            </trkpt>
            <trkpt lon="100.971242" lat="12.911773">
                <ele>61.300000</ele>
                <time>2018-02-25T03:07:09Z</time>
            </trkpt>
            <trkpt lon="100.971201" lat="12.911824">
                <ele>61.200000</ele>
                <time>2018-02-25T03:07:10Z</time>
            </trkpt>
            <trkpt lon="100.971154" lat="12.911866">
                <ele>61.100000</ele>
                <time>2018-02-25T03:07:11Z</time>
            </trkpt>
            <trkpt lon="100.971110" lat="12.911901">
                <ele>61.100000</ele>
                <time>2018-02-25T03:07:12Z</time>
            </trkpt>
            <trkpt lon="100.971068" lat="12.911938">
                <ele>61.100000</ele>
                <time>2018-02-25T03:07:13Z</time>
            </trkpt>
            <trkpt lon="100.971033" lat="12.911966">
                <ele>61.100000</ele>
                <time>2018-02-25T03:07:14Z</time>
            </trkpt>
            <trkpt lon="100.970987" lat="12.912006">
                <ele>61.100000</ele>
                <time>2018-02-25T03:07:15Z</time>
            </trkpt>
            <trkpt lon="100.970931" lat="12.912039">
                <ele>61.100000</ele>
                <time>2018-02-25T03:07:16Z</time>
            </trkpt>
            <trkpt lon="100.970871" lat="12.912070">
                <ele>61.000000</ele>
                <time>2018-02-25T03:07:17Z</time>
            </trkpt>
            <trkpt lon="100.970811" lat="12.912104">
                <ele>61.000000</ele>
                <time>2018-02-25T03:07:18Z</time>
            </trkpt>
            <trkpt lon="100.970757" lat="12.912130">
                <ele>60.800000</ele>
                <time>2018-02-25T03:07:19Z</time>
            </trkpt>
            <trkpt lon="100.970697" lat="12.912164">
                <ele>60.500000</ele>
                <time>2018-02-25T03:07:20Z</time>
            </trkpt>
            <trkpt lon="100.970637" lat="12.912193">
                <ele>60.200000</ele>
                <time>2018-02-25T03:07:21Z</time>
            </trkpt>
            <trkpt lon="100.970581" lat="12.912223">
                <ele>59.900000</ele>
                <time>2018-02-25T03:07:22Z</time>
            </trkpt>
            <trkpt lon="100.970525" lat="12.912240">
                <ele>59.600000</ele>
                <time>2018-02-25T03:07:23Z</time>
            </trkpt>
            <trkpt lon="100.970477" lat="12.912269">
                <ele>59.500000</ele>
                <time>2018-02-25T03:07:24Z</time>
            </trkpt>
            <trkpt lon="100.970426" lat="12.912305">
                <ele>59.300000</ele>
                <time>2018-02-25T03:07:25Z</time>
            </trkpt>
            <trkpt lon="100.970376" lat="12.912329">
                <ele>59.200000</ele>
                <time>2018-02-25T03:07:26Z</time>
            </trkpt>
            <trkpt lon="100.970323" lat="12.912355">
                <ele>59.000000</ele>
                <time>2018-02-25T03:07:27Z</time>
            </trkpt>
            <trkpt lon="100.970269" lat="12.912377">
                <ele>58.800000</ele>
                <time>2018-02-25T03:07:28Z</time>
            </trkpt>
            <trkpt lon="100.970213" lat="12.912390">
                <ele>58.600000</ele>
                <time>2018-02-25T03:07:29Z</time>
            </trkpt>
            <trkpt lon="100.970159" lat="12.912394">
                <ele>58.500000</ele>
                <time>2018-02-25T03:07:30Z</time>
            </trkpt>
            <trkpt lon="100.970102" lat="12.912401">
                <ele>58.400000</ele>
                <time>2018-02-25T03:07:31Z</time>
            </trkpt>
            <trkpt lon="100.970048" lat="12.912410">
                <ele>58.200000</ele>
                <time>2018-02-25T03:07:32Z</time>
            </trkpt>
            <trkpt lon="100.969991" lat="12.912404">
                <ele>58.100000</ele>
                <time>2018-02-25T03:07:33Z</time>
            </trkpt>
            <trkpt lon="100.969932" lat="12.912395">
                <ele>58.000000</ele>
                <time>2018-02-25T03:07:34Z</time>
            </trkpt>
            <trkpt lon="100.969866" lat="12.912393">
                <ele>58.100000</ele>
                <time>2018-02-25T03:07:35Z</time>
            </trkpt>
            <trkpt lon="100.969809" lat="12.912387">
                <ele>58.100000</ele>
                <time>2018-02-25T03:07:36Z</time>
            </trkpt>
            <trkpt lon="100.969741" lat="12.912359">
                <ele>58.100000</ele>
                <time>2018-02-25T03:07:37Z</time>
            </trkpt>
            <trkpt lon="100.969697" lat="12.912351">
                <ele>58.200000</ele>
                <time>2018-02-25T03:07:38Z</time>
            </trkpt>
            <trkpt lon="100.969644" lat="12.912352">
                <ele>58.200000</ele>
                <time>2018-02-25T03:07:39Z</time>
            </trkpt>
            <trkpt lon="100.969594" lat="12.912349">
                <ele>58.200000</ele>
                <time>2018-02-25T03:07:40Z</time>
            </trkpt>
            <trkpt lon="100.969541" lat="12.912351">
                <ele>58.300000</ele>
                <time>2018-02-25T03:07:41Z</time>
            </trkpt>
            <trkpt lon="100.969497" lat="12.912353">
                <ele>58.300000</ele>
                <time>2018-02-25T03:07:42Z</time>
            </trkpt>
            <trkpt lon="100.969450" lat="12.912354">
                <ele>58.300000</ele>
                <time>2018-02-25T03:07:43Z</time>
            </trkpt>
            <trkpt lon="100.969397" lat="12.912361">
                <ele>58.400000</ele>
                <time>2018-02-25T03:07:44Z</time>
            </trkpt>
            <trkpt lon="100.969354" lat="12.912361">
                <ele>58.400000</ele>
                <time>2018-02-25T03:07:45Z</time>
            </trkpt>
            <trkpt lon="100.969309" lat="12.912375">
                <ele>58.400000</ele>
                <time>2018-02-25T03:07:46Z</time>
            </trkpt>
            <trkpt lon="100.969319" lat="12.912456">
                <ele>58.500000</ele>
                <time>2018-02-25T03:07:47Z</time>
            </trkpt>
            <trkpt lon="100.969317" lat="12.912514">
                <ele>58.500000</ele>
                <time>2018-02-25T03:07:48Z</time>
            </trkpt>
            <trkpt lon="100.969325" lat="12.912557">
                <ele>58.500000</ele>
                <time>2018-02-25T03:07:49Z</time>
            </trkpt>
            <trkpt lon="100.969325" lat="12.912617">
                <ele>58.500000</ele>
                <time>2018-02-25T03:07:50Z</time>
            </trkpt>
            <trkpt lon="100.969335" lat="12.912677">
                <ele>58.300000</ele>
                <time>2018-02-25T03:07:51Z</time>
            </trkpt>
            <trkpt lon="100.969332" lat="12.912728">
                <ele>58.100000</ele>
                <time>2018-02-25T03:07:52Z</time>
            </trkpt>
            <trkpt lon="100.969332" lat="12.912783">
                <ele>58.000000</ele>
                <time>2018-02-25T03:07:53Z</time>
            </trkpt>
            <trkpt lon="100.969330" lat="12.912837">
                <ele>57.800000</ele>
                <time>2018-02-25T03:07:54Z</time>
            </trkpt>
            <trkpt lon="100.969332" lat="12.912887">
                <ele>57.300000</ele>
                <time>2018-02-25T03:07:55Z</time>
            </trkpt>
            <trkpt lon="100.969326" lat="12.912941">
                <ele>57.000000</ele>
                <time>2018-02-25T03:07:56Z</time>
            </trkpt>
            <trkpt lon="100.969321" lat="12.912985">
                <ele>56.700000</ele>
                <time>2018-02-25T03:07:57Z</time>
            </trkpt>
            <trkpt lon="100.969324" lat="12.913025">
                <ele>56.400000</ele>
                <time>2018-02-25T03:07:58Z</time>
            </trkpt>
            <trkpt lon="100.969319" lat="12.913069">
                <ele>56.000000</ele>
                <time>2018-02-25T03:07:59Z</time>
            </trkpt>
            <trkpt lon="100.969321" lat="12.913129">
                <ele>55.700000</ele>
                <time>2018-02-25T03:08:00Z</time>
            </trkpt>
            <trkpt lon="100.969333" lat="12.913190">
                <ele>55.200000</ele>
                <time>2018-02-25T03:08:01Z</time>
            </trkpt>
            <trkpt lon="100.969332" lat="12.913234">
                <ele>54.900000</ele>
                <time>2018-02-25T03:08:02Z</time>
            </trkpt>
            <trkpt lon="100.969335" lat="12.913287">
                <ele>54.700000</ele>
                <time>2018-02-25T03:08:03Z</time>
            </trkpt>
            <trkpt lon="100.969338" lat="12.913343">
                <ele>54.400000</ele>
                <time>2018-02-25T03:08:04Z</time>
            </trkpt>
            <trkpt lon="100.969331" lat="12.913390">
                <ele>54.000000</ele>
                <time>2018-02-25T03:08:05Z</time>
            </trkpt>
            <trkpt lon="100.969348" lat="12.913433">
                <ele>53.700000</ele>
                <time>2018-02-25T03:08:06Z</time>
            </trkpt>
            <trkpt lon="100.969376" lat="12.913468">
                <ele>53.700000</ele>
                <time>2018-02-25T03:08:07Z</time>
            </trkpt>
            <trkpt lon="100.969407" lat="12.913502">
                <ele>53.600000</ele>
                <time>2018-02-25T03:08:08Z</time>
            </trkpt>
            <trkpt lon="100.969439" lat="12.913537">
                <ele>53.700000</ele>
                <time>2018-02-25T03:08:09Z</time>
            </trkpt>
            <trkpt lon="100.969468" lat="12.913575">
                <ele>53.800000</ele>
                <time>2018-02-25T03:08:10Z</time>
            </trkpt>
            <trkpt lon="100.969480" lat="12.913617">
                <ele>53.700000</ele>
                <time>2018-02-25T03:08:11Z</time>
            </trkpt>
            <trkpt lon="100.969493" lat="12.913664">
                <ele>53.800000</ele>
                <time>2018-02-25T03:08:12Z</time>
            </trkpt>
            <trkpt lon="100.969503" lat="12.913697">
                <ele>54.000000</ele>
                <time>2018-02-25T03:08:13Z</time>
            </trkpt>
            <trkpt lon="100.969500" lat="12.913741">
                <ele>54.300000</ele>
                <time>2018-02-25T03:08:14Z</time>
            </trkpt>
            <trkpt lon="100.969511" lat="12.913784">
                <ele>54.500000</ele>
                <time>2018-02-25T03:08:15Z</time>
            </trkpt>
            <trkpt lon="100.969518" lat="12.913830">
                <ele>54.700000</ele>
                <time>2018-02-25T03:08:16Z</time>
            </trkpt>
            <trkpt lon="100.969516" lat="12.913875">
                <ele>54.900000</ele>
                <time>2018-02-25T03:08:17Z</time>
            </trkpt>
            <trkpt lon="100.969503" lat="12.913929">
                <ele>55.000000</ele>
                <time>2018-02-25T03:08:18Z</time>
            </trkpt>
            <trkpt lon="100.969489" lat="12.913980">
                <ele>55.100000</ele>
                <time>2018-02-25T03:08:19Z</time>
            </trkpt>
            <trkpt lon="100.969485" lat="12.914035">
                <ele>55.100000</ele>
                <time>2018-02-25T03:08:20Z</time>
            </trkpt>
            <trkpt lon="100.969446" lat="12.914093">
                <ele>54.800000</ele>
                <time>2018-02-25T03:08:21Z</time>
            </trkpt>
            <trkpt lon="100.969410" lat="12.914134">
                <ele>54.800000</ele>
                <time>2018-02-25T03:08:22Z</time>
            </trkpt>
            <trkpt lon="100.969361" lat="12.914159">
                <ele>55.000000</ele>
                <time>2018-02-25T03:08:23Z</time>
            </trkpt>
            <trkpt lon="100.969312" lat="12.914165">
                <ele>55.300000</ele>
                <time>2018-02-25T03:08:24Z</time>
            </trkpt>
            <trkpt lon="100.969269" lat="12.914154">
                <ele>55.500000</ele>
                <time>2018-02-25T03:08:25Z</time>
            </trkpt>
            <trkpt lon="100.969233" lat="12.914135">
                <ele>55.800000</ele>
                <time>2018-02-25T03:08:26Z</time>
            </trkpt>
            <trkpt lon="100.969193" lat="12.914116">
                <ele>56.100000</ele>
                <time>2018-02-25T03:08:27Z</time>
            </trkpt>
            <trkpt lon="100.969149" lat="12.914077">
                <ele>56.400000</ele>
                <time>2018-02-25T03:08:29Z</time>
            </trkpt>
            <trkpt lon="100.969144" lat="12.914034">
                <ele>56.400000</ele>
                <time>2018-02-25T03:08:32Z</time>
            </trkpt>
            <trkpt lon="100.969096" lat="12.914031">
                <ele>56.600000</ele>
                <time>2018-02-25T03:09:01Z</time>
            </trkpt>
            <trkpt lon="100.969065" lat="12.914042">
                <ele>56.800000</ele>
                <time>2018-02-25T03:09:12Z</time>
            </trkpt>
            <trkpt lon="100.969038" lat="12.914056">
                <ele>56.800000</ele>
                <time>2018-02-25T03:09:16Z</time>
            </trkpt>
            <trkpt lon="100.969024" lat="12.914090">
                <ele>56.900000</ele>
                <time>2018-02-25T03:09:26Z</time>
            </trkpt>
            <trkpt lon="100.969010" lat="12.914121">
                <ele>56.800000</ele>
                <time>2018-02-25T03:09:31Z</time>
            </trkpt>
            <trkpt lon="100.968916" lat="12.914195">
                <ele>56.400000</ele>
                <time>2018-02-25T03:10:09Z</time>
            </trkpt>
            <trkpt lon="100.968893" lat="12.914223">
                <ele>56.200000</ele>
                <time>2018-02-25T03:10:11Z</time>
            </trkpt>
            <trkpt lon="100.968858" lat="12.914253">
                <ele>56.200000</ele>
                <time>2018-02-25T03:10:13Z</time>
            </trkpt>
            <trkpt lon="100.968831" lat="12.914287">
                <ele>55.900000</ele>
                <time>2018-02-25T03:10:15Z</time>
            </trkpt>
            <trkpt lon="100.968818" lat="12.914318">
                <ele>55.800000</ele>
                <time>2018-02-25T03:10:17Z</time>
            </trkpt>
            <trkpt lon="100.968794" lat="12.914345">
                <ele>55.800000</ele>
                <time>2018-02-25T03:10:19Z</time>
            </trkpt>
            <trkpt lon="100.968768" lat="12.914356">
                <ele>55.800000</ele>
                <time>2018-02-25T03:10:20Z</time>
            </trkpt>
            <trkpt lon="100.968730" lat="12.914358">
                <ele>55.800000</ele>
                <time>2018-02-25T03:10:21Z</time>
            </trkpt>
            <trkpt lon="100.968683" lat="12.914321">
                <ele>55.800000</ele>
                <time>2018-02-25T03:10:22Z</time>
            </trkpt>
            <trkpt lon="100.968631" lat="12.914318">
                <ele>55.900000</ele>
                <time>2018-02-25T03:10:23Z</time>
            </trkpt>
            <trkpt lon="100.968578" lat="12.914317">
                <ele>55.900000</ele>
                <time>2018-02-25T03:10:24Z</time>
            </trkpt>
            <trkpt lon="100.968515" lat="12.914314">
                <ele>56.200000</ele>
                <time>2018-02-25T03:10:25Z</time>
            </trkpt>
            <trkpt lon="100.968459" lat="12.914321">
                <ele>56.500000</ele>
                <time>2018-02-25T03:10:26Z</time>
            </trkpt>
            <trkpt lon="100.968398" lat="12.914324">
                <ele>56.700000</ele>
                <time>2018-02-25T03:10:27Z</time>
            </trkpt>
            <trkpt lon="100.968336" lat="12.914326">
                <ele>56.900000</ele>
                <time>2018-02-25T03:10:28Z</time>
            </trkpt>
            <trkpt lon="100.968279" lat="12.914331">
                <ele>56.900000</ele>
                <time>2018-02-25T03:10:29Z</time>
            </trkpt>
            <trkpt lon="100.968221" lat="12.914346">
                <ele>56.900000</ele>
                <time>2018-02-25T03:10:30Z</time>
            </trkpt>
            <trkpt lon="100.968164" lat="12.914353">
                <ele>57.300000</ele>
                <time>2018-02-25T03:10:31Z</time>
            </trkpt>
            <trkpt lon="100.968113" lat="12.914372">
                <ele>57.500000</ele>
                <time>2018-02-25T03:10:32Z</time>
            </trkpt>
            <trkpt lon="100.968087" lat="12.914407">
                <ele>57.800000</ele>
                <time>2018-02-25T03:10:33Z</time>
            </trkpt>
            <trkpt lon="100.968072" lat="12.914446">
                <ele>57.800000</ele>
                <time>2018-02-25T03:10:34Z</time>
            </trkpt>
            <trkpt lon="100.968060" lat="12.914492">
                <ele>57.800000</ele>
                <time>2018-02-25T03:10:35Z</time>
            </trkpt>
            <trkpt lon="100.968044" lat="12.914539">
                <ele>58.000000</ele>
                <time>2018-02-25T03:10:36Z</time>
            </trkpt>
            <trkpt lon="100.968039" lat="12.914582">
                <ele>58.100000</ele>
                <time>2018-02-25T03:10:37Z</time>
            </trkpt>
            <trkpt lon="100.968025" lat="12.914618">
                <ele>58.100000</ele>
                <time>2018-02-25T03:10:38Z</time>
            </trkpt>
            <trkpt lon="100.968016" lat="12.914649">
                <ele>58.100000</ele>
                <time>2018-02-25T03:10:39Z</time>
            </trkpt>
            <trkpt lon="100.968002" lat="12.914672">
                <ele>58.300000</ele>
                <time>2018-02-25T03:10:40Z</time>
            </trkpt>
            <trkpt lon="100.967983" lat="12.914693">
                <ele>58.200000</ele>
                <time>2018-02-25T03:10:41Z</time>
            </trkpt>
            <trkpt lon="100.967945" lat="12.914696">
                <ele>58.400000</ele>
                <time>2018-02-25T03:10:42Z</time>
            </trkpt>
            <trkpt lon="100.967911" lat="12.914695">
                <ele>58.500000</ele>
                <time>2018-02-25T03:10:43Z</time>
            </trkpt>
            <trkpt lon="100.967866" lat="12.914698">
                <ele>58.700000</ele>
                <time>2018-02-25T03:10:44Z</time>
            </trkpt>
            <trkpt lon="100.967813" lat="12.914707">
                <ele>59.000000</ele>
                <time>2018-02-25T03:10:45Z</time>
            </trkpt>
            <trkpt lon="100.967769" lat="12.914728">
                <ele>59.000000</ele>
                <time>2018-02-25T03:10:46Z</time>
            </trkpt>
            <trkpt lon="100.967723" lat="12.914754">
                <ele>59.300000</ele>
                <time>2018-02-25T03:10:47Z</time>
            </trkpt>
            <trkpt lon="100.967671" lat="12.914779">
                <ele>59.300000</ele>
                <time>2018-02-25T03:10:48Z</time>
            </trkpt>
            <trkpt lon="100.967629" lat="12.914804">
                <ele>59.500000</ele>
                <time>2018-02-25T03:10:49Z</time>
            </trkpt>
            <trkpt lon="100.967583" lat="12.914838">
                <ele>59.600000</ele>
                <time>2018-02-25T03:10:50Z</time>
            </trkpt>
            <trkpt lon="100.967536" lat="12.914858">
                <ele>59.600000</ele>
                <time>2018-02-25T03:10:51Z</time>
            </trkpt>
            <trkpt lon="100.967492" lat="12.914874">
                <ele>59.800000</ele>
                <time>2018-02-25T03:10:52Z</time>
            </trkpt>
            <trkpt lon="100.967452" lat="12.914868">
                <ele>60.000000</ele>
                <time>2018-02-25T03:10:53Z</time>
            </trkpt>
            <trkpt lon="100.967411" lat="12.914867">
                <ele>60.300000</ele>
                <time>2018-02-25T03:10:54Z</time>
            </trkpt>
            <trkpt lon="100.967385" lat="12.914855">
                <ele>60.600000</ele>
                <time>2018-02-25T03:10:55Z</time>
            </trkpt>
            <trkpt lon="100.967354" lat="12.914852">
                <ele>60.700000</ele>
                <time>2018-02-25T03:10:56Z</time>
            </trkpt>
            <trkpt lon="100.967314" lat="12.914843">
                <ele>61.000000</ele>
                <time>2018-02-25T03:10:57Z</time>
            </trkpt>
            <trkpt lon="100.967269" lat="12.914834">
                <ele>61.000000</ele>
                <time>2018-02-25T03:10:58Z</time>
            </trkpt>
            <trkpt lon="100.967243" lat="12.914815">
                <ele>61.000000</ele>
                <time>2018-02-25T03:10:59Z</time>
            </trkpt>
            <trkpt lon="100.967195" lat="12.914814">
                <ele>61.000000</ele>
                <time>2018-02-25T03:11:00Z</time>
            </trkpt>
            <trkpt lon="100.967156" lat="12.914832">
                <ele>60.900000</ele>
                <time>2018-02-25T03:11:01Z</time>
            </trkpt>
            <trkpt lon="100.967112" lat="12.914840">
                <ele>60.700000</ele>
                <time>2018-02-25T03:11:02Z</time>
            </trkpt>
            <trkpt lon="100.967067" lat="12.914843">
                <ele>60.500000</ele>
                <time>2018-02-25T03:11:03Z</time>
            </trkpt>
            <trkpt lon="100.967028" lat="12.914861">
                <ele>60.200000</ele>
                <time>2018-02-25T03:11:04Z</time>
            </trkpt>
            <trkpt lon="100.966987" lat="12.914883">
                <ele>60.100000</ele>
                <time>2018-02-25T03:11:05Z</time>
            </trkpt>
            <trkpt lon="100.966967" lat="12.914923">
                <ele>60.200000</ele>
                <time>2018-02-25T03:11:06Z</time>
            </trkpt>
            <trkpt lon="100.966954" lat="12.914957">
                <ele>60.200000</ele>
                <time>2018-02-25T03:11:07Z</time>
            </trkpt>
            <trkpt lon="100.966943" lat="12.914995">
                <ele>60.200000</ele>
                <time>2018-02-25T03:11:08Z</time>
            </trkpt>
            <trkpt lon="100.966926" lat="12.915039">
                <ele>60.400000</ele>
                <time>2018-02-25T03:11:09Z</time>
            </trkpt>
            <trkpt lon="100.966899" lat="12.915093">
                <ele>60.500000</ele>
                <time>2018-02-25T03:11:11Z</time>
            </trkpt>
            <trkpt lon="100.966883" lat="12.915123">
                <ele>60.900000</ele>
                <time>2018-02-25T03:11:12Z</time>
            </trkpt>
            <trkpt lon="100.966870" lat="12.915160">
                <ele>60.900000</ele>
                <time>2018-02-25T03:11:13Z</time>
            </trkpt>
            <trkpt lon="100.966861" lat="12.915199">
                <ele>60.700000</ele>
                <time>2018-02-25T03:11:14Z</time>
            </trkpt>
            <trkpt lon="100.966849" lat="12.915239">
                <ele>60.500000</ele>
                <time>2018-02-25T03:11:15Z</time>
            </trkpt>
            <trkpt lon="100.966836" lat="12.915277">
                <ele>60.400000</ele>
                <time>2018-02-25T03:11:16Z</time>
            </trkpt>
            <trkpt lon="100.966821" lat="12.915317">
                <ele>60.300000</ele>
                <time>2018-02-25T03:11:17Z</time>
            </trkpt>
            <trkpt lon="100.966806" lat="12.915360">
                <ele>60.300000</ele>
                <time>2018-02-25T03:11:18Z</time>
            </trkpt>
            <trkpt lon="100.966791" lat="12.915401">
                <ele>60.400000</ele>
                <time>2018-02-25T03:11:19Z</time>
            </trkpt>
            <trkpt lon="100.966778" lat="12.915441">
                <ele>60.300000</ele>
                <time>2018-02-25T03:11:20Z</time>
            </trkpt>
            <trkpt lon="100.966764" lat="12.915478">
                <ele>60.200000</ele>
                <time>2018-02-25T03:11:21Z</time>
            </trkpt>
            <trkpt lon="100.966747" lat="12.915518">
                <ele>60.200000</ele>
                <time>2018-02-25T03:11:22Z</time>
            </trkpt>
            <trkpt lon="100.966731" lat="12.915556">
                <ele>60.100000</ele>
                <time>2018-02-25T03:11:23Z</time>
            </trkpt>
            <trkpt lon="100.966713" lat="12.915596">
                <ele>60.200000</ele>
                <time>2018-02-25T03:11:24Z</time>
            </trkpt>
            <trkpt lon="100.966695" lat="12.915636">
                <ele>60.100000</ele>
                <time>2018-02-25T03:11:25Z</time>
            </trkpt>
            <trkpt lon="100.966654" lat="12.915673">
                <ele>60.400000</ele>
                <time>2018-02-25T03:11:26Z</time>
            </trkpt>
            <trkpt lon="100.966624" lat="12.915703">
                <ele>60.600000</ele>
                <time>2018-02-25T03:11:27Z</time>
            </trkpt>
            <trkpt lon="100.966595" lat="12.915720">
                <ele>60.600000</ele>
                <time>2018-02-25T03:11:28Z</time>
            </trkpt>
            <trkpt lon="100.966552" lat="12.915731">
                <ele>60.900000</ele>
                <time>2018-02-25T03:11:29Z</time>
            </trkpt>
            <trkpt lon="100.966515" lat="12.915736">
                <ele>61.100000</ele>
                <time>2018-02-25T03:11:30Z</time>
            </trkpt>
            <trkpt lon="100.966476" lat="12.915740">
                <ele>61.400000</ele>
                <time>2018-02-25T03:11:31Z</time>
            </trkpt>
            <trkpt lon="100.966441" lat="12.915738">
                <ele>61.700000</ele>
                <time>2018-02-25T03:11:32Z</time>
            </trkpt>
            <trkpt lon="100.966401" lat="12.915744">
                <ele>61.900000</ele>
                <time>2018-02-25T03:11:33Z</time>
            </trkpt>
            <trkpt lon="100.966364" lat="12.915736">
                <ele>62.200000</ele>
                <time>2018-02-25T03:11:34Z</time>
            </trkpt>
            <trkpt lon="100.966325" lat="12.915734">
                <ele>62.400000</ele>
                <time>2018-02-25T03:11:35Z</time>
            </trkpt>
            <trkpt lon="100.966292" lat="12.915734">
                <ele>62.400000</ele>
                <time>2018-02-25T03:11:36Z</time>
            </trkpt>
            <trkpt lon="100.966253" lat="12.915734">
                <ele>62.600000</ele>
                <time>2018-02-25T03:11:37Z</time>
            </trkpt>
            <trkpt lon="100.966217" lat="12.915735">
                <ele>62.700000</ele>
                <time>2018-02-25T03:11:38Z</time>
            </trkpt>
            <trkpt lon="100.966184" lat="12.915735">
                <ele>62.900000</ele>
                <time>2018-02-25T03:11:39Z</time>
            </trkpt>
            <trkpt lon="100.966149" lat="12.915736">
                <ele>63.000000</ele>
                <time>2018-02-25T03:11:40Z</time>
            </trkpt>
            <trkpt lon="100.966115" lat="12.915736">
                <ele>63.000000</ele>
                <time>2018-02-25T03:11:41Z</time>
            </trkpt>
            <trkpt lon="100.966079" lat="12.915735">
                <ele>63.000000</ele>
                <time>2018-02-25T03:11:42Z</time>
            </trkpt>
            <trkpt lon="100.966040" lat="12.915735">
                <ele>63.000000</ele>
                <time>2018-02-25T03:11:43Z</time>
            </trkpt>
            <trkpt lon="100.965997" lat="12.915731">
                <ele>63.000000</ele>
                <time>2018-02-25T03:11:44Z</time>
            </trkpt>
            <trkpt lon="100.965950" lat="12.915736">
                <ele>63.000000</ele>
                <time>2018-02-25T03:11:45Z</time>
            </trkpt>
            <trkpt lon="100.965906" lat="12.915746">
                <ele>62.900000</ele>
                <time>2018-02-25T03:11:46Z</time>
            </trkpt>
            <trkpt lon="100.965861" lat="12.915753">
                <ele>62.800000</ele>
                <time>2018-02-25T03:11:47Z</time>
            </trkpt>
            <trkpt lon="100.965814" lat="12.915753">
                <ele>62.600000</ele>
                <time>2018-02-25T03:11:48Z</time>
            </trkpt>
            <trkpt lon="100.965779" lat="12.915745">
                <ele>62.600000</ele>
                <time>2018-02-25T03:11:49Z</time>
            </trkpt>
            <trkpt lon="100.965745" lat="12.915721">
                <ele>62.200000</ele>
                <time>2018-02-25T03:11:50Z</time>
            </trkpt>
            <trkpt lon="100.965729" lat="12.915696">
                <ele>62.300000</ele>
                <time>2018-02-25T03:11:51Z</time>
            </trkpt>
            <trkpt lon="100.965718" lat="12.915654">
                <ele>62.100000</ele>
                <time>2018-02-25T03:11:52Z</time>
            </trkpt>
            <trkpt lon="100.965725" lat="12.915620">
                <ele>62.000000</ele>
                <time>2018-02-25T03:11:53Z</time>
            </trkpt>
            <trkpt lon="100.965729" lat="12.915583">
                <ele>61.800000</ele>
                <time>2018-02-25T03:11:54Z</time>
            </trkpt>
            <trkpt lon="100.965720" lat="12.915544">
                <ele>62.100000</ele>
                <time>2018-02-25T03:11:55Z</time>
            </trkpt>
            <trkpt lon="100.965693" lat="12.915517">
                <ele>62.100000</ele>
                <time>2018-02-25T03:11:56Z</time>
            </trkpt>
            <trkpt lon="100.965659" lat="12.915505">
                <ele>62.300000</ele>
                <time>2018-02-25T03:11:57Z</time>
            </trkpt>
            <trkpt lon="100.965625" lat="12.915491">
                <ele>62.600000</ele>
                <time>2018-02-25T03:11:58Z</time>
            </trkpt>
            <trkpt lon="100.965578" lat="12.915490">
                <ele>62.800000</ele>
                <time>2018-02-25T03:11:59Z</time>
            </trkpt>
            <trkpt lon="100.965536" lat="12.915483">
                <ele>63.000000</ele>
                <time>2018-02-25T03:12:00Z</time>
            </trkpt>
            <trkpt lon="100.965481" lat="12.915486">
                <ele>63.300000</ele>
                <time>2018-02-25T03:12:01Z</time>
            </trkpt>
            <trkpt lon="100.965426" lat="12.915486">
                <ele>63.700000</ele>
                <time>2018-02-25T03:12:02Z</time>
            </trkpt>
            <trkpt lon="100.965377" lat="12.915488">
                <ele>64.000000</ele>
                <time>2018-02-25T03:12:03Z</time>
            </trkpt>
            <trkpt lon="100.965336" lat="12.915484">
                <ele>64.200000</ele>
                <time>2018-02-25T03:12:04Z</time>
            </trkpt>
            <trkpt lon="100.965284" lat="12.915479">
                <ele>64.400000</ele>
                <time>2018-02-25T03:12:05Z</time>
            </trkpt>
            <trkpt lon="100.965241" lat="12.915473">
                <ele>64.700000</ele>
                <time>2018-02-25T03:12:06Z</time>
            </trkpt>
            <trkpt lon="100.965192" lat="12.915478">
                <ele>64.400000</ele>
                <time>2018-02-25T03:12:07Z</time>
            </trkpt>
            <trkpt lon="100.965145" lat="12.915479">
                <ele>64.400000</ele>
                <time>2018-02-25T03:12:08Z</time>
            </trkpt>
            <trkpt lon="100.965099" lat="12.915479">
                <ele>64.400000</ele>
                <time>2018-02-25T03:12:09Z</time>
            </trkpt>
            <trkpt lon="100.965039" lat="12.915473">
                <ele>64.700000</ele>
                <time>2018-02-25T03:12:10Z</time>
            </trkpt>
            <trkpt lon="100.964979" lat="12.915472">
                <ele>64.800000</ele>
                <time>2018-02-25T03:12:11Z</time>
            </trkpt>
            <trkpt lon="100.964913" lat="12.915476">
                <ele>64.500000</ele>
                <time>2018-02-25T03:12:12Z</time>
            </trkpt>
            <trkpt lon="100.964854" lat="12.915463">
                <ele>64.200000</ele>
                <time>2018-02-25T03:12:13Z</time>
            </trkpt>
            <trkpt lon="100.964786" lat="12.915471">
                <ele>64.000000</ele>
                <time>2018-02-25T03:12:14Z</time>
            </trkpt>
            <trkpt lon="100.964725" lat="12.915473">
                <ele>64.000000</ele>
                <time>2018-02-25T03:12:15Z</time>
            </trkpt>
            <trkpt lon="100.964652" lat="12.915476">
                <ele>64.500000</ele>
                <time>2018-02-25T03:12:16Z</time>
            </trkpt>
            <trkpt lon="100.964583" lat="12.915463">
                <ele>64.700000</ele>
                <time>2018-02-25T03:12:17Z</time>
            </trkpt>
            <trkpt lon="100.964515" lat="12.915468">
                <ele>64.700000</ele>
                <time>2018-02-25T03:12:18Z</time>
            </trkpt>
            <trkpt lon="100.964440" lat="12.915472">
                <ele>64.800000</ele>
                <time>2018-02-25T03:12:19Z</time>
            </trkpt>
            <trkpt lon="100.964370" lat="12.915472">
                <ele>64.800000</ele>
                <time>2018-02-25T03:12:20Z</time>
            </trkpt>
            <trkpt lon="100.964303" lat="12.915476">
                <ele>64.800000</ele>
                <time>2018-02-25T03:12:21Z</time>
            </trkpt>
            <trkpt lon="100.964237" lat="12.915480">
                <ele>64.700000</ele>
                <time>2018-02-25T03:12:22Z</time>
            </trkpt>
            <trkpt lon="100.964186" lat="12.915476">
                <ele>64.700000</ele>
                <time>2018-02-25T03:12:23Z</time>
            </trkpt>
            <trkpt lon="100.964124" lat="12.915481">
                <ele>64.700000</ele>
                <time>2018-02-25T03:12:24Z</time>
            </trkpt>
            <trkpt lon="100.964065" lat="12.915480">
                <ele>64.300000</ele>
                <time>2018-02-25T03:12:25Z</time>
            </trkpt>
            <trkpt lon="100.964002" lat="12.915483">
                <ele>63.400000</ele>
                <time>2018-02-25T03:12:26Z</time>
            </trkpt>
            <trkpt lon="100.963939" lat="12.915472">
                <ele>62.700000</ele>
                <time>2018-02-25T03:12:27Z</time>
            </trkpt>
            <trkpt lon="100.963871" lat="12.915473">
                <ele>62.100000</ele>
                <time>2018-02-25T03:12:28Z</time>
            </trkpt>
            <trkpt lon="100.963810" lat="12.915490">
                <ele>62.100000</ele>
                <time>2018-02-25T03:12:29Z</time>
            </trkpt>
            <trkpt lon="100.963741" lat="12.915496">
                <ele>61.400000</ele>
                <time>2018-02-25T03:12:30Z</time>
            </trkpt>
            <trkpt lon="100.963667" lat="12.915485">
                <ele>60.400000</ele>
                <time>2018-02-25T03:12:31Z</time>
            </trkpt>
            <trkpt lon="100.963608" lat="12.915482">
                <ele>60.000000</ele>
                <time>2018-02-25T03:12:32Z</time>
            </trkpt>
            <trkpt lon="100.963544" lat="12.915491">
                <ele>59.700000</ele>
                <time>2018-02-25T03:12:33Z</time>
            </trkpt>
            <trkpt lon="100.963488" lat="12.915509">
                <ele>59.200000</ele>
                <time>2018-02-25T03:12:34Z</time>
            </trkpt>
            <trkpt lon="100.963426" lat="12.915522">
                <ele>59.200000</ele>
                <time>2018-02-25T03:12:35Z</time>
            </trkpt>
            <trkpt lon="100.963365" lat="12.915541">
                <ele>58.700000</ele>
                <time>2018-02-25T03:12:36Z</time>
            </trkpt>
            <trkpt lon="100.963301" lat="12.915546">
                <ele>58.400000</ele>
                <time>2018-02-25T03:12:37Z</time>
            </trkpt>
            <trkpt lon="100.963238" lat="12.915552">
                <ele>58.100000</ele>
                <time>2018-02-25T03:12:38Z</time>
            </trkpt>
            <trkpt lon="100.963188" lat="12.915561">
                <ele>58.400000</ele>
                <time>2018-02-25T03:12:39Z</time>
            </trkpt>
            <trkpt lon="100.963133" lat="12.915569">
                <ele>58.400000</ele>
                <time>2018-02-25T03:12:40Z</time>
            </trkpt>
            <trkpt lon="100.963082" lat="12.915575">
                <ele>58.400000</ele>
                <time>2018-02-25T03:12:41Z</time>
            </trkpt>
            <trkpt lon="100.963031" lat="12.915584">
                <ele>58.200000</ele>
                <time>2018-02-25T03:12:42Z</time>
            </trkpt>
            <trkpt lon="100.962983" lat="12.915575">
                <ele>58.000000</ele>
                <time>2018-02-25T03:12:43Z</time>
            </trkpt>
            <trkpt lon="100.962931" lat="12.915574">
                <ele>57.500000</ele>
                <time>2018-02-25T03:12:44Z</time>
            </trkpt>
            <trkpt lon="100.962884" lat="12.915578">
                <ele>57.300000</ele>
                <time>2018-02-25T03:12:45Z</time>
            </trkpt>
            <trkpt lon="100.962847" lat="12.915587">
                <ele>57.200000</ele>
                <time>2018-02-25T03:12:46Z</time>
            </trkpt>
            <trkpt lon="100.962802" lat="12.915597">
                <ele>57.000000</ele>
                <time>2018-02-25T03:12:47Z</time>
            </trkpt>
            <trkpt lon="100.962766" lat="12.915610">
                <ele>56.900000</ele>
                <time>2018-02-25T03:12:48Z</time>
            </trkpt>
            <trkpt lon="100.962725" lat="12.915591">
                <ele>56.900000</ele>
                <time>2018-02-25T03:12:49Z</time>
            </trkpt>
            <trkpt lon="100.962687" lat="12.915590">
                <ele>56.700000</ele>
                <time>2018-02-25T03:12:50Z</time>
            </trkpt>
            <trkpt lon="100.962654" lat="12.915581">
                <ele>56.500000</ele>
                <time>2018-02-25T03:12:52Z</time>
            </trkpt>
            <trkpt lon="100.962624" lat="12.915575">
                <ele>56.500000</ele>
                <time>2018-02-25T03:12:53Z</time>
            </trkpt>
            <trkpt lon="100.962596" lat="12.915572">
                <ele>56.500000</ele>
                <time>2018-02-25T03:12:59Z</time>
            </trkpt>
            <trkpt lon="100.962546" lat="12.915588">
                <ele>56.500000</ele>
                <time>2018-02-25T03:13:03Z</time>
            </trkpt>
            <trkpt lon="100.962515" lat="12.915611">
                <ele>56.500000</ele>
                <time>2018-02-25T03:13:04Z</time>
            </trkpt>
            <trkpt lon="100.962486" lat="12.915662">
                <ele>56.500000</ele>
                <time>2018-02-25T03:13:05Z</time>
            </trkpt>
            <trkpt lon="100.962457" lat="12.915706">
                <ele>56.500000</ele>
                <time>2018-02-25T03:13:06Z</time>
            </trkpt>
            <trkpt lon="100.962427" lat="12.915759">
                <ele>56.500000</ele>
                <time>2018-02-25T03:13:07Z</time>
            </trkpt>
            <trkpt lon="100.962403" lat="12.915825">
                <ele>56.500000</ele>
                <time>2018-02-25T03:13:08Z</time>
            </trkpt>
            <trkpt lon="100.962376" lat="12.915888">
                <ele>56.500000</ele>
                <time>2018-02-25T03:13:09Z</time>
            </trkpt>
            <trkpt lon="100.962351" lat="12.915946">
                <ele>56.500000</ele>
                <time>2018-02-25T03:13:10Z</time>
            </trkpt>
            <trkpt lon="100.962327" lat="12.916008">
                <ele>56.500000</ele>
                <time>2018-02-25T03:13:11Z</time>
            </trkpt>
            <trkpt lon="100.962309" lat="12.916066">
                <ele>56.400000</ele>
                <time>2018-02-25T03:13:12Z</time>
            </trkpt>
            <trkpt lon="100.962291" lat="12.916121">
                <ele>56.300000</ele>
                <time>2018-02-25T03:13:13Z</time>
            </trkpt>
            <trkpt lon="100.962274" lat="12.916183">
                <ele>56.200000</ele>
                <time>2018-02-25T03:13:14Z</time>
            </trkpt>
            <trkpt lon="100.962253" lat="12.916233">
                <ele>56.100000</ele>
                <time>2018-02-25T03:13:15Z</time>
            </trkpt>
            <trkpt lon="100.962233" lat="12.916290">
                <ele>56.100000</ele>
                <time>2018-02-25T03:13:16Z</time>
            </trkpt>
            <trkpt lon="100.962227" lat="12.916365">
                <ele>56.000000</ele>
                <time>2018-02-25T03:13:17Z</time>
            </trkpt>
            <trkpt lon="100.962206" lat="12.916417">
                <ele>56.000000</ele>
                <time>2018-02-25T03:13:18Z</time>
            </trkpt>
            <trkpt lon="100.962183" lat="12.916467">
                <ele>55.900000</ele>
                <time>2018-02-25T03:13:19Z</time>
            </trkpt>
            <trkpt lon="100.962169" lat="12.916525">
                <ele>55.900000</ele>
                <time>2018-02-25T03:13:20Z</time>
            </trkpt>
            <trkpt lon="100.962143" lat="12.916569">
                <ele>56.000000</ele>
                <time>2018-02-25T03:13:21Z</time>
            </trkpt>
            <trkpt lon="100.962110" lat="12.916589">
                <ele>56.000000</ele>
                <time>2018-02-25T03:13:22Z</time>
            </trkpt>
            <trkpt lon="100.962056" lat="12.916599">
                <ele>56.000000</ele>
                <time>2018-02-25T03:13:23Z</time>
            </trkpt>
            <trkpt lon="100.962001" lat="12.916599">
                <ele>55.900000</ele>
                <time>2018-02-25T03:13:24Z</time>
            </trkpt>
            <trkpt lon="100.961936" lat="12.916602">
                <ele>55.900000</ele>
                <time>2018-02-25T03:13:25Z</time>
            </trkpt>
            <trkpt lon="100.961862" lat="12.916576">
                <ele>55.800000</ele>
                <time>2018-02-25T03:13:26Z</time>
            </trkpt>
            <trkpt lon="100.961789" lat="12.916569">
                <ele>55.800000</ele>
                <time>2018-02-25T03:13:27Z</time>
            </trkpt>
            <trkpt lon="100.961736" lat="12.916550">
                <ele>55.800000</ele>
                <time>2018-02-25T03:13:28Z</time>
            </trkpt>
            <trkpt lon="100.961666" lat="12.916545">
                <ele>55.800000</ele>
                <time>2018-02-25T03:13:29Z</time>
            </trkpt>
            <trkpt lon="100.961589" lat="12.916515">
                <ele>55.700000</ele>
                <time>2018-02-25T03:13:30Z</time>
            </trkpt>
            <trkpt lon="100.961517" lat="12.916523">
                <ele>55.700000</ele>
                <time>2018-02-25T03:13:31Z</time>
            </trkpt>
            <trkpt lon="100.961449" lat="12.916499">
                <ele>55.700000</ele>
                <time>2018-02-25T03:13:32Z</time>
            </trkpt>
            <trkpt lon="100.961391" lat="12.916504">
                <ele>55.700000</ele>
                <time>2018-02-25T03:13:33Z</time>
            </trkpt>
            <trkpt lon="100.961342" lat="12.916512">
                <ele>55.700000</ele>
                <time>2018-02-25T03:13:34Z</time>
            </trkpt>
            <trkpt lon="100.961306" lat="12.916534">
                <ele>55.700000</ele>
                <time>2018-02-25T03:13:35Z</time>
            </trkpt>
            <trkpt lon="100.961269" lat="12.916560">
                <ele>55.700000</ele>
                <time>2018-02-25T03:13:36Z</time>
            </trkpt>
            <trkpt lon="100.961258" lat="12.916604">
                <ele>55.700000</ele>
                <time>2018-02-25T03:13:37Z</time>
            </trkpt>
            <trkpt lon="100.961266" lat="12.916651">
                <ele>55.300000</ele>
                <time>2018-02-25T03:13:38Z</time>
            </trkpt>
            <trkpt lon="100.961262" lat="12.916704">
                <ele>55.300000</ele>
                <time>2018-02-25T03:13:39Z</time>
            </trkpt>
            <trkpt lon="100.961272" lat="12.916766">
                <ele>55.300000</ele>
                <time>2018-02-25T03:13:40Z</time>
            </trkpt>
            <trkpt lon="100.961277" lat="12.916813">
                <ele>55.300000</ele>
                <time>2018-02-25T03:13:41Z</time>
            </trkpt>
            <trkpt lon="100.961280" lat="12.916867">
                <ele>55.400000</ele>
                <time>2018-02-25T03:13:42Z</time>
            </trkpt>
            <trkpt lon="100.961281" lat="12.916923">
                <ele>55.500000</ele>
                <time>2018-02-25T03:13:43Z</time>
            </trkpt>
            <trkpt lon="100.961287" lat="12.916985">
                <ele>55.400000</ele>
                <time>2018-02-25T03:13:44Z</time>
            </trkpt>
            <trkpt lon="100.961288" lat="12.917043">
                <ele>55.000000</ele>
                <time>2018-02-25T03:13:45Z</time>
            </trkpt>
            <trkpt lon="100.961295" lat="12.917102">
                <ele>54.600000</ele>
                <time>2018-02-25T03:13:46Z</time>
            </trkpt>
            <trkpt lon="100.961304" lat="12.917154">
                <ele>53.900000</ele>
                <time>2018-02-25T03:13:47Z</time>
            </trkpt>
            <trkpt lon="100.961306" lat="12.917208">
                <ele>53.700000</ele>
                <time>2018-02-25T03:13:48Z</time>
            </trkpt>
            <trkpt lon="100.961311" lat="12.917254">
                <ele>53.700000</ele>
                <time>2018-02-25T03:13:49Z</time>
            </trkpt>
            <trkpt lon="100.961307" lat="12.917302">
                <ele>53.200000</ele>
                <time>2018-02-25T03:13:50Z</time>
            </trkpt>
            <trkpt lon="100.961301" lat="12.917350">
                <ele>52.900000</ele>
                <time>2018-02-25T03:13:51Z</time>
            </trkpt>
            <trkpt lon="100.961309" lat="12.917389">
                <ele>52.700000</ele>
                <time>2018-02-25T03:13:52Z</time>
            </trkpt>
            <trkpt lon="100.961319" lat="12.917431">
                <ele>52.200000</ele>
                <time>2018-02-25T03:13:53Z</time>
            </trkpt>
            <trkpt lon="100.961323" lat="12.917475">
                <ele>51.700000</ele>
                <time>2018-02-25T03:13:54Z</time>
            </trkpt>
            <trkpt lon="100.961339" lat="12.917513">
                <ele>51.400000</ele>
                <time>2018-02-25T03:13:55Z</time>
            </trkpt>
            <trkpt lon="100.961340" lat="12.917554">
                <ele>51.200000</ele>
                <time>2018-02-25T03:13:56Z</time>
            </trkpt>
            <trkpt lon="100.961342" lat="12.917600">
                <ele>51.000000</ele>
                <time>2018-02-25T03:13:57Z</time>
            </trkpt>
            <trkpt lon="100.961346" lat="12.917648">
                <ele>50.700000</ele>
                <time>2018-02-25T03:13:58Z</time>
            </trkpt>
            <trkpt lon="100.961350" lat="12.917692">
                <ele>50.600000</ele>
                <time>2018-02-25T03:13:59Z</time>
            </trkpt>
            <trkpt lon="100.961364" lat="12.917734">
                <ele>50.400000</ele>
                <time>2018-02-25T03:14:00Z</time>
            </trkpt>
            <trkpt lon="100.961371" lat="12.917765">
                <ele>50.500000</ele>
                <time>2018-02-25T03:14:01Z</time>
            </trkpt>
            <trkpt lon="100.961377" lat="12.917814">
                <ele>50.500000</ele>
                <time>2018-02-25T03:14:02Z</time>
            </trkpt>
            <trkpt lon="100.961390" lat="12.917861">
                <ele>51.100000</ele>
                <time>2018-02-25T03:14:03Z</time>
            </trkpt>
            <trkpt lon="100.961386" lat="12.917914">
                <ele>51.600000</ele>
                <time>2018-02-25T03:14:04Z</time>
            </trkpt>
            <trkpt lon="100.961396" lat="12.917953">
                <ele>52.100000</ele>
                <time>2018-02-25T03:14:05Z</time>
            </trkpt>
            <trkpt lon="100.961399" lat="12.917988">
                <ele>52.600000</ele>
                <time>2018-02-25T03:14:06Z</time>
            </trkpt>
            <trkpt lon="100.961403" lat="12.918018">
                <ele>52.600000</ele>
                <time>2018-02-25T03:14:07Z</time>
            </trkpt>
            <trkpt lon="100.961396" lat="12.918056">
                <ele>53.100000</ele>
                <time>2018-02-25T03:14:08Z</time>
            </trkpt>
            <trkpt lon="100.961397" lat="12.918094">
                <ele>53.600000</ele>
                <time>2018-02-25T03:14:09Z</time>
            </trkpt>
            <trkpt lon="100.961397" lat="12.918133">
                <ele>54.100000</ele>
                <time>2018-02-25T03:14:10Z</time>
            </trkpt>
            <trkpt lon="100.961399" lat="12.918172">
                <ele>54.500000</ele>
                <time>2018-02-25T03:14:11Z</time>
            </trkpt>
            <trkpt lon="100.961393" lat="12.918218">
                <ele>54.500000</ele>
                <time>2018-02-25T03:14:12Z</time>
            </trkpt>
            <trkpt lon="100.961404" lat="12.918269">
                <ele>54.500000</ele>
                <time>2018-02-25T03:14:13Z</time>
            </trkpt>
            <trkpt lon="100.961414" lat="12.918319">
                <ele>54.500000</ele>
                <time>2018-02-25T03:14:14Z</time>
            </trkpt>
            <trkpt lon="100.961410" lat="12.918363">
                <ele>54.200000</ele>
                <time>2018-02-25T03:14:15Z</time>
            </trkpt>
            <trkpt lon="100.961409" lat="12.918409">
                <ele>54.000000</ele>
                <time>2018-02-25T03:14:16Z</time>
            </trkpt>
            <trkpt lon="100.961421" lat="12.918446">
                <ele>54.000000</ele>
                <time>2018-02-25T03:14:17Z</time>
            </trkpt>
            <trkpt lon="100.961421" lat="12.918482">
                <ele>53.700000</ele>
                <time>2018-02-25T03:14:18Z</time>
            </trkpt>
            <trkpt lon="100.961433" lat="12.918514">
                <ele>53.500000</ele>
                <time>2018-02-25T03:14:19Z</time>
            </trkpt>
            <trkpt lon="100.961436" lat="12.918545">
                <ele>53.200000</ele>
                <time>2018-02-25T03:14:20Z</time>
            </trkpt>
            <trkpt lon="100.961437" lat="12.918586">
                <ele>53.000000</ele>
                <time>2018-02-25T03:14:21Z</time>
            </trkpt>
            <trkpt lon="100.961449" lat="12.918622">
                <ele>52.800000</ele>
                <time>2018-02-25T03:14:22Z</time>
            </trkpt>
            <trkpt lon="100.961454" lat="12.918649">
                <ele>52.800000</ele>
                <time>2018-02-25T03:14:23Z</time>
            </trkpt>
            <trkpt lon="100.961447" lat="12.918677">
                <ele>52.600000</ele>
                <time>2018-02-25T03:14:24Z</time>
            </trkpt>
            <trkpt lon="100.961442" lat="12.918704">
                <ele>52.600000</ele>
                <time>2018-02-25T03:14:25Z</time>
            </trkpt>
            <trkpt lon="100.961441" lat="12.918734">
                <ele>52.600000</ele>
                <time>2018-02-25T03:14:26Z</time>
            </trkpt>
            <trkpt lon="100.961445" lat="12.918765">
                <ele>52.600000</ele>
                <time>2018-02-25T03:14:27Z</time>
            </trkpt>
            <trkpt lon="100.961452" lat="12.918795">
                <ele>52.600000</ele>
                <time>2018-02-25T03:14:28Z</time>
            </trkpt>
            <trkpt lon="100.961460" lat="12.918822">
                <ele>52.600000</ele>
                <time>2018-02-25T03:14:29Z</time>
            </trkpt>
            <trkpt lon="100.961472" lat="12.918872">
                <ele>52.700000</ele>
                <time>2018-02-25T03:14:31Z</time>
            </trkpt>
            <trkpt lon="100.961478" lat="12.918915">
                <ele>52.900000</ele>
                <time>2018-02-25T03:14:33Z</time>
            </trkpt>
            <trkpt lon="100.961474" lat="12.918953">
                <ele>53.000000</ele>
                <time>2018-02-25T03:14:35Z</time>
            </trkpt>
            <trkpt lon="100.961471" lat="12.918991">
                <ele>53.200000</ele>
                <time>2018-02-25T03:14:37Z</time>
            </trkpt>
            <trkpt lon="100.961478" lat="12.919032">
                <ele>53.200000</ele>
                <time>2018-02-25T03:14:40Z</time>
            </trkpt>
            <trkpt lon="100.961480" lat="12.919069">
                <ele>53.500000</ele>
                <time>2018-02-25T03:14:42Z</time>
            </trkpt>
            <trkpt lon="100.961483" lat="12.919116">
                <ele>53.700000</ele>
                <time>2018-02-25T03:14:44Z</time>
            </trkpt>
            <trkpt lon="100.961485" lat="12.919150">
                <ele>53.800000</ele>
                <time>2018-02-25T03:14:46Z</time>
            </trkpt>
            <trkpt lon="100.961480" lat="12.919181">
                <ele>54.200000</ele>
                <time>2018-02-25T03:14:48Z</time>
            </trkpt>
            <trkpt lon="100.961472" lat="12.919207">
                <ele>54.300000</ele>
                <time>2018-02-25T03:14:50Z</time>
            </trkpt>
            <trkpt lon="100.961466" lat="12.919247">
                <ele>54.500000</ele>
                <time>2018-02-25T03:14:53Z</time>
            </trkpt>
            <trkpt lon="100.961457" lat="12.919281">
                <ele>54.500000</ele>
                <time>2018-02-25T03:14:55Z</time>
            </trkpt>
            <trkpt lon="100.961444" lat="12.919308">
                <ele>54.600000</ele>
                <time>2018-02-25T03:14:57Z</time>
            </trkpt>
            <trkpt lon="100.961440" lat="12.919349">
                <ele>54.600000</ele>
                <time>2018-02-25T03:15:00Z</time>
            </trkpt>
            <trkpt lon="100.961434" lat="12.919395">
                <ele>54.500000</ele>
                <time>2018-02-25T03:15:02Z</time>
            </trkpt>
            <trkpt lon="100.961434" lat="12.919447">
                <ele>54.400000</ele>
                <time>2018-02-25T03:15:04Z</time>
            </trkpt>
            <trkpt lon="100.961437" lat="12.919475">
                <ele>54.400000</ele>
                <time>2018-02-25T03:15:05Z</time>
            </trkpt>
            <trkpt lon="100.961438" lat="12.919506">
                <ele>53.900000</ele>
                <time>2018-02-25T03:15:06Z</time>
            </trkpt>
            <trkpt lon="100.961439" lat="12.919537">
                <ele>53.700000</ele>
                <time>2018-02-25T03:15:07Z</time>
            </trkpt>
            <trkpt lon="100.961440" lat="12.919569">
                <ele>53.700000</ele>
                <time>2018-02-25T03:15:08Z</time>
            </trkpt>
            <trkpt lon="100.961442" lat="12.919601">
                <ele>53.400000</ele>
                <time>2018-02-25T03:15:09Z</time>
            </trkpt>
            <trkpt lon="100.961445" lat="12.919634">
                <ele>53.200000</ele>
                <time>2018-02-25T03:15:10Z</time>
            </trkpt>
            <trkpt lon="100.961449" lat="12.919665">
                <ele>53.100000</ele>
                <time>2018-02-25T03:15:11Z</time>
            </trkpt>
            <trkpt lon="100.961452" lat="12.919696">
                <ele>53.100000</ele>
                <time>2018-02-25T03:15:12Z</time>
            </trkpt>
            <trkpt lon="100.961456" lat="12.919747">
                <ele>53.100000</ele>
                <time>2018-02-25T03:15:14Z</time>
            </trkpt>
            <trkpt lon="100.961458" lat="12.919776">
                <ele>53.100000</ele>
                <time>2018-02-25T03:15:16Z</time>
            </trkpt>
            <trkpt lon="100.961460" lat="12.919819">
                <ele>53.200000</ele>
                <time>2018-02-25T03:15:19Z</time>
            </trkpt>
            <trkpt lon="100.961459" lat="12.919857">
                <ele>53.300000</ele>
                <time>2018-02-25T03:15:21Z</time>
            </trkpt>
            <trkpt lon="100.961469" lat="12.919894">
                <ele>53.400000</ele>
                <time>2018-02-25T03:15:23Z</time>
            </trkpt>
            <trkpt lon="100.961480" lat="12.919925">
                <ele>53.600000</ele>
                <time>2018-02-25T03:15:25Z</time>
            </trkpt>
            <trkpt lon="100.961485" lat="12.919966">
                <ele>53.700000</ele>
                <time>2018-02-25T03:15:28Z</time>
            </trkpt>
            <trkpt lon="100.961497" lat="12.919997">
                <ele>53.800000</ele>
                <time>2018-02-25T03:15:30Z</time>
            </trkpt>
            <trkpt lon="100.961504" lat="12.920037">
                <ele>53.800000</ele>
                <time>2018-02-25T03:15:32Z</time>
            </trkpt>
            <trkpt lon="100.961506" lat="12.920079">
                <ele>53.800000</ele>
                <time>2018-02-25T03:15:34Z</time>
            </trkpt>
            <trkpt lon="100.961497" lat="12.920119">
                <ele>53.800000</ele>
                <time>2018-02-25T03:15:36Z</time>
            </trkpt>
            <trkpt lon="100.961477" lat="12.920157">
                <ele>53.800000</ele>
                <time>2018-02-25T03:15:38Z</time>
            </trkpt>
            <trkpt lon="100.961461" lat="12.920183">
                <ele>53.800000</ele>
                <time>2018-02-25T03:15:40Z</time>
            </trkpt>
            <trkpt lon="100.961476" lat="12.920207">
                <ele>53.800000</ele>
                <time>2018-02-25T03:15:45Z</time>
            </trkpt>
            <trkpt lon="100.961480" lat="12.920236">
                <ele>53.800000</ele>
                <time>2018-02-25T03:15:49Z</time>
            </trkpt>
            <trkpt lon="100.961484" lat="12.920270">
                <ele>53.800000</ele>
                <time>2018-02-25T03:15:52Z</time>
            </trkpt>
            <trkpt lon="100.961495" lat="12.920301">
                <ele>53.800000</ele>
                <time>2018-02-25T03:15:55Z</time>
            </trkpt>
            <trkpt lon="100.961501" lat="12.920331">
                <ele>53.600000</ele>
                <time>2018-02-25T03:15:59Z</time>
            </trkpt>
            <trkpt lon="100.961509" lat="12.920358">
                <ele>53.600000</ele>
                <time>2018-02-25T03:16:02Z</time>
            </trkpt>
            <trkpt lon="100.961510" lat="12.920389">
                <ele>53.400000</ele>
                <time>2018-02-25T03:16:06Z</time>
            </trkpt>
            <trkpt lon="100.961512" lat="12.920421">
                <ele>53.200000</ele>
                <time>2018-02-25T03:16:10Z</time>
            </trkpt>
            <trkpt lon="100.961513" lat="12.920449">
                <ele>53.200000</ele>
                <time>2018-02-25T03:16:12Z</time>
            </trkpt>
            <trkpt lon="100.961516" lat="12.920481">
                <ele>52.900000</ele>
                <time>2018-02-25T03:16:15Z</time>
            </trkpt>
            <trkpt lon="100.961513" lat="12.920512">
                <ele>52.700000</ele>
                <time>2018-02-25T03:16:17Z</time>
            </trkpt>
            <trkpt lon="100.961511" lat="12.920557">
                <ele>52.400000</ele>
                <time>2018-02-25T03:16:19Z</time>
            </trkpt>
            <trkpt lon="100.961506" lat="12.920586">
                <ele>52.200000</ele>
                <time>2018-02-25T03:16:20Z</time>
            </trkpt>
            <trkpt lon="100.961503" lat="12.920617">
                <ele>52.200000</ele>
                <time>2018-02-25T03:16:21Z</time>
            </trkpt>
            <trkpt lon="100.961492" lat="12.920665">
                <ele>51.700000</ele>
                <time>2018-02-25T03:16:23Z</time>
            </trkpt>
            <trkpt lon="100.961482" lat="12.920703">
                <ele>51.700000</ele>
                <time>2018-02-25T03:16:25Z</time>
            </trkpt>
            <trkpt lon="100.961471" lat="12.920735">
                <ele>51.700000</ele>
                <time>2018-02-25T03:16:27Z</time>
            </trkpt>
            <trkpt lon="100.961438" lat="12.920769">
                <ele>51.700000</ele>
                <time>2018-02-25T03:16:29Z</time>
            </trkpt>
            <trkpt lon="100.961398" lat="12.920786">
                <ele>51.800000</ele>
                <time>2018-02-25T03:16:31Z</time>
            </trkpt>
            <trkpt lon="100.961349" lat="12.920798">
                <ele>51.900000</ele>
                <time>2018-02-25T03:16:33Z</time>
            </trkpt>
            <trkpt lon="100.961304" lat="12.920799">
                <ele>51.900000</ele>
                <time>2018-02-25T03:16:35Z</time>
            </trkpt>
            <trkpt lon="100.961269" lat="12.920805">
                <ele>52.000000</ele>
                <time>2018-02-25T03:16:37Z</time>
            </trkpt>
            <trkpt lon="100.961236" lat="12.920803">
                <ele>52.000000</ele>
                <time>2018-02-25T03:16:39Z</time>
            </trkpt>
            <trkpt lon="100.961198" lat="12.920791">
                <ele>52.100000</ele>
                <time>2018-02-25T03:16:41Z</time>
            </trkpt>
            <trkpt lon="100.961156" lat="12.920784">
                <ele>52.200000</ele>
                <time>2018-02-25T03:16:43Z</time>
            </trkpt>
            <trkpt lon="100.961110" lat="12.920776">
                <ele>52.400000</ele>
                <time>2018-02-25T03:16:45Z</time>
            </trkpt>
            <trkpt lon="100.961064" lat="12.920775">
                <ele>52.600000</ele>
                <time>2018-02-25T03:16:47Z</time>
            </trkpt>
            <trkpt lon="100.961037" lat="12.920770">
                <ele>52.700000</ele>
                <time>2018-02-25T03:16:48Z</time>
            </trkpt>
            <trkpt lon="100.960984" lat="12.920754">
                <ele>53.000000</ele>
                <time>2018-02-25T03:16:50Z</time>
            </trkpt>
            <trkpt lon="100.960944" lat="12.920733">
                <ele>53.200000</ele>
                <time>2018-02-25T03:16:52Z</time>
            </trkpt>
            <trkpt lon="100.960902" lat="12.920711">
                <ele>53.400000</ele>
                <time>2018-02-25T03:16:54Z</time>
            </trkpt>
            <trkpt lon="100.960867" lat="12.920699">
                <ele>53.500000</ele>
                <time>2018-02-25T03:16:56Z</time>
            </trkpt>
            <trkpt lon="100.960820" lat="12.920700">
                <ele>53.600000</ele>
                <time>2018-02-25T03:16:58Z</time>
            </trkpt>
            <trkpt lon="100.960782" lat="12.920710">
                <ele>53.700000</ele>
                <time>2018-02-25T03:16:59Z</time>
            </trkpt>
            <trkpt lon="100.960743" lat="12.920720">
                <ele>53.700000</ele>
                <time>2018-02-25T03:17:00Z</time>
            </trkpt>
            <trkpt lon="100.960706" lat="12.920728">
                <ele>53.700000</ele>
                <time>2018-02-25T03:17:01Z</time>
            </trkpt>
            <trkpt lon="100.960674" lat="12.920736">
                <ele>53.700000</ele>
                <time>2018-02-25T03:17:02Z</time>
            </trkpt>
            <trkpt lon="100.960646" lat="12.920750">
                <ele>53.700000</ele>
                <time>2018-02-25T03:17:03Z</time>
            </trkpt>
            <trkpt lon="100.960620" lat="12.920776">
                <ele>53.800000</ele>
                <time>2018-02-25T03:17:04Z</time>
            </trkpt>
            <trkpt lon="100.960589" lat="12.920801">
                <ele>53.800000</ele>
                <time>2018-02-25T03:17:05Z</time>
            </trkpt>
            <trkpt lon="100.960553" lat="12.920812">
                <ele>53.800000</ele>
                <time>2018-02-25T03:17:06Z</time>
            </trkpt>
            <trkpt lon="100.960512" lat="12.920810">
                <ele>53.800000</ele>
                <time>2018-02-25T03:17:07Z</time>
            </trkpt>
            <trkpt lon="100.960470" lat="12.920796">
                <ele>53.800000</ele>
                <time>2018-02-25T03:17:08Z</time>
            </trkpt>
            <trkpt lon="100.960432" lat="12.920782">
                <ele>53.900000</ele>
                <time>2018-02-25T03:17:09Z</time>
            </trkpt>
            <trkpt lon="100.960395" lat="12.920752">
                <ele>53.900000</ele>
                <time>2018-02-25T03:17:10Z</time>
            </trkpt>
            <trkpt lon="100.960352" lat="12.920747">
                <ele>53.900000</ele>
                <time>2018-02-25T03:17:11Z</time>
            </trkpt>
            <trkpt lon="100.960311" lat="12.920743">
                <ele>53.900000</ele>
                <time>2018-02-25T03:17:12Z</time>
            </trkpt>
            <trkpt lon="100.960269" lat="12.920731">
                <ele>54.000000</ele>
                <time>2018-02-25T03:17:13Z</time>
            </trkpt>
            <trkpt lon="100.960222" lat="12.920720">
                <ele>54.000000</ele>
                <time>2018-02-25T03:17:14Z</time>
            </trkpt>
            <trkpt lon="100.960180" lat="12.920693">
                <ele>54.000000</ele>
                <time>2018-02-25T03:17:15Z</time>
            </trkpt>
            <trkpt lon="100.960138" lat="12.920681">
                <ele>54.100000</ele>
                <time>2018-02-25T03:17:16Z</time>
            </trkpt>
            <trkpt lon="100.960094" lat="12.920673">
                <ele>54.100000</ele>
                <time>2018-02-25T03:17:17Z</time>
            </trkpt>
            <trkpt lon="100.960050" lat="12.920642">
                <ele>54.100000</ele>
                <time>2018-02-25T03:17:18Z</time>
            </trkpt>
            <trkpt lon="100.960005" lat="12.920636">
                <ele>54.200000</ele>
                <time>2018-02-25T03:17:19Z</time>
            </trkpt>
            <trkpt lon="100.959960" lat="12.920630">
                <ele>54.200000</ele>
                <time>2018-02-25T03:17:20Z</time>
            </trkpt>
            <trkpt lon="100.959920" lat="12.920625">
                <ele>54.200000</ele>
                <time>2018-02-25T03:17:21Z</time>
            </trkpt>
            <trkpt lon="100.959872" lat="12.920615">
                <ele>54.300000</ele>
                <time>2018-02-25T03:17:22Z</time>
            </trkpt>
            <trkpt lon="100.959827" lat="12.920609">
                <ele>54.300000</ele>
                <time>2018-02-25T03:17:23Z</time>
            </trkpt>
            <trkpt lon="100.959785" lat="12.920598">
                <ele>54.300000</ele>
                <time>2018-02-25T03:17:24Z</time>
            </trkpt>
            <trkpt lon="100.959753" lat="12.920574">
                <ele>54.400000</ele>
                <time>2018-02-25T03:17:25Z</time>
            </trkpt>
            <trkpt lon="100.959705" lat="12.920565">
                <ele>54.500000</ele>
                <time>2018-02-25T03:17:26Z</time>
            </trkpt>
            <trkpt lon="100.959655" lat="12.920557">
                <ele>54.700000</ele>
                <time>2018-02-25T03:17:27Z</time>
            </trkpt>
            <trkpt lon="100.959610" lat="12.920547">
                <ele>54.900000</ele>
                <time>2018-02-25T03:17:28Z</time>
            </trkpt>
            <trkpt lon="100.959560" lat="12.920538">
                <ele>55.100000</ele>
                <time>2018-02-25T03:17:29Z</time>
            </trkpt>
            <trkpt lon="100.959515" lat="12.920534">
                <ele>55.300000</ele>
                <time>2018-02-25T03:17:30Z</time>
            </trkpt>
            <trkpt lon="100.959472" lat="12.920528">
                <ele>55.500000</ele>
                <time>2018-02-25T03:17:31Z</time>
            </trkpt>
            <trkpt lon="100.959423" lat="12.920526">
                <ele>55.800000</ele>
                <time>2018-02-25T03:17:32Z</time>
            </trkpt>
            <trkpt lon="100.959387" lat="12.920519">
                <ele>55.900000</ele>
                <time>2018-02-25T03:17:33Z</time>
            </trkpt>
            <trkpt lon="100.959344" lat="12.920519">
                <ele>56.000000</ele>
                <time>2018-02-25T03:17:34Z</time>
            </trkpt>
            <trkpt lon="100.959294" lat="12.920497">
                <ele>56.100000</ele>
                <time>2018-02-25T03:17:35Z</time>
            </trkpt>
            <trkpt lon="100.959258" lat="12.920483">
                <ele>56.200000</ele>
                <time>2018-02-25T03:17:36Z</time>
            </trkpt>
            <trkpt lon="100.959215" lat="12.920481">
                <ele>56.300000</ele>
                <time>2018-02-25T03:17:37Z</time>
            </trkpt>
            <trkpt lon="100.959177" lat="12.920462">
                <ele>56.400000</ele>
                <time>2018-02-25T03:17:38Z</time>
            </trkpt>
            <trkpt lon="100.959141" lat="12.920452">
                <ele>56.400000</ele>
                <time>2018-02-25T03:17:39Z</time>
            </trkpt>
            <trkpt lon="100.959095" lat="12.920423">
                <ele>56.500000</ele>
                <time>2018-02-25T03:17:40Z</time>
            </trkpt>
            <trkpt lon="100.959047" lat="12.920414">
                <ele>56.500000</ele>
                <time>2018-02-25T03:17:41Z</time>
            </trkpt>
            <trkpt lon="100.959004" lat="12.920408">
                <ele>56.500000</ele>
                <time>2018-02-25T03:17:42Z</time>
            </trkpt>
            <trkpt lon="100.958965" lat="12.920406">
                <ele>56.500000</ele>
                <time>2018-02-25T03:17:43Z</time>
            </trkpt>
            <trkpt lon="100.958922" lat="12.920403">
                <ele>56.600000</ele>
                <time>2018-02-25T03:17:44Z</time>
            </trkpt>
            <trkpt lon="100.958875" lat="12.920397">
                <ele>56.600000</ele>
                <time>2018-02-25T03:17:45Z</time>
            </trkpt>
            <trkpt lon="100.958829" lat="12.920398">
                <ele>56.600000</ele>
                <time>2018-02-25T03:17:46Z</time>
            </trkpt>
            <trkpt lon="100.958784" lat="12.920392">
                <ele>56.600000</ele>
                <time>2018-02-25T03:17:47Z</time>
            </trkpt>
            <trkpt lon="100.958741" lat="12.920373">
                <ele>56.700000</ele>
                <time>2018-02-25T03:17:48Z</time>
            </trkpt>
            <trkpt lon="100.958697" lat="12.920366">
                <ele>56.700000</ele>
                <time>2018-02-25T03:17:49Z</time>
            </trkpt>
            <trkpt lon="100.958649" lat="12.920362">
                <ele>56.700000</ele>
                <time>2018-02-25T03:17:50Z</time>
            </trkpt>
            <trkpt lon="100.958602" lat="12.920344">
                <ele>56.800000</ele>
                <time>2018-02-25T03:17:51Z</time>
            </trkpt>
            <trkpt lon="100.958559" lat="12.920339">
                <ele>56.800000</ele>
                <time>2018-02-25T03:17:52Z</time>
            </trkpt>
            <trkpt lon="100.958529" lat="12.920325">
                <ele>56.800000</ele>
                <time>2018-02-25T03:17:53Z</time>
            </trkpt>
            <trkpt lon="100.958483" lat="12.920304">
                <ele>56.800000</ele>
                <time>2018-02-25T03:17:54Z</time>
            </trkpt>
            <trkpt lon="100.958433" lat="12.920293">
                <ele>56.800000</ele>
                <time>2018-02-25T03:17:55Z</time>
            </trkpt>
            <trkpt lon="100.958388" lat="12.920290">
                <ele>56.800000</ele>
                <time>2018-02-25T03:17:56Z</time>
            </trkpt>
            <trkpt lon="100.958350" lat="12.920284">
                <ele>56.800000</ele>
                <time>2018-02-25T03:17:57Z</time>
            </trkpt>
            <trkpt lon="100.958308" lat="12.920292">
                <ele>56.800000</ele>
                <time>2018-02-25T03:17:58Z</time>
            </trkpt>
            <trkpt lon="100.958272" lat="12.920275">
                <ele>56.800000</ele>
                <time>2018-02-25T03:17:59Z</time>
            </trkpt>
            <trkpt lon="100.958232" lat="12.920273">
                <ele>56.800000</ele>
                <time>2018-02-25T03:18:00Z</time>
            </trkpt>
            <trkpt lon="100.958189" lat="12.920259">
                <ele>56.900000</ele>
                <time>2018-02-25T03:18:01Z</time>
            </trkpt>
            <trkpt lon="100.958142" lat="12.920263">
                <ele>56.900000</ele>
                <time>2018-02-25T03:18:02Z</time>
            </trkpt>
            <trkpt lon="100.958099" lat="12.920268">
                <ele>56.900000</ele>
                <time>2018-02-25T03:18:03Z</time>
            </trkpt>
            <trkpt lon="100.958062" lat="12.920268">
                <ele>56.900000</ele>
                <time>2018-02-25T03:18:04Z</time>
            </trkpt>
            <trkpt lon="100.958013" lat="12.920248">
                <ele>56.900000</ele>
                <time>2018-02-25T03:18:05Z</time>
            </trkpt>
            <trkpt lon="100.957969" lat="12.920244">
                <ele>56.900000</ele>
                <time>2018-02-25T03:18:06Z</time>
            </trkpt>
            <trkpt lon="100.957924" lat="12.920227">
                <ele>56.900000</ele>
                <time>2018-02-25T03:18:07Z</time>
            </trkpt>
            <trkpt lon="100.957889" lat="12.920203">
                <ele>56.900000</ele>
                <time>2018-02-25T03:18:08Z</time>
            </trkpt>
            <trkpt lon="100.957849" lat="12.920197">
                <ele>56.900000</ele>
                <time>2018-02-25T03:18:09Z</time>
            </trkpt>
            <trkpt lon="100.957806" lat="12.920206">
                <ele>56.900000</ele>
                <time>2018-02-25T03:18:10Z</time>
            </trkpt>
            <trkpt lon="100.957765" lat="12.920200">
                <ele>57.000000</ele>
                <time>2018-02-25T03:18:11Z</time>
            </trkpt>
            <trkpt lon="100.957729" lat="12.920200">
                <ele>57.000000</ele>
                <time>2018-02-25T03:18:12Z</time>
            </trkpt>
            <trkpt lon="100.957691" lat="12.920210">
                <ele>57.000000</ele>
                <time>2018-02-25T03:18:13Z</time>
            </trkpt>
            <trkpt lon="100.957655" lat="12.920229">
                <ele>57.000000</ele>
                <time>2018-02-25T03:18:14Z</time>
            </trkpt>
            <trkpt lon="100.957622" lat="12.920249">
                <ele>57.100000</ele>
                <time>2018-02-25T03:18:15Z</time>
            </trkpt>
            <trkpt lon="100.957592" lat="12.920266">
                <ele>57.500000</ele>
                <time>2018-02-25T03:18:16Z</time>
            </trkpt>
            <trkpt lon="100.957566" lat="12.920283">
                <ele>58.000000</ele>
                <time>2018-02-25T03:18:17Z</time>
            </trkpt>
            <trkpt lon="100.957541" lat="12.920307">
                <ele>58.200000</ele>
                <time>2018-02-25T03:18:18Z</time>
            </trkpt>
            <trkpt lon="100.957518" lat="12.920371">
                <ele>59.500000</ele>
                <time>2018-02-25T03:18:19Z</time>
            </trkpt>
            <trkpt lon="100.957496" lat="12.920411">
                <ele>59.500000</ele>
                <time>2018-02-25T03:18:20Z</time>
            </trkpt>
            <trkpt lon="100.957482" lat="12.920452">
                <ele>60.800000</ele>
                <time>2018-02-25T03:18:21Z</time>
            </trkpt>
            <trkpt lon="100.957479" lat="12.920486">
                <ele>61.400000</ele>
                <time>2018-02-25T03:18:22Z</time>
            </trkpt>
            <trkpt lon="100.957510" lat="12.920523">
                <ele>60.500000</ele>
                <time>2018-02-25T03:18:24Z</time>
            </trkpt>
            <trkpt lon="100.957523" lat="12.920581">
                <ele>60.500000</ele>
                <time>2018-02-25T03:18:25Z</time>
            </trkpt>
            <trkpt lon="100.957523" lat="12.920635">
                <ele>60.500000</ele>
                <time>2018-02-25T03:18:26Z</time>
            </trkpt>
            <trkpt lon="100.957523" lat="12.920697">
                <ele>60.500000</ele>
                <time>2018-02-25T03:18:27Z</time>
            </trkpt>
            <trkpt lon="100.957531" lat="12.920739">
                <ele>60.500000</ele>
                <time>2018-02-25T03:18:28Z</time>
            </trkpt>
            <trkpt lon="100.957526" lat="12.920793">
                <ele>60.500000</ele>
                <time>2018-02-25T03:18:29Z</time>
            </trkpt>
            <trkpt lon="100.957517" lat="12.920854">
                <ele>60.500000</ele>
                <time>2018-02-25T03:18:30Z</time>
            </trkpt>
            <trkpt lon="100.957518" lat="12.920909">
                <ele>60.500000</ele>
                <time>2018-02-25T03:18:31Z</time>
            </trkpt>
            <trkpt lon="100.957515" lat="12.920959">
                <ele>60.500000</ele>
                <time>2018-02-25T03:18:32Z</time>
            </trkpt>
            <trkpt lon="100.957519" lat="12.921024">
                <ele>60.400000</ele>
                <time>2018-02-25T03:18:33Z</time>
            </trkpt>
            <trkpt lon="100.957530" lat="12.921097">
                <ele>60.300000</ele>
                <time>2018-02-25T03:18:34Z</time>
            </trkpt>
            <trkpt lon="100.957559" lat="12.921174">
                <ele>59.400000</ele>
                <time>2018-02-25T03:18:35Z</time>
            </trkpt>
            <trkpt lon="100.957565" lat="12.921246">
                <ele>59.300000</ele>
                <time>2018-02-25T03:18:36Z</time>
            </trkpt>
            <trkpt lon="100.957572" lat="12.921322">
                <ele>59.200000</ele>
                <time>2018-02-25T03:18:37Z</time>
            </trkpt>
            <trkpt lon="100.957570" lat="12.921396">
                <ele>58.400000</ele>
                <time>2018-02-25T03:18:38Z</time>
            </trkpt>
            <trkpt lon="100.957577" lat="12.921469">
                <ele>56.800000</ele>
                <time>2018-02-25T03:18:39Z</time>
            </trkpt>
            <trkpt lon="100.957592" lat="12.921527">
                <ele>56.500000</ele>
                <time>2018-02-25T03:18:40Z</time>
            </trkpt>
            <trkpt lon="100.957605" lat="12.921597">
                <ele>56.100000</ele>
                <time>2018-02-25T03:18:41Z</time>
            </trkpt>
            <trkpt lon="100.957620" lat="12.921672">
                <ele>55.300000</ele>
                <time>2018-02-25T03:18:42Z</time>
            </trkpt>
            <trkpt lon="100.957632" lat="12.921741">
                <ele>55.300000</ele>
                <time>2018-02-25T03:18:43Z</time>
            </trkpt>
            <trkpt lon="100.957634" lat="12.921814">
                <ele>55.300000</ele>
                <time>2018-02-25T03:18:44Z</time>
            </trkpt>
            <trkpt lon="100.957625" lat="12.921896">
                <ele>55.700000</ele>
                <time>2018-02-25T03:18:45Z</time>
            </trkpt>
            <trkpt lon="100.957624" lat="12.921965">
                <ele>56.200000</ele>
                <time>2018-02-25T03:18:46Z</time>
            </trkpt>
            <trkpt lon="100.957620" lat="12.922036">
                <ele>56.400000</ele>
                <time>2018-02-25T03:18:47Z</time>
            </trkpt>
            <trkpt lon="100.957632" lat="12.922066">
                <ele>56.500000</ele>
                <time>2018-02-25T03:18:48Z</time>
            </trkpt>
            <trkpt lon="100.957650" lat="12.922118">
                <ele>56.700000</ele>
                <time>2018-02-25T03:18:49Z</time>
            </trkpt>
            <trkpt lon="100.957674" lat="12.922177">
                <ele>56.000000</ele>
                <time>2018-02-25T03:18:50Z</time>
            </trkpt>
            <trkpt lon="100.957706" lat="12.922228">
                <ele>55.300000</ele>
                <time>2018-02-25T03:18:51Z</time>
            </trkpt>
            <trkpt lon="100.957743" lat="12.922275">
                <ele>55.200000</ele>
                <time>2018-02-25T03:18:52Z</time>
            </trkpt>
            <trkpt lon="100.957759" lat="12.922312">
                <ele>54.800000</ele>
                <time>2018-02-25T03:18:53Z</time>
            </trkpt>
            <trkpt lon="100.957762" lat="12.922358">
                <ele>50.900000</ele>
                <time>2018-02-25T03:18:54Z</time>
            </trkpt>
            <trkpt lon="100.957772" lat="12.922387">
                <ele>50.700000</ele>
                <time>2018-02-25T03:18:55Z</time>
            </trkpt>
            <trkpt lon="100.957764" lat="12.922431">
                <ele>50.600000</ele>
                <time>2018-02-25T03:18:56Z</time>
            </trkpt>
            <trkpt lon="100.957714" lat="12.922455">
                <ele>54.400000</ele>
                <time>2018-02-25T03:18:58Z</time>
            </trkpt>
            <trkpt lon="100.957660" lat="12.922461">
                <ele>54.600000</ele>
                <time>2018-02-25T03:18:59Z</time>
            </trkpt>
            <trkpt lon="100.957591" lat="12.922458">
                <ele>54.700000</ele>
                <time>2018-02-25T03:19:00Z</time>
            </trkpt>
            <trkpt lon="100.957525" lat="12.922463">
                <ele>55.300000</ele>
                <time>2018-02-25T03:19:01Z</time>
            </trkpt>
            <trkpt lon="100.957470" lat="12.922457">
                <ele>56.300000</ele>
                <time>2018-02-25T03:19:02Z</time>
            </trkpt>
            <trkpt lon="100.957406" lat="12.922459">
                <ele>57.000000</ele>
                <time>2018-02-25T03:19:03Z</time>
            </trkpt>
            <trkpt lon="100.957337" lat="12.922466">
                <ele>58.200000</ele>
                <time>2018-02-25T03:19:04Z</time>
            </trkpt>
            <trkpt lon="100.957262" lat="12.922466">
                <ele>59.700000</ele>
                <time>2018-02-25T03:19:05Z</time>
            </trkpt>
            <trkpt lon="100.957202" lat="12.922469">
                <ele>60.200000</ele>
                <time>2018-02-25T03:19:06Z</time>
            </trkpt>
            <trkpt lon="100.957139" lat="12.922478">
                <ele>60.700000</ele>
                <time>2018-02-25T03:19:07Z</time>
            </trkpt>
            <trkpt lon="100.957072" lat="12.922489">
                <ele>61.000000</ele>
                <time>2018-02-25T03:19:08Z</time>
            </trkpt>
            <trkpt lon="100.957014" lat="12.922518">
                <ele>60.400000</ele>
                <time>2018-02-25T03:19:09Z</time>
            </trkpt>
            <trkpt lon="100.956952" lat="12.922514">
                <ele>60.100000</ele>
                <time>2018-02-25T03:19:10Z</time>
            </trkpt>
            <trkpt lon="100.956906" lat="12.922518">
                <ele>59.900000</ele>
                <time>2018-02-25T03:19:11Z</time>
            </trkpt>
            <trkpt lon="100.956854" lat="12.922542">
                <ele>59.500000</ele>
                <time>2018-02-25T03:19:12Z</time>
            </trkpt>
            <trkpt lon="100.956801" lat="12.922558">
                <ele>59.500000</ele>
                <time>2018-02-25T03:19:13Z</time>
            </trkpt>
            <trkpt lon="100.956760" lat="12.922578">
                <ele>59.500000</ele>
                <time>2018-02-25T03:19:14Z</time>
            </trkpt>
            <trkpt lon="100.956716" lat="12.922605">
                <ele>59.500000</ele>
                <time>2018-02-25T03:19:16Z</time>
            </trkpt>
            <trkpt lon="100.956705" lat="12.922631">
                <ele>59.500000</ele>
                <time>2018-02-25T03:19:17Z</time>
            </trkpt>
            <trkpt lon="100.956700" lat="12.922660">
                <ele>59.500000</ele>
                <time>2018-02-25T03:19:18Z</time>
            </trkpt>
            <trkpt lon="100.956698" lat="12.922713">
                <ele>59.400000</ele>
                <time>2018-02-25T03:19:20Z</time>
            </trkpt>
            <trkpt lon="100.956676" lat="12.922767">
                <ele>59.400000</ele>
                <time>2018-02-25T03:19:22Z</time>
            </trkpt>
            <trkpt lon="100.956653" lat="12.922791">
                <ele>58.900000</ele>
                <time>2018-02-25T03:19:23Z</time>
            </trkpt>
            <trkpt lon="100.956624" lat="12.922820">
                <ele>58.000000</ele>
                <time>2018-02-25T03:19:24Z</time>
            </trkpt>
            <trkpt lon="100.956601" lat="12.922854">
                <ele>57.900000</ele>
                <time>2018-02-25T03:19:25Z</time>
            </trkpt>
            <trkpt lon="100.956587" lat="12.922885">
                <ele>57.800000</ele>
                <time>2018-02-25T03:19:26Z</time>
            </trkpt>
            <trkpt lon="100.956574" lat="12.922920">
                <ele>57.700000</ele>
                <time>2018-02-25T03:19:27Z</time>
            </trkpt>
            <trkpt lon="100.956562" lat="12.922961">
                <ele>57.600000</ele>
                <time>2018-02-25T03:19:28Z</time>
            </trkpt>
            <trkpt lon="100.956550" lat="12.922999">
                <ele>57.400000</ele>
                <time>2018-02-25T03:19:29Z</time>
            </trkpt>
            <trkpt lon="100.956544" lat="12.923041">
                <ele>57.300000</ele>
                <time>2018-02-25T03:19:30Z</time>
            </trkpt>
            <trkpt lon="100.956563" lat="12.923089">
                <ele>57.100000</ele>
                <time>2018-02-25T03:19:31Z</time>
            </trkpt>
            <trkpt lon="100.956553" lat="12.923127">
                <ele>57.000000</ele>
                <time>2018-02-25T03:19:32Z</time>
            </trkpt>
            <trkpt lon="100.956545" lat="12.923167">
                <ele>56.900000</ele>
                <time>2018-02-25T03:19:33Z</time>
            </trkpt>
            <trkpt lon="100.956555" lat="12.923225">
                <ele>56.700000</ele>
                <time>2018-02-25T03:19:34Z</time>
            </trkpt>
            <trkpt lon="100.956561" lat="12.923277">
                <ele>56.500000</ele>
                <time>2018-02-25T03:19:35Z</time>
            </trkpt>
            <trkpt lon="100.956561" lat="12.923337">
                <ele>56.200000</ele>
                <time>2018-02-25T03:19:36Z</time>
            </trkpt>
            <trkpt lon="100.956553" lat="12.923394">
                <ele>56.000000</ele>
                <time>2018-02-25T03:19:37Z</time>
            </trkpt>
            <trkpt lon="100.956556" lat="12.923453">
                <ele>55.900000</ele>
                <time>2018-02-25T03:19:38Z</time>
            </trkpt>
            <trkpt lon="100.956555" lat="12.923516">
                <ele>55.700000</ele>
                <time>2018-02-25T03:19:39Z</time>
            </trkpt>
            <trkpt lon="100.956557" lat="12.923575">
                <ele>55.500000</ele>
                <time>2018-02-25T03:19:40Z</time>
            </trkpt>
            <trkpt lon="100.956544" lat="12.923639">
                <ele>55.200000</ele>
                <time>2018-02-25T03:19:41Z</time>
            </trkpt>
            <trkpt lon="100.956546" lat="12.923705">
                <ele>55.000000</ele>
                <time>2018-02-25T03:19:42Z</time>
            </trkpt>
            <trkpt lon="100.956549" lat="12.923760">
                <ele>54.700000</ele>
                <time>2018-02-25T03:19:43Z</time>
            </trkpt>
            <trkpt lon="100.956547" lat="12.923833">
                <ele>54.500000</ele>
                <time>2018-02-25T03:19:44Z</time>
            </trkpt>
            <trkpt lon="100.956537" lat="12.923896">
                <ele>54.300000</ele>
                <time>2018-02-25T03:19:45Z</time>
            </trkpt>
            <trkpt lon="100.956503" lat="12.923956">
                <ele>54.100000</ele>
                <time>2018-02-25T03:19:46Z</time>
            </trkpt>
            <trkpt lon="100.956477" lat="12.924010">
                <ele>53.900000</ele>
                <time>2018-02-25T03:19:47Z</time>
            </trkpt>
            <trkpt lon="100.956453" lat="12.924064">
                <ele>53.800000</ele>
                <time>2018-02-25T03:19:48Z</time>
            </trkpt>
            <trkpt lon="100.956429" lat="12.924120">
                <ele>53.700000</ele>
                <time>2018-02-25T03:19:49Z</time>
            </trkpt>
            <trkpt lon="100.956410" lat="12.924172">
                <ele>53.600000</ele>
                <time>2018-02-25T03:19:50Z</time>
            </trkpt>
            <trkpt lon="100.956408" lat="12.924216">
                <ele>53.600000</ele>
                <time>2018-02-25T03:19:51Z</time>
            </trkpt>
            <trkpt lon="100.956401" lat="12.924255">
                <ele>53.500000</ele>
                <time>2018-02-25T03:19:52Z</time>
            </trkpt>
            <trkpt lon="100.956401" lat="12.924283">
                <ele>53.500000</ele>
                <time>2018-02-25T03:19:53Z</time>
            </trkpt>
            <trkpt lon="100.956400" lat="12.924324">
                <ele>53.400000</ele>
                <time>2018-02-25T03:19:54Z</time>
            </trkpt>
            <trkpt lon="100.956399" lat="12.924356">
                <ele>53.400000</ele>
                <time>2018-02-25T03:19:55Z</time>
            </trkpt>
            <trkpt lon="100.956407" lat="12.924390">
                <ele>53.300000</ele>
                <time>2018-02-25T03:19:56Z</time>
            </trkpt>
            <trkpt lon="100.956409" lat="12.924432">
                <ele>53.300000</ele>
                <time>2018-02-25T03:19:57Z</time>
            </trkpt>
            <trkpt lon="100.956417" lat="12.924469">
                <ele>53.200000</ele>
                <time>2018-02-25T03:19:58Z</time>
            </trkpt>
            <trkpt lon="100.956417" lat="12.924496">
                <ele>53.200000</ele>
                <time>2018-02-25T03:19:59Z</time>
            </trkpt>
            <trkpt lon="100.956432" lat="12.924528">
                <ele>53.200000</ele>
                <time>2018-02-25T03:20:00Z</time>
            </trkpt>
            <trkpt lon="100.956437" lat="12.924564">
                <ele>53.100000</ele>
                <time>2018-02-25T03:20:01Z</time>
            </trkpt>
            <trkpt lon="100.956443" lat="12.924601">
                <ele>53.100000</ele>
                <time>2018-02-25T03:20:02Z</time>
            </trkpt>
            <trkpt lon="100.956448" lat="12.924644">
                <ele>53.000000</ele>
                <time>2018-02-25T03:20:03Z</time>
            </trkpt>
            <trkpt lon="100.956449" lat="12.924680">
                <ele>53.000000</ele>
                <time>2018-02-25T03:20:04Z</time>
            </trkpt>
            <trkpt lon="100.956450" lat="12.924710">
                <ele>52.900000</ele>
                <time>2018-02-25T03:20:05Z</time>
            </trkpt>
            <trkpt lon="100.956452" lat="12.924740">
                <ele>52.700000</ele>
                <time>2018-02-25T03:20:06Z</time>
            </trkpt>
            <trkpt lon="100.956457" lat="12.924769">
                <ele>52.700000</ele>
                <time>2018-02-25T03:20:07Z</time>
            </trkpt>
            <trkpt lon="100.956463" lat="12.924800">
                <ele>52.600000</ele>
                <time>2018-02-25T03:20:08Z</time>
            </trkpt>
            <trkpt lon="100.956473" lat="12.924833">
                <ele>52.500000</ele>
                <time>2018-02-25T03:20:09Z</time>
            </trkpt>
            <trkpt lon="100.956482" lat="12.924865">
                <ele>52.400000</ele>
                <time>2018-02-25T03:20:10Z</time>
            </trkpt>
            <trkpt lon="100.956486" lat="12.924901">
                <ele>52.400000</ele>
                <time>2018-02-25T03:20:11Z</time>
            </trkpt>
            <trkpt lon="100.956486" lat="12.924930">
                <ele>52.300000</ele>
                <time>2018-02-25T03:20:12Z</time>
            </trkpt>
            <trkpt lon="100.956483" lat="12.924982">
                <ele>52.200000</ele>
                <time>2018-02-25T03:20:14Z</time>
            </trkpt>
            <trkpt lon="100.956481" lat="12.925014">
                <ele>52.100000</ele>
                <time>2018-02-25T03:20:15Z</time>
            </trkpt>
            <trkpt lon="100.956479" lat="12.925052">
                <ele>52.000000</ele>
                <time>2018-02-25T03:20:16Z</time>
            </trkpt>
            <trkpt lon="100.956477" lat="12.925090">
                <ele>52.000000</ele>
                <time>2018-02-25T03:20:17Z</time>
            </trkpt>
            <trkpt lon="100.956475" lat="12.925123">
                <ele>51.900000</ele>
                <time>2018-02-25T03:20:18Z</time>
            </trkpt>
            <trkpt lon="100.956473" lat="12.925156">
                <ele>51.800000</ele>
                <time>2018-02-25T03:20:19Z</time>
            </trkpt>
            <trkpt lon="100.956472" lat="12.925189">
                <ele>51.700000</ele>
                <time>2018-02-25T03:20:20Z</time>
            </trkpt>
            <trkpt lon="100.956474" lat="12.925223">
                <ele>51.700000</ele>
                <time>2018-02-25T03:20:21Z</time>
            </trkpt>
            <trkpt lon="100.956478" lat="12.925253">
                <ele>51.600000</ele>
                <time>2018-02-25T03:20:22Z</time>
            </trkpt>
            <trkpt lon="100.956486" lat="12.925285">
                <ele>51.500000</ele>
                <time>2018-02-25T03:20:23Z</time>
            </trkpt>
            <trkpt lon="100.956495" lat="12.925322">
                <ele>51.500000</ele>
                <time>2018-02-25T03:20:24Z</time>
            </trkpt>
            <trkpt lon="100.956503" lat="12.925362">
                <ele>51.400000</ele>
                <time>2018-02-25T03:20:25Z</time>
            </trkpt>
            <trkpt lon="100.956508" lat="12.925403">
                <ele>51.400000</ele>
                <time>2018-02-25T03:20:26Z</time>
            </trkpt>
            <trkpt lon="100.956510" lat="12.925445">
                <ele>51.300000</ele>
                <time>2018-02-25T03:20:27Z</time>
            </trkpt>
            <trkpt lon="100.956513" lat="12.925486">
                <ele>51.300000</ele>
                <time>2018-02-25T03:20:28Z</time>
            </trkpt>
            <trkpt lon="100.956517" lat="12.925524">
                <ele>51.200000</ele>
                <time>2018-02-25T03:20:29Z</time>
            </trkpt>
            <trkpt lon="100.956520" lat="12.925562">
                <ele>51.200000</ele>
                <time>2018-02-25T03:20:30Z</time>
            </trkpt>
            <trkpt lon="100.956527" lat="12.925605">
                <ele>51.100000</ele>
                <time>2018-02-25T03:20:31Z</time>
            </trkpt>
            <trkpt lon="100.956532" lat="12.925647">
                <ele>51.100000</ele>
                <time>2018-02-25T03:20:32Z</time>
            </trkpt>
            <trkpt lon="100.956539" lat="12.925686">
                <ele>51.000000</ele>
                <time>2018-02-25T03:20:33Z</time>
            </trkpt>
            <trkpt lon="100.956548" lat="12.925728">
                <ele>50.900000</ele>
                <time>2018-02-25T03:20:34Z</time>
            </trkpt>
            <trkpt lon="100.956557" lat="12.925771">
                <ele>50.900000</ele>
                <time>2018-02-25T03:20:35Z</time>
            </trkpt>
            <trkpt lon="100.956570" lat="12.925824">
                <ele>50.800000</ele>
                <time>2018-02-25T03:20:36Z</time>
            </trkpt>
            <trkpt lon="100.956563" lat="12.925878">
                <ele>50.700000</ele>
                <time>2018-02-25T03:20:37Z</time>
            </trkpt>
            <trkpt lon="100.956575" lat="12.925926">
                <ele>50.600000</ele>
                <time>2018-02-25T03:20:38Z</time>
            </trkpt>
            <trkpt lon="100.956579" lat="12.925960">
                <ele>50.600000</ele>
                <time>2018-02-25T03:20:39Z</time>
            </trkpt>
            <trkpt lon="100.956602" lat="12.925989">
                <ele>50.500000</ele>
                <time>2018-02-25T03:20:40Z</time>
            </trkpt>
            <trkpt lon="100.956616" lat="12.926026">
                <ele>50.500000</ele>
                <time>2018-02-25T03:20:41Z</time>
            </trkpt>
            <trkpt lon="100.956619" lat="12.926074">
                <ele>50.400000</ele>
                <time>2018-02-25T03:20:42Z</time>
            </trkpt>
            <trkpt lon="100.956622" lat="12.926117">
                <ele>50.300000</ele>
                <time>2018-02-25T03:20:43Z</time>
            </trkpt>
            <trkpt lon="100.956604" lat="12.926167">
                <ele>50.200000</ele>
                <time>2018-02-25T03:20:44Z</time>
            </trkpt>
            <trkpt lon="100.956605" lat="12.926217">
                <ele>50.200000</ele>
                <time>2018-02-25T03:20:45Z</time>
            </trkpt>
            <trkpt lon="100.956625" lat="12.926256">
                <ele>50.100000</ele>
                <time>2018-02-25T03:20:46Z</time>
            </trkpt>
            <trkpt lon="100.956633" lat="12.926301">
                <ele>50.100000</ele>
                <time>2018-02-25T03:20:47Z</time>
            </trkpt>
            <trkpt lon="100.956621" lat="12.926346">
                <ele>50.000000</ele>
                <time>2018-02-25T03:20:48Z</time>
            </trkpt>
            <trkpt lon="100.956614" lat="12.926389">
                <ele>50.000000</ele>
                <time>2018-02-25T03:20:49Z</time>
            </trkpt>
            <trkpt lon="100.956618" lat="12.926428">
                <ele>49.900000</ele>
                <time>2018-02-25T03:20:50Z</time>
            </trkpt>
            <trkpt lon="100.956609" lat="12.926468">
                <ele>49.900000</ele>
                <time>2018-02-25T03:20:51Z</time>
            </trkpt>
            <trkpt lon="100.956607" lat="12.926510">
                <ele>49.900000</ele>
                <time>2018-02-25T03:20:52Z</time>
            </trkpt>
            <trkpt lon="100.956603" lat="12.926554">
                <ele>49.800000</ele>
                <time>2018-02-25T03:20:53Z</time>
            </trkpt>
            <trkpt lon="100.956604" lat="12.926599">
                <ele>49.800000</ele>
                <time>2018-02-25T03:20:54Z</time>
            </trkpt>
            <trkpt lon="100.956603" lat="12.926643">
                <ele>49.700000</ele>
                <time>2018-02-25T03:20:55Z</time>
            </trkpt>
            <trkpt lon="100.956610" lat="12.926684">
                <ele>49.700000</ele>
                <time>2018-02-25T03:20:56Z</time>
            </trkpt>
            <trkpt lon="100.956612" lat="12.926724">
                <ele>49.600000</ele>
                <time>2018-02-25T03:20:57Z</time>
            </trkpt>
            <trkpt lon="100.956614" lat="12.926763">
                <ele>49.600000</ele>
                <time>2018-02-25T03:20:58Z</time>
            </trkpt>
            <trkpt lon="100.956616" lat="12.926805">
                <ele>49.500000</ele>
                <time>2018-02-25T03:20:59Z</time>
            </trkpt>
            <trkpt lon="100.956616" lat="12.926846">
                <ele>49.400000</ele>
                <time>2018-02-25T03:21:00Z</time>
            </trkpt>
            <trkpt lon="100.956618" lat="12.926882">
                <ele>49.400000</ele>
                <time>2018-02-25T03:21:01Z</time>
            </trkpt>
            <trkpt lon="100.956620" lat="12.926916">
                <ele>49.300000</ele>
                <time>2018-02-25T03:21:02Z</time>
            </trkpt>
            <trkpt lon="100.956622" lat="12.926948">
                <ele>49.300000</ele>
                <time>2018-02-25T03:21:03Z</time>
            </trkpt>
            <trkpt lon="100.956623" lat="12.926980">
                <ele>49.200000</ele>
                <time>2018-02-25T03:21:04Z</time>
            </trkpt>
            <trkpt lon="100.956625" lat="12.927016">
                <ele>49.200000</ele>
                <time>2018-02-25T03:21:05Z</time>
            </trkpt>
            <trkpt lon="100.956629" lat="12.927053">
                <ele>49.100000</ele>
                <time>2018-02-25T03:21:06Z</time>
            </trkpt>
            <trkpt lon="100.956636" lat="12.927087">
                <ele>49.100000</ele>
                <time>2018-02-25T03:21:07Z</time>
            </trkpt>
            <trkpt lon="100.956646" lat="12.927125">
                <ele>49.000000</ele>
                <time>2018-02-25T03:21:08Z</time>
            </trkpt>
            <trkpt lon="100.956654" lat="12.927167">
                <ele>48.900000</ele>
                <time>2018-02-25T03:21:09Z</time>
            </trkpt>
            <trkpt lon="100.956662" lat="12.927205">
                <ele>48.900000</ele>
                <time>2018-02-25T03:21:10Z</time>
            </trkpt>
            <trkpt lon="100.956671" lat="12.927241">
                <ele>48.900000</ele>
                <time>2018-02-25T03:21:11Z</time>
            </trkpt>
            <trkpt lon="100.956678" lat="12.927268">
                <ele>48.900000</ele>
                <time>2018-02-25T03:21:12Z</time>
            </trkpt>
            <trkpt lon="100.956688" lat="12.927300">
                <ele>48.800000</ele>
                <time>2018-02-25T03:21:13Z</time>
            </trkpt>
            <trkpt lon="100.956698" lat="12.927335">
                <ele>48.800000</ele>
                <time>2018-02-25T03:21:14Z</time>
            </trkpt>
            <trkpt lon="100.956703" lat="12.927373">
                <ele>48.800000</ele>
                <time>2018-02-25T03:21:15Z</time>
            </trkpt>
            <trkpt lon="100.956705" lat="12.927412">
                <ele>48.800000</ele>
                <time>2018-02-25T03:21:16Z</time>
            </trkpt>
            <trkpt lon="100.956710" lat="12.927452">
                <ele>48.800000</ele>
                <time>2018-02-25T03:21:17Z</time>
            </trkpt>
            <trkpt lon="100.956713" lat="12.927490">
                <ele>48.700000</ele>
                <time>2018-02-25T03:21:18Z</time>
            </trkpt>
            <trkpt lon="100.956720" lat="12.927522">
                <ele>48.700000</ele>
                <time>2018-02-25T03:21:19Z</time>
            </trkpt>
            <trkpt lon="100.956728" lat="12.927552">
                <ele>48.700000</ele>
                <time>2018-02-25T03:21:20Z</time>
            </trkpt>
            <trkpt lon="100.956736" lat="12.927587">
                <ele>48.700000</ele>
                <time>2018-02-25T03:21:21Z</time>
            </trkpt>
            <trkpt lon="100.956740" lat="12.927627">
                <ele>48.600000</ele>
                <time>2018-02-25T03:21:22Z</time>
            </trkpt>
            <trkpt lon="100.956739" lat="12.927667">
                <ele>48.600000</ele>
                <time>2018-02-25T03:21:23Z</time>
            </trkpt>
            <trkpt lon="100.956739" lat="12.927708">
                <ele>48.600000</ele>
                <time>2018-02-25T03:21:24Z</time>
            </trkpt>
            <trkpt lon="100.956744" lat="12.927772">
                <ele>48.500000</ele>
                <time>2018-02-25T03:21:25Z</time>
            </trkpt>
            <trkpt lon="100.956748" lat="12.927827">
                <ele>48.400000</ele>
                <time>2018-02-25T03:21:26Z</time>
            </trkpt>
            <trkpt lon="100.956760" lat="12.927880">
                <ele>48.400000</ele>
                <time>2018-02-25T03:21:27Z</time>
            </trkpt>
            <trkpt lon="100.956749" lat="12.927930">
                <ele>48.300000</ele>
                <time>2018-02-25T03:21:28Z</time>
            </trkpt>
            <trkpt lon="100.956752" lat="12.927979">
                <ele>48.300000</ele>
                <time>2018-02-25T03:21:29Z</time>
            </trkpt>
            <trkpt lon="100.956783" lat="12.928013">
                <ele>48.200000</ele>
                <time>2018-02-25T03:21:30Z</time>
            </trkpt>
            <trkpt lon="100.956783" lat="12.928059">
                <ele>48.100000</ele>
                <time>2018-02-25T03:21:31Z</time>
            </trkpt>
            <trkpt lon="100.956777" lat="12.928109">
                <ele>48.100000</ele>
                <time>2018-02-25T03:21:32Z</time>
            </trkpt>
            <trkpt lon="100.956770" lat="12.928163">
                <ele>48.000000</ele>
                <time>2018-02-25T03:21:33Z</time>
            </trkpt>
            <trkpt lon="100.956767" lat="12.928213">
                <ele>48.000000</ele>
                <time>2018-02-25T03:21:34Z</time>
            </trkpt>
            <trkpt lon="100.956778" lat="12.928274">
                <ele>47.900000</ele>
                <time>2018-02-25T03:21:35Z</time>
            </trkpt>
            <trkpt lon="100.956790" lat="12.928324">
                <ele>47.900000</ele>
                <time>2018-02-25T03:21:36Z</time>
            </trkpt>
            <trkpt lon="100.956806" lat="12.928372">
                <ele>47.800000</ele>
                <time>2018-02-25T03:21:37Z</time>
            </trkpt>
            <trkpt lon="100.956809" lat="12.928419">
                <ele>47.800000</ele>
                <time>2018-02-25T03:21:38Z</time>
            </trkpt>
            <trkpt lon="100.956815" lat="12.928464">
                <ele>47.800000</ele>
                <time>2018-02-25T03:21:39Z</time>
            </trkpt>
            <trkpt lon="100.956822" lat="12.928508">
                <ele>47.800000</ele>
                <time>2018-02-25T03:21:40Z</time>
            </trkpt>
            <trkpt lon="100.956819" lat="12.928548">
                <ele>47.700000</ele>
                <time>2018-02-25T03:21:41Z</time>
            </trkpt>
            <trkpt lon="100.956823" lat="12.928590">
                <ele>47.700000</ele>
                <time>2018-02-25T03:21:42Z</time>
            </trkpt>
            <trkpt lon="100.956829" lat="12.928636">
                <ele>47.700000</ele>
                <time>2018-02-25T03:21:43Z</time>
            </trkpt>
            <trkpt lon="100.956834" lat="12.928672">
                <ele>47.700000</ele>
                <time>2018-02-25T03:21:44Z</time>
            </trkpt>
            <trkpt lon="100.956839" lat="12.928721">
                <ele>47.600000</ele>
                <time>2018-02-25T03:21:45Z</time>
            </trkpt>
            <trkpt lon="100.956864" lat="12.928761">
                <ele>47.600000</ele>
                <time>2018-02-25T03:21:46Z</time>
            </trkpt>
            <trkpt lon="100.956882" lat="12.928795">
                <ele>47.600000</ele>
                <time>2018-02-25T03:21:47Z</time>
            </trkpt>
            <trkpt lon="100.956906" lat="12.928828">
                <ele>47.600000</ele>
                <time>2018-02-25T03:21:48Z</time>
            </trkpt>
            <trkpt lon="100.956950" lat="12.928853">
                <ele>47.600000</ele>
                <time>2018-02-25T03:21:49Z</time>
            </trkpt>
            <trkpt lon="100.956963" lat="12.928891">
                <ele>47.600000</ele>
                <time>2018-02-25T03:21:50Z</time>
            </trkpt>
            <trkpt lon="100.956975" lat="12.928930">
                <ele>47.600000</ele>
                <time>2018-02-25T03:21:51Z</time>
            </trkpt>
            <trkpt lon="100.956973" lat="12.928975">
                <ele>47.500000</ele>
                <time>2018-02-25T03:21:52Z</time>
            </trkpt>
            <trkpt lon="100.956956" lat="12.929020">
                <ele>47.500000</ele>
                <time>2018-02-25T03:21:53Z</time>
            </trkpt>
            <trkpt lon="100.956932" lat="12.929054">
                <ele>47.500000</ele>
                <time>2018-02-25T03:21:54Z</time>
            </trkpt>
            <trkpt lon="100.956934" lat="12.929090">
                <ele>47.400000</ele>
                <time>2018-02-25T03:21:55Z</time>
            </trkpt>
            <trkpt lon="100.956914" lat="12.929140">
                <ele>47.400000</ele>
                <time>2018-02-25T03:21:56Z</time>
            </trkpt>
            <trkpt lon="100.956895" lat="12.929197">
                <ele>47.400000</ele>
                <time>2018-02-25T03:21:57Z</time>
            </trkpt>
            <trkpt lon="100.956883" lat="12.929247">
                <ele>47.400000</ele>
                <time>2018-02-25T03:21:58Z</time>
            </trkpt>
            <trkpt lon="100.956876" lat="12.929296">
                <ele>47.400000</ele>
                <time>2018-02-25T03:21:59Z</time>
            </trkpt>
            <trkpt lon="100.956868" lat="12.929352">
                <ele>47.400000</ele>
                <time>2018-02-25T03:22:00Z</time>
            </trkpt>
            <trkpt lon="100.956859" lat="12.929389">
                <ele>47.400000</ele>
                <time>2018-02-25T03:22:01Z</time>
            </trkpt>
            <trkpt lon="100.956879" lat="12.929441">
                <ele>47.400000</ele>
                <time>2018-02-25T03:22:02Z</time>
            </trkpt>
            <trkpt lon="100.956892" lat="12.929493">
                <ele>47.400000</ele>
                <time>2018-02-25T03:22:03Z</time>
            </trkpt>
            <trkpt lon="100.956901" lat="12.929554">
                <ele>47.500000</ele>
                <time>2018-02-25T03:22:04Z</time>
            </trkpt>
            <trkpt lon="100.956904" lat="12.929615">
                <ele>47.500000</ele>
                <time>2018-02-25T03:22:05Z</time>
            </trkpt>
            <trkpt lon="100.956915" lat="12.929679">
                <ele>47.500000</ele>
                <time>2018-02-25T03:22:06Z</time>
            </trkpt>
            <trkpt lon="100.956902" lat="12.929745">
                <ele>47.500000</ele>
                <time>2018-02-25T03:22:07Z</time>
            </trkpt>
            <trkpt lon="100.956911" lat="12.929815">
                <ele>47.500000</ele>
                <time>2018-02-25T03:22:08Z</time>
            </trkpt>
            <trkpt lon="100.956914" lat="12.929887">
                <ele>47.500000</ele>
                <time>2018-02-25T03:22:09Z</time>
            </trkpt>
            <trkpt lon="100.956911" lat="12.929948">
                <ele>47.500000</ele>
                <time>2018-02-25T03:22:10Z</time>
            </trkpt>
            <trkpt lon="100.956916" lat="12.930014">
                <ele>47.500000</ele>
                <time>2018-02-25T03:22:11Z</time>
            </trkpt>
            <trkpt lon="100.956922" lat="12.930088">
                <ele>47.400000</ele>
                <time>2018-02-25T03:22:12Z</time>
            </trkpt>
            <trkpt lon="100.956936" lat="12.930159">
                <ele>47.400000</ele>
                <time>2018-02-25T03:22:13Z</time>
            </trkpt>
            <trkpt lon="100.956943" lat="12.930236">
                <ele>47.400000</ele>
                <time>2018-02-25T03:22:14Z</time>
            </trkpt>
            <trkpt lon="100.956936" lat="12.930306">
                <ele>47.300000</ele>
                <time>2018-02-25T03:22:15Z</time>
            </trkpt>
            <trkpt lon="100.956947" lat="12.930375">
                <ele>47.300000</ele>
                <time>2018-02-25T03:22:16Z</time>
            </trkpt>
            <trkpt lon="100.956946" lat="12.930452">
                <ele>47.200000</ele>
                <time>2018-02-25T03:22:17Z</time>
            </trkpt>
            <trkpt lon="100.956949" lat="12.930532">
                <ele>47.200000</ele>
                <time>2018-02-25T03:22:18Z</time>
            </trkpt>
            <trkpt lon="100.956950" lat="12.930606">
                <ele>47.200000</ele>
                <time>2018-02-25T03:22:19Z</time>
            </trkpt>
            <trkpt lon="100.956977" lat="12.930670">
                <ele>47.100000</ele>
                <time>2018-02-25T03:22:20Z</time>
            </trkpt>
            <trkpt lon="100.956981" lat="12.930742">
                <ele>47.100000</ele>
                <time>2018-02-25T03:22:21Z</time>
            </trkpt>
            <trkpt lon="100.956988" lat="12.930809">
                <ele>47.100000</ele>
                <time>2018-02-25T03:22:22Z</time>
            </trkpt>
            <trkpt lon="100.956990" lat="12.930877">
                <ele>47.100000</ele>
                <time>2018-02-25T03:22:23Z</time>
            </trkpt>
            <trkpt lon="100.957000" lat="12.930949">
                <ele>47.100000</ele>
                <time>2018-02-25T03:22:24Z</time>
            </trkpt>
            <trkpt lon="100.957006" lat="12.931022">
                <ele>47.100000</ele>
                <time>2018-02-25T03:22:25Z</time>
            </trkpt>
            <trkpt lon="100.957013" lat="12.931095">
                <ele>47.100000</ele>
                <time>2018-02-25T03:22:26Z</time>
            </trkpt>
            <trkpt lon="100.957026" lat="12.931164">
                <ele>47.100000</ele>
                <time>2018-02-25T03:22:27Z</time>
            </trkpt>
            <trkpt lon="100.957028" lat="12.931237">
                <ele>47.100000</ele>
                <time>2018-02-25T03:22:28Z</time>
            </trkpt>
            <trkpt lon="100.957040" lat="12.931293">
                <ele>47.200000</ele>
                <time>2018-02-25T03:22:29Z</time>
            </trkpt>
            <trkpt lon="100.957065" lat="12.931355">
                <ele>47.200000</ele>
                <time>2018-02-25T03:22:30Z</time>
            </trkpt>
            <trkpt lon="100.957071" lat="12.931414">
                <ele>47.200000</ele>
                <time>2018-02-25T03:22:31Z</time>
            </trkpt>
            <trkpt lon="100.957081" lat="12.931479">
                <ele>47.200000</ele>
                <time>2018-02-25T03:22:32Z</time>
            </trkpt>
            <trkpt lon="100.957088" lat="12.931545">
                <ele>47.300000</ele>
                <time>2018-02-25T03:22:33Z</time>
            </trkpt>
            <trkpt lon="100.957097" lat="12.931597">
                <ele>47.300000</ele>
                <time>2018-02-25T03:22:34Z</time>
            </trkpt>
            <trkpt lon="100.957107" lat="12.931659">
                <ele>47.300000</ele>
                <time>2018-02-25T03:22:35Z</time>
            </trkpt>
            <trkpt lon="100.957108" lat="12.931725">
                <ele>47.300000</ele>
                <time>2018-02-25T03:22:36Z</time>
            </trkpt>
            <trkpt lon="100.957114" lat="12.931791">
                <ele>47.300000</ele>
                <time>2018-02-25T03:22:37Z</time>
            </trkpt>
            <trkpt lon="100.957126" lat="12.931848">
                <ele>47.400000</ele>
                <time>2018-02-25T03:22:38Z</time>
            </trkpt>
            <trkpt lon="100.957142" lat="12.931904">
                <ele>47.400000</ele>
                <time>2018-02-25T03:22:39Z</time>
            </trkpt>
            <trkpt lon="100.957155" lat="12.931958">
                <ele>47.400000</ele>
                <time>2018-02-25T03:22:40Z</time>
            </trkpt>
            <trkpt lon="100.957164" lat="12.932015">
                <ele>47.400000</ele>
                <time>2018-02-25T03:22:41Z</time>
            </trkpt>
            <trkpt lon="100.957167" lat="12.932075">
                <ele>47.400000</ele>
                <time>2018-02-25T03:22:42Z</time>
            </trkpt>
            <trkpt lon="100.957165" lat="12.932132">
                <ele>47.400000</ele>
                <time>2018-02-25T03:22:43Z</time>
            </trkpt>
            <trkpt lon="100.957188" lat="12.932185">
                <ele>47.500000</ele>
                <time>2018-02-25T03:22:44Z</time>
            </trkpt>
            <trkpt lon="100.957195" lat="12.932235">
                <ele>47.500000</ele>
                <time>2018-02-25T03:22:45Z</time>
            </trkpt>
            <trkpt lon="100.957193" lat="12.932297">
                <ele>47.500000</ele>
                <time>2018-02-25T03:22:46Z</time>
            </trkpt>
            <trkpt lon="100.957199" lat="12.932353">
                <ele>47.500000</ele>
                <time>2018-02-25T03:22:47Z</time>
            </trkpt>
            <trkpt lon="100.957189" lat="12.932399">
                <ele>47.500000</ele>
                <time>2018-02-25T03:22:48Z</time>
            </trkpt>
            <trkpt lon="100.957192" lat="12.932461">
                <ele>47.500000</ele>
                <time>2018-02-25T03:22:49Z</time>
            </trkpt>
            <trkpt lon="100.957186" lat="12.932514">
                <ele>47.600000</ele>
                <time>2018-02-25T03:22:50Z</time>
            </trkpt>
            <trkpt lon="100.957197" lat="12.932563">
                <ele>47.600000</ele>
                <time>2018-02-25T03:22:51Z</time>
            </trkpt>
            <trkpt lon="100.957192" lat="12.932618">
                <ele>47.600000</ele>
                <time>2018-02-25T03:22:52Z</time>
            </trkpt>
            <trkpt lon="100.957186" lat="12.932672">
                <ele>47.600000</ele>
                <time>2018-02-25T03:22:53Z</time>
            </trkpt>
            <trkpt lon="100.957202" lat="12.932728">
                <ele>47.600000</ele>
                <time>2018-02-25T03:22:54Z</time>
            </trkpt>
            <trkpt lon="100.957216" lat="12.932781">
                <ele>47.600000</ele>
                <time>2018-02-25T03:22:55Z</time>
            </trkpt>
            <trkpt lon="100.957230" lat="12.932837">
                <ele>47.600000</ele>
                <time>2018-02-25T03:22:56Z</time>
            </trkpt>
            <trkpt lon="100.957235" lat="12.932893">
                <ele>47.700000</ele>
                <time>2018-02-25T03:22:57Z</time>
            </trkpt>
            <trkpt lon="100.957231" lat="12.932939">
                <ele>47.700000</ele>
                <time>2018-02-25T03:22:58Z</time>
            </trkpt>
            <trkpt lon="100.957235" lat="12.932997">
                <ele>47.700000</ele>
                <time>2018-02-25T03:22:59Z</time>
            </trkpt>
            <trkpt lon="100.957248" lat="12.933046">
                <ele>47.700000</ele>
                <time>2018-02-25T03:23:00Z</time>
            </trkpt>
            <trkpt lon="100.957253" lat="12.933099">
                <ele>47.700000</ele>
                <time>2018-02-25T03:23:01Z</time>
            </trkpt>
            <trkpt lon="100.957261" lat="12.933151">
                <ele>47.700000</ele>
                <time>2018-02-25T03:23:02Z</time>
            </trkpt>
            <trkpt lon="100.957297" lat="12.933195">
                <ele>47.700000</ele>
                <time>2018-02-25T03:23:03Z</time>
            </trkpt>
            <trkpt lon="100.957319" lat="12.933241">
                <ele>47.800000</ele>
                <time>2018-02-25T03:23:04Z</time>
            </trkpt>
            <trkpt lon="100.957333" lat="12.933287">
                <ele>47.800000</ele>
                <time>2018-02-25T03:23:05Z</time>
            </trkpt>
            <trkpt lon="100.957363" lat="12.933322">
                <ele>47.800000</ele>
                <time>2018-02-25T03:23:06Z</time>
            </trkpt>
            <trkpt lon="100.957385" lat="12.933365">
                <ele>47.800000</ele>
                <time>2018-02-25T03:23:07Z</time>
            </trkpt>
            <trkpt lon="100.957414" lat="12.933400">
                <ele>47.800000</ele>
                <time>2018-02-25T03:23:08Z</time>
            </trkpt>
            <trkpt lon="100.957421" lat="12.933438">
                <ele>47.800000</ele>
                <time>2018-02-25T03:23:09Z</time>
            </trkpt>
            <trkpt lon="100.957430" lat="12.933478">
                <ele>47.800000</ele>
                <time>2018-02-25T03:23:10Z</time>
            </trkpt>
            <trkpt lon="100.957447" lat="12.933519">
                <ele>47.800000</ele>
                <time>2018-02-25T03:23:11Z</time>
            </trkpt>
            <trkpt lon="100.957467" lat="12.933552">
                <ele>47.800000</ele>
                <time>2018-02-25T03:23:12Z</time>
            </trkpt>
            <trkpt lon="100.957470" lat="12.933598">
                <ele>47.800000</ele>
                <time>2018-02-25T03:23:13Z</time>
            </trkpt>
            <trkpt lon="100.957484" lat="12.933643">
                <ele>47.800000</ele>
                <time>2018-02-25T03:23:14Z</time>
            </trkpt>
            <trkpt lon="100.957491" lat="12.933694">
                <ele>47.800000</ele>
                <time>2018-02-25T03:23:15Z</time>
            </trkpt>
            <trkpt lon="100.957495" lat="12.933749">
                <ele>47.800000</ele>
                <time>2018-02-25T03:23:16Z</time>
            </trkpt>
            <trkpt lon="100.957500" lat="12.933795">
                <ele>47.800000</ele>
                <time>2018-02-25T03:23:17Z</time>
            </trkpt>
            <trkpt lon="100.957513" lat="12.933844">
                <ele>47.800000</ele>
                <time>2018-02-25T03:23:18Z</time>
            </trkpt>
            <trkpt lon="100.957520" lat="12.933896">
                <ele>47.800000</ele>
                <time>2018-02-25T03:23:19Z</time>
            </trkpt>
            <trkpt lon="100.957533" lat="12.933940">
                <ele>47.800000</ele>
                <time>2018-02-25T03:23:20Z</time>
            </trkpt>
            <trkpt lon="100.957538" lat="12.933991">
                <ele>47.800000</ele>
                <time>2018-02-25T03:23:21Z</time>
            </trkpt>
            <trkpt lon="100.957536" lat="12.934049">
                <ele>47.800000</ele>
                <time>2018-02-25T03:23:22Z</time>
            </trkpt>
            <trkpt lon="100.957530" lat="12.934103">
                <ele>47.800000</ele>
                <time>2018-02-25T03:23:23Z</time>
            </trkpt>
            <trkpt lon="100.957532" lat="12.934148">
                <ele>47.800000</ele>
                <time>2018-02-25T03:23:24Z</time>
            </trkpt>
            <trkpt lon="100.957536" lat="12.934198">
                <ele>47.900000</ele>
                <time>2018-02-25T03:23:25Z</time>
            </trkpt>
            <trkpt lon="100.957536" lat="12.934259">
                <ele>47.900000</ele>
                <time>2018-02-25T03:23:26Z</time>
            </trkpt>
            <trkpt lon="100.957544" lat="12.934319">
                <ele>47.900000</ele>
                <time>2018-02-25T03:23:27Z</time>
            </trkpt>
            <trkpt lon="100.957550" lat="12.934371">
                <ele>47.900000</ele>
                <time>2018-02-25T03:23:28Z</time>
            </trkpt>
            <trkpt lon="100.957562" lat="12.934423">
                <ele>47.900000</ele>
                <time>2018-02-25T03:23:29Z</time>
            </trkpt>
            <trkpt lon="100.957565" lat="12.934481">
                <ele>47.900000</ele>
                <time>2018-02-25T03:23:30Z</time>
            </trkpt>
            <trkpt lon="100.957567" lat="12.934537">
                <ele>47.900000</ele>
                <time>2018-02-25T03:23:31Z</time>
            </trkpt>
            <trkpt lon="100.957570" lat="12.934595">
                <ele>48.000000</ele>
                <time>2018-02-25T03:23:32Z</time>
            </trkpt>
            <trkpt lon="100.957576" lat="12.934648">
                <ele>48.000000</ele>
                <time>2018-02-25T03:23:33Z</time>
            </trkpt>
            <trkpt lon="100.957585" lat="12.934704">
                <ele>48.000000</ele>
                <time>2018-02-25T03:23:34Z</time>
            </trkpt>
            <trkpt lon="100.957585" lat="12.934756">
                <ele>47.900000</ele>
                <time>2018-02-25T03:23:35Z</time>
            </trkpt>
            <trkpt lon="100.957597" lat="12.934812">
                <ele>47.900000</ele>
                <time>2018-02-25T03:23:36Z</time>
            </trkpt>
            <trkpt lon="100.957599" lat="12.934868">
                <ele>47.900000</ele>
                <time>2018-02-25T03:23:37Z</time>
            </trkpt>
            <trkpt lon="100.957585" lat="12.934917">
                <ele>47.900000</ele>
                <time>2018-02-25T03:23:38Z</time>
            </trkpt>
            <trkpt lon="100.957589" lat="12.934972">
                <ele>47.800000</ele>
                <time>2018-02-25T03:23:39Z</time>
            </trkpt>
            <trkpt lon="100.957582" lat="12.935038">
                <ele>47.800000</ele>
                <time>2018-02-25T03:23:40Z</time>
            </trkpt>
            <trkpt lon="100.957587" lat="12.935093">
                <ele>47.700000</ele>
                <time>2018-02-25T03:23:41Z</time>
            </trkpt>
            <trkpt lon="100.957587" lat="12.935152">
                <ele>47.700000</ele>
                <time>2018-02-25T03:23:42Z</time>
            </trkpt>
            <trkpt lon="100.957594" lat="12.935204">
                <ele>47.600000</ele>
                <time>2018-02-25T03:23:43Z</time>
            </trkpt>
            <trkpt lon="100.957580" lat="12.935267">
                <ele>47.600000</ele>
                <time>2018-02-25T03:23:44Z</time>
            </trkpt>
            <trkpt lon="100.957583" lat="12.935320">
                <ele>47.500000</ele>
                <time>2018-02-25T03:23:45Z</time>
            </trkpt>
            <trkpt lon="100.957587" lat="12.935378">
                <ele>47.400000</ele>
                <time>2018-02-25T03:23:46Z</time>
            </trkpt>
            <trkpt lon="100.957587" lat="12.935430">
                <ele>47.300000</ele>
                <time>2018-02-25T03:23:47Z</time>
            </trkpt>
            <trkpt lon="100.957589" lat="12.935484">
                <ele>47.300000</ele>
                <time>2018-02-25T03:23:48Z</time>
            </trkpt>
            <trkpt lon="100.957600" lat="12.935538">
                <ele>47.200000</ele>
                <time>2018-02-25T03:23:49Z</time>
            </trkpt>
            <trkpt lon="100.957598" lat="12.935601">
                <ele>47.100000</ele>
                <time>2018-02-25T03:23:50Z</time>
            </trkpt>
            <trkpt lon="100.957597" lat="12.935656">
                <ele>47.100000</ele>
                <time>2018-02-25T03:23:51Z</time>
            </trkpt>
            <trkpt lon="100.957599" lat="12.935710">
                <ele>47.000000</ele>
                <time>2018-02-25T03:23:52Z</time>
            </trkpt>
            <trkpt lon="100.957592" lat="12.935762">
                <ele>47.000000</ele>
                <time>2018-02-25T03:23:53Z</time>
            </trkpt>
            <trkpt lon="100.957603" lat="12.935811">
                <ele>47.000000</ele>
                <time>2018-02-25T03:23:54Z</time>
            </trkpt>
            <trkpt lon="100.957604" lat="12.935868">
                <ele>47.100000</ele>
                <time>2018-02-25T03:23:55Z</time>
            </trkpt>
            <trkpt lon="100.957619" lat="12.935920">
                <ele>47.100000</ele>
                <time>2018-02-25T03:23:56Z</time>
            </trkpt>
            <trkpt lon="100.957647" lat="12.935965">
                <ele>47.200000</ele>
                <time>2018-02-25T03:23:57Z</time>
            </trkpt>
            <trkpt lon="100.957658" lat="12.936018">
                <ele>47.300000</ele>
                <time>2018-02-25T03:23:58Z</time>
            </trkpt>
            <trkpt lon="100.957660" lat="12.936059">
                <ele>47.300000</ele>
                <time>2018-02-25T03:23:59Z</time>
            </trkpt>
            <trkpt lon="100.957645" lat="12.936101">
                <ele>47.400000</ele>
                <time>2018-02-25T03:24:00Z</time>
            </trkpt>
            <trkpt lon="100.957622" lat="12.936128">
                <ele>47.400000</ele>
                <time>2018-02-25T03:24:01Z</time>
            </trkpt>
            <trkpt lon="100.957596" lat="12.936142">
                <ele>47.500000</ele>
                <time>2018-02-25T03:24:02Z</time>
            </trkpt>
            <trkpt lon="100.957566" lat="12.936139">
                <ele>47.900000</ele>
                <time>2018-02-25T03:24:03Z</time>
            </trkpt>
            <trkpt lon="100.957525" lat="12.936132">
                <ele>48.000000</ele>
                <time>2018-02-25T03:24:04Z</time>
            </trkpt>
            <trkpt lon="100.957490" lat="12.936121">
                <ele>48.000000</ele>
                <time>2018-02-25T03:24:05Z</time>
            </trkpt>
            <trkpt lon="100.957452" lat="12.936112">
                <ele>48.100000</ele>
                <time>2018-02-25T03:24:06Z</time>
            </trkpt>
            <trkpt lon="100.957407" lat="12.936093">
                <ele>48.200000</ele>
                <time>2018-02-25T03:24:07Z</time>
            </trkpt>
            <trkpt lon="100.957366" lat="12.936088">
                <ele>48.200000</ele>
                <time>2018-02-25T03:24:08Z</time>
            </trkpt>
            <trkpt lon="100.957328" lat="12.936067">
                <ele>48.200000</ele>
                <time>2018-02-25T03:24:09Z</time>
            </trkpt>
            <trkpt lon="100.957279" lat="12.936061">
                <ele>48.200000</ele>
                <time>2018-02-25T03:24:10Z</time>
            </trkpt>
            <trkpt lon="100.957222" lat="12.936063">
                <ele>48.100000</ele>
                <time>2018-02-25T03:24:11Z</time>
            </trkpt>
            <trkpt lon="100.957172" lat="12.936066">
                <ele>47.800000</ele>
                <time>2018-02-25T03:24:12Z</time>
            </trkpt>
            <trkpt lon="100.957122" lat="12.936078">
                <ele>47.500000</ele>
                <time>2018-02-25T03:24:13Z</time>
            </trkpt>
            <trkpt lon="100.957071" lat="12.936079">
                <ele>47.200000</ele>
                <time>2018-02-25T03:24:14Z</time>
            </trkpt>
            <trkpt lon="100.957026" lat="12.936084">
                <ele>46.900000</ele>
                <time>2018-02-25T03:24:15Z</time>
            </trkpt>
            <trkpt lon="100.956976" lat="12.936077">
                <ele>46.700000</ele>
                <time>2018-02-25T03:24:16Z</time>
            </trkpt>
            <trkpt lon="100.956921" lat="12.936075">
                <ele>46.200000</ele>
                <time>2018-02-25T03:24:17Z</time>
            </trkpt>
            <trkpt lon="100.956873" lat="12.936076">
                <ele>46.100000</ele>
                <time>2018-02-25T03:24:18Z</time>
            </trkpt>
            <trkpt lon="100.956821" lat="12.936079">
                <ele>46.300000</ele>
                <time>2018-02-25T03:24:19Z</time>
            </trkpt>
            <trkpt lon="100.956770" lat="12.936084">
                <ele>46.600000</ele>
                <time>2018-02-25T03:24:20Z</time>
            </trkpt>
            <trkpt lon="100.956722" lat="12.936074">
                <ele>46.800000</ele>
                <time>2018-02-25T03:24:21Z</time>
            </trkpt>
            <trkpt lon="100.956666" lat="12.936078">
                <ele>47.300000</ele>
                <time>2018-02-25T03:24:22Z</time>
            </trkpt>
            <trkpt lon="100.956619" lat="12.936082">
                <ele>47.600000</ele>
                <time>2018-02-25T03:24:23Z</time>
            </trkpt>
            <trkpt lon="100.956565" lat="12.936092">
                <ele>47.900000</ele>
                <time>2018-02-25T03:24:24Z</time>
            </trkpt>
            <trkpt lon="100.956515" lat="12.936095">
                <ele>48.000000</ele>
                <time>2018-02-25T03:24:25Z</time>
            </trkpt>
            <trkpt lon="100.956462" lat="12.936106">
                <ele>48.000000</ele>
                <time>2018-02-25T03:24:26Z</time>
            </trkpt>
            <trkpt lon="100.956407" lat="12.936121">
                <ele>48.000000</ele>
                <time>2018-02-25T03:24:27Z</time>
            </trkpt>
            <trkpt lon="100.956358" lat="12.936137">
                <ele>48.000000</ele>
                <time>2018-02-25T03:24:28Z</time>
            </trkpt>
            <trkpt lon="100.956287" lat="12.936128">
                <ele>48.200000</ele>
                <time>2018-02-25T03:24:30Z</time>
            </trkpt>
            <trkpt lon="100.956255" lat="12.936121">
                <ele>48.200000</ele>
                <time>2018-02-25T03:24:31Z</time>
            </trkpt>
            <trkpt lon="100.956223" lat="12.936095">
                <ele>48.600000</ele>
                <time>2018-02-25T03:24:32Z</time>
            </trkpt>
            <trkpt lon="100.956187" lat="12.936087">
                <ele>48.700000</ele>
                <time>2018-02-25T03:24:33Z</time>
            </trkpt>
            <trkpt lon="100.956160" lat="12.936063">
                <ele>48.700000</ele>
                <time>2018-02-25T03:24:34Z</time>
            </trkpt>
            <trkpt lon="100.956131" lat="12.936049">
                <ele>48.700000</ele>
                <time>2018-02-25T03:24:35Z</time>
            </trkpt>
            <trkpt lon="100.956109" lat="12.936031">
                <ele>48.400000</ele>
                <time>2018-02-25T03:24:36Z</time>
            </trkpt>
            <trkpt lon="100.956054" lat="12.935970">
                <ele>48.600000</ele>
                <time>2018-02-25T03:24:38Z</time>
            </trkpt>
            <trkpt lon="100.956015" lat="12.935934">
                <ele>48.500000</ele>
                <time>2018-02-25T03:24:40Z</time>
            </trkpt>
            <trkpt lon="100.955980" lat="12.935888">
                <ele>48.800000</ele>
                <time>2018-02-25T03:24:42Z</time>
            </trkpt>
            <trkpt lon="100.955970" lat="12.935858">
                <ele>48.800000</ele>
                <time>2018-02-25T03:24:43Z</time>
            </trkpt>
            <trkpt lon="100.955963" lat="12.935826">
                <ele>48.500000</ele>
                <time>2018-02-25T03:24:44Z</time>
            </trkpt>
            <trkpt lon="100.955955" lat="12.935794">
                <ele>48.200000</ele>
                <time>2018-02-25T03:24:45Z</time>
            </trkpt>
            <trkpt lon="100.955947" lat="12.935766">
                <ele>48.200000</ele>
                <time>2018-02-25T03:24:46Z</time>
            </trkpt>
            <trkpt lon="100.955935" lat="12.935736">
                <ele>48.000000</ele>
                <time>2018-02-25T03:24:47Z</time>
            </trkpt>
            <trkpt lon="100.955918" lat="12.935702">
                <ele>47.600000</ele>
                <time>2018-02-25T03:24:48Z</time>
            </trkpt>
            <trkpt lon="100.955907" lat="12.935675">
                <ele>47.200000</ele>
                <time>2018-02-25T03:24:49Z</time>
            </trkpt>
            <trkpt lon="100.955894" lat="12.935649">
                <ele>47.100000</ele>
                <time>2018-02-25T03:24:50Z</time>
            </trkpt>
            <trkpt lon="100.955876" lat="12.935614">
                <ele>46.700000</ele>
                <time>2018-02-25T03:24:51Z</time>
            </trkpt>
            <trkpt lon="100.955861" lat="12.935587">
                <ele>46.200000</ele>
                <time>2018-02-25T03:24:52Z</time>
            </trkpt>
            <trkpt lon="100.955837" lat="12.935543">
                <ele>45.800000</ele>
                <time>2018-02-25T03:24:54Z</time>
            </trkpt>
            <trkpt lon="100.955842" lat="12.935506">
                <ele>45.800000</ele>
                <time>2018-02-25T03:24:56Z</time>
            </trkpt>
            <trkpt lon="100.955879" lat="12.935468">
                <ele>46.100000</ele>
                <time>2018-02-25T03:24:58Z</time>
            </trkpt>
            <trkpt lon="100.955904" lat="12.935450">
                <ele>46.500000</ele>
                <time>2018-02-25T03:24:59Z</time>
            </trkpt>
            <trkpt lon="100.955926" lat="12.935433">
                <ele>46.400000</ele>
                <time>2018-02-25T03:25:00Z</time>
            </trkpt>
            <trkpt lon="100.955967" lat="12.935403">
                <ele>47.000000</ele>
                <time>2018-02-25T03:25:02Z</time>
            </trkpt>
            <trkpt lon="100.955984" lat="12.935379">
                <ele>47.300000</ele>
                <time>2018-02-25T03:25:03Z</time>
            </trkpt>
            <trkpt lon="100.955988" lat="12.935347">
                <ele>47.800000</ele>
                <time>2018-02-25T03:25:04Z</time>
            </trkpt>
            <trkpt lon="100.955980" lat="12.935302">
                <ele>48.300000</ele>
                <time>2018-02-25T03:25:06Z</time>
            </trkpt>
            <trkpt lon="100.955959" lat="12.935253">
                <ele>48.800000</ele>
                <time>2018-02-25T03:25:09Z</time>
            </trkpt>
            <trkpt lon="100.955943" lat="12.935238">
                <ele>48.300000</ele>
                <time>2018-02-25T03:25:16Z</time>
            </trkpt>
            <trkpt lon="100.955927" lat="12.935223">
                <ele>48.300000</ele>
                <time>2018-02-25T03:25:30Z</time>
            </trkpt>
            <trkpt lon="100.955911" lat="12.935208">
                <ele>49.000000</ele>
                <time>2018-02-25T03:25:31Z</time>
            </trkpt>
            <trkpt lon="100.955892" lat="12.935160">
                <ele>49.500000</ele>
                <time>2018-02-25T03:25:32Z</time>
            </trkpt>
            <trkpt lon="100.955869" lat="12.935098">
                <ele>50.400000</ele>
                <time>2018-02-25T03:25:33Z</time>
            </trkpt>
            <trkpt lon="100.955859" lat="12.935058">
                <ele>51.400000</ele>
                <time>2018-02-25T03:25:34Z</time>
            </trkpt>
            <trkpt lon="100.955843" lat="12.935023">
                <ele>52.100000</ele>
                <time>2018-02-25T03:25:36Z</time>
            </trkpt>
            <trkpt lon="100.955841" lat="12.934987">
                <ele>53.100000</ele>
                <time>2018-02-25T03:25:38Z</time>
            </trkpt>
            <trkpt lon="100.955853" lat="12.934945">
                <ele>54.000000</ele>
                <time>2018-02-25T03:25:40Z</time>
            </trkpt>
            <trkpt lon="100.955859" lat="12.934897">
                <ele>55.100000</ele>
                <time>2018-02-25T03:25:42Z</time>
            </trkpt>
            <trkpt lon="100.955857" lat="12.934863">
                <ele>55.800000</ele>
                <time>2018-02-25T03:25:43Z</time>
            </trkpt>
            <trkpt lon="100.955860" lat="12.934832">
                <ele>56.400000</ele>
                <time>2018-02-25T03:25:44Z</time>
            </trkpt>
            <trkpt lon="100.955865" lat="12.934804">
                <ele>56.300000</ele>
                <time>2018-02-25T03:25:45Z</time>
            </trkpt>
            <trkpt lon="100.955870" lat="12.934771">
                <ele>56.800000</ele>
                <time>2018-02-25T03:25:46Z</time>
            </trkpt>
            <trkpt lon="100.955877" lat="12.934737">
                <ele>57.300000</ele>
                <time>2018-02-25T03:25:47Z</time>
            </trkpt>
            <trkpt lon="100.955885" lat="12.934703">
                <ele>57.500000</ele>
                <time>2018-02-25T03:25:48Z</time>
            </trkpt>
            <trkpt lon="100.955893" lat="12.934667">
                <ele>57.300000</ele>
                <time>2018-02-25T03:25:49Z</time>
            </trkpt>
            <trkpt lon="100.955897" lat="12.934631">
                <ele>57.000000</ele>
                <time>2018-02-25T03:25:50Z</time>
            </trkpt>
            <trkpt lon="100.955900" lat="12.934593">
                <ele>57.000000</ele>
                <time>2018-02-25T03:25:51Z</time>
            </trkpt>
            <trkpt lon="100.955900" lat="12.934555">
                <ele>56.800000</ele>
                <time>2018-02-25T03:25:52Z</time>
            </trkpt>
            <trkpt lon="100.955904" lat="12.934517">
                <ele>56.800000</ele>
                <time>2018-02-25T03:25:53Z</time>
            </trkpt>
            <trkpt lon="100.955915" lat="12.934477">
                <ele>56.600000</ele>
                <time>2018-02-25T03:25:54Z</time>
            </trkpt>
            <trkpt lon="100.955931" lat="12.934439">
                <ele>56.300000</ele>
                <time>2018-02-25T03:25:55Z</time>
            </trkpt>
            <trkpt lon="100.955950" lat="12.934403">
                <ele>56.300000</ele>
                <time>2018-02-25T03:25:56Z</time>
            </trkpt>
            <trkpt lon="100.955972" lat="12.934365">
                <ele>56.000000</ele>
                <time>2018-02-25T03:25:57Z</time>
            </trkpt>
            <trkpt lon="100.955998" lat="12.934327">
                <ele>56.000000</ele>
                <time>2018-02-25T03:25:58Z</time>
            </trkpt>
            <trkpt lon="100.956024" lat="12.934289">
                <ele>55.800000</ele>
                <time>2018-02-25T03:25:59Z</time>
            </trkpt>
            <trkpt lon="100.956050" lat="12.934252">
                <ele>55.600000</ele>
                <time>2018-02-25T03:26:00Z</time>
            </trkpt>
            <trkpt lon="100.956076" lat="12.934216">
                <ele>55.600000</ele>
                <time>2018-02-25T03:26:01Z</time>
            </trkpt>
            <trkpt lon="100.956104" lat="12.934185">
                <ele>55.300000</ele>
                <time>2018-02-25T03:26:02Z</time>
            </trkpt>
            <trkpt lon="100.956134" lat="12.934153">
                <ele>55.100000</ele>
                <time>2018-02-25T03:26:03Z</time>
            </trkpt>
            <trkpt lon="100.956166" lat="12.934124">
                <ele>54.800000</ele>
                <time>2018-02-25T03:26:04Z</time>
            </trkpt>
            <trkpt lon="100.956203" lat="12.934093">
                <ele>55.000000</ele>
                <time>2018-02-25T03:26:05Z</time>
            </trkpt>
            <trkpt lon="100.956238" lat="12.934063">
                <ele>54.700000</ele>
                <time>2018-02-25T03:26:06Z</time>
            </trkpt>
            <trkpt lon="100.956228" lat="12.934011">
                <ele>54.400000</ele>
                <time>2018-02-25T03:26:07Z</time>
            </trkpt>
            <trkpt lon="100.956227" lat="12.933966">
                <ele>54.200000</ele>
                <time>2018-02-25T03:26:08Z</time>
            </trkpt>
            <trkpt lon="100.956226" lat="12.933931">
                <ele>53.900000</ele>
                <time>2018-02-25T03:26:09Z</time>
            </trkpt>
            <trkpt lon="100.956234" lat="12.933884">
                <ele>53.700000</ele>
                <time>2018-02-25T03:26:10Z</time>
            </trkpt>
            <trkpt lon="100.956257" lat="12.933851">
                <ele>53.700000</ele>
                <time>2018-02-25T03:26:11Z</time>
            </trkpt>
            <trkpt lon="100.956283" lat="12.933821">
                <ele>53.600000</ele>
                <time>2018-02-25T03:26:12Z</time>
            </trkpt>
            <trkpt lon="100.956307" lat="12.933789">
                <ele>53.600000</ele>
                <time>2018-02-25T03:26:13Z</time>
            </trkpt>
            <trkpt lon="100.956324" lat="12.933762">
                <ele>53.600000</ele>
                <time>2018-02-25T03:26:14Z</time>
            </trkpt>
            <trkpt lon="100.956347" lat="12.933716">
                <ele>53.400000</ele>
                <time>2018-02-25T03:26:15Z</time>
            </trkpt>
            <trkpt lon="100.956378" lat="12.933666">
                <ele>53.800000</ele>
                <time>2018-02-25T03:26:16Z</time>
            </trkpt>
            <trkpt lon="100.956387" lat="12.933625">
                <ele>54.100000</ele>
                <time>2018-02-25T03:26:17Z</time>
            </trkpt>
            <trkpt lon="100.956397" lat="12.933580">
                <ele>54.300000</ele>
                <time>2018-02-25T03:26:18Z</time>
            </trkpt>
            <trkpt lon="100.956403" lat="12.933531">
                <ele>54.600000</ele>
                <time>2018-02-25T03:26:19Z</time>
            </trkpt>
            <trkpt lon="100.956399" lat="12.933484">
                <ele>55.100000</ele>
                <time>2018-02-25T03:26:20Z</time>
            </trkpt>
            <trkpt lon="100.956409" lat="12.933428">
                <ele>55.500000</ele>
                <time>2018-02-25T03:26:21Z</time>
            </trkpt>
            <trkpt lon="100.956419" lat="12.933375">
                <ele>56.200000</ele>
                <time>2018-02-25T03:26:22Z</time>
            </trkpt>
            <trkpt lon="100.956427" lat="12.933329">
                <ele>56.200000</ele>
                <time>2018-02-25T03:26:23Z</time>
            </trkpt>
            <trkpt lon="100.956432" lat="12.933278">
                <ele>56.200000</ele>
                <time>2018-02-25T03:26:24Z</time>
            </trkpt>
            <trkpt lon="100.956441" lat="12.933229">
                <ele>56.200000</ele>
                <time>2018-02-25T03:26:25Z</time>
            </trkpt>
            <trkpt lon="100.956471" lat="12.933187">
                <ele>56.200000</ele>
                <time>2018-02-25T03:26:26Z</time>
            </trkpt>
            <trkpt lon="100.956486" lat="12.933149">
                <ele>56.200000</ele>
                <time>2018-02-25T03:26:27Z</time>
            </trkpt>
            <trkpt lon="100.956507" lat="12.933110">
                <ele>56.200000</ele>
                <time>2018-02-25T03:26:28Z</time>
            </trkpt>
            <trkpt lon="100.956527" lat="12.933066">
                <ele>56.200000</ele>
                <time>2018-02-25T03:26:29Z</time>
            </trkpt>
            <trkpt lon="100.956529" lat="12.933015">
                <ele>56.100000</ele>
                <time>2018-02-25T03:26:30Z</time>
            </trkpt>
            <trkpt lon="100.956492" lat="12.932978">
                <ele>55.800000</ele>
                <time>2018-02-25T03:26:31Z</time>
            </trkpt>
            <trkpt lon="100.956470" lat="12.932944">
                <ele>55.500000</ele>
                <time>2018-02-25T03:26:32Z</time>
            </trkpt>
            <trkpt lon="100.956474" lat="12.932893">
                <ele>55.300000</ele>
                <time>2018-02-25T03:26:33Z</time>
            </trkpt>
            <trkpt lon="100.956466" lat="12.932849">
                <ele>55.100000</ele>
                <time>2018-02-25T03:26:34Z</time>
            </trkpt>
            <trkpt lon="100.956433" lat="12.932806">
                <ele>55.100000</ele>
                <time>2018-02-25T03:26:35Z</time>
            </trkpt>
            <trkpt lon="100.956409" lat="12.932773">
                <ele>55.100000</ele>
                <time>2018-02-25T03:26:36Z</time>
            </trkpt>
            <trkpt lon="100.956379" lat="12.932747">
                <ele>55.100000</ele>
                <time>2018-02-25T03:26:37Z</time>
            </trkpt>
            <trkpt lon="100.956337" lat="12.932721">
                <ele>55.100000</ele>
                <time>2018-02-25T03:26:38Z</time>
            </trkpt>
            <trkpt lon="100.956297" lat="12.932690">
                <ele>55.100000</ele>
                <time>2018-02-25T03:26:39Z</time>
            </trkpt>
            <trkpt lon="100.956271" lat="12.932654">
                <ele>55.100000</ele>
                <time>2018-02-25T03:26:40Z</time>
            </trkpt>
            <trkpt lon="100.956238" lat="12.932616">
                <ele>55.100000</ele>
                <time>2018-02-25T03:26:41Z</time>
            </trkpt>
            <trkpt lon="100.956209" lat="12.932583">
                <ele>55.100000</ele>
                <time>2018-02-25T03:26:42Z</time>
            </trkpt>
            <trkpt lon="100.956179" lat="12.932554">
                <ele>55.000000</ele>
                <time>2018-02-25T03:26:43Z</time>
            </trkpt>
            <trkpt lon="100.956158" lat="12.932517">
                <ele>55.000000</ele>
                <time>2018-02-25T03:26:44Z</time>
            </trkpt>
            <trkpt lon="100.956151" lat="12.932491">
                <ele>55.000000</ele>
                <time>2018-02-25T03:26:45Z</time>
            </trkpt>
            <trkpt lon="100.956150" lat="12.932458">
                <ele>55.000000</ele>
                <time>2018-02-25T03:26:46Z</time>
            </trkpt>
            <trkpt lon="100.956162" lat="12.932416">
                <ele>55.000000</ele>
                <time>2018-02-25T03:26:47Z</time>
            </trkpt>
            <trkpt lon="100.956185" lat="12.932368">
                <ele>54.900000</ele>
                <time>2018-02-25T03:26:48Z</time>
            </trkpt>
            <trkpt lon="100.956209" lat="12.932315">
                <ele>54.700000</ele>
                <time>2018-02-25T03:26:49Z</time>
            </trkpt>
            <trkpt lon="100.956201" lat="12.932268">
                <ele>54.400000</ele>
                <time>2018-02-25T03:26:50Z</time>
            </trkpt>
            <trkpt lon="100.956183" lat="12.932223">
                <ele>54.100000</ele>
                <time>2018-02-25T03:26:51Z</time>
            </trkpt>
            <trkpt lon="100.956122" lat="12.932209">
                <ele>54.100000</ele>
                <time>2018-02-25T03:26:52Z</time>
            </trkpt>
            <trkpt lon="100.956077" lat="12.932201">
                <ele>53.800000</ele>
                <time>2018-02-25T03:26:53Z</time>
            </trkpt>
            <trkpt lon="100.956023" lat="12.932187">
                <ele>53.700000</ele>
                <time>2018-02-25T03:26:54Z</time>
            </trkpt>
            <trkpt lon="100.955982" lat="12.932164">
                <ele>53.000000</ele>
                <time>2018-02-25T03:26:55Z</time>
            </trkpt>
            <trkpt lon="100.955957" lat="12.932141">
                <ele>53.000000</ele>
                <time>2018-02-25T03:26:56Z</time>
            </trkpt>
            <trkpt lon="100.955990" lat="12.932095">
                <ele>52.700000</ele>
                <time>2018-02-25T03:26:58Z</time>
            </trkpt>
            <trkpt lon="100.956015" lat="12.932063">
                <ele>52.200000</ele>
                <time>2018-02-25T03:26:59Z</time>
            </trkpt>
            <trkpt lon="100.956052" lat="12.932049">
                <ele>52.400000</ele>
                <time>2018-02-25T03:27:00Z</time>
            </trkpt>
            <trkpt lon="100.956102" lat="12.932031">
                <ele>52.200000</ele>
                <time>2018-02-25T03:27:01Z</time>
            </trkpt>
            <trkpt lon="100.956150" lat="12.932016">
                <ele>52.400000</ele>
                <time>2018-02-25T03:27:02Z</time>
            </trkpt>
            <trkpt lon="100.956201" lat="12.932019">
                <ele>52.700000</ele>
                <time>2018-02-25T03:27:03Z</time>
            </trkpt>
            <trkpt lon="100.956266" lat="12.932026">
                <ele>53.100000</ele>
                <time>2018-02-25T03:27:04Z</time>
            </trkpt>
            <trkpt lon="100.956324" lat="12.932032">
                <ele>53.400000</ele>
                <time>2018-02-25T03:27:05Z</time>
            </trkpt>
            <trkpt lon="100.956378" lat="12.932041">
                <ele>54.000000</ele>
                <time>2018-02-25T03:27:06Z</time>
            </trkpt>
            <trkpt lon="100.956443" lat="12.931998">
                <ele>53.300000</ele>
                <time>2018-02-25T03:27:07Z</time>
            </trkpt>
            <trkpt lon="100.956484" lat="12.931965">
                <ele>53.400000</ele>
                <time>2018-02-25T03:27:08Z</time>
            </trkpt>
            <trkpt lon="100.956518" lat="12.931941">
                <ele>53.200000</ele>
                <time>2018-02-25T03:27:09Z</time>
            </trkpt>
            <trkpt lon="100.956531" lat="12.931905">
                <ele>52.900000</ele>
                <time>2018-02-25T03:27:10Z</time>
            </trkpt>
            <trkpt lon="100.956526" lat="12.931865">
                <ele>52.700000</ele>
                <time>2018-02-25T03:27:11Z</time>
            </trkpt>
            <trkpt lon="100.956505" lat="12.931824">
                <ele>52.700000</ele>
                <time>2018-02-25T03:27:12Z</time>
            </trkpt>
            <trkpt lon="100.956476" lat="12.931792">
                <ele>52.400000</ele>
                <time>2018-02-25T03:27:13Z</time>
            </trkpt>
            <trkpt lon="100.956436" lat="12.931761">
                <ele>52.200000</ele>
                <time>2018-02-25T03:27:14Z</time>
            </trkpt>
            <trkpt lon="100.956385" lat="12.931753">
                <ele>51.900000</ele>
                <time>2018-02-25T03:27:15Z</time>
            </trkpt>
            <trkpt lon="100.956349" lat="12.931753">
                <ele>51.700000</ele>
                <time>2018-02-25T03:27:16Z</time>
            </trkpt>
            <trkpt lon="100.956306" lat="12.931755">
                <ele>51.500000</ele>
                <time>2018-02-25T03:27:17Z</time>
            </trkpt>
            <trkpt lon="100.956254" lat="12.931772">
                <ele>51.400000</ele>
                <time>2018-02-25T03:27:18Z</time>
            </trkpt>
            <trkpt lon="100.956214" lat="12.931792">
                <ele>51.400000</ele>
                <time>2018-02-25T03:27:19Z</time>
            </trkpt>
            <trkpt lon="100.956173" lat="12.931818">
                <ele>51.300000</ele>
                <time>2018-02-25T03:27:20Z</time>
            </trkpt>
            <trkpt lon="100.956142" lat="12.931850">
                <ele>51.300000</ele>
                <time>2018-02-25T03:27:21Z</time>
            </trkpt>
            <trkpt lon="100.956100" lat="12.931885">
                <ele>51.300000</ele>
                <time>2018-02-25T03:27:22Z</time>
            </trkpt>
            <trkpt lon="100.956054" lat="12.931912">
                <ele>51.000000</ele>
                <time>2018-02-25T03:27:23Z</time>
            </trkpt>
            <trkpt lon="100.956007" lat="12.931940">
                <ele>51.100000</ele>
                <time>2018-02-25T03:27:24Z</time>
            </trkpt>
            <trkpt lon="100.955962" lat="12.931962">
                <ele>51.300000</ele>
                <time>2018-02-25T03:27:25Z</time>
            </trkpt>
            <trkpt lon="100.955912" lat="12.931972">
                <ele>51.300000</ele>
                <time>2018-02-25T03:27:26Z</time>
            </trkpt>
            <trkpt lon="100.955868" lat="12.931984">
                <ele>51.300000</ele>
                <time>2018-02-25T03:27:27Z</time>
            </trkpt>
            <trkpt lon="100.955826" lat="12.931972">
                <ele>51.200000</ele>
                <time>2018-02-25T03:27:28Z</time>
            </trkpt>
            <trkpt lon="100.955795" lat="12.931951">
                <ele>50.700000</ele>
                <time>2018-02-25T03:27:29Z</time>
            </trkpt>
            <trkpt lon="100.955776" lat="12.931918">
                <ele>50.700000</ele>
                <time>2018-02-25T03:27:30Z</time>
            </trkpt>
            <trkpt lon="100.955784" lat="12.931869">
                <ele>50.200000</ele>
                <time>2018-02-25T03:27:31Z</time>
            </trkpt>
            <trkpt lon="100.955812" lat="12.931845">
                <ele>50.200000</ele>
                <time>2018-02-25T03:27:32Z</time>
            </trkpt>
            <trkpt lon="100.955841" lat="12.931819">
                <ele>50.200000</ele>
                <time>2018-02-25T03:27:33Z</time>
            </trkpt>
            <trkpt lon="100.955872" lat="12.931800">
                <ele>50.300000</ele>
                <time>2018-02-25T03:27:34Z</time>
            </trkpt>
            <trkpt lon="100.955906" lat="12.931772">
                <ele>50.200000</ele>
                <time>2018-02-25T03:27:35Z</time>
            </trkpt>
            <trkpt lon="100.955935" lat="12.931742">
                <ele>50.100000</ele>
                <time>2018-02-25T03:27:36Z</time>
            </trkpt>
            <trkpt lon="100.955969" lat="12.931720">
                <ele>50.300000</ele>
                <time>2018-02-25T03:27:37Z</time>
            </trkpt>
            <trkpt lon="100.956006" lat="12.931703">
                <ele>50.400000</ele>
                <time>2018-02-25T03:27:38Z</time>
            </trkpt>
            <trkpt lon="100.956069" lat="12.931693">
                <ele>50.400000</ele>
                <time>2018-02-25T03:27:39Z</time>
            </trkpt>
            <trkpt lon="100.956110" lat="12.931686">
                <ele>50.500000</ele>
                <time>2018-02-25T03:27:40Z</time>
            </trkpt>
            <trkpt lon="100.956166" lat="12.931695">
                <ele>50.500000</ele>
                <time>2018-02-25T03:27:41Z</time>
            </trkpt>
            <trkpt lon="100.956219" lat="12.931686">
                <ele>50.600000</ele>
                <time>2018-02-25T03:27:42Z</time>
            </trkpt>
            <trkpt lon="100.956270" lat="12.931682">
                <ele>50.900000</ele>
                <time>2018-02-25T03:27:43Z</time>
            </trkpt>
            <trkpt lon="100.956312" lat="12.931678">
                <ele>51.100000</ele>
                <time>2018-02-25T03:27:44Z</time>
            </trkpt>
            <trkpt lon="100.956369" lat="12.931681">
                <ele>51.400000</ele>
                <time>2018-02-25T03:27:46Z</time>
            </trkpt>
            <trkpt lon="100.956421" lat="12.931668">
                <ele>51.900000</ele>
                <time>2018-02-25T03:27:47Z</time>
            </trkpt>
            <trkpt lon="100.956438" lat="12.931633">
                <ele>51.800000</ele>
                <time>2018-02-25T03:27:48Z</time>
            </trkpt>
            <trkpt lon="100.956447" lat="12.931595">
                <ele>51.800000</ele>
                <time>2018-02-25T03:27:49Z</time>
            </trkpt>
            <trkpt lon="100.956429" lat="12.931537">
                <ele>51.900000</ele>
                <time>2018-02-25T03:27:50Z</time>
            </trkpt>
            <trkpt lon="100.956411" lat="12.931492">
                <ele>51.800000</ele>
                <time>2018-02-25T03:27:51Z</time>
            </trkpt>
            <trkpt lon="100.956384" lat="12.931454">
                <ele>52.000000</ele>
                <time>2018-02-25T03:27:52Z</time>
            </trkpt>
            <trkpt lon="100.956348" lat="12.931417">
                <ele>51.900000</ele>
                <time>2018-02-25T03:27:53Z</time>
            </trkpt>
            <trkpt lon="100.956307" lat="12.931384">
                <ele>51.900000</ele>
                <time>2018-02-25T03:27:54Z</time>
            </trkpt>
            <trkpt lon="100.956274" lat="12.931356">
                <ele>51.800000</ele>
                <time>2018-02-25T03:27:55Z</time>
            </trkpt>
            <trkpt lon="100.956237" lat="12.931337">
                <ele>51.500000</ele>
                <time>2018-02-25T03:27:56Z</time>
            </trkpt>
            <trkpt lon="100.956200" lat="12.931370">
                <ele>51.200000</ele>
                <time>2018-02-25T03:27:58Z</time>
            </trkpt>
            <trkpt lon="100.956153" lat="12.931389">
                <ele>50.500000</ele>
                <time>2018-02-25T03:28:00Z</time>
            </trkpt>
            <trkpt lon="100.956119" lat="12.931393">
                <ele>50.500000</ele>
                <time>2018-02-25T03:28:01Z</time>
            </trkpt>
            <trkpt lon="100.956077" lat="12.931398">
                <ele>50.100000</ele>
                <time>2018-02-25T03:28:02Z</time>
            </trkpt>
            <trkpt lon="100.956036" lat="12.931409">
                <ele>49.600000</ele>
                <time>2018-02-25T03:28:03Z</time>
            </trkpt>
            <trkpt lon="100.956001" lat="12.931434">
                <ele>49.300000</ele>
                <time>2018-02-25T03:28:04Z</time>
            </trkpt>
            <trkpt lon="100.955962" lat="12.931460">
                <ele>49.300000</ele>
                <time>2018-02-25T03:28:05Z</time>
            </trkpt>
            <trkpt lon="100.955934" lat="12.931494">
                <ele>49.300000</ele>
                <time>2018-02-25T03:28:06Z</time>
            </trkpt>
            <trkpt lon="100.955916" lat="12.931547">
                <ele>49.300000</ele>
                <time>2018-02-25T03:28:07Z</time>
            </trkpt>
            <trkpt lon="100.955888" lat="12.931580">
                <ele>49.300000</ele>
                <time>2018-02-25T03:28:08Z</time>
            </trkpt>
            <trkpt lon="100.955864" lat="12.931604">
                <ele>49.300000</ele>
                <time>2018-02-25T03:28:09Z</time>
            </trkpt>
            <trkpt lon="100.955832" lat="12.931617">
                <ele>49.300000</ele>
                <time>2018-02-25T03:28:10Z</time>
            </trkpt>
            <trkpt lon="100.955795" lat="12.931636">
                <ele>49.300000</ele>
                <time>2018-02-25T03:28:11Z</time>
            </trkpt>
            <trkpt lon="100.955756" lat="12.931651">
                <ele>49.400000</ele>
                <time>2018-02-25T03:28:12Z</time>
            </trkpt>
            <trkpt lon="100.955720" lat="12.931647">
                <ele>49.500000</ele>
                <time>2018-02-25T03:28:13Z</time>
            </trkpt>
            <trkpt lon="100.955688" lat="12.931622">
                <ele>49.700000</ele>
                <time>2018-02-25T03:28:14Z</time>
            </trkpt>
            <trkpt lon="100.955664" lat="12.931595">
                <ele>49.900000</ele>
                <time>2018-02-25T03:28:15Z</time>
            </trkpt>
            <trkpt lon="100.955654" lat="12.931547">
                <ele>50.100000</ele>
                <time>2018-02-25T03:28:16Z</time>
            </trkpt>
            <trkpt lon="100.955667" lat="12.931517">
                <ele>50.300000</ele>
                <time>2018-02-25T03:28:17Z</time>
            </trkpt>
            <trkpt lon="100.955683" lat="12.931479">
                <ele>50.300000</ele>
                <time>2018-02-25T03:28:18Z</time>
            </trkpt>
            <trkpt lon="100.955724" lat="12.931443">
                <ele>50.000000</ele>
                <time>2018-02-25T03:28:19Z</time>
            </trkpt>
            <trkpt lon="100.955762" lat="12.931423">
                <ele>49.700000</ele>
                <time>2018-02-25T03:28:20Z</time>
            </trkpt>
            <trkpt lon="100.955800" lat="12.931398">
                <ele>49.500000</ele>
                <time>2018-02-25T03:28:21Z</time>
            </trkpt>
            <trkpt lon="100.955857" lat="12.931354">
                <ele>49.100000</ele>
                <time>2018-02-25T03:28:22Z</time>
            </trkpt>
            <trkpt lon="100.955882" lat="12.931306">
                <ele>48.900000</ele>
                <time>2018-02-25T03:28:23Z</time>
            </trkpt>
            <trkpt lon="100.955909" lat="12.931267">
                <ele>48.800000</ele>
                <time>2018-02-25T03:28:24Z</time>
            </trkpt>
            <trkpt lon="100.955908" lat="12.931229">
                <ele>48.600000</ele>
                <time>2018-02-25T03:28:25Z</time>
            </trkpt>
            <trkpt lon="100.955908" lat="12.931172">
                <ele>48.500000</ele>
                <time>2018-02-25T03:28:26Z</time>
            </trkpt>
            <trkpt lon="100.955908" lat="12.931126">
                <ele>48.300000</ele>
                <time>2018-02-25T03:28:27Z</time>
            </trkpt>
            <trkpt lon="100.955894" lat="12.931072">
                <ele>47.600000</ele>
                <time>2018-02-25T03:28:28Z</time>
            </trkpt>
            <trkpt lon="100.955909" lat="12.931026">
                <ele>47.800000</ele>
                <time>2018-02-25T03:28:29Z</time>
            </trkpt>
            <trkpt lon="100.955922" lat="12.930998">
                <ele>47.800000</ele>
                <time>2018-02-25T03:28:30Z</time>
            </trkpt>
            <trkpt lon="100.955948" lat="12.930970">
                <ele>48.100000</ele>
                <time>2018-02-25T03:28:31Z</time>
            </trkpt>
            <trkpt lon="100.955971" lat="12.930946">
                <ele>47.800000</ele>
                <time>2018-02-25T03:28:32Z</time>
            </trkpt>
            <trkpt lon="100.956042" lat="12.930954">
                <ele>49.000000</ele>
                <time>2018-02-25T03:28:33Z</time>
            </trkpt>
            <trkpt lon="100.956092" lat="12.930950">
                <ele>49.300000</ele>
                <time>2018-02-25T03:28:34Z</time>
            </trkpt>
            <trkpt lon="100.956134" lat="12.930942">
                <ele>49.800000</ele>
                <time>2018-02-25T03:28:35Z</time>
            </trkpt>
            <trkpt lon="100.956188" lat="12.930945">
                <ele>50.300000</ele>
                <time>2018-02-25T03:28:36Z</time>
            </trkpt>
            <trkpt lon="100.956230" lat="12.930936">
                <ele>50.700000</ele>
                <time>2018-02-25T03:28:37Z</time>
            </trkpt>
            <trkpt lon="100.956289" lat="12.930933">
                <ele>51.400000</ele>
                <time>2018-02-25T03:28:38Z</time>
            </trkpt>
            <trkpt lon="100.956338" lat="12.930935">
                <ele>51.800000</ele>
                <time>2018-02-25T03:28:39Z</time>
            </trkpt>
            <trkpt lon="100.956381" lat="12.930947">
                <ele>52.000000</ele>
                <time>2018-02-25T03:28:40Z</time>
            </trkpt>
            <trkpt lon="100.956415" lat="12.930946">
                <ele>52.000000</ele>
                <time>2018-02-25T03:28:41Z</time>
            </trkpt>
            <trkpt lon="100.956454" lat="12.930956">
                <ele>51.900000</ele>
                <time>2018-02-25T03:28:42Z</time>
            </trkpt>
            <trkpt lon="100.956501" lat="12.930964">
                <ele>51.900000</ele>
                <time>2018-02-25T03:28:43Z</time>
            </trkpt>
            <trkpt lon="100.956542" lat="12.930969">
                <ele>51.900000</ele>
                <time>2018-02-25T03:28:44Z</time>
            </trkpt>
            <trkpt lon="100.956577" lat="12.930931">
                <ele>51.800000</ele>
                <time>2018-02-25T03:28:47Z</time>
            </trkpt>
            <trkpt lon="100.956562" lat="12.930894">
                <ele>51.700000</ele>
                <time>2018-02-25T03:28:49Z</time>
            </trkpt>
            <trkpt lon="100.956524" lat="12.930868">
                <ele>52.000000</ele>
                <time>2018-02-25T03:28:51Z</time>
            </trkpt>
            <trkpt lon="100.956492" lat="12.930844">
                <ele>51.900000</ele>
                <time>2018-02-25T03:28:53Z</time>
            </trkpt>
            <trkpt lon="100.956435" lat="12.930827">
                <ele>52.000000</ele>
                <time>2018-02-25T03:28:55Z</time>
            </trkpt>
            <trkpt lon="100.956401" lat="12.930826">
                <ele>51.900000</ele>
                <time>2018-02-25T03:28:56Z</time>
            </trkpt>
            <trkpt lon="100.956370" lat="12.930827">
                <ele>51.700000</ele>
                <time>2018-02-25T03:28:57Z</time>
            </trkpt>
            <trkpt lon="100.956321" lat="12.930813">
                <ele>51.300000</ele>
                <time>2018-02-25T03:28:59Z</time>
            </trkpt>
            <trkpt lon="100.956288" lat="12.930803">
                <ele>51.300000</ele>
                <time>2018-02-25T03:29:01Z</time>
            </trkpt>
            <trkpt lon="100.956258" lat="12.930812">
                <ele>50.800000</ele>
                <time>2018-02-25T03:29:03Z</time>
            </trkpt>
            <trkpt lon="100.956230" lat="12.930825">
                <ele>50.400000</ele>
                <time>2018-02-25T03:29:06Z</time>
            </trkpt>
            <trkpt lon="100.956193" lat="12.930821">
                <ele>49.900000</ele>
                <time>2018-02-25T03:29:09Z</time>
            </trkpt>
            <trkpt lon="100.956154" lat="12.930811">
                <ele>49.300000</ele>
                <time>2018-02-25T03:29:11Z</time>
            </trkpt>
            <trkpt lon="100.956106" lat="12.930797">
                <ele>48.700000</ele>
                <time>2018-02-25T03:29:13Z</time>
            </trkpt>
            <trkpt lon="100.956063" lat="12.930782">
                <ele>48.200000</ele>
                <time>2018-02-25T03:29:15Z</time>
            </trkpt>
            <trkpt lon="100.956024" lat="12.930768">
                <ele>47.500000</ele>
                <time>2018-02-25T03:29:17Z</time>
            </trkpt>
            <trkpt lon="100.956001" lat="12.930747">
                <ele>47.500000</ele>
                <time>2018-02-25T03:29:19Z</time>
            </trkpt>
            <trkpt lon="100.955984" lat="12.930712">
                <ele>46.800000</ele>
                <time>2018-02-25T03:29:22Z</time>
            </trkpt>
            <trkpt lon="100.955962" lat="12.930691">
                <ele>46.700000</ele>
                <time>2018-02-25T03:29:31Z</time>
            </trkpt>
            <trkpt lon="100.955950" lat="12.930661">
                <ele>46.700000</ele>
                <time>2018-02-25T03:29:33Z</time>
            </trkpt>
            <trkpt lon="100.955962" lat="12.930611">
                <ele>46.300000</ele>
                <time>2018-02-25T03:29:35Z</time>
            </trkpt>
            <trkpt lon="100.955971" lat="12.930585">
                <ele>46.300000</ele>
                <time>2018-02-25T03:29:36Z</time>
            </trkpt>
            <trkpt lon="100.955977" lat="12.930532">
                <ele>46.000000</ele>
                <time>2018-02-25T03:29:38Z</time>
            </trkpt>
            <trkpt lon="100.955976" lat="12.930504">
                <ele>46.000000</ele>
                <time>2018-02-25T03:29:39Z</time>
            </trkpt>
            <trkpt lon="100.955969" lat="12.930477">
                <ele>45.700000</ele>
                <time>2018-02-25T03:29:40Z</time>
            </trkpt>
            <trkpt lon="100.955957" lat="12.930452">
                <ele>45.700000</ele>
                <time>2018-02-25T03:29:41Z</time>
            </trkpt>
            <trkpt lon="100.955933" lat="12.930406">
                <ele>43.900000</ele>
                <time>2018-02-25T03:29:43Z</time>
            </trkpt>
            <trkpt lon="100.955934" lat="12.930362">
                <ele>43.700000</ele>
                <time>2018-02-25T03:29:45Z</time>
            </trkpt>
            <trkpt lon="100.955955" lat="12.930329">
                <ele>45.000000</ele>
                <time>2018-02-25T03:29:47Z</time>
            </trkpt>
            <trkpt lon="100.955973" lat="12.930291">
                <ele>45.000000</ele>
                <time>2018-02-25T03:29:49Z</time>
            </trkpt>
            <trkpt lon="100.955977" lat="12.930237">
                <ele>44.900000</ele>
                <time>2018-02-25T03:29:51Z</time>
            </trkpt>
            <trkpt lon="100.955977" lat="12.930209">
                <ele>44.900000</ele>
                <time>2018-02-25T03:29:52Z</time>
            </trkpt>
            <trkpt lon="100.955974" lat="12.930182">
                <ele>45.000000</ele>
                <time>2018-02-25T03:29:53Z</time>
            </trkpt>
            <trkpt lon="100.955958" lat="12.930132">
                <ele>45.100000</ele>
                <time>2018-02-25T03:29:55Z</time>
            </trkpt>
            <trkpt lon="100.955944" lat="12.930107">
                <ele>44.300000</ele>
                <time>2018-02-25T03:29:56Z</time>
            </trkpt>
            <trkpt lon="100.955939" lat="12.930072">
                <ele>44.600000</ele>
                <time>2018-02-25T03:29:58Z</time>
            </trkpt>
            <trkpt lon="100.955975" lat="12.930031">
                <ele>45.700000</ele>
                <time>2018-02-25T03:30:00Z</time>
            </trkpt>
            <trkpt lon="100.955998" lat="12.930014">
                <ele>46.400000</ele>
                <time>2018-02-25T03:30:01Z</time>
            </trkpt>
            <trkpt lon="100.956044" lat="12.929995">
                <ele>47.100000</ele>
                <time>2018-02-25T03:30:03Z</time>
            </trkpt>
            <trkpt lon="100.956074" lat="12.929993">
                <ele>47.800000</ele>
                <time>2018-02-25T03:30:04Z</time>
            </trkpt>
            <trkpt lon="100.956114" lat="12.929993">
                <ele>47.800000</ele>
                <time>2018-02-25T03:30:05Z</time>
            </trkpt>
            <trkpt lon="100.956151" lat="12.929993">
                <ele>48.500000</ele>
                <time>2018-02-25T03:30:06Z</time>
            </trkpt>
            <trkpt lon="100.956180" lat="12.929993">
                <ele>49.300000</ele>
                <time>2018-02-25T03:30:07Z</time>
            </trkpt>
            <trkpt lon="100.956208" lat="12.929989">
                <ele>49.800000</ele>
                <time>2018-02-25T03:30:08Z</time>
            </trkpt>
            <trkpt lon="100.956242" lat="12.929979">
                <ele>49.800000</ele>
                <time>2018-02-25T03:30:09Z</time>
            </trkpt>
            <trkpt lon="100.956276" lat="12.929967">
                <ele>50.200000</ele>
                <time>2018-02-25T03:30:10Z</time>
            </trkpt>
            <trkpt lon="100.956303" lat="12.929954">
                <ele>50.600000</ele>
                <time>2018-02-25T03:30:11Z</time>
            </trkpt>
            <trkpt lon="100.956329" lat="12.929943">
                <ele>50.400000</ele>
                <time>2018-02-25T03:30:12Z</time>
            </trkpt>
            <trkpt lon="100.956356" lat="12.929932">
                <ele>50.800000</ele>
                <time>2018-02-25T03:30:13Z</time>
            </trkpt>
            <trkpt lon="100.956387" lat="12.929925">
                <ele>50.900000</ele>
                <time>2018-02-25T03:30:14Z</time>
            </trkpt>
            <trkpt lon="100.956419" lat="12.929924">
                <ele>50.900000</ele>
                <time>2018-02-25T03:30:15Z</time>
            </trkpt>
            <trkpt lon="100.956449" lat="12.929928">
                <ele>50.900000</ele>
                <time>2018-02-25T03:30:16Z</time>
            </trkpt>
            <trkpt lon="100.956479" lat="12.929928">
                <ele>50.900000</ele>
                <time>2018-02-25T03:30:17Z</time>
            </trkpt>
            <trkpt lon="100.956508" lat="12.929922">
                <ele>50.800000</ele>
                <time>2018-02-25T03:30:18Z</time>
            </trkpt>
            <trkpt lon="100.956538" lat="12.929905">
                <ele>50.600000</ele>
                <time>2018-02-25T03:30:19Z</time>
            </trkpt>
            <trkpt lon="100.956560" lat="12.929882">
                <ele>50.400000</ele>
                <time>2018-02-25T03:30:20Z</time>
            </trkpt>
            <trkpt lon="100.956574" lat="12.929855">
                <ele>50.200000</ele>
                <time>2018-02-25T03:30:21Z</time>
            </trkpt>
            <trkpt lon="100.956577" lat="12.929822">
                <ele>49.900000</ele>
                <time>2018-02-25T03:30:22Z</time>
            </trkpt>
            <trkpt lon="100.956572" lat="12.929783">
                <ele>49.900000</ele>
                <time>2018-02-25T03:30:23Z</time>
            </trkpt>
            <trkpt lon="100.956561" lat="12.929738">
                <ele>49.400000</ele>
                <time>2018-02-25T03:30:24Z</time>
            </trkpt>
            <trkpt lon="100.956521" lat="12.929687">
                <ele>49.200000</ele>
                <time>2018-02-25T03:30:25Z</time>
            </trkpt>
            <trkpt lon="100.956516" lat="12.929641">
                <ele>48.700000</ele>
                <time>2018-02-25T03:30:26Z</time>
            </trkpt>
            <trkpt lon="100.956517" lat="12.929600">
                <ele>47.900000</ele>
                <time>2018-02-25T03:30:27Z</time>
            </trkpt>
            <trkpt lon="100.956527" lat="12.929551">
                <ele>47.400000</ele>
                <time>2018-02-25T03:30:28Z</time>
            </trkpt>
            <trkpt lon="100.956510" lat="12.929506">
                <ele>46.900000</ele>
                <time>2018-02-25T03:30:29Z</time>
            </trkpt>
            <trkpt lon="100.956504" lat="12.929459">
                <ele>46.400000</ele>
                <time>2018-02-25T03:30:30Z</time>
            </trkpt>
            <trkpt lon="100.956496" lat="12.929417">
                <ele>45.900000</ele>
                <time>2018-02-25T03:30:31Z</time>
            </trkpt>
            <trkpt lon="100.956492" lat="12.929367">
                <ele>45.400000</ele>
                <time>2018-02-25T03:30:32Z</time>
            </trkpt>
            <trkpt lon="100.956499" lat="12.929318">
                <ele>44.800000</ele>
                <time>2018-02-25T03:30:33Z</time>
            </trkpt>
            <trkpt lon="100.956497" lat="12.929271">
                <ele>44.600000</ele>
                <time>2018-02-25T03:30:34Z</time>
            </trkpt>
            <trkpt lon="100.956511" lat="12.929230">
                <ele>44.300000</ele>
                <time>2018-02-25T03:30:35Z</time>
            </trkpt>
            <trkpt lon="100.956487" lat="12.929201">
                <ele>44.300000</ele>
                <time>2018-02-25T03:30:36Z</time>
            </trkpt>
            <trkpt lon="100.956484" lat="12.929164">
                <ele>44.500000</ele>
                <time>2018-02-25T03:30:38Z</time>
            </trkpt>
            <trkpt lon="100.956461" lat="12.929143">
                <ele>44.800000</ele>
                <time>2018-02-25T03:30:50Z</time>
            </trkpt>
            <trkpt lon="100.956444" lat="12.929122">
                <ele>44.900000</ele>
                <time>2018-02-25T03:31:02Z</time>
            </trkpt>
            <trkpt lon="100.956435" lat="12.929019">
                <ele>46.200000</ele>
                <time>2018-02-25T03:31:15Z</time>
            </trkpt>
            <trkpt lon="100.956416" lat="12.928983">
                <ele>46.900000</ele>
                <time>2018-02-25T03:31:17Z</time>
            </trkpt>
            <trkpt lon="100.956381" lat="12.928955">
                <ele>46.900000</ele>
                <time>2018-02-25T03:31:19Z</time>
            </trkpt>
            <trkpt lon="100.956330" lat="12.928952">
                <ele>47.500000</ele>
                <time>2018-02-25T03:31:21Z</time>
            </trkpt>
            <trkpt lon="100.956304" lat="12.928965">
                <ele>47.500000</ele>
                <time>2018-02-25T03:31:22Z</time>
            </trkpt>
            <trkpt lon="100.956281" lat="12.928984">
                <ele>47.900000</ele>
                <time>2018-02-25T03:31:23Z</time>
            </trkpt>
            <trkpt lon="100.956261" lat="12.929005">
                <ele>47.200000</ele>
                <time>2018-02-25T03:31:24Z</time>
            </trkpt>
            <trkpt lon="100.956232" lat="12.929033">
                <ele>46.900000</ele>
                <time>2018-02-25T03:31:26Z</time>
            </trkpt>
            <trkpt lon="100.956205" lat="12.929073">
                <ele>46.600000</ele>
                <time>2018-02-25T03:31:28Z</time>
            </trkpt>
            <trkpt lon="100.956193" lat="12.929121">
                <ele>46.700000</ele>
                <time>2018-02-25T03:31:30Z</time>
            </trkpt>
            <trkpt lon="100.956174" lat="12.929170">
                <ele>46.500000</ele>
                <time>2018-02-25T03:31:32Z</time>
            </trkpt>
            <trkpt lon="100.956149" lat="12.929184">
                <ele>47.000000</ele>
                <time>2018-02-25T03:31:33Z</time>
            </trkpt>
            <trkpt lon="100.956119" lat="12.929189">
                <ele>47.000000</ele>
                <time>2018-02-25T03:31:34Z</time>
            </trkpt>
            <trkpt lon="100.956091" lat="12.929186">
                <ele>47.400000</ele>
                <time>2018-02-25T03:31:35Z</time>
            </trkpt>
            <trkpt lon="100.956047" lat="12.929196">
                <ele>47.900000</ele>
                <time>2018-02-25T03:31:37Z</time>
            </trkpt>
            <trkpt lon="100.956025" lat="12.929246">
                <ele>47.900000</ele>
                <time>2018-02-25T03:31:39Z</time>
            </trkpt>
            <trkpt lon="100.956008" lat="12.929294">
                <ele>47.700000</ele>
                <time>2018-02-25T03:31:41Z</time>
            </trkpt>
            <trkpt lon="100.955957" lat="12.929316">
                <ele>48.300000</ele>
                <time>2018-02-25T03:31:43Z</time>
            </trkpt>
            <trkpt lon="100.955929" lat="12.929323">
                <ele>48.900000</ele>
                <time>2018-02-25T03:31:44Z</time>
            </trkpt>
            <trkpt lon="100.955886" lat="12.929348">
                <ele>49.500000</ele>
                <time>2018-02-25T03:31:46Z</time>
            </trkpt>
            <trkpt lon="100.955865" lat="12.929371">
                <ele>49.500000</ele>
                <time>2018-02-25T03:31:47Z</time>
            </trkpt>
            <trkpt lon="100.955850" lat="12.929394">
                <ele>50.100000</ele>
                <time>2018-02-25T03:31:48Z</time>
            </trkpt>
            <trkpt lon="100.955828" lat="12.929419">
                <ele>50.100000</ele>
                <time>2018-02-25T03:31:49Z</time>
            </trkpt>
            <trkpt lon="100.955804" lat="12.929440">
                <ele>50.300000</ele>
                <time>2018-02-25T03:31:50Z</time>
            </trkpt>
            <trkpt lon="100.955765" lat="12.929482">
                <ele>50.500000</ele>
                <time>2018-02-25T03:31:52Z</time>
            </trkpt>
            <trkpt lon="100.955768" lat="12.929523">
                <ele>50.500000</ele>
                <time>2018-02-25T03:31:54Z</time>
            </trkpt>
            <trkpt lon="100.955785" lat="12.929565">
                <ele>50.200000</ele>
                <time>2018-02-25T03:31:56Z</time>
            </trkpt>
            <trkpt lon="100.955747" lat="12.929589">
                <ele>49.900000</ele>
                <time>2018-02-25T03:31:58Z</time>
            </trkpt>
            <trkpt lon="100.955720" lat="12.929571">
                <ele>50.600000</ele>
                <time>2018-02-25T03:32:00Z</time>
            </trkpt>
            <trkpt lon="100.955713" lat="12.929538">
                <ele>50.600000</ele>
                <time>2018-02-25T03:32:03Z</time>
            </trkpt>
            <trkpt lon="100.955707" lat="12.929490">
                <ele>50.700000</ele>
                <time>2018-02-25T03:32:06Z</time>
            </trkpt>
            <trkpt lon="100.955705" lat="12.929456">
                <ele>50.700000</ele>
                <time>2018-02-25T03:32:07Z</time>
            </trkpt>
            <trkpt lon="100.955705" lat="12.929422">
                <ele>50.700000</ele>
                <time>2018-02-25T03:32:08Z</time>
            </trkpt>
            <trkpt lon="100.955707" lat="12.929391">
                <ele>50.700000</ele>
                <time>2018-02-25T03:32:09Z</time>
            </trkpt>
            <trkpt lon="100.955715" lat="12.929361">
                <ele>50.700000</ele>
                <time>2018-02-25T03:32:10Z</time>
            </trkpt>
            <trkpt lon="100.955730" lat="12.929328">
                <ele>50.400000</ele>
                <time>2018-02-25T03:32:11Z</time>
            </trkpt>
            <trkpt lon="100.955753" lat="12.929296">
                <ele>50.400000</ele>
                <time>2018-02-25T03:32:12Z</time>
            </trkpt>
            <trkpt lon="100.955777" lat="12.929262">
                <ele>50.200000</ele>
                <time>2018-02-25T03:32:13Z</time>
            </trkpt>
            <trkpt lon="100.955797" lat="12.929230">
                <ele>50.200000</ele>
                <time>2018-02-25T03:32:14Z</time>
            </trkpt>
            <trkpt lon="100.955815" lat="12.929194">
                <ele>50.300000</ele>
                <time>2018-02-25T03:32:15Z</time>
            </trkpt>
            <trkpt lon="100.955829" lat="12.929158">
                <ele>50.100000</ele>
                <time>2018-02-25T03:32:16Z</time>
            </trkpt>
            <trkpt lon="100.955843" lat="12.929123">
                <ele>50.300000</ele>
                <time>2018-02-25T03:32:17Z</time>
            </trkpt>
            <trkpt lon="100.955843" lat="12.929090">
                <ele>50.600000</ele>
                <time>2018-02-25T03:32:18Z</time>
            </trkpt>
            <trkpt lon="100.955820" lat="12.929068">
                <ele>50.800000</ele>
                <time>2018-02-25T03:32:19Z</time>
            </trkpt>
            <trkpt lon="100.955785" lat="12.929064">
                <ele>51.000000</ele>
                <time>2018-02-25T03:32:20Z</time>
            </trkpt>
            <trkpt lon="100.955746" lat="12.929085">
                <ele>51.000000</ele>
                <time>2018-02-25T03:32:21Z</time>
            </trkpt>
            <trkpt lon="100.955720" lat="12.929125">
                <ele>51.000000</ele>
                <time>2018-02-25T03:32:22Z</time>
            </trkpt>
            <trkpt lon="100.955709" lat="12.929173">
                <ele>50.800000</ele>
                <time>2018-02-25T03:32:23Z</time>
            </trkpt>
            <trkpt lon="100.955709" lat="12.929221">
                <ele>50.600000</ele>
                <time>2018-02-25T03:32:24Z</time>
            </trkpt>
            <trkpt lon="100.955714" lat="12.929259">
                <ele>50.600000</ele>
                <time>2018-02-25T03:32:25Z</time>
            </trkpt>
            <trkpt lon="100.955706" lat="12.929291">
                <ele>50.500000</ele>
                <time>2018-02-25T03:32:26Z</time>
            </trkpt>
            <trkpt lon="100.955683" lat="12.929309">
                <ele>50.700000</ele>
                <time>2018-02-25T03:32:27Z</time>
            </trkpt>
            <trkpt lon="100.955642" lat="12.929308">
                <ele>50.800000</ele>
                <time>2018-02-25T03:32:28Z</time>
            </trkpt>
            <trkpt lon="100.955602" lat="12.929288">
                <ele>50.800000</ele>
                <time>2018-02-25T03:32:29Z</time>
            </trkpt>
            <trkpt lon="100.955567" lat="12.929256">
                <ele>51.100000</ele>
                <time>2018-02-25T03:32:30Z</time>
            </trkpt>
            <trkpt lon="100.955536" lat="12.929219">
                <ele>51.500000</ele>
                <time>2018-02-25T03:32:31Z</time>
            </trkpt>
            <trkpt lon="100.955505" lat="12.929186">
                <ele>51.900000</ele>
                <time>2018-02-25T03:32:32Z</time>
            </trkpt>
            <trkpt lon="100.955472" lat="12.929157">
                <ele>51.800000</ele>
                <time>2018-02-25T03:32:33Z</time>
            </trkpt>
            <trkpt lon="100.955445" lat="12.929125">
                <ele>52.100000</ele>
                <time>2018-02-25T03:32:34Z</time>
            </trkpt>
            <trkpt lon="100.955432" lat="12.929095">
                <ele>52.300000</ele>
                <time>2018-02-25T03:32:35Z</time>
            </trkpt>
            <trkpt lon="100.955442" lat="12.929037">
                <ele>52.600000</ele>
                <time>2018-02-25T03:32:37Z</time>
            </trkpt>
            <trkpt lon="100.955462" lat="12.929003">
                <ele>52.600000</ele>
                <time>2018-02-25T03:32:38Z</time>
            </trkpt>
            <trkpt lon="100.955477" lat="12.928968">
                <ele>52.600000</ele>
                <time>2018-02-25T03:32:39Z</time>
            </trkpt>
            <trkpt lon="100.955492" lat="12.928929">
                <ele>52.600000</ele>
                <time>2018-02-25T03:32:40Z</time>
            </trkpt>
            <trkpt lon="100.955508" lat="12.928887">
                <ele>52.600000</ele>
                <time>2018-02-25T03:32:41Z</time>
            </trkpt>
            <trkpt lon="100.955523" lat="12.928848">
                <ele>52.400000</ele>
                <time>2018-02-25T03:32:42Z</time>
            </trkpt>
            <trkpt lon="100.955536" lat="12.928808">
                <ele>52.200000</ele>
                <time>2018-02-25T03:32:43Z</time>
            </trkpt>
            <trkpt lon="100.955544" lat="12.928769">
                <ele>52.000000</ele>
                <time>2018-02-25T03:32:44Z</time>
            </trkpt>
            <trkpt lon="100.955543" lat="12.928731">
                <ele>51.800000</ele>
                <time>2018-02-25T03:32:45Z</time>
            </trkpt>
            <trkpt lon="100.955535" lat="12.928694">
                <ele>51.700000</ele>
                <time>2018-02-25T03:32:46Z</time>
            </trkpt>
            <trkpt lon="100.955515" lat="12.928656">
                <ele>51.700000</ele>
                <time>2018-02-25T03:32:47Z</time>
            </trkpt>
            <trkpt lon="100.955484" lat="12.928621">
                <ele>51.500000</ele>
                <time>2018-02-25T03:32:48Z</time>
            </trkpt>
            <trkpt lon="100.955453" lat="12.928588">
                <ele>51.300000</ele>
                <time>2018-02-25T03:32:49Z</time>
            </trkpt>
            <trkpt lon="100.955421" lat="12.928546">
                <ele>51.000000</ele>
                <time>2018-02-25T03:32:50Z</time>
            </trkpt>
            <trkpt lon="100.955416" lat="12.928497">
                <ele>50.800000</ele>
                <time>2018-02-25T03:32:51Z</time>
            </trkpt>
            <trkpt lon="100.955452" lat="12.928441">
                <ele>50.900000</ele>
                <time>2018-02-25T03:32:52Z</time>
            </trkpt>
            <trkpt lon="100.955473" lat="12.928409">
                <ele>51.300000</ele>
                <time>2018-02-25T03:32:53Z</time>
            </trkpt>
            <trkpt lon="100.955496" lat="12.928372">
                <ele>51.300000</ele>
                <time>2018-02-25T03:32:54Z</time>
            </trkpt>
            <trkpt lon="100.955512" lat="12.928330">
                <ele>51.300000</ele>
                <time>2018-02-25T03:32:55Z</time>
            </trkpt>
            <trkpt lon="100.955550" lat="12.928279">
                <ele>51.600000</ele>
                <time>2018-02-25T03:32:56Z</time>
            </trkpt>
            <trkpt lon="100.955558" lat="12.928230">
                <ele>51.800000</ele>
                <time>2018-02-25T03:32:57Z</time>
            </trkpt>
            <trkpt lon="100.955573" lat="12.928189">
                <ele>51.900000</ele>
                <time>2018-02-25T03:32:58Z</time>
            </trkpt>
            <trkpt lon="100.955604" lat="12.928143">
                <ele>52.200000</ele>
                <time>2018-02-25T03:32:59Z</time>
            </trkpt>
            <trkpt lon="100.955617" lat="12.928109">
                <ele>52.200000</ele>
                <time>2018-02-25T03:33:00Z</time>
            </trkpt>
            <trkpt lon="100.955643" lat="12.928066">
                <ele>52.400000</ele>
                <time>2018-02-25T03:33:01Z</time>
            </trkpt>
            <trkpt lon="100.955662" lat="12.928026">
                <ele>52.400000</ele>
                <time>2018-02-25T03:33:02Z</time>
            </trkpt>
            <trkpt lon="100.955685" lat="12.927985">
                <ele>52.200000</ele>
                <time>2018-02-25T03:33:03Z</time>
            </trkpt>
            <trkpt lon="100.955675" lat="12.927936">
                <ele>51.700000</ele>
                <time>2018-02-25T03:33:04Z</time>
            </trkpt>
            <trkpt lon="100.955676" lat="12.927892">
                <ele>51.400000</ele>
                <time>2018-02-25T03:33:05Z</time>
            </trkpt>
            <trkpt lon="100.955687" lat="12.927852">
                <ele>50.900000</ele>
                <time>2018-02-25T03:33:06Z</time>
            </trkpt>
            <trkpt lon="100.955709" lat="12.927814">
                <ele>50.600000</ele>
                <time>2018-02-25T03:33:07Z</time>
            </trkpt>
            <trkpt lon="100.955730" lat="12.927783">
                <ele>50.200000</ele>
                <time>2018-02-25T03:33:08Z</time>
            </trkpt>
            <trkpt lon="100.955749" lat="12.927747">
                <ele>50.100000</ele>
                <time>2018-02-25T03:33:09Z</time>
            </trkpt>
            <trkpt lon="100.955773" lat="12.927721">
                <ele>49.700000</ele>
                <time>2018-02-25T03:33:10Z</time>
            </trkpt>
            <trkpt lon="100.955753" lat="12.927673">
                <ele>49.900000</ele>
                <time>2018-02-25T03:33:11Z</time>
            </trkpt>
            <trkpt lon="100.955722" lat="12.927631">
                <ele>50.100000</ele>
                <time>2018-02-25T03:33:12Z</time>
            </trkpt>
            <trkpt lon="100.955683" lat="12.927610">
                <ele>50.400000</ele>
                <time>2018-02-25T03:33:13Z</time>
            </trkpt>
            <trkpt lon="100.955640" lat="12.927584">
                <ele>50.600000</ele>
                <time>2018-02-25T03:33:14Z</time>
            </trkpt>
            <trkpt lon="100.955617" lat="12.927550">
                <ele>50.600000</ele>
                <time>2018-02-25T03:33:15Z</time>
            </trkpt>
            <trkpt lon="100.955605" lat="12.927509">
                <ele>50.600000</ele>
                <time>2018-02-25T03:33:16Z</time>
            </trkpt>
            <trkpt lon="100.955592" lat="12.927459">
                <ele>50.800000</ele>
                <time>2018-02-25T03:33:17Z</time>
            </trkpt>
            <trkpt lon="100.955573" lat="12.927427">
                <ele>50.800000</ele>
                <time>2018-02-25T03:33:18Z</time>
            </trkpt>
            <trkpt lon="100.955569" lat="12.927384">
                <ele>50.800000</ele>
                <time>2018-02-25T03:33:19Z</time>
            </trkpt>
            <trkpt lon="100.955549" lat="12.927343">
                <ele>50.900000</ele>
                <time>2018-02-25T03:33:20Z</time>
            </trkpt>
            <trkpt lon="100.955539" lat="12.927314">
                <ele>50.700000</ele>
                <time>2018-02-25T03:33:21Z</time>
            </trkpt>
            <trkpt lon="100.955526" lat="12.927277">
                <ele>50.700000</ele>
                <time>2018-02-25T03:33:22Z</time>
            </trkpt>
            <trkpt lon="100.955530" lat="12.927247">
                <ele>50.500000</ele>
                <time>2018-02-25T03:33:23Z</time>
            </trkpt>
            <trkpt lon="100.955534" lat="12.927217">
                <ele>50.200000</ele>
                <time>2018-02-25T03:33:24Z</time>
            </trkpt>
            <trkpt lon="100.955551" lat="12.927194">
                <ele>50.200000</ele>
                <time>2018-02-25T03:33:25Z</time>
            </trkpt>
            <trkpt lon="100.955568" lat="12.927169">
                <ele>50.200000</ele>
                <time>2018-02-25T03:33:26Z</time>
            </trkpt>
            <trkpt lon="100.955577" lat="12.927118">
                <ele>50.300000</ele>
                <time>2018-02-25T03:33:27Z</time>
            </trkpt>
            <trkpt lon="100.955566" lat="12.927077">
                <ele>50.400000</ele>
                <time>2018-02-25T03:33:28Z</time>
            </trkpt>
            <trkpt lon="100.955560" lat="12.927030">
                <ele>50.500000</ele>
                <time>2018-02-25T03:33:29Z</time>
            </trkpt>
            <trkpt lon="100.955555" lat="12.926989">
                <ele>50.600000</ele>
                <time>2018-02-25T03:33:30Z</time>
            </trkpt>
            <trkpt lon="100.955542" lat="12.926951">
                <ele>51.000000</ele>
                <time>2018-02-25T03:33:31Z</time>
            </trkpt>
            <trkpt lon="100.955540" lat="12.926917">
                <ele>51.500000</ele>
                <time>2018-02-25T03:33:32Z</time>
            </trkpt>
            <trkpt lon="100.955543" lat="12.926876">
                <ele>51.900000</ele>
                <time>2018-02-25T03:33:33Z</time>
            </trkpt>
            <trkpt lon="100.955549" lat="12.926835">
                <ele>52.400000</ele>
                <time>2018-02-25T03:33:34Z</time>
            </trkpt>
            <trkpt lon="100.955558" lat="12.926797">
                <ele>52.900000</ele>
                <time>2018-02-25T03:33:35Z</time>
            </trkpt>
            <trkpt lon="100.955569" lat="12.926756">
                <ele>53.400000</ele>
                <time>2018-02-25T03:33:36Z</time>
            </trkpt>
            <trkpt lon="100.955583" lat="12.926719">
                <ele>53.900000</ele>
                <time>2018-02-25T03:33:37Z</time>
            </trkpt>
            <trkpt lon="100.955585" lat="12.926686">
                <ele>54.200000</ele>
                <time>2018-02-25T03:33:38Z</time>
            </trkpt>
            <trkpt lon="100.955571" lat="12.926657">
                <ele>54.200000</ele>
                <time>2018-02-25T03:33:39Z</time>
            </trkpt>
            <trkpt lon="100.955539" lat="12.926639">
                <ele>54.400000</ele>
                <time>2018-02-25T03:33:40Z</time>
            </trkpt>
            <trkpt lon="100.955500" lat="12.926623">
                <ele>54.300000</ele>
                <time>2018-02-25T03:33:41Z</time>
            </trkpt>
            <trkpt lon="100.955461" lat="12.926603">
                <ele>54.300000</ele>
                <time>2018-02-25T03:33:42Z</time>
            </trkpt>
            <trkpt lon="100.955428" lat="12.926578">
                <ele>54.100000</ele>
                <time>2018-02-25T03:33:43Z</time>
            </trkpt>
            <trkpt lon="100.955403" lat="12.926552">
                <ele>54.300000</ele>
                <time>2018-02-25T03:33:44Z</time>
            </trkpt>
            <trkpt lon="100.955381" lat="12.926523">
                <ele>54.000000</ele>
                <time>2018-02-25T03:33:45Z</time>
            </trkpt>
            <trkpt lon="100.955363" lat="12.926490">
                <ele>54.300000</ele>
                <time>2018-02-25T03:33:46Z</time>
            </trkpt>
            <trkpt lon="100.955344" lat="12.926456">
                <ele>54.500000</ele>
                <time>2018-02-25T03:33:47Z</time>
            </trkpt>
            <trkpt lon="100.955322" lat="12.926423">
                <ele>54.500000</ele>
                <time>2018-02-25T03:33:48Z</time>
            </trkpt>
            <trkpt lon="100.955297" lat="12.926391">
                <ele>54.200000</ele>
                <time>2018-02-25T03:33:49Z</time>
            </trkpt>
            <trkpt lon="100.955271" lat="12.926361">
                <ele>54.200000</ele>
                <time>2018-02-25T03:33:50Z</time>
            </trkpt>
            <trkpt lon="100.955245" lat="12.926333">
                <ele>53.700000</ele>
                <time>2018-02-25T03:33:51Z</time>
            </trkpt>
            <trkpt lon="100.955221" lat="12.926302">
                <ele>53.600000</ele>
                <time>2018-02-25T03:33:52Z</time>
            </trkpt>
            <trkpt lon="100.955199" lat="12.926268">
                <ele>53.100000</ele>
                <time>2018-02-25T03:33:53Z</time>
            </trkpt>
            <trkpt lon="100.955173" lat="12.926239">
                <ele>53.100000</ele>
                <time>2018-02-25T03:33:54Z</time>
            </trkpt>
            <trkpt lon="100.955138" lat="12.926217">
                <ele>52.700000</ele>
                <time>2018-02-25T03:33:55Z</time>
            </trkpt>
            <trkpt lon="100.955103" lat="12.926205">
                <ele>52.200000</ele>
                <time>2018-02-25T03:33:56Z</time>
            </trkpt>
            <trkpt lon="100.955072" lat="12.926203">
                <ele>51.700000</ele>
                <time>2018-02-25T03:33:57Z</time>
            </trkpt>
            <trkpt lon="100.955044" lat="12.926200">
                <ele>51.700000</ele>
                <time>2018-02-25T03:33:58Z</time>
            </trkpt>
            <trkpt lon="100.955010" lat="12.926168">
                <ele>51.200000</ele>
                <time>2018-02-25T03:34:00Z</time>
            </trkpt>
            <trkpt lon="100.955021" lat="12.926113">
                <ele>51.200000</ele>
                <time>2018-02-25T03:34:02Z</time>
            </trkpt>
            <trkpt lon="100.955030" lat="12.926085">
                <ele>51.200000</ele>
                <time>2018-02-25T03:34:03Z</time>
            </trkpt>
            <trkpt lon="100.955039" lat="12.926055">
                <ele>51.200000</ele>
                <time>2018-02-25T03:34:04Z</time>
            </trkpt>
            <trkpt lon="100.955043" lat="12.926021">
                <ele>51.700000</ele>
                <time>2018-02-25T03:34:05Z</time>
            </trkpt>
            <trkpt lon="100.955036" lat="12.925985">
                <ele>51.400000</ele>
                <time>2018-02-25T03:34:06Z</time>
            </trkpt>
            <trkpt lon="100.955020" lat="12.925952">
                <ele>51.900000</ele>
                <time>2018-02-25T03:34:07Z</time>
            </trkpt>
            <trkpt lon="100.955000" lat="12.925921">
                <ele>52.300000</ele>
                <time>2018-02-25T03:34:08Z</time>
            </trkpt>
            <trkpt lon="100.954978" lat="12.925893">
                <ele>52.000000</ele>
                <time>2018-02-25T03:34:09Z</time>
            </trkpt>
            <trkpt lon="100.954958" lat="12.925865">
                <ele>52.500000</ele>
                <time>2018-02-25T03:34:10Z</time>
            </trkpt>
            <trkpt lon="100.954939" lat="12.925838">
                <ele>52.900000</ele>
                <time>2018-02-25T03:34:11Z</time>
            </trkpt>
            <trkpt lon="100.954916" lat="12.925813">
                <ele>52.900000</ele>
                <time>2018-02-25T03:34:12Z</time>
            </trkpt>
            <trkpt lon="100.954892" lat="12.925787">
                <ele>53.300000</ele>
                <time>2018-02-25T03:34:13Z</time>
            </trkpt>
            <trkpt lon="100.954867" lat="12.925761">
                <ele>53.900000</ele>
                <time>2018-02-25T03:34:14Z</time>
            </trkpt>
            <trkpt lon="100.954844" lat="12.925734">
                <ele>53.900000</ele>
                <time>2018-02-25T03:34:15Z</time>
            </trkpt>
            <trkpt lon="100.954823" lat="12.925703">
                <ele>54.500000</ele>
                <time>2018-02-25T03:34:16Z</time>
            </trkpt>
            <trkpt lon="100.954801" lat="12.925672">
                <ele>54.800000</ele>
                <time>2018-02-25T03:34:17Z</time>
            </trkpt>
            <trkpt lon="100.954781" lat="12.925644">
                <ele>54.800000</ele>
                <time>2018-02-25T03:34:18Z</time>
            </trkpt>
            <trkpt lon="100.954761" lat="12.925619">
                <ele>55.100000</ele>
                <time>2018-02-25T03:34:19Z</time>
            </trkpt>
            <trkpt lon="100.954738" lat="12.925595">
                <ele>55.300000</ele>
                <time>2018-02-25T03:34:20Z</time>
            </trkpt>
            <trkpt lon="100.954711" lat="12.925571">
                <ele>55.300000</ele>
                <time>2018-02-25T03:34:21Z</time>
            </trkpt>
            <trkpt lon="100.954688" lat="12.925541">
                <ele>55.500000</ele>
                <time>2018-02-25T03:34:22Z</time>
            </trkpt>
            <trkpt lon="100.954667" lat="12.925512">
                <ele>55.600000</ele>
                <time>2018-02-25T03:34:23Z</time>
            </trkpt>
            <trkpt lon="100.954646" lat="12.925472">
                <ele>55.500000</ele>
                <time>2018-02-25T03:34:24Z</time>
            </trkpt>
            <trkpt lon="100.954624" lat="12.925453">
                <ele>55.500000</ele>
                <time>2018-02-25T03:34:25Z</time>
            </trkpt>
            <trkpt lon="100.954629" lat="12.925416">
                <ele>55.500000</ele>
                <time>2018-02-25T03:34:26Z</time>
            </trkpt>
            <trkpt lon="100.954621" lat="12.925386">
                <ele>55.500000</ele>
                <time>2018-02-25T03:34:27Z</time>
            </trkpt>
            <trkpt lon="100.954621" lat="12.925350">
                <ele>55.500000</ele>
                <time>2018-02-25T03:34:28Z</time>
            </trkpt>
            <trkpt lon="100.954633" lat="12.925308">
                <ele>55.500000</ele>
                <time>2018-02-25T03:34:29Z</time>
            </trkpt>
            <trkpt lon="100.954643" lat="12.925278">
                <ele>55.500000</ele>
                <time>2018-02-25T03:34:30Z</time>
            </trkpt>
            <trkpt lon="100.954655" lat="12.925246">
                <ele>55.400000</ele>
                <time>2018-02-25T03:34:31Z</time>
            </trkpt>
            <trkpt lon="100.954686" lat="12.925217">
                <ele>55.700000</ele>
                <time>2018-02-25T03:34:32Z</time>
            </trkpt>
            <trkpt lon="100.954678" lat="12.925184">
                <ele>55.700000</ele>
                <time>2018-02-25T03:34:33Z</time>
            </trkpt>
            <trkpt lon="100.954683" lat="12.925149">
                <ele>56.000000</ele>
                <time>2018-02-25T03:34:34Z</time>
            </trkpt>
            <trkpt lon="100.954684" lat="12.925120">
                <ele>56.400000</ele>
                <time>2018-02-25T03:34:35Z</time>
            </trkpt>
            <trkpt lon="100.954687" lat="12.925092">
                <ele>56.800000</ele>
                <time>2018-02-25T03:34:36Z</time>
            </trkpt>
            <trkpt lon="100.954691" lat="12.925060">
                <ele>56.800000</ele>
                <time>2018-02-25T03:34:37Z</time>
            </trkpt>
            <trkpt lon="100.954698" lat="12.925027">
                <ele>57.300000</ele>
                <time>2018-02-25T03:34:38Z</time>
            </trkpt>
            <trkpt lon="100.954708" lat="12.924996">
                <ele>57.600000</ele>
                <time>2018-02-25T03:34:39Z</time>
            </trkpt>
            <trkpt lon="100.954727" lat="12.924968">
                <ele>57.800000</ele>
                <time>2018-02-25T03:34:40Z</time>
            </trkpt>
            <trkpt lon="100.954749" lat="12.924942">
                <ele>57.800000</ele>
                <time>2018-02-25T03:34:41Z</time>
            </trkpt>
            <trkpt lon="100.954771" lat="12.924916">
                <ele>58.100000</ele>
                <time>2018-02-25T03:34:42Z</time>
            </trkpt>
            <trkpt lon="100.954787" lat="12.924894">
                <ele>58.100000</ele>
                <time>2018-02-25T03:34:43Z</time>
            </trkpt>
            <trkpt lon="100.954807" lat="12.924867">
                <ele>58.300000</ele>
                <time>2018-02-25T03:34:44Z</time>
            </trkpt>
            <trkpt lon="100.954829" lat="12.924836">
                <ele>58.100000</ele>
                <time>2018-02-25T03:34:45Z</time>
            </trkpt>
            <trkpt lon="100.954849" lat="12.924805">
                <ele>58.000000</ele>
                <time>2018-02-25T03:34:46Z</time>
            </trkpt>
            <trkpt lon="100.954858" lat="12.924774">
                <ele>58.000000</ele>
                <time>2018-02-25T03:34:47Z</time>
            </trkpt>
            <trkpt lon="100.954861" lat="12.924739">
                <ele>58.000000</ele>
                <time>2018-02-25T03:34:48Z</time>
            </trkpt>
            <trkpt lon="100.954856" lat="12.924699">
                <ele>58.000000</ele>
                <time>2018-02-25T03:34:49Z</time>
            </trkpt>
            <trkpt lon="100.954846" lat="12.924662">
                <ele>57.900000</ele>
                <time>2018-02-25T03:34:50Z</time>
            </trkpt>
            <trkpt lon="100.954840" lat="12.924628">
                <ele>57.600000</ele>
                <time>2018-02-25T03:34:51Z</time>
            </trkpt>
            <trkpt lon="100.954834" lat="12.924596">
                <ele>57.600000</ele>
                <time>2018-02-25T03:34:52Z</time>
            </trkpt>
            <trkpt lon="100.954834" lat="12.924565">
                <ele>57.300000</ele>
                <time>2018-02-25T03:34:53Z</time>
            </trkpt>
            <trkpt lon="100.954836" lat="12.924536">
                <ele>57.100000</ele>
                <time>2018-02-25T03:34:54Z</time>
            </trkpt>
            <trkpt lon="100.954836" lat="12.924507">
                <ele>56.900000</ele>
                <time>2018-02-25T03:34:55Z</time>
            </trkpt>
            <trkpt lon="100.954836" lat="12.924476">
                <ele>56.800000</ele>
                <time>2018-02-25T03:34:56Z</time>
            </trkpt>
            <trkpt lon="100.954839" lat="12.924442">
                <ele>56.600000</ele>
                <time>2018-02-25T03:34:57Z</time>
            </trkpt>
            <trkpt lon="100.954853" lat="12.924396">
                <ele>56.400000</ele>
                <time>2018-02-25T03:34:59Z</time>
            </trkpt>
            <trkpt lon="100.954865" lat="12.924371">
                <ele>56.200000</ele>
                <time>2018-02-25T03:35:00Z</time>
            </trkpt>
            <trkpt lon="100.954877" lat="12.924344">
                <ele>55.800000</ele>
                <time>2018-02-25T03:35:01Z</time>
            </trkpt>
            <trkpt lon="100.954887" lat="12.924312">
                <ele>55.800000</ele>
                <time>2018-02-25T03:35:02Z</time>
            </trkpt>
            <trkpt lon="100.954899" lat="12.924277">
                <ele>55.800000</ele>
                <time>2018-02-25T03:35:03Z</time>
            </trkpt>
            <trkpt lon="100.954913" lat="12.924243">
                <ele>55.800000</ele>
                <time>2018-02-25T03:35:04Z</time>
            </trkpt>
            <trkpt lon="100.954933" lat="12.924213">
                <ele>55.600000</ele>
                <time>2018-02-25T03:35:05Z</time>
            </trkpt>
            <trkpt lon="100.954957" lat="12.924184">
                <ele>55.500000</ele>
                <time>2018-02-25T03:35:06Z</time>
            </trkpt>
            <trkpt lon="100.954983" lat="12.924156">
                <ele>55.500000</ele>
                <time>2018-02-25T03:35:07Z</time>
            </trkpt>
            <trkpt lon="100.955006" lat="12.924125">
                <ele>55.800000</ele>
                <time>2018-02-25T03:35:08Z</time>
            </trkpt>
            <trkpt lon="100.955025" lat="12.924095">
                <ele>55.800000</ele>
                <time>2018-02-25T03:35:09Z</time>
            </trkpt>
            <trkpt lon="100.955040" lat="12.924066">
                <ele>56.200000</ele>
                <time>2018-02-25T03:35:10Z</time>
            </trkpt>
            <trkpt lon="100.955053" lat="12.924036">
                <ele>56.500000</ele>
                <time>2018-02-25T03:35:11Z</time>
            </trkpt>
            <trkpt lon="100.955072" lat="12.924007">
                <ele>57.100000</ele>
                <time>2018-02-25T03:35:12Z</time>
            </trkpt>
            <trkpt lon="100.955097" lat="12.923976">
                <ele>56.800000</ele>
                <time>2018-02-25T03:35:13Z</time>
            </trkpt>
            <trkpt lon="100.955124" lat="12.923945">
                <ele>57.600000</ele>
                <time>2018-02-25T03:35:14Z</time>
            </trkpt>
            <trkpt lon="100.955151" lat="12.923920">
                <ele>58.100000</ele>
                <time>2018-02-25T03:35:15Z</time>
            </trkpt>
            <trkpt lon="100.955181" lat="12.923897">
                <ele>57.800000</ele>
                <time>2018-02-25T03:35:16Z</time>
            </trkpt>
            <trkpt lon="100.955212" lat="12.923871">
                <ele>58.500000</ele>
                <time>2018-02-25T03:35:17Z</time>
            </trkpt>
            <trkpt lon="100.955234" lat="12.923842">
                <ele>59.000000</ele>
                <time>2018-02-25T03:35:18Z</time>
            </trkpt>
            <trkpt lon="100.955244" lat="12.923809">
                <ele>59.000000</ele>
                <time>2018-02-25T03:35:19Z</time>
            </trkpt>
            <trkpt lon="100.955246" lat="12.923772">
                <ele>59.800000</ele>
                <time>2018-02-25T03:35:20Z</time>
            </trkpt>
            <trkpt lon="100.955244" lat="12.923737">
                <ele>60.500000</ele>
                <time>2018-02-25T03:35:21Z</time>
            </trkpt>
            <trkpt lon="100.955247" lat="12.923702">
                <ele>61.200000</ele>
                <time>2018-02-25T03:35:22Z</time>
            </trkpt>
            <trkpt lon="100.955252" lat="12.923664">
                <ele>61.800000</ele>
                <time>2018-02-25T03:35:23Z</time>
            </trkpt>
            <trkpt lon="100.955256" lat="12.923624">
                <ele>62.000000</ele>
                <time>2018-02-25T03:35:24Z</time>
            </trkpt>
            <trkpt lon="100.955252" lat="12.923587">
                <ele>62.200000</ele>
                <time>2018-02-25T03:35:26Z</time>
            </trkpt>
            <trkpt lon="100.955215" lat="12.923562">
                <ele>62.200000</ele>
                <time>2018-02-25T03:35:28Z</time>
            </trkpt>
            <trkpt lon="100.955176" lat="12.923528">
                <ele>62.700000</ele>
                <time>2018-02-25T03:35:30Z</time>
            </trkpt>
            <trkpt lon="100.955141" lat="12.923484">
                <ele>62.800000</ele>
                <time>2018-02-25T03:35:32Z</time>
            </trkpt>
            <trkpt lon="100.955118" lat="12.923460">
                <ele>62.400000</ele>
                <time>2018-02-25T03:35:33Z</time>
            </trkpt>
            <trkpt lon="100.955095" lat="12.923437">
                <ele>62.400000</ele>
                <time>2018-02-25T03:35:34Z</time>
            </trkpt>
            <trkpt lon="100.955077" lat="12.923416">
                <ele>62.100000</ele>
                <time>2018-02-25T03:35:35Z</time>
            </trkpt>
            <trkpt lon="100.955067" lat="12.923375">
                <ele>62.000000</ele>
                <time>2018-02-25T03:35:37Z</time>
            </trkpt>
            <trkpt lon="100.955070" lat="12.923333">
                <ele>62.000000</ele>
                <time>2018-02-25T03:35:39Z</time>
            </trkpt>
            <trkpt lon="100.955063" lat="12.923288">
                <ele>62.000000</ele>
                <time>2018-02-25T03:35:41Z</time>
            </trkpt>
            <trkpt lon="100.955059" lat="12.923256">
                <ele>61.900000</ele>
                <time>2018-02-25T03:35:42Z</time>
            </trkpt>
            <trkpt lon="100.955054" lat="12.923229">
                <ele>61.900000</ele>
                <time>2018-02-25T03:35:43Z</time>
            </trkpt>
            <trkpt lon="100.955045" lat="12.923203">
                <ele>61.900000</ele>
                <time>2018-02-25T03:35:44Z</time>
            </trkpt>
            <trkpt lon="100.955027" lat="12.923174">
                <ele>61.900000</ele>
                <time>2018-02-25T03:35:45Z</time>
            </trkpt>
            <trkpt lon="100.955008" lat="12.923145">
                <ele>61.800000</ele>
                <time>2018-02-25T03:35:46Z</time>
            </trkpt>
            <trkpt lon="100.954995" lat="12.923118">
                <ele>61.500000</ele>
                <time>2018-02-25T03:35:47Z</time>
            </trkpt>
            <trkpt lon="100.954984" lat="12.923090">
                <ele>61.500000</ele>
                <time>2018-02-25T03:35:48Z</time>
            </trkpt>
            <trkpt lon="100.954975" lat="12.923062">
                <ele>61.200000</ele>
                <time>2018-02-25T03:35:49Z</time>
            </trkpt>
            <trkpt lon="100.954972" lat="12.923008">
                <ele>60.900000</ele>
                <time>2018-02-25T03:35:51Z</time>
            </trkpt>
            <trkpt lon="100.954979" lat="12.922977">
                <ele>60.600000</ele>
                <time>2018-02-25T03:35:52Z</time>
            </trkpt>
            <trkpt lon="100.954990" lat="12.922926">
                <ele>60.100000</ele>
                <time>2018-02-25T03:35:54Z</time>
            </trkpt>
            <trkpt lon="100.954977" lat="12.922886">
                <ele>59.600000</ele>
                <time>2018-02-25T03:35:56Z</time>
            </trkpt>
            <trkpt lon="100.954929" lat="12.922877">
                <ele>59.100000</ele>
                <time>2018-02-25T03:35:58Z</time>
            </trkpt>
            <trkpt lon="100.954898" lat="12.922881">
                <ele>59.400000</ele>
                <time>2018-02-25T03:35:59Z</time>
            </trkpt>
            <trkpt lon="100.954868" lat="12.922884">
                <ele>59.300000</ele>
                <time>2018-02-25T03:36:00Z</time>
            </trkpt>
            <trkpt lon="100.954839" lat="12.922881">
                <ele>59.300000</ele>
                <time>2018-02-25T03:36:01Z</time>
            </trkpt>
            <trkpt lon="100.954797" lat="12.922858">
                <ele>58.900000</ele>
                <time>2018-02-25T03:36:03Z</time>
            </trkpt>
            <trkpt lon="100.954770" lat="12.922825">
                <ele>58.300000</ele>
                <time>2018-02-25T03:36:05Z</time>
            </trkpt>
            <trkpt lon="100.954765" lat="12.922792">
                <ele>57.700000</ele>
                <time>2018-02-25T03:36:07Z</time>
            </trkpt>
            <trkpt lon="100.954779" lat="12.922750">
                <ele>57.200000</ele>
                <time>2018-02-25T03:36:09Z</time>
            </trkpt>
            <trkpt lon="100.954789" lat="12.922700">
                <ele>57.000000</ele>
                <time>2018-02-25T03:36:11Z</time>
            </trkpt>
            <trkpt lon="100.954782" lat="12.922671">
                <ele>56.100000</ele>
                <time>2018-02-25T03:36:12Z</time>
            </trkpt>
            <trkpt lon="100.954758" lat="12.922627">
                <ele>55.400000</ele>
                <time>2018-02-25T03:36:14Z</time>
            </trkpt>
            <trkpt lon="100.954744" lat="12.922598">
                <ele>55.300000</ele>
                <time>2018-02-25T03:36:15Z</time>
            </trkpt>
            <trkpt lon="100.954735" lat="12.922570">
                <ele>54.300000</ele>
                <time>2018-02-25T03:36:16Z</time>
            </trkpt>
            <trkpt lon="100.954739" lat="12.922515">
                <ele>53.600000</ele>
                <time>2018-02-25T03:36:18Z</time>
            </trkpt>
            <trkpt lon="100.954749" lat="12.922484">
                <ele>53.200000</ele>
                <time>2018-02-25T03:36:19Z</time>
            </trkpt>
            <trkpt lon="100.954760" lat="12.922452">
                <ele>52.900000</ele>
                <time>2018-02-25T03:36:20Z</time>
            </trkpt>
            <trkpt lon="100.954763" lat="12.922421">
                <ele>52.900000</ele>
                <time>2018-02-25T03:36:21Z</time>
            </trkpt>
            <trkpt lon="100.954768" lat="12.922389">
                <ele>52.600000</ele>
                <time>2018-02-25T03:36:22Z</time>
            </trkpt>
            <trkpt lon="100.954773" lat="12.922356">
                <ele>52.200000</ele>
                <time>2018-02-25T03:36:23Z</time>
            </trkpt>
            <trkpt lon="100.954776" lat="12.922326">
                <ele>51.900000</ele>
                <time>2018-02-25T03:36:24Z</time>
            </trkpt>
            <trkpt lon="100.954777" lat="12.922272">
                <ele>51.700000</ele>
                <time>2018-02-25T03:36:26Z</time>
            </trkpt>
            <trkpt lon="100.954780" lat="12.922243">
                <ele>51.400000</ele>
                <time>2018-02-25T03:36:27Z</time>
            </trkpt>
            <trkpt lon="100.954787" lat="12.922213">
                <ele>51.900000</ele>
                <time>2018-02-25T03:36:28Z</time>
            </trkpt>
            <trkpt lon="100.954799" lat="12.922187">
                <ele>51.600000</ele>
                <time>2018-02-25T03:36:29Z</time>
            </trkpt>
            <trkpt lon="100.954816" lat="12.922166">
                <ele>51.400000</ele>
                <time>2018-02-25T03:36:30Z</time>
            </trkpt>
            <trkpt lon="100.954834" lat="12.922145">
                <ele>52.000000</ele>
                <time>2018-02-25T03:36:31Z</time>
            </trkpt>
            <trkpt lon="100.954851" lat="12.922121">
                <ele>51.800000</ele>
                <time>2018-02-25T03:36:32Z</time>
            </trkpt>
            <trkpt lon="100.954867" lat="12.922094">
                <ele>51.800000</ele>
                <time>2018-02-25T03:36:33Z</time>
            </trkpt>
            <trkpt lon="100.954878" lat="12.922064">
                <ele>52.300000</ele>
                <time>2018-02-25T03:36:34Z</time>
            </trkpt>
            <trkpt lon="100.954887" lat="12.922035">
                <ele>52.000000</ele>
                <time>2018-02-25T03:36:35Z</time>
            </trkpt>
            <trkpt lon="100.954894" lat="12.922007">
                <ele>52.000000</ele>
                <time>2018-02-25T03:36:36Z</time>
            </trkpt>
            <trkpt lon="100.954910" lat="12.921979">
                <ele>51.600000</ele>
                <time>2018-02-25T03:36:37Z</time>
            </trkpt>
            <trkpt lon="100.954934" lat="12.921952">
                <ele>51.900000</ele>
                <time>2018-02-25T03:36:38Z</time>
            </trkpt>
            <trkpt lon="100.954958" lat="12.921933">
                <ele>52.600000</ele>
                <time>2018-02-25T03:36:39Z</time>
            </trkpt>
            <trkpt lon="100.954980" lat="12.921916">
                <ele>52.100000</ele>
                <time>2018-02-25T03:36:40Z</time>
            </trkpt>
            <trkpt lon="100.955014" lat="12.921892">
                <ele>52.700000</ele>
                <time>2018-02-25T03:36:42Z</time>
            </trkpt>
            <trkpt lon="100.955002" lat="12.921823">
                <ele>51.700000</ele>
                <time>2018-02-25T03:36:50Z</time>
            </trkpt>
            <trkpt lon="100.954979" lat="12.921803">
                <ele>51.100000</ele>
                <time>2018-02-25T03:36:51Z</time>
            </trkpt>
            <trkpt lon="100.954947" lat="12.921782">
                <ele>49.900000</ele>
                <time>2018-02-25T03:36:52Z</time>
            </trkpt>
            <trkpt lon="100.954931" lat="12.921753">
                <ele>49.900000</ele>
                <time>2018-02-25T03:36:53Z</time>
            </trkpt>
            <trkpt lon="100.954935" lat="12.921722">
                <ele>49.500000</ele>
                <time>2018-02-25T03:36:54Z</time>
            </trkpt>
            <trkpt lon="100.954949" lat="12.921694">
                <ele>49.100000</ele>
                <time>2018-02-25T03:36:55Z</time>
            </trkpt>
            <trkpt lon="100.954968" lat="12.921671">
                <ele>49.600000</ele>
                <time>2018-02-25T03:36:57Z</time>
            </trkpt>
            <trkpt lon="100.955011" lat="12.921664">
                <ele>49.700000</ele>
                <time>2018-02-25T03:36:59Z</time>
            </trkpt>
            <trkpt lon="100.955047" lat="12.921666">
                <ele>50.200000</ele>
                <time>2018-02-25T03:37:01Z</time>
            </trkpt>
            <trkpt lon="100.955094" lat="12.921680">
                <ele>51.100000</ele>
                <time>2018-02-25T03:37:02Z</time>
            </trkpt>
            <trkpt lon="100.955124" lat="12.921688">
                <ele>51.100000</ele>
                <time>2018-02-25T03:37:03Z</time>
            </trkpt>
            <trkpt lon="100.955163" lat="12.921692">
                <ele>51.600000</ele>
                <time>2018-02-25T03:37:05Z</time>
            </trkpt>
            <trkpt lon="100.955203" lat="12.921660">
                <ele>51.500000</ele>
                <time>2018-02-25T03:37:07Z</time>
            </trkpt>
            <trkpt lon="100.955234" lat="12.921622">
                <ele>51.500000</ele>
                <time>2018-02-25T03:37:09Z</time>
            </trkpt>
            <trkpt lon="100.955255" lat="12.921576">
                <ele>51.000000</ele>
                <time>2018-02-25T03:37:11Z</time>
            </trkpt>
            <trkpt lon="100.955271" lat="12.921532">
                <ele>51.000000</ele>
                <time>2018-02-25T03:37:13Z</time>
            </trkpt>
            <trkpt lon="100.955280" lat="12.921491">
                <ele>50.500000</ele>
                <time>2018-02-25T03:37:15Z</time>
            </trkpt>
            <trkpt lon="100.955285" lat="12.921444">
                <ele>50.100000</ele>
                <time>2018-02-25T03:37:17Z</time>
            </trkpt>
            <trkpt lon="100.955319" lat="12.921413">
                <ele>50.000000</ele>
                <time>2018-02-25T03:37:19Z</time>
            </trkpt>
            <trkpt lon="100.955358" lat="12.921376">
                <ele>50.800000</ele>
                <time>2018-02-25T03:37:21Z</time>
            </trkpt>
            <trkpt lon="100.955368" lat="12.921343">
                <ele>50.300000</ele>
                <time>2018-02-25T03:37:22Z</time>
            </trkpt>
            <trkpt lon="100.955372" lat="12.921307">
                <ele>49.900000</ele>
                <time>2018-02-25T03:37:23Z</time>
            </trkpt>
            <trkpt lon="100.955376" lat="12.921271">
                <ele>49.600000</ele>
                <time>2018-02-25T03:37:24Z</time>
            </trkpt>
            <trkpt lon="100.955378" lat="12.921233">
                <ele>49.300000</ele>
                <time>2018-02-25T03:37:25Z</time>
            </trkpt>
            <trkpt lon="100.955386" lat="12.921194">
                <ele>49.000000</ele>
                <time>2018-02-25T03:37:26Z</time>
            </trkpt>
            <trkpt lon="100.955401" lat="12.921160">
                <ele>49.500000</ele>
                <time>2018-02-25T03:37:27Z</time>
            </trkpt>
            <trkpt lon="100.955422" lat="12.921133">
                <ele>49.500000</ele>
                <time>2018-02-25T03:37:28Z</time>
            </trkpt>
            <trkpt lon="100.955444" lat="12.921112">
                <ele>50.000000</ele>
                <time>2018-02-25T03:37:29Z</time>
            </trkpt>
            <trkpt lon="100.955481" lat="12.921079">
                <ele>50.400000</ele>
                <time>2018-02-25T03:37:31Z</time>
            </trkpt>
            <trkpt lon="100.955508" lat="12.921049">
                <ele>50.400000</ele>
                <time>2018-02-25T03:37:33Z</time>
            </trkpt>
            <trkpt lon="100.955534" lat="12.921021">
                <ele>51.000000</ele>
                <time>2018-02-25T03:37:35Z</time>
            </trkpt>
            <trkpt lon="100.955552" lat="12.920980">
                <ele>50.900000</ele>
                <time>2018-02-25T03:37:37Z</time>
            </trkpt>
            <trkpt lon="100.955560" lat="12.920936">
                <ele>52.000000</ele>
                <time>2018-02-25T03:37:39Z</time>
            </trkpt>
            <trkpt lon="100.955576" lat="12.920890">
                <ele>52.200000</ele>
                <time>2018-02-25T03:37:41Z</time>
            </trkpt>
            <trkpt lon="100.955582" lat="12.920843">
                <ele>52.300000</ele>
                <time>2018-02-25T03:37:43Z</time>
            </trkpt>
            <trkpt lon="100.955590" lat="12.920801">
                <ele>52.500000</ele>
                <time>2018-02-25T03:37:45Z</time>
            </trkpt>
            <trkpt lon="100.955604" lat="12.920758">
                <ele>53.500000</ele>
                <time>2018-02-25T03:37:48Z</time>
            </trkpt>
            <trkpt lon="100.955622" lat="12.920735">
                <ele>53.700000</ele>
                <time>2018-02-25T03:37:49Z</time>
            </trkpt>
            <trkpt lon="100.955655" lat="12.920712">
                <ele>54.500000</ele>
                <time>2018-02-25T03:37:50Z</time>
            </trkpt>
            <trkpt lon="100.955684" lat="12.920703">
                <ele>54.700000</ele>
                <time>2018-02-25T03:37:51Z</time>
            </trkpt>
            <trkpt lon="100.955738" lat="12.920701">
                <ele>56.100000</ele>
                <time>2018-02-25T03:37:53Z</time>
            </trkpt>
            <trkpt lon="100.955775" lat="12.920718">
                <ele>56.400000</ele>
                <time>2018-02-25T03:37:55Z</time>
            </trkpt>
            <trkpt lon="100.955803" lat="12.920722">
                <ele>56.400000</ele>
                <time>2018-02-25T03:37:56Z</time>
            </trkpt>
            <trkpt lon="100.955851" lat="12.920724">
                <ele>57.000000</ele>
                <time>2018-02-25T03:37:58Z</time>
            </trkpt>
            <trkpt lon="100.955898" lat="12.920721">
                <ele>57.400000</ele>
                <time>2018-02-25T03:38:00Z</time>
            </trkpt>
            <trkpt lon="100.955929" lat="12.920726">
                <ele>57.600000</ele>
                <time>2018-02-25T03:38:02Z</time>
            </trkpt>
            <trkpt lon="100.955974" lat="12.920735">
                <ele>57.900000</ele>
                <time>2018-02-25T03:38:04Z</time>
            </trkpt>
            <trkpt lon="100.956014" lat="12.920739">
                <ele>58.100000</ele>
                <time>2018-02-25T03:38:06Z</time>
            </trkpt>
            <trkpt lon="100.956062" lat="12.920725">
                <ele>58.200000</ele>
                <time>2018-02-25T03:38:08Z</time>
            </trkpt>
            <trkpt lon="100.956088" lat="12.920709">
                <ele>58.200000</ele>
                <time>2018-02-25T03:38:09Z</time>
            </trkpt>
            <trkpt lon="100.956112" lat="12.920692">
                <ele>58.700000</ele>
                <time>2018-02-25T03:38:10Z</time>
            </trkpt>
            <trkpt lon="100.956143" lat="12.920647">
                <ele>59.100000</ele>
                <time>2018-02-25T03:38:12Z</time>
            </trkpt>
            <trkpt lon="100.956158" lat="12.920621">
                <ele>59.300000</ele>
                <time>2018-02-25T03:38:13Z</time>
            </trkpt>
            <trkpt lon="100.956174" lat="12.920597">
                <ele>59.300000</ele>
                <time>2018-02-25T03:38:14Z</time>
            </trkpt>
            <trkpt lon="100.956189" lat="12.920573">
                <ele>59.500000</ele>
                <time>2018-02-25T03:38:15Z</time>
            </trkpt>
            <trkpt lon="100.956203" lat="12.920523">
                <ele>59.800000</ele>
                <time>2018-02-25T03:38:17Z</time>
            </trkpt>
            <trkpt lon="100.956210" lat="12.920492">
                <ele>59.900000</ele>
                <time>2018-02-25T03:38:18Z</time>
            </trkpt>
            <trkpt lon="100.956215" lat="12.920460">
                <ele>59.900000</ele>
                <time>2018-02-25T03:38:19Z</time>
            </trkpt>
            <trkpt lon="100.956224" lat="12.920428">
                <ele>59.900000</ele>
                <time>2018-02-25T03:38:20Z</time>
            </trkpt>
            <trkpt lon="100.956241" lat="12.920398">
                <ele>59.900000</ele>
                <time>2018-02-25T03:38:21Z</time>
            </trkpt>
            <trkpt lon="100.956259" lat="12.920372">
                <ele>59.900000</ele>
                <time>2018-02-25T03:38:22Z</time>
            </trkpt>
            <trkpt lon="100.956279" lat="12.920348">
                <ele>59.900000</ele>
                <time>2018-02-25T03:38:23Z</time>
            </trkpt>
            <trkpt lon="100.956308" lat="12.920310">
                <ele>59.900000</ele>
                <time>2018-02-25T03:38:25Z</time>
            </trkpt>
            <trkpt lon="100.956328" lat="12.920276">
                <ele>59.800000</ele>
                <time>2018-02-25T03:38:27Z</time>
            </trkpt>
            <trkpt lon="100.956347" lat="12.920237">
                <ele>59.500000</ele>
                <time>2018-02-25T03:38:30Z</time>
            </trkpt>
            <trkpt lon="100.956359" lat="12.920206">
                <ele>59.100000</ele>
                <time>2018-02-25T03:38:32Z</time>
            </trkpt>
            <trkpt lon="100.956364" lat="12.920166">
                <ele>59.000000</ele>
                <time>2018-02-25T03:38:35Z</time>
            </trkpt>
            <trkpt lon="100.956380" lat="12.920130">
                <ele>58.800000</ele>
                <time>2018-02-25T03:38:41Z</time>
            </trkpt>
            <trkpt lon="100.956383" lat="12.920082">
                <ele>58.000000</ele>
                <time>2018-02-25T03:38:43Z</time>
            </trkpt>
            <trkpt lon="100.956366" lat="12.920055">
                <ele>58.000000</ele>
                <time>2018-02-25T03:38:44Z</time>
            </trkpt>
            <trkpt lon="100.956343" lat="12.920027">
                <ele>58.000000</ele>
                <time>2018-02-25T03:38:45Z</time>
            </trkpt>
            <trkpt lon="100.956320" lat="12.919998">
                <ele>58.000000</ele>
                <time>2018-02-25T03:38:46Z</time>
            </trkpt>
            <trkpt lon="100.956297" lat="12.919965">
                <ele>57.900000</ele>
                <time>2018-02-25T03:38:47Z</time>
            </trkpt>
            <trkpt lon="100.956281" lat="12.919929">
                <ele>57.600000</ele>
                <time>2018-02-25T03:38:48Z</time>
            </trkpt>
            <trkpt lon="100.956272" lat="12.919891">
                <ele>57.300000</ele>
                <time>2018-02-25T03:38:49Z</time>
            </trkpt>
            <trkpt lon="100.956268" lat="12.919851">
                <ele>57.000000</ele>
                <time>2018-02-25T03:38:50Z</time>
            </trkpt>
            <trkpt lon="100.956267" lat="12.919808">
                <ele>56.800000</ele>
                <time>2018-02-25T03:38:51Z</time>
            </trkpt>
            <trkpt lon="100.956269" lat="12.919756">
                <ele>56.800000</ele>
                <time>2018-02-25T03:38:52Z</time>
            </trkpt>
            <trkpt lon="100.956270" lat="12.919715">
                <ele>56.800000</ele>
                <time>2018-02-25T03:38:53Z</time>
            </trkpt>
            <trkpt lon="100.956266" lat="12.919672">
                <ele>56.900000</ele>
                <time>2018-02-25T03:38:54Z</time>
            </trkpt>
            <trkpt lon="100.956264" lat="12.919614">
                <ele>57.100000</ele>
                <time>2018-02-25T03:38:55Z</time>
            </trkpt>
            <trkpt lon="100.956256" lat="12.919564">
                <ele>57.200000</ele>
                <time>2018-02-25T03:38:56Z</time>
            </trkpt>
            <trkpt lon="100.956239" lat="12.919523">
                <ele>57.400000</ele>
                <time>2018-02-25T03:38:57Z</time>
            </trkpt>
            <trkpt lon="100.956225" lat="12.919482">
                <ele>57.700000</ele>
                <time>2018-02-25T03:38:58Z</time>
            </trkpt>
            <trkpt lon="100.956214" lat="12.919437">
                <ele>58.000000</ele>
                <time>2018-02-25T03:38:59Z</time>
            </trkpt>
            <trkpt lon="100.956220" lat="12.919393">
                <ele>58.200000</ele>
                <time>2018-02-25T03:39:00Z</time>
            </trkpt>
            <trkpt lon="100.956219" lat="12.919350">
                <ele>58.300000</ele>
                <time>2018-02-25T03:39:01Z</time>
            </trkpt>
            <trkpt lon="100.956215" lat="12.919302">
                <ele>58.500000</ele>
                <time>2018-02-25T03:39:02Z</time>
            </trkpt>
            <trkpt lon="100.956209" lat="12.919257">
                <ele>58.600000</ele>
                <time>2018-02-25T03:39:03Z</time>
            </trkpt>
            <trkpt lon="100.956207" lat="12.919216">
                <ele>58.700000</ele>
                <time>2018-02-25T03:39:04Z</time>
            </trkpt>
            <trkpt lon="100.956202" lat="12.919173">
                <ele>58.900000</ele>
                <time>2018-02-25T03:39:05Z</time>
            </trkpt>
            <trkpt lon="100.956196" lat="12.919130">
                <ele>59.000000</ele>
                <time>2018-02-25T03:39:06Z</time>
            </trkpt>
            <trkpt lon="100.956187" lat="12.919090">
                <ele>59.100000</ele>
                <time>2018-02-25T03:39:07Z</time>
            </trkpt>
            <trkpt lon="100.956189" lat="12.919052">
                <ele>59.200000</ele>
                <time>2018-02-25T03:39:08Z</time>
            </trkpt>
            <trkpt lon="100.956183" lat="12.919011">
                <ele>59.400000</ele>
                <time>2018-02-25T03:39:09Z</time>
            </trkpt>
            <trkpt lon="100.956176" lat="12.918972">
                <ele>59.600000</ele>
                <time>2018-02-25T03:39:10Z</time>
            </trkpt>
            <trkpt lon="100.956169" lat="12.918931">
                <ele>59.900000</ele>
                <time>2018-02-25T03:39:11Z</time>
            </trkpt>
            <trkpt lon="100.956162" lat="12.918889">
                <ele>60.100000</ele>
                <time>2018-02-25T03:39:12Z</time>
            </trkpt>
            <trkpt lon="100.956155" lat="12.918849">
                <ele>60.300000</ele>
                <time>2018-02-25T03:39:13Z</time>
            </trkpt>
            <trkpt lon="100.956150" lat="12.918814">
                <ele>60.700000</ele>
                <time>2018-02-25T03:39:14Z</time>
            </trkpt>
            <trkpt lon="100.956145" lat="12.918780">
                <ele>61.200000</ele>
                <time>2018-02-25T03:39:15Z</time>
            </trkpt>
            <trkpt lon="100.956150" lat="12.918731">
                <ele>61.800000</ele>
                <time>2018-02-25T03:39:16Z</time>
            </trkpt>
            <trkpt lon="100.956154" lat="12.918674">
                <ele>62.500000</ele>
                <time>2018-02-25T03:39:18Z</time>
            </trkpt>
            <trkpt lon="100.956133" lat="12.918632">
                <ele>62.800000</ele>
                <time>2018-02-25T03:39:19Z</time>
            </trkpt>
            <trkpt lon="100.956122" lat="12.918592">
                <ele>62.900000</ele>
                <time>2018-02-25T03:39:20Z</time>
            </trkpt>
            <trkpt lon="100.956113" lat="12.918546">
                <ele>63.100000</ele>
                <time>2018-02-25T03:39:21Z</time>
            </trkpt>
            <trkpt lon="100.956098" lat="12.918504">
                <ele>63.200000</ele>
                <time>2018-02-25T03:39:22Z</time>
            </trkpt>
            <trkpt lon="100.956086" lat="12.918463">
                <ele>63.400000</ele>
                <time>2018-02-25T03:39:23Z</time>
            </trkpt>
            <trkpt lon="100.956078" lat="12.918412">
                <ele>63.500000</ele>
                <time>2018-02-25T03:39:24Z</time>
            </trkpt>
            <trkpt lon="100.956059" lat="12.918371">
                <ele>63.600000</ele>
                <time>2018-02-25T03:39:25Z</time>
            </trkpt>
            <trkpt lon="100.956054" lat="12.918329">
                <ele>63.800000</ele>
                <time>2018-02-25T03:39:26Z</time>
            </trkpt>
            <trkpt lon="100.956047" lat="12.918287">
                <ele>63.900000</ele>
                <time>2018-02-25T03:39:27Z</time>
            </trkpt>
            <trkpt lon="100.956035" lat="12.918250">
                <ele>64.000000</ele>
                <time>2018-02-25T03:39:28Z</time>
            </trkpt>
            <trkpt lon="100.956025" lat="12.918209">
                <ele>64.000000</ele>
                <time>2018-02-25T03:39:29Z</time>
            </trkpt>
            <trkpt lon="100.956014" lat="12.918167">
                <ele>64.000000</ele>
                <time>2018-02-25T03:39:30Z</time>
            </trkpt>
            <trkpt lon="100.956002" lat="12.918125">
                <ele>64.100000</ele>
                <time>2018-02-25T03:39:31Z</time>
            </trkpt>
            <trkpt lon="100.955991" lat="12.918083">
                <ele>64.100000</ele>
                <time>2018-02-25T03:39:32Z</time>
            </trkpt>
            <trkpt lon="100.955983" lat="12.918042">
                <ele>64.100000</ele>
                <time>2018-02-25T03:39:33Z</time>
            </trkpt>
            <trkpt lon="100.955974" lat="12.917999">
                <ele>64.100000</ele>
                <time>2018-02-25T03:39:34Z</time>
            </trkpt>
            <trkpt lon="100.955966" lat="12.917958">
                <ele>64.200000</ele>
                <time>2018-02-25T03:39:35Z</time>
            </trkpt>
            <trkpt lon="100.955959" lat="12.917919">
                <ele>64.200000</ele>
                <time>2018-02-25T03:39:36Z</time>
            </trkpt>
            <trkpt lon="100.955951" lat="12.917879">
                <ele>64.200000</ele>
                <time>2018-02-25T03:39:37Z</time>
            </trkpt>
            <trkpt lon="100.955941" lat="12.917839">
                <ele>64.200000</ele>
                <time>2018-02-25T03:39:38Z</time>
            </trkpt>
            <trkpt lon="100.955931" lat="12.917798">
                <ele>64.300000</ele>
                <time>2018-02-25T03:39:39Z</time>
            </trkpt>
            <trkpt lon="100.955919" lat="12.917759">
                <ele>64.300000</ele>
                <time>2018-02-25T03:39:40Z</time>
            </trkpt>
            <trkpt lon="100.955909" lat="12.917720">
                <ele>64.300000</ele>
                <time>2018-02-25T03:39:41Z</time>
            </trkpt>
            <trkpt lon="100.955899" lat="12.917681">
                <ele>64.400000</ele>
                <time>2018-02-25T03:39:42Z</time>
            </trkpt>
            <trkpt lon="100.955890" lat="12.917643">
                <ele>64.400000</ele>
                <time>2018-02-25T03:39:43Z</time>
            </trkpt>
            <trkpt lon="100.955880" lat="12.917605">
                <ele>64.400000</ele>
                <time>2018-02-25T03:39:44Z</time>
            </trkpt>
            <trkpt lon="100.955870" lat="12.917568">
                <ele>64.400000</ele>
                <time>2018-02-25T03:39:45Z</time>
            </trkpt>
            <trkpt lon="100.955859" lat="12.917529">
                <ele>64.500000</ele>
                <time>2018-02-25T03:39:46Z</time>
            </trkpt>
            <trkpt lon="100.955849" lat="12.917490">
                <ele>64.500000</ele>
                <time>2018-02-25T03:39:47Z</time>
            </trkpt>
            <trkpt lon="100.955841" lat="12.917453">
                <ele>64.500000</ele>
                <time>2018-02-25T03:39:48Z</time>
            </trkpt>
            <trkpt lon="100.955833" lat="12.917414">
                <ele>64.500000</ele>
                <time>2018-02-25T03:39:49Z</time>
            </trkpt>
            <trkpt lon="100.955825" lat="12.917376">
                <ele>64.500000</ele>
                <time>2018-02-25T03:39:50Z</time>
            </trkpt>
            <trkpt lon="100.955817" lat="12.917339">
                <ele>64.500000</ele>
                <time>2018-02-25T03:39:51Z</time>
            </trkpt>
            <trkpt lon="100.955808" lat="12.917302">
                <ele>64.600000</ele>
                <time>2018-02-25T03:39:52Z</time>
            </trkpt>
            <trkpt lon="100.955798" lat="12.917266">
                <ele>64.600000</ele>
                <time>2018-02-25T03:39:53Z</time>
            </trkpt>
            <trkpt lon="100.955789" lat="12.917229">
                <ele>64.600000</ele>
                <time>2018-02-25T03:39:54Z</time>
            </trkpt>
            <trkpt lon="100.955779" lat="12.917192">
                <ele>64.600000</ele>
                <time>2018-02-25T03:39:55Z</time>
            </trkpt>
            <trkpt lon="100.955770" lat="12.917156">
                <ele>64.600000</ele>
                <time>2018-02-25T03:39:56Z</time>
            </trkpt>
            <trkpt lon="100.955760" lat="12.917120">
                <ele>64.600000</ele>
                <time>2018-02-25T03:39:57Z</time>
            </trkpt>
            <trkpt lon="100.955749" lat="12.917081">
                <ele>64.600000</ele>
                <time>2018-02-25T03:39:58Z</time>
            </trkpt>
            <trkpt lon="100.955739" lat="12.917040">
                <ele>64.600000</ele>
                <time>2018-02-25T03:39:59Z</time>
            </trkpt>
            <trkpt lon="100.955729" lat="12.916998">
                <ele>64.600000</ele>
                <time>2018-02-25T03:40:00Z</time>
            </trkpt>
            <trkpt lon="100.955720" lat="12.916955">
                <ele>64.600000</ele>
                <time>2018-02-25T03:40:01Z</time>
            </trkpt>
            <trkpt lon="100.955713" lat="12.916913">
                <ele>64.600000</ele>
                <time>2018-02-25T03:40:02Z</time>
            </trkpt>
            <trkpt lon="100.955707" lat="12.916869">
                <ele>64.500000</ele>
                <time>2018-02-25T03:40:03Z</time>
            </trkpt>
            <trkpt lon="100.955700" lat="12.916825">
                <ele>64.500000</ele>
                <time>2018-02-25T03:40:04Z</time>
            </trkpt>
            <trkpt lon="100.955692" lat="12.916782">
                <ele>64.500000</ele>
                <time>2018-02-25T03:40:05Z</time>
            </trkpt>
            <trkpt lon="100.955685" lat="12.916733">
                <ele>64.500000</ele>
                <time>2018-02-25T03:40:06Z</time>
            </trkpt>
            <trkpt lon="100.955674" lat="12.916689">
                <ele>64.500000</ele>
                <time>2018-02-25T03:40:07Z</time>
            </trkpt>
            <trkpt lon="100.955665" lat="12.916645">
                <ele>64.500000</ele>
                <time>2018-02-25T03:40:08Z</time>
            </trkpt>
            <trkpt lon="100.955651" lat="12.916596">
                <ele>64.400000</ele>
                <time>2018-02-25T03:40:09Z</time>
            </trkpt>
            <trkpt lon="100.955642" lat="12.916550">
                <ele>64.400000</ele>
                <time>2018-02-25T03:40:10Z</time>
            </trkpt>
            <trkpt lon="100.955630" lat="12.916502">
                <ele>64.400000</ele>
                <time>2018-02-25T03:40:11Z</time>
            </trkpt>
            <trkpt lon="100.955614" lat="12.916448">
                <ele>64.400000</ele>
                <time>2018-02-25T03:40:12Z</time>
            </trkpt>
            <trkpt lon="100.955605" lat="12.916398">
                <ele>64.400000</ele>
                <time>2018-02-25T03:40:13Z</time>
            </trkpt>
            <trkpt lon="100.955600" lat="12.916344">
                <ele>64.300000</ele>
                <time>2018-02-25T03:40:14Z</time>
            </trkpt>
            <trkpt lon="100.955592" lat="12.916293">
                <ele>64.300000</ele>
                <time>2018-02-25T03:40:15Z</time>
            </trkpt>
            <trkpt lon="100.955586" lat="12.916237">
                <ele>64.300000</ele>
                <time>2018-02-25T03:40:16Z</time>
            </trkpt>
            <trkpt lon="100.955582" lat="12.916184">
                <ele>64.300000</ele>
                <time>2018-02-25T03:40:17Z</time>
            </trkpt>
            <trkpt lon="100.955579" lat="12.916130">
                <ele>64.200000</ele>
                <time>2018-02-25T03:40:18Z</time>
            </trkpt>
            <trkpt lon="100.955573" lat="12.916075">
                <ele>64.200000</ele>
                <time>2018-02-25T03:40:19Z</time>
            </trkpt>
            <trkpt lon="100.955566" lat="12.916021">
                <ele>64.200000</ele>
                <time>2018-02-25T03:40:20Z</time>
            </trkpt>
            <trkpt lon="100.955559" lat="12.915967">
                <ele>64.100000</ele>
                <time>2018-02-25T03:40:21Z</time>
            </trkpt>
            <trkpt lon="100.955546" lat="12.915913">
                <ele>64.100000</ele>
                <time>2018-02-25T03:40:22Z</time>
            </trkpt>
            <trkpt lon="100.955526" lat="12.915858">
                <ele>64.100000</ele>
                <time>2018-02-25T03:40:23Z</time>
            </trkpt>
            <trkpt lon="100.955498" lat="12.915809">
                <ele>64.000000</ele>
                <time>2018-02-25T03:40:24Z</time>
            </trkpt>
            <trkpt lon="100.955472" lat="12.915765">
                <ele>63.900000</ele>
                <time>2018-02-25T03:40:25Z</time>
            </trkpt>
            <trkpt lon="100.955437" lat="12.915718">
                <ele>63.900000</ele>
                <time>2018-02-25T03:40:26Z</time>
            </trkpt>
            <trkpt lon="100.955401" lat="12.915673">
                <ele>63.800000</ele>
                <time>2018-02-25T03:40:27Z</time>
            </trkpt>
            <trkpt lon="100.955369" lat="12.915634">
                <ele>63.800000</ele>
                <time>2018-02-25T03:40:28Z</time>
            </trkpt>
            <trkpt lon="100.955334" lat="12.915596">
                <ele>63.700000</ele>
                <time>2018-02-25T03:40:29Z</time>
            </trkpt>
            <trkpt lon="100.955293" lat="12.915550">
                <ele>63.600000</ele>
                <time>2018-02-25T03:40:30Z</time>
            </trkpt>
            <trkpt lon="100.955250" lat="12.915499">
                <ele>63.600000</ele>
                <time>2018-02-25T03:40:31Z</time>
            </trkpt>
            <trkpt lon="100.955211" lat="12.915454">
                <ele>63.500000</ele>
                <time>2018-02-25T03:40:32Z</time>
            </trkpt>
            <trkpt lon="100.955178" lat="12.915413">
                <ele>63.400000</ele>
                <time>2018-02-25T03:40:33Z</time>
            </trkpt>
            <trkpt lon="100.955145" lat="12.915367">
                <ele>63.400000</ele>
                <time>2018-02-25T03:40:34Z</time>
            </trkpt>
            <trkpt lon="100.955115" lat="12.915316">
                <ele>63.300000</ele>
                <time>2018-02-25T03:40:35Z</time>
            </trkpt>
            <trkpt lon="100.955088" lat="12.915269">
                <ele>63.200000</ele>
                <time>2018-02-25T03:40:36Z</time>
            </trkpt>
            <trkpt lon="100.955057" lat="12.915223">
                <ele>63.100000</ele>
                <time>2018-02-25T03:40:37Z</time>
            </trkpt>
            <trkpt lon="100.955020" lat="12.915182">
                <ele>63.100000</ele>
                <time>2018-02-25T03:40:38Z</time>
            </trkpt>
            <trkpt lon="100.954988" lat="12.915134">
                <ele>63.000000</ele>
                <time>2018-02-25T03:40:39Z</time>
            </trkpt>
            <trkpt lon="100.954950" lat="12.915094">
                <ele>62.900000</ele>
                <time>2018-02-25T03:40:40Z</time>
            </trkpt>
            <trkpt lon="100.954915" lat="12.915048">
                <ele>62.900000</ele>
                <time>2018-02-25T03:40:41Z</time>
            </trkpt>
            <trkpt lon="100.954878" lat="12.915008">
                <ele>62.800000</ele>
                <time>2018-02-25T03:40:42Z</time>
            </trkpt>
            <trkpt lon="100.954846" lat="12.914967">
                <ele>62.700000</ele>
                <time>2018-02-25T03:40:43Z</time>
            </trkpt>
            <trkpt lon="100.954819" lat="12.914924">
                <ele>62.700000</ele>
                <time>2018-02-25T03:40:44Z</time>
            </trkpt>
            <trkpt lon="100.954785" lat="12.914880">
                <ele>62.600000</ele>
                <time>2018-02-25T03:40:45Z</time>
            </trkpt>
            <trkpt lon="100.954749" lat="12.914831">
                <ele>62.600000</ele>
                <time>2018-02-25T03:40:46Z</time>
            </trkpt>
            <trkpt lon="100.954710" lat="12.914769">
                <ele>62.500000</ele>
                <time>2018-02-25T03:40:47Z</time>
            </trkpt>
            <trkpt lon="100.954675" lat="12.914729">
                <ele>62.400000</ele>
                <time>2018-02-25T03:40:48Z</time>
            </trkpt>
            <trkpt lon="100.954642" lat="12.914688">
                <ele>62.300000</ele>
                <time>2018-02-25T03:40:49Z</time>
            </trkpt>
            <trkpt lon="100.954614" lat="12.914639">
                <ele>62.200000</ele>
                <time>2018-02-25T03:40:50Z</time>
            </trkpt>
            <trkpt lon="100.954567" lat="12.914609">
                <ele>62.100000</ele>
                <time>2018-02-25T03:40:51Z</time>
            </trkpt>
            <trkpt lon="100.954517" lat="12.914577">
                <ele>62.000000</ele>
                <time>2018-02-25T03:40:52Z</time>
            </trkpt>
            <trkpt lon="100.954465" lat="12.914534">
                <ele>62.200000</ele>
                <time>2018-02-25T03:40:53Z</time>
            </trkpt>
            <trkpt lon="100.954413" lat="12.914504">
                <ele>62.300000</ele>
                <time>2018-02-25T03:40:54Z</time>
            </trkpt>
            <trkpt lon="100.954363" lat="12.914488">
                <ele>62.500000</ele>
                <time>2018-02-25T03:40:55Z</time>
            </trkpt>
            <trkpt lon="100.954320" lat="12.914466">
                <ele>62.600000</ele>
                <time>2018-02-25T03:40:56Z</time>
            </trkpt>
            <trkpt lon="100.954268" lat="12.914445">
                <ele>62.800000</ele>
                <time>2018-02-25T03:40:57Z</time>
            </trkpt>
            <trkpt lon="100.954218" lat="12.914428">
                <ele>63.000000</ele>
                <time>2018-02-25T03:40:58Z</time>
            </trkpt>
            <trkpt lon="100.954167" lat="12.914403">
                <ele>63.100000</ele>
                <time>2018-02-25T03:40:59Z</time>
            </trkpt>
            <trkpt lon="100.954122" lat="12.914368">
                <ele>63.200000</ele>
                <time>2018-02-25T03:41:00Z</time>
            </trkpt>
            <trkpt lon="100.954071" lat="12.914344">
                <ele>63.300000</ele>
                <time>2018-02-25T03:41:01Z</time>
            </trkpt>
            <trkpt lon="100.954016" lat="12.914318">
                <ele>63.300000</ele>
                <time>2018-02-25T03:41:02Z</time>
            </trkpt>
            <trkpt lon="100.953963" lat="12.914300">
                <ele>63.400000</ele>
                <time>2018-02-25T03:41:03Z</time>
            </trkpt>
            <trkpt lon="100.953902" lat="12.914288">
                <ele>63.500000</ele>
                <time>2018-02-25T03:41:04Z</time>
            </trkpt>
            <trkpt lon="100.953844" lat="12.914264">
                <ele>63.600000</ele>
                <time>2018-02-25T03:41:05Z</time>
            </trkpt>
            <trkpt lon="100.953788" lat="12.914238">
                <ele>63.600000</ele>
                <time>2018-02-25T03:41:06Z</time>
            </trkpt>
            <trkpt lon="100.953727" lat="12.914210">
                <ele>63.800000</ele>
                <time>2018-02-25T03:41:07Z</time>
            </trkpt>
            <trkpt lon="100.953664" lat="12.914180">
                <ele>63.800000</ele>
                <time>2018-02-25T03:41:08Z</time>
            </trkpt>
            <trkpt lon="100.953612" lat="12.914151">
                <ele>63.800000</ele>
                <time>2018-02-25T03:41:09Z</time>
            </trkpt>
            <trkpt lon="100.953551" lat="12.914126">
                <ele>63.900000</ele>
                <time>2018-02-25T03:41:10Z</time>
            </trkpt>
            <trkpt lon="100.953490" lat="12.914102">
                <ele>63.900000</ele>
                <time>2018-02-25T03:41:11Z</time>
            </trkpt>
            <trkpt lon="100.953434" lat="12.914086">
                <ele>63.900000</ele>
                <time>2018-02-25T03:41:12Z</time>
            </trkpt>
            <trkpt lon="100.953372" lat="12.914070">
                <ele>63.900000</ele>
                <time>2018-02-25T03:41:13Z</time>
            </trkpt>
            <trkpt lon="100.953313" lat="12.914052">
                <ele>63.900000</ele>
                <time>2018-02-25T03:41:14Z</time>
            </trkpt>
            <trkpt lon="100.953265" lat="12.914022">
                <ele>63.900000</ele>
                <time>2018-02-25T03:41:15Z</time>
            </trkpt>
            <trkpt lon="100.953208" lat="12.913993">
                <ele>63.900000</ele>
                <time>2018-02-25T03:41:16Z</time>
            </trkpt>
            <trkpt lon="100.953169" lat="12.913971">
                <ele>63.900000</ele>
                <time>2018-02-25T03:41:17Z</time>
            </trkpt>
            <trkpt lon="100.953144" lat="12.913920">
                <ele>63.900000</ele>
                <time>2018-02-25T03:41:18Z</time>
            </trkpt>
            <trkpt lon="100.953124" lat="12.913867">
                <ele>63.900000</ele>
                <time>2018-02-25T03:41:19Z</time>
            </trkpt>
            <trkpt lon="100.953105" lat="12.913817">
                <ele>63.900000</ele>
                <time>2018-02-25T03:41:20Z</time>
            </trkpt>
            <trkpt lon="100.953096" lat="12.913782">
                <ele>63.900000</ele>
                <time>2018-02-25T03:41:21Z</time>
            </trkpt>
            <trkpt lon="100.953091" lat="12.913733">
                <ele>63.900000</ele>
                <time>2018-02-25T03:41:22Z</time>
            </trkpt>
            <trkpt lon="100.953088" lat="12.913687">
                <ele>63.600000</ele>
                <time>2018-02-25T03:41:23Z</time>
            </trkpt>
            <trkpt lon="100.953082" lat="12.913631">
                <ele>62.900000</ele>
                <time>2018-02-25T03:41:24Z</time>
            </trkpt>
            <trkpt lon="100.953072" lat="12.913565">
                <ele>62.600000</ele>
                <time>2018-02-25T03:41:25Z</time>
            </trkpt>
            <trkpt lon="100.953066" lat="12.913512">
                <ele>62.300000</ele>
                <time>2018-02-25T03:41:26Z</time>
            </trkpt>
            <trkpt lon="100.953058" lat="12.913452">
                <ele>61.800000</ele>
                <time>2018-02-25T03:41:27Z</time>
            </trkpt>
            <trkpt lon="100.953051" lat="12.913396">
                <ele>61.800000</ele>
                <time>2018-02-25T03:41:28Z</time>
            </trkpt>
            <trkpt lon="100.953041" lat="12.913339">
                <ele>61.700000</ele>
                <time>2018-02-25T03:41:29Z</time>
            </trkpt>
            <trkpt lon="100.953034" lat="12.913280">
                <ele>61.700000</ele>
                <time>2018-02-25T03:41:30Z</time>
            </trkpt>
            <trkpt lon="100.953028" lat="12.913224">
                <ele>61.700000</ele>
                <time>2018-02-25T03:41:31Z</time>
            </trkpt>
            <trkpt lon="100.953021" lat="12.913164">
                <ele>62.100000</ele>
                <time>2018-02-25T03:41:32Z</time>
            </trkpt>
            <trkpt lon="100.953009" lat="12.913094">
                <ele>62.200000</ele>
                <time>2018-02-25T03:41:33Z</time>
            </trkpt>
            <trkpt lon="100.952998" lat="12.913031">
                <ele>62.700000</ele>
                <time>2018-02-25T03:41:34Z</time>
            </trkpt>
            <trkpt lon="100.952991" lat="12.912965">
                <ele>63.000000</ele>
                <time>2018-02-25T03:41:35Z</time>
            </trkpt>
            <trkpt lon="100.952984" lat="12.912901">
                <ele>62.900000</ele>
                <time>2018-02-25T03:41:36Z</time>
            </trkpt>
            <trkpt lon="100.952977" lat="12.912837">
                <ele>63.100000</ele>
                <time>2018-02-25T03:41:37Z</time>
            </trkpt>
            <trkpt lon="100.952969" lat="12.912766">
                <ele>62.900000</ele>
                <time>2018-02-25T03:41:38Z</time>
            </trkpt>
            <trkpt lon="100.952961" lat="12.912694">
                <ele>62.400000</ele>
                <time>2018-02-25T03:41:39Z</time>
            </trkpt>
            <trkpt lon="100.952954" lat="12.912617">
                <ele>61.900000</ele>
                <time>2018-02-25T03:41:40Z</time>
            </trkpt>
            <trkpt lon="100.952949" lat="12.912540">
                <ele>61.800000</ele>
                <time>2018-02-25T03:41:41Z</time>
            </trkpt>
            <trkpt lon="100.952941" lat="12.912467">
                <ele>61.800000</ele>
                <time>2018-02-25T03:41:42Z</time>
            </trkpt>
            <trkpt lon="100.952931" lat="12.912387">
                <ele>62.200000</ele>
                <time>2018-02-25T03:41:43Z</time>
            </trkpt>
            <trkpt lon="100.952923" lat="12.912311">
                <ele>62.500000</ele>
                <time>2018-02-25T03:41:44Z</time>
            </trkpt>
            <trkpt lon="100.952913" lat="12.912236">
                <ele>62.300000</ele>
                <time>2018-02-25T03:41:45Z</time>
            </trkpt>
            <trkpt lon="100.952906" lat="12.912149">
                <ele>61.800000</ele>
                <time>2018-02-25T03:41:46Z</time>
            </trkpt>
            <trkpt lon="100.952899" lat="12.912083">
                <ele>61.500000</ele>
                <time>2018-02-25T03:41:47Z</time>
            </trkpt>
            <trkpt lon="100.952899" lat="12.912025">
                <ele>61.400000</ele>
                <time>2018-02-25T03:41:48Z</time>
            </trkpt>
            <trkpt lon="100.952916" lat="12.911992">
                <ele>61.300000</ele>
                <time>2018-02-25T03:41:49Z</time>
            </trkpt>
            <trkpt lon="100.952940" lat="12.911976">
                <ele>61.200000</ele>
                <time>2018-02-25T03:41:50Z</time>
            </trkpt>
            <trkpt lon="100.952977" lat="12.911978">
                <ele>61.100000</ele>
                <time>2018-02-25T03:41:51Z</time>
            </trkpt>
            <trkpt lon="100.953022" lat="12.911992">
                <ele>60.800000</ele>
                <time>2018-02-25T03:41:52Z</time>
            </trkpt>
            <trkpt lon="100.953054" lat="12.912013">
                <ele>60.400000</ele>
                <time>2018-02-25T03:41:53Z</time>
            </trkpt>
            <trkpt lon="100.953099" lat="12.912038">
                <ele>60.100000</ele>
                <time>2018-02-25T03:41:54Z</time>
            </trkpt>
            <trkpt lon="100.953125" lat="12.912062">
                <ele>59.800000</ele>
                <time>2018-02-25T03:41:55Z</time>
            </trkpt>
            <trkpt lon="100.953155" lat="12.912085">
                <ele>59.400000</ele>
                <time>2018-02-25T03:41:56Z</time>
            </trkpt>
            <trkpt lon="100.953181" lat="12.912104">
                <ele>59.400000</ele>
                <time>2018-02-25T03:41:57Z</time>
            </trkpt>
            <trkpt lon="100.953224" lat="12.912123">
                <ele>59.000000</ele>
                <time>2018-02-25T03:41:58Z</time>
            </trkpt>
            <trkpt lon="100.953263" lat="12.912141">
                <ele>58.900000</ele>
                <time>2018-02-25T03:41:59Z</time>
            </trkpt>
            <trkpt lon="100.953302" lat="12.912156">
                <ele>58.600000</ele>
                <time>2018-02-25T03:42:00Z</time>
            </trkpt>
            <trkpt lon="100.953339" lat="12.912171">
                <ele>58.300000</ele>
                <time>2018-02-25T03:42:01Z</time>
            </trkpt>
            <trkpt lon="100.953374" lat="12.912188">
                <ele>58.100000</ele>
                <time>2018-02-25T03:42:02Z</time>
            </trkpt>
            <trkpt lon="100.953411" lat="12.912207">
                <ele>58.000000</ele>
                <time>2018-02-25T03:42:03Z</time>
            </trkpt>
            <trkpt lon="100.953445" lat="12.912232">
                <ele>57.900000</ele>
                <time>2018-02-25T03:42:04Z</time>
            </trkpt>
            <trkpt lon="100.953476" lat="12.912260">
                <ele>58.100000</ele>
                <time>2018-02-25T03:42:05Z</time>
            </trkpt>
            <trkpt lon="100.953506" lat="12.912291">
                <ele>58.000000</ele>
                <time>2018-02-25T03:42:06Z</time>
            </trkpt>
            <trkpt lon="100.953533" lat="12.912323">
                <ele>58.000000</ele>
                <time>2018-02-25T03:42:07Z</time>
            </trkpt>
            <trkpt lon="100.953556" lat="12.912357">
                <ele>57.900000</ele>
                <time>2018-02-25T03:42:08Z</time>
            </trkpt>
            <trkpt lon="100.953581" lat="12.912391">
                <ele>57.900000</ele>
                <time>2018-02-25T03:42:09Z</time>
            </trkpt>
            <trkpt lon="100.953605" lat="12.912423">
                <ele>57.800000</ele>
                <time>2018-02-25T03:42:10Z</time>
            </trkpt>
            <trkpt lon="100.953629" lat="12.912453">
                <ele>57.900000</ele>
                <time>2018-02-25T03:42:11Z</time>
            </trkpt>
            <trkpt lon="100.953651" lat="12.912482">
                <ele>57.800000</ele>
                <time>2018-02-25T03:42:12Z</time>
            </trkpt>
            <trkpt lon="100.953671" lat="12.912513">
                <ele>57.900000</ele>
                <time>2018-02-25T03:42:13Z</time>
            </trkpt>
            <trkpt lon="100.953692" lat="12.912542">
                <ele>57.800000</ele>
                <time>2018-02-25T03:42:14Z</time>
            </trkpt>
            <trkpt lon="100.953708" lat="12.912574">
                <ele>57.600000</ele>
                <time>2018-02-25T03:42:15Z</time>
            </trkpt>
            <trkpt lon="100.953726" lat="12.912606">
                <ele>57.500000</ele>
                <time>2018-02-25T03:42:16Z</time>
            </trkpt>
            <trkpt lon="100.953745" lat="12.912636">
                <ele>57.300000</ele>
                <time>2018-02-25T03:42:17Z</time>
            </trkpt>
            <trkpt lon="100.953765" lat="12.912666">
                <ele>57.200000</ele>
                <time>2018-02-25T03:42:18Z</time>
            </trkpt>
            <trkpt lon="100.953785" lat="12.912696">
                <ele>57.200000</ele>
                <time>2018-02-25T03:42:19Z</time>
            </trkpt>
            <trkpt lon="100.953806" lat="12.912728">
                <ele>57.100000</ele>
                <time>2018-02-25T03:42:20Z</time>
            </trkpt>
            <trkpt lon="100.953826" lat="12.912759">
                <ele>57.000000</ele>
                <time>2018-02-25T03:42:21Z</time>
            </trkpt>
            <trkpt lon="100.953848" lat="12.912790">
                <ele>57.000000</ele>
                <time>2018-02-25T03:42:22Z</time>
            </trkpt>
            <trkpt lon="100.953873" lat="12.912821">
                <ele>56.900000</ele>
                <time>2018-02-25T03:42:23Z</time>
            </trkpt>
            <trkpt lon="100.953897" lat="12.912853">
                <ele>56.800000</ele>
                <time>2018-02-25T03:42:24Z</time>
            </trkpt>
            <trkpt lon="100.953922" lat="12.912885">
                <ele>56.800000</ele>
                <time>2018-02-25T03:42:25Z</time>
            </trkpt>
            <trkpt lon="100.953945" lat="12.912919">
                <ele>56.700000</ele>
                <time>2018-02-25T03:42:26Z</time>
            </trkpt>
            <trkpt lon="100.953968" lat="12.912955">
                <ele>56.600000</ele>
                <time>2018-02-25T03:42:27Z</time>
            </trkpt>
            <trkpt lon="100.953990" lat="12.912991">
                <ele>56.800000</ele>
                <time>2018-02-25T03:42:28Z</time>
            </trkpt>
            <trkpt lon="100.954012" lat="12.913023">
                <ele>57.200000</ele>
                <time>2018-02-25T03:42:29Z</time>
            </trkpt>
            <trkpt lon="100.954034" lat="12.913056">
                <ele>57.700000</ele>
                <time>2018-02-25T03:42:30Z</time>
            </trkpt>
            <trkpt lon="100.954059" lat="12.913089">
                <ele>57.600000</ele>
                <time>2018-02-25T03:42:31Z</time>
            </trkpt>
            <trkpt lon="100.954084" lat="12.913120">
                <ele>58.000000</ele>
                <time>2018-02-25T03:42:32Z</time>
            </trkpt>
            <trkpt lon="100.954108" lat="12.913149">
                <ele>58.500000</ele>
                <time>2018-02-25T03:42:33Z</time>
            </trkpt>
            <trkpt lon="100.954133" lat="12.913178">
                <ele>58.900000</ele>
                <time>2018-02-25T03:42:34Z</time>
            </trkpt>
            <trkpt lon="100.954160" lat="12.913205">
                <ele>58.700000</ele>
                <time>2018-02-25T03:42:35Z</time>
            </trkpt>
            <trkpt lon="100.954188" lat="12.913231">
                <ele>59.000000</ele>
                <time>2018-02-25T03:42:36Z</time>
            </trkpt>
            <trkpt lon="100.954218" lat="12.913257">
                <ele>58.900000</ele>
                <time>2018-02-25T03:42:37Z</time>
            </trkpt>
            <trkpt lon="100.954249" lat="12.913279">
                <ele>59.000000</ele>
                <time>2018-02-25T03:42:38Z</time>
            </trkpt>
            <trkpt lon="100.954282" lat="12.913300">
                <ele>58.700000</ele>
                <time>2018-02-25T03:42:39Z</time>
            </trkpt>
            <trkpt lon="100.954315" lat="12.913320">
                <ele>58.800000</ele>
                <time>2018-02-25T03:42:40Z</time>
            </trkpt>
            <trkpt lon="100.954351" lat="12.913336">
                <ele>58.800000</ele>
                <time>2018-02-25T03:42:41Z</time>
            </trkpt>
            <trkpt lon="100.954390" lat="12.913349">
                <ele>58.900000</ele>
                <time>2018-02-25T03:42:42Z</time>
            </trkpt>
            <trkpt lon="100.954431" lat="12.913357">
                <ele>58.900000</ele>
                <time>2018-02-25T03:42:43Z</time>
            </trkpt>
            <trkpt lon="100.954474" lat="12.913361">
                <ele>58.800000</ele>
                <time>2018-02-25T03:42:44Z</time>
            </trkpt>
            <trkpt lon="100.954517" lat="12.913363">
                <ele>58.800000</ele>
                <time>2018-02-25T03:42:45Z</time>
            </trkpt>
            <trkpt lon="100.954560" lat="12.913363">
                <ele>58.900000</ele>
                <time>2018-02-25T03:42:46Z</time>
            </trkpt>
            <trkpt lon="100.954605" lat="12.913362">
                <ele>59.000000</ele>
                <time>2018-02-25T03:42:47Z</time>
            </trkpt>
            <trkpt lon="100.954651" lat="12.913362">
                <ele>59.000000</ele>
                <time>2018-02-25T03:42:48Z</time>
            </trkpt>
            <trkpt lon="100.954696" lat="12.913361">
                <ele>59.000000</ele>
                <time>2018-02-25T03:42:49Z</time>
            </trkpt>
            <trkpt lon="100.954741" lat="12.913358">
                <ele>59.000000</ele>
                <time>2018-02-25T03:42:50Z</time>
            </trkpt>
            <trkpt lon="100.954784" lat="12.913349">
                <ele>59.000000</ele>
                <time>2018-02-25T03:42:51Z</time>
            </trkpt>
            <trkpt lon="100.954824" lat="12.913335">
                <ele>58.900000</ele>
                <time>2018-02-25T03:42:52Z</time>
            </trkpt>
            <trkpt lon="100.954856" lat="12.913290">
                <ele>58.700000</ele>
                <time>2018-02-25T03:42:53Z</time>
            </trkpt>
            <trkpt lon="100.954890" lat="12.913255">
                <ele>58.600000</ele>
                <time>2018-02-25T03:42:54Z</time>
            </trkpt>
            <trkpt lon="100.954914" lat="12.913216">
                <ele>58.500000</ele>
                <time>2018-02-25T03:42:55Z</time>
            </trkpt>
            <trkpt lon="100.954945" lat="12.913168">
                <ele>58.400000</ele>
                <time>2018-02-25T03:42:56Z</time>
            </trkpt>
            <trkpt lon="100.954971" lat="12.913123">
                <ele>58.500000</ele>
                <time>2018-02-25T03:42:57Z</time>
            </trkpt>
            <trkpt lon="100.954995" lat="12.913093">
                <ele>58.600000</ele>
                <time>2018-02-25T03:42:58Z</time>
            </trkpt>
            <trkpt lon="100.955024" lat="12.913067">
                <ele>58.600000</ele>
                <time>2018-02-25T03:42:59Z</time>
            </trkpt>
            <trkpt lon="100.955056" lat="12.913048">
                <ele>58.400000</ele>
                <time>2018-02-25T03:43:00Z</time>
            </trkpt>
            <trkpt lon="100.955086" lat="12.913040">
                <ele>58.200000</ele>
                <time>2018-02-25T03:43:01Z</time>
            </trkpt>
            <trkpt lon="100.955115" lat="12.913036">
                <ele>58.100000</ele>
                <time>2018-02-25T03:43:02Z</time>
            </trkpt>
            <trkpt lon="100.955150" lat="12.913046">
                <ele>57.900000</ele>
                <time>2018-02-25T03:43:03Z</time>
            </trkpt>
            <trkpt lon="100.955196" lat="12.913056">
                <ele>57.800000</ele>
                <time>2018-02-25T03:43:04Z</time>
            </trkpt>
            <trkpt lon="100.955243" lat="12.913072">
                <ele>58.000000</ele>
                <time>2018-02-25T03:43:05Z</time>
            </trkpt>
            <trkpt lon="100.955286" lat="12.913083">
                <ele>58.300000</ele>
                <time>2018-02-25T03:43:06Z</time>
            </trkpt>
            <trkpt lon="100.955329" lat="12.913094">
                <ele>58.800000</ele>
                <time>2018-02-25T03:43:07Z</time>
            </trkpt>
            <trkpt lon="100.955372" lat="12.913100">
                <ele>58.800000</ele>
                <time>2018-02-25T03:43:08Z</time>
            </trkpt>
            <trkpt lon="100.955409" lat="12.913109">
                <ele>58.800000</ele>
                <time>2018-02-25T03:43:09Z</time>
            </trkpt>
            <trkpt lon="100.955450" lat="12.913122">
                <ele>58.800000</ele>
                <time>2018-02-25T03:43:10Z</time>
            </trkpt>
            <trkpt lon="100.955491" lat="12.913132">
                <ele>58.800000</ele>
                <time>2018-02-25T03:43:11Z</time>
            </trkpt>
            <trkpt lon="100.955537" lat="12.913145">
                <ele>59.200000</ele>
                <time>2018-02-25T03:43:12Z</time>
            </trkpt>
            <trkpt lon="100.955587" lat="12.913160">
                <ele>59.400000</ele>
                <time>2018-02-25T03:43:13Z</time>
            </trkpt>
            <trkpt lon="100.955636" lat="12.913174">
                <ele>59.700000</ele>
                <time>2018-02-25T03:43:14Z</time>
            </trkpt>
            <trkpt lon="100.955683" lat="12.913182">
                <ele>59.900000</ele>
                <time>2018-02-25T03:43:15Z</time>
            </trkpt>
            <trkpt lon="100.955729" lat="12.913193">
                <ele>59.900000</ele>
                <time>2018-02-25T03:43:16Z</time>
            </trkpt>
            <trkpt lon="100.955771" lat="12.913203">
                <ele>59.900000</ele>
                <time>2018-02-25T03:43:17Z</time>
            </trkpt>
            <trkpt lon="100.955809" lat="12.913222">
                <ele>59.900000</ele>
                <time>2018-02-25T03:43:18Z</time>
            </trkpt>
            <trkpt lon="100.955860" lat="12.913229">
                <ele>59.800000</ele>
                <time>2018-02-25T03:43:19Z</time>
            </trkpt>
            <trkpt lon="100.955908" lat="12.913242">
                <ele>59.500000</ele>
                <time>2018-02-25T03:43:20Z</time>
            </trkpt>
            <trkpt lon="100.955954" lat="12.913256">
                <ele>59.300000</ele>
                <time>2018-02-25T03:43:21Z</time>
            </trkpt>
            <trkpt lon="100.956013" lat="12.913265">
                <ele>59.000000</ele>
                <time>2018-02-25T03:43:22Z</time>
            </trkpt>
            <trkpt lon="100.956068" lat="12.913276">
                <ele>58.900000</ele>
                <time>2018-02-25T03:43:23Z</time>
            </trkpt>
            <trkpt lon="100.956114" lat="12.913289">
                <ele>58.800000</ele>
                <time>2018-02-25T03:43:24Z</time>
            </trkpt>
            <trkpt lon="100.956173" lat="12.913297">
                <ele>58.700000</ele>
                <time>2018-02-25T03:43:25Z</time>
            </trkpt>
            <trkpt lon="100.956217" lat="12.913309">
                <ele>58.800000</ele>
                <time>2018-02-25T03:43:26Z</time>
            </trkpt>
            <trkpt lon="100.956269" lat="12.913317">
                <ele>58.600000</ele>
                <time>2018-02-25T03:43:27Z</time>
            </trkpt>
            <trkpt lon="100.956315" lat="12.913322">
                <ele>58.400000</ele>
                <time>2018-02-25T03:43:28Z</time>
            </trkpt>
            <trkpt lon="100.956373" lat="12.913325">
                <ele>58.200000</ele>
                <time>2018-02-25T03:43:29Z</time>
            </trkpt>
            <trkpt lon="100.956421" lat="12.913338">
                <ele>57.700000</ele>
                <time>2018-02-25T03:43:30Z</time>
            </trkpt>
            <trkpt lon="100.956468" lat="12.913343">
                <ele>57.400000</ele>
                <time>2018-02-25T03:43:31Z</time>
            </trkpt>
            <trkpt lon="100.956515" lat="12.913359">
                <ele>57.400000</ele>
                <time>2018-02-25T03:43:32Z</time>
            </trkpt>
            <trkpt lon="100.956559" lat="12.913367">
                <ele>57.100000</ele>
                <time>2018-02-25T03:43:33Z</time>
            </trkpt>
            <trkpt lon="100.956629" lat="12.913393">
                <ele>57.000000</ele>
                <time>2018-02-25T03:43:34Z</time>
            </trkpt>
            <trkpt lon="100.956678" lat="12.913399">
                <ele>56.300000</ele>
                <time>2018-02-25T03:43:35Z</time>
            </trkpt>
            <trkpt lon="100.956729" lat="12.913410">
                <ele>56.000000</ele>
                <time>2018-02-25T03:43:36Z</time>
            </trkpt>
            <trkpt lon="100.956792" lat="12.913431">
                <ele>55.900000</ele>
                <time>2018-02-25T03:43:37Z</time>
            </trkpt>
            <trkpt lon="100.956825" lat="12.913435">
                <ele>55.500000</ele>
                <time>2018-02-25T03:43:38Z</time>
            </trkpt>
            <trkpt lon="100.956873" lat="12.913447">
                <ele>55.100000</ele>
                <time>2018-02-25T03:43:39Z</time>
            </trkpt>
            <trkpt lon="100.956911" lat="12.913458">
                <ele>54.700000</ele>
                <time>2018-02-25T03:43:40Z</time>
            </trkpt>
            <trkpt lon="100.956956" lat="12.913481">
                <ele>54.800000</ele>
                <time>2018-02-25T03:43:41Z</time>
            </trkpt>
            <trkpt lon="100.957003" lat="12.913491">
                <ele>54.500000</ele>
                <time>2018-02-25T03:43:42Z</time>
            </trkpt>
            <trkpt lon="100.957050" lat="12.913498">
                <ele>54.200000</ele>
                <time>2018-02-25T03:43:43Z</time>
            </trkpt>
            <trkpt lon="100.957101" lat="12.913503">
                <ele>54.100000</ele>
                <time>2018-02-25T03:43:44Z</time>
            </trkpt>
            <trkpt lon="100.957142" lat="12.913507">
                <ele>54.100000</ele>
                <time>2018-02-25T03:43:45Z</time>
            </trkpt>
            <trkpt lon="100.957204" lat="12.913511">
                <ele>54.400000</ele>
                <time>2018-02-25T03:43:46Z</time>
            </trkpt>
            <trkpt lon="100.957257" lat="12.913519">
                <ele>54.500000</ele>
                <time>2018-02-25T03:43:47Z</time>
            </trkpt>
            <trkpt lon="100.957310" lat="12.913525">
                <ele>54.800000</ele>
                <time>2018-02-25T03:43:48Z</time>
            </trkpt>
            <trkpt lon="100.957354" lat="12.913546">
                <ele>55.100000</ele>
                <time>2018-02-25T03:43:49Z</time>
            </trkpt>
            <trkpt lon="100.957395" lat="12.913553">
                <ele>55.600000</ele>
                <time>2018-02-25T03:43:50Z</time>
            </trkpt>
            <trkpt lon="100.957440" lat="12.913558">
                <ele>55.700000</ele>
                <time>2018-02-25T03:43:51Z</time>
            </trkpt>
            <trkpt lon="100.957492" lat="12.913563">
                <ele>55.900000</ele>
                <time>2018-02-25T03:43:52Z</time>
            </trkpt>
            <trkpt lon="100.957532" lat="12.913577">
                <ele>56.000000</ele>
                <time>2018-02-25T03:43:53Z</time>
            </trkpt>
            <trkpt lon="100.957574" lat="12.913588">
                <ele>56.000000</ele>
                <time>2018-02-25T03:43:54Z</time>
            </trkpt>
            <trkpt lon="100.957617" lat="12.913603">
                <ele>56.000000</ele>
                <time>2018-02-25T03:43:55Z</time>
            </trkpt>
            <trkpt lon="100.957646" lat="12.913612">
                <ele>56.000000</ele>
                <time>2018-02-25T03:43:56Z</time>
            </trkpt>
            <trkpt lon="100.957670" lat="12.913628">
                <ele>56.000000</ele>
                <time>2018-02-25T03:43:57Z</time>
            </trkpt>
            <trkpt lon="100.957717" lat="12.913648">
                <ele>56.100000</ele>
                <time>2018-02-25T03:43:59Z</time>
            </trkpt>
            <trkpt lon="100.957744" lat="12.913655">
                <ele>56.100000</ele>
                <time>2018-02-25T03:44:00Z</time>
            </trkpt>
            <trkpt lon="100.957785" lat="12.913656">
                <ele>56.000000</ele>
                <time>2018-02-25T03:44:02Z</time>
            </trkpt>
            <trkpt lon="100.957832" lat="12.913666">
                <ele>56.000000</ele>
                <time>2018-02-25T03:44:04Z</time>
            </trkpt>
            <trkpt lon="100.957871" lat="12.913682">
                <ele>56.000000</ele>
                <time>2018-02-25T03:44:06Z</time>
            </trkpt>
            <trkpt lon="100.957907" lat="12.913689">
                <ele>56.000000</ele>
                <time>2018-02-25T03:44:08Z</time>
            </trkpt>
            <trkpt lon="100.957944" lat="12.913685">
                <ele>56.000000</ele>
                <time>2018-02-25T03:44:10Z</time>
            </trkpt>
            <trkpt lon="100.957988" lat="12.913672">
                <ele>55.800000</ele>
                <time>2018-02-25T03:44:12Z</time>
            </trkpt>
            <trkpt lon="100.958035" lat="12.913663">
                <ele>55.500000</ele>
                <time>2018-02-25T03:44:14Z</time>
            </trkpt>
            <trkpt lon="100.958087" lat="12.913662">
                <ele>55.300000</ele>
                <time>2018-02-25T03:44:16Z</time>
            </trkpt>
            <trkpt lon="100.958118" lat="12.913663">
                <ele>55.100000</ele>
                <time>2018-02-25T03:44:17Z</time>
            </trkpt>
            <trkpt lon="100.958150" lat="12.913663">
                <ele>54.900000</ele>
                <time>2018-02-25T03:44:18Z</time>
            </trkpt>
            <trkpt lon="100.958200" lat="12.913661">
                <ele>54.600000</ele>
                <time>2018-02-25T03:44:20Z</time>
            </trkpt>
            <trkpt lon="100.958230" lat="12.913660">
                <ele>54.400000</ele>
                <time>2018-02-25T03:44:21Z</time>
            </trkpt>
            <trkpt lon="100.958263" lat="12.913660">
                <ele>54.100000</ele>
                <time>2018-02-25T03:44:22Z</time>
            </trkpt>
            <trkpt lon="100.958294" lat="12.913660">
                <ele>54.100000</ele>
                <time>2018-02-25T03:44:23Z</time>
            </trkpt>
            <trkpt lon="100.958324" lat="12.913661">
                <ele>53.900000</ele>
                <time>2018-02-25T03:44:24Z</time>
            </trkpt>
            <trkpt lon="100.958352" lat="12.913662">
                <ele>53.700000</ele>
                <time>2018-02-25T03:44:25Z</time>
            </trkpt>
            <trkpt lon="100.958383" lat="12.913662">
                <ele>53.700000</ele>
                <time>2018-02-25T03:44:26Z</time>
            </trkpt>
            <trkpt lon="100.958413" lat="12.913662">
                <ele>53.500000</ele>
                <time>2018-02-25T03:44:27Z</time>
            </trkpt>
            <trkpt lon="100.958465" lat="12.913660">
                <ele>53.400000</ele>
                <time>2018-02-25T03:44:29Z</time>
            </trkpt>
            <trkpt lon="100.958521" lat="12.913660">
                <ele>53.400000</ele>
                <time>2018-02-25T03:44:31Z</time>
            </trkpt>
            <trkpt lon="100.958552" lat="12.913662">
                <ele>53.400000</ele>
                <time>2018-02-25T03:44:32Z</time>
            </trkpt>
            <trkpt lon="100.958585" lat="12.913666">
                <ele>53.400000</ele>
                <time>2018-02-25T03:44:33Z</time>
            </trkpt>
            <trkpt lon="100.958616" lat="12.913675">
                <ele>53.400000</ele>
                <time>2018-02-25T03:44:34Z</time>
            </trkpt>
            <trkpt lon="100.958648" lat="12.913687">
                <ele>53.800000</ele>
                <time>2018-02-25T03:44:35Z</time>
            </trkpt>
            <trkpt lon="100.958679" lat="12.913703">
                <ele>53.800000</ele>
                <time>2018-02-25T03:44:36Z</time>
            </trkpt>
            <trkpt lon="100.958707" lat="12.913719">
                <ele>53.700000</ele>
                <time>2018-02-25T03:44:37Z</time>
            </trkpt>
            <trkpt lon="100.958735" lat="12.913737">
                <ele>53.900000</ele>
                <time>2018-02-25T03:44:38Z</time>
            </trkpt>
            <trkpt lon="100.958763" lat="12.913757">
                <ele>53.900000</ele>
                <time>2018-02-25T03:44:39Z</time>
            </trkpt>
            <trkpt lon="100.958791" lat="12.913781">
                <ele>54.100000</ele>
                <time>2018-02-25T03:44:40Z</time>
            </trkpt>
            <trkpt lon="100.958818" lat="12.913806">
                <ele>54.300000</ele>
                <time>2018-02-25T03:44:41Z</time>
            </trkpt>
            <trkpt lon="100.958845" lat="12.913832">
                <ele>54.300000</ele>
                <time>2018-02-25T03:44:42Z</time>
            </trkpt>
            <trkpt lon="100.958870" lat="12.913856">
                <ele>54.300000</ele>
                <time>2018-02-25T03:44:43Z</time>
            </trkpt>
            <trkpt lon="100.958900" lat="12.913875">
                <ele>54.400000</ele>
                <time>2018-02-25T03:44:44Z</time>
            </trkpt>
            <trkpt lon="100.958932" lat="12.913887">
                <ele>54.300000</ele>
                <time>2018-02-25T03:44:45Z</time>
            </trkpt>
            <trkpt lon="100.958971" lat="12.913894">
                <ele>54.100000</ele>
                <time>2018-02-25T03:44:47Z</time>
            </trkpt>
            <trkpt lon="100.959012" lat="12.913883">
                <ele>53.900000</ele>
                <time>2018-02-25T03:44:49Z</time>
            </trkpt>
            <trkpt lon="100.959058" lat="12.913860">
                <ele>53.600000</ele>
                <time>2018-02-25T03:44:51Z</time>
            </trkpt>
            <trkpt lon="100.959096" lat="12.913841">
                <ele>53.400000</ele>
                <time>2018-02-25T03:44:53Z</time>
            </trkpt>
            <trkpt lon="100.959131" lat="12.913821">
                <ele>53.200000</ele>
                <time>2018-02-25T03:44:55Z</time>
            </trkpt>
            <trkpt lon="100.959162" lat="12.913806">
                <ele>53.200000</ele>
                <time>2018-02-25T03:44:57Z</time>
            </trkpt>
            <trkpt lon="100.959189" lat="12.913794">
                <ele>53.100000</ele>
                <time>2018-02-25T03:44:59Z</time>
            </trkpt>
            <trkpt lon="100.959216" lat="12.913783">
                <ele>53.000000</ele>
                <time>2018-02-25T03:45:01Z</time>
            </trkpt>
            <trkpt lon="100.959250" lat="12.913769">
                <ele>53.100000</ele>
                <time>2018-02-25T03:45:03Z</time>
            </trkpt>
            <trkpt lon="100.959287" lat="12.913762">
                <ele>53.100000</ele>
                <time>2018-02-25T03:45:05Z</time>
            </trkpt>
            <trkpt lon="100.959287" lat="12.913733">
                <ele>52.700000</ele>
                <time>2018-02-25T03:45:08Z</time>
            </trkpt>
            <trkpt lon="100.959257" lat="12.913696">
                <ele>52.200000</ele>
                <time>2018-02-25T03:45:10Z</time>
            </trkpt>
            <trkpt lon="100.959243" lat="12.913667">
                <ele>52.000000</ele>
                <time>2018-02-25T03:45:11Z</time>
            </trkpt>
            <trkpt lon="100.959235" lat="12.913628">
                <ele>51.600000</ele>
                <time>2018-02-25T03:45:12Z</time>
            </trkpt>
            <trkpt lon="100.959232" lat="12.913585">
                <ele>51.400000</ele>
                <time>2018-02-25T03:45:13Z</time>
            </trkpt>
            <trkpt lon="100.959230" lat="12.913545">
                <ele>51.100000</ele>
                <time>2018-02-25T03:45:14Z</time>
            </trkpt>
            <trkpt lon="100.959228" lat="12.913503">
                <ele>50.900000</ele>
                <time>2018-02-25T03:45:15Z</time>
            </trkpt>
            <trkpt lon="100.959225" lat="12.913461">
                <ele>50.700000</ele>
                <time>2018-02-25T03:45:16Z</time>
            </trkpt>
            <trkpt lon="100.959223" lat="12.913419">
                <ele>50.600000</ele>
                <time>2018-02-25T03:45:17Z</time>
            </trkpt>
            <trkpt lon="100.959223" lat="12.913379">
                <ele>50.500000</ele>
                <time>2018-02-25T03:45:18Z</time>
            </trkpt>
            <trkpt lon="100.959223" lat="12.913340">
                <ele>50.400000</ele>
                <time>2018-02-25T03:45:19Z</time>
            </trkpt>
            <trkpt lon="100.959223" lat="12.913300">
                <ele>50.300000</ele>
                <time>2018-02-25T03:45:20Z</time>
            </trkpt>
            <trkpt lon="100.959223" lat="12.913258">
                <ele>50.000000</ele>
                <time>2018-02-25T03:45:21Z</time>
            </trkpt>
            <trkpt lon="100.959225" lat="12.913215">
                <ele>49.800000</ele>
                <time>2018-02-25T03:45:22Z</time>
            </trkpt>
            <trkpt lon="100.959236" lat="12.913172">
                <ele>49.500000</ele>
                <time>2018-02-25T03:45:23Z</time>
            </trkpt>
            <trkpt lon="100.959240" lat="12.913121">
                <ele>49.400000</ele>
                <time>2018-02-25T03:45:24Z</time>
            </trkpt>
            <trkpt lon="100.959237" lat="12.913080">
                <ele>49.400000</ele>
                <time>2018-02-25T03:45:25Z</time>
            </trkpt>
            <trkpt lon="100.959239" lat="12.913047">
                <ele>49.400000</ele>
                <time>2018-02-25T03:45:26Z</time>
            </trkpt>
            <trkpt lon="100.959231" lat="12.913016">
                <ele>49.400000</ele>
                <time>2018-02-25T03:45:28Z</time>
            </trkpt>
            <trkpt lon="100.959224" lat="12.912975">
                <ele>49.400000</ele>
                <time>2018-02-25T03:45:30Z</time>
            </trkpt>
            <trkpt lon="100.959230" lat="12.912948">
                <ele>49.400000</ele>
                <time>2018-02-25T03:45:31Z</time>
            </trkpt>
            <trkpt lon="100.959229" lat="12.912920">
                <ele>49.300000</ele>
                <time>2018-02-25T03:45:32Z</time>
            </trkpt>
            <trkpt lon="100.959229" lat="12.912886">
                <ele>49.300000</ele>
                <time>2018-02-25T03:45:33Z</time>
            </trkpt>
            <trkpt lon="100.959228" lat="12.912853">
                <ele>49.200000</ele>
                <time>2018-02-25T03:45:34Z</time>
            </trkpt>
            <trkpt lon="100.959225" lat="12.912823">
                <ele>49.100000</ele>
                <time>2018-02-25T03:45:35Z</time>
            </trkpt>
            <trkpt lon="100.959221" lat="12.912794">
                <ele>49.100000</ele>
                <time>2018-02-25T03:45:36Z</time>
            </trkpt>
            <trkpt lon="100.959221" lat="12.912764">
                <ele>49.100000</ele>
                <time>2018-02-25T03:45:37Z</time>
            </trkpt>
            <trkpt lon="100.959220" lat="12.912735">
                <ele>49.100000</ele>
                <time>2018-02-25T03:45:38Z</time>
            </trkpt>
            <trkpt lon="100.959218" lat="12.912682">
                <ele>49.100000</ele>
                <time>2018-02-25T03:45:40Z</time>
            </trkpt>
            <trkpt lon="100.959215" lat="12.912655">
                <ele>49.100000</ele>
                <time>2018-02-25T03:45:41Z</time>
            </trkpt>
            <trkpt lon="100.959214" lat="12.912628">
                <ele>49.100000</ele>
                <time>2018-02-25T03:45:42Z</time>
            </trkpt>
            <trkpt lon="100.959213" lat="12.912598">
                <ele>49.100000</ele>
                <time>2018-02-25T03:45:43Z</time>
            </trkpt>
            <trkpt lon="100.959213" lat="12.912567">
                <ele>49.100000</ele>
                <time>2018-02-25T03:45:44Z</time>
            </trkpt>
            <trkpt lon="100.959214" lat="12.912537">
                <ele>49.100000</ele>
                <time>2018-02-25T03:45:45Z</time>
            </trkpt>
            <trkpt lon="100.959216" lat="12.912505">
                <ele>49.100000</ele>
                <time>2018-02-25T03:45:46Z</time>
            </trkpt>
            <trkpt lon="100.959217" lat="12.912471">
                <ele>49.100000</ele>
                <time>2018-02-25T03:45:47Z</time>
            </trkpt>
            <trkpt lon="100.959216" lat="12.912435">
                <ele>49.100000</ele>
                <time>2018-02-25T03:45:48Z</time>
            </trkpt>
            <trkpt lon="100.959212" lat="12.912398">
                <ele>49.100000</ele>
                <time>2018-02-25T03:45:49Z</time>
            </trkpt>
            <trkpt lon="100.959209" lat="12.912360">
                <ele>49.100000</ele>
                <time>2018-02-25T03:45:50Z</time>
            </trkpt>
            <trkpt lon="100.959205" lat="12.912324">
                <ele>48.900000</ele>
                <time>2018-02-25T03:45:51Z</time>
            </trkpt>
            <trkpt lon="100.959202" lat="12.912285">
                <ele>49.000000</ele>
                <time>2018-02-25T03:45:52Z</time>
            </trkpt>
            <trkpt lon="100.959199" lat="12.912247">
                <ele>49.300000</ele>
                <time>2018-02-25T03:45:53Z</time>
            </trkpt>
            <trkpt lon="100.959196" lat="12.912208">
                <ele>49.500000</ele>
                <time>2018-02-25T03:45:54Z</time>
            </trkpt>
            <trkpt lon="100.959193" lat="12.912168">
                <ele>49.800000</ele>
                <time>2018-02-25T03:45:55Z</time>
            </trkpt>
            <trkpt lon="100.959188" lat="12.912127">
                <ele>50.000000</ele>
                <time>2018-02-25T03:45:56Z</time>
            </trkpt>
            <trkpt lon="100.959185" lat="12.912085">
                <ele>50.300000</ele>
                <time>2018-02-25T03:45:57Z</time>
            </trkpt>
            <trkpt lon="100.959184" lat="12.912043">
                <ele>50.500000</ele>
                <time>2018-02-25T03:45:58Z</time>
            </trkpt>
            <trkpt lon="100.959182" lat="12.912001">
                <ele>50.800000</ele>
                <time>2018-02-25T03:45:59Z</time>
            </trkpt>
            <trkpt lon="100.959180" lat="12.911958">
                <ele>50.900000</ele>
                <time>2018-02-25T03:46:00Z</time>
            </trkpt>
            <trkpt lon="100.959179" lat="12.911917">
                <ele>50.800000</ele>
                <time>2018-02-25T03:46:01Z</time>
            </trkpt>
            <trkpt lon="100.959177" lat="12.911877">
                <ele>50.700000</ele>
                <time>2018-02-25T03:46:02Z</time>
            </trkpt>
            <trkpt lon="100.959174" lat="12.911839">
                <ele>50.700000</ele>
                <time>2018-02-25T03:46:03Z</time>
            </trkpt>
            <trkpt lon="100.959172" lat="12.911806">
                <ele>50.600000</ele>
                <time>2018-02-25T03:46:04Z</time>
            </trkpt>
            <trkpt lon="100.959169" lat="12.911776">
                <ele>50.400000</ele>
                <time>2018-02-25T03:46:05Z</time>
            </trkpt>
            <trkpt lon="100.959162" lat="12.911748">
                <ele>50.200000</ele>
                <time>2018-02-25T03:46:06Z</time>
            </trkpt>
            <trkpt lon="100.959136" lat="12.911706">
                <ele>49.900000</ele>
                <time>2018-02-25T03:46:08Z</time>
            </trkpt>
            <trkpt lon="100.959099" lat="12.911677">
                <ele>50.000000</ele>
                <time>2018-02-25T03:46:10Z</time>
            </trkpt>
            <trkpt lon="100.959072" lat="12.911662">
                <ele>50.000000</ele>
                <time>2018-02-25T03:46:11Z</time>
            </trkpt>
            <trkpt lon="100.959041" lat="12.911650">
                <ele>50.000000</ele>
                <time>2018-02-25T03:46:12Z</time>
            </trkpt>
            <trkpt lon="100.959005" lat="12.911641">
                <ele>50.200000</ele>
                <time>2018-02-25T03:46:13Z</time>
            </trkpt>
            <trkpt lon="100.958966" lat="12.911634">
                <ele>50.400000</ele>
                <time>2018-02-25T03:46:14Z</time>
            </trkpt>
            <trkpt lon="100.958928" lat="12.911629">
                <ele>50.500000</ele>
                <time>2018-02-25T03:46:15Z</time>
            </trkpt>
            <trkpt lon="100.958887" lat="12.911625">
                <ele>50.500000</ele>
                <time>2018-02-25T03:46:16Z</time>
            </trkpt>
            <trkpt lon="100.958845" lat="12.911621">
                <ele>50.500000</ele>
                <time>2018-02-25T03:46:17Z</time>
            </trkpt>
            <trkpt lon="100.958793" lat="12.911623">
                <ele>50.600000</ele>
                <time>2018-02-25T03:46:18Z</time>
            </trkpt>
            <trkpt lon="100.958753" lat="12.911619">
                <ele>50.600000</ele>
                <time>2018-02-25T03:46:19Z</time>
            </trkpt>
            <trkpt lon="100.958711" lat="12.911616">
                <ele>50.700000</ele>
                <time>2018-02-25T03:46:20Z</time>
            </trkpt>
            <trkpt lon="100.958671" lat="12.911613">
                <ele>50.700000</ele>
                <time>2018-02-25T03:46:21Z</time>
            </trkpt>
            <trkpt lon="100.958630" lat="12.911609">
                <ele>50.700000</ele>
                <time>2018-02-25T03:46:22Z</time>
            </trkpt>
            <trkpt lon="100.958590" lat="12.911601">
                <ele>50.900000</ele>
                <time>2018-02-25T03:46:23Z</time>
            </trkpt>
            <trkpt lon="100.958547" lat="12.911589">
                <ele>51.100000</ele>
                <time>2018-02-25T03:46:24Z</time>
            </trkpt>
            <trkpt lon="100.958511" lat="12.911578">
                <ele>51.600000</ele>
                <time>2018-02-25T03:46:25Z</time>
            </trkpt>
            <trkpt lon="100.958477" lat="12.911564">
                <ele>51.600000</ele>
                <time>2018-02-25T03:46:26Z</time>
            </trkpt>
            <trkpt lon="100.958430" lat="12.911518">
                <ele>52.200000</ele>
                <time>2018-02-25T03:46:27Z</time>
            </trkpt>
            <trkpt lon="100.958395" lat="12.911489">
                <ele>52.400000</ele>
                <time>2018-02-25T03:46:28Z</time>
            </trkpt>
            <trkpt lon="100.958357" lat="12.911469">
                <ele>52.200000</ele>
                <time>2018-02-25T03:46:29Z</time>
            </trkpt>
            <trkpt lon="100.958317" lat="12.911452">
                <ele>52.100000</ele>
                <time>2018-02-25T03:46:30Z</time>
            </trkpt>
            <trkpt lon="100.958276" lat="12.911436">
                <ele>51.900000</ele>
                <time>2018-02-25T03:46:31Z</time>
            </trkpt>
            <trkpt lon="100.958238" lat="12.911425">
                <ele>51.700000</ele>
                <time>2018-02-25T03:46:32Z</time>
            </trkpt>
            <trkpt lon="100.958197" lat="12.911407">
                <ele>51.700000</ele>
                <time>2018-02-25T03:46:33Z</time>
            </trkpt>
            <trkpt lon="100.958152" lat="12.911394">
                <ele>51.400000</ele>
                <time>2018-02-25T03:46:34Z</time>
            </trkpt>
            <trkpt lon="100.958111" lat="12.911375">
                <ele>51.400000</ele>
                <time>2018-02-25T03:46:35Z</time>
            </trkpt>
            <trkpt lon="100.958071" lat="12.911360">
                <ele>51.100000</ele>
                <time>2018-02-25T03:46:36Z</time>
            </trkpt>
            <trkpt lon="100.958028" lat="12.911354">
                <ele>50.700000</ele>
                <time>2018-02-25T03:46:37Z</time>
            </trkpt>
            <trkpt lon="100.957986" lat="12.911338">
                <ele>50.300000</ele>
                <time>2018-02-25T03:46:38Z</time>
            </trkpt>
            <trkpt lon="100.957939" lat="12.911327">
                <ele>50.000000</ele>
                <time>2018-02-25T03:46:39Z</time>
            </trkpt>
            <trkpt lon="100.957893" lat="12.911317">
                <ele>49.700000</ele>
                <time>2018-02-25T03:46:40Z</time>
            </trkpt>
            <trkpt lon="100.957852" lat="12.911311">
                <ele>49.700000</ele>
                <time>2018-02-25T03:46:41Z</time>
            </trkpt>
            <trkpt lon="100.957803" lat="12.911298">
                <ele>49.700000</ele>
                <time>2018-02-25T03:46:42Z</time>
            </trkpt>
            <trkpt lon="100.957764" lat="12.911289">
                <ele>49.700000</ele>
                <time>2018-02-25T03:46:43Z</time>
            </trkpt>
            <trkpt lon="100.957722" lat="12.911278">
                <ele>49.800000</ele>
                <time>2018-02-25T03:46:44Z</time>
            </trkpt>
            <trkpt lon="100.957683" lat="12.911266">
                <ele>50.100000</ele>
                <time>2018-02-25T03:46:45Z</time>
            </trkpt>
            <trkpt lon="100.957635" lat="12.911253">
                <ele>50.300000</ele>
                <time>2018-02-25T03:46:46Z</time>
            </trkpt>
            <trkpt lon="100.957597" lat="12.911240">
                <ele>50.600000</ele>
                <time>2018-02-25T03:46:47Z</time>
            </trkpt>
            <trkpt lon="100.957558" lat="12.911218">
                <ele>50.700000</ele>
                <time>2018-02-25T03:46:48Z</time>
            </trkpt>
            <trkpt lon="100.957515" lat="12.911207">
                <ele>50.800000</ele>
                <time>2018-02-25T03:46:49Z</time>
            </trkpt>
            <trkpt lon="100.957468" lat="12.911196">
                <ele>50.800000</ele>
                <time>2018-02-25T03:46:50Z</time>
            </trkpt>
            <trkpt lon="100.957426" lat="12.911186">
                <ele>50.800000</ele>
                <time>2018-02-25T03:46:51Z</time>
            </trkpt>
            <trkpt lon="100.957387" lat="12.911174">
                <ele>50.800000</ele>
                <time>2018-02-25T03:46:52Z</time>
            </trkpt>
            <trkpt lon="100.957350" lat="12.911155">
                <ele>50.800000</ele>
                <time>2018-02-25T03:46:53Z</time>
            </trkpt>
            <trkpt lon="100.957309" lat="12.911143">
                <ele>50.800000</ele>
                <time>2018-02-25T03:46:54Z</time>
            </trkpt>
            <trkpt lon="100.957268" lat="12.911141">
                <ele>50.800000</ele>
                <time>2018-02-25T03:46:55Z</time>
            </trkpt>
            <trkpt lon="100.957222" lat="12.911133">
                <ele>50.700000</ele>
                <time>2018-02-25T03:46:56Z</time>
            </trkpt>
            <trkpt lon="100.957181" lat="12.911119">
                <ele>50.400000</ele>
                <time>2018-02-25T03:46:57Z</time>
            </trkpt>
            <trkpt lon="100.957139" lat="12.911109">
                <ele>50.200000</ele>
                <time>2018-02-25T03:46:58Z</time>
            </trkpt>
            <trkpt lon="100.957098" lat="12.911101">
                <ele>49.900000</ele>
                <time>2018-02-25T03:46:59Z</time>
            </trkpt>
            <trkpt lon="100.957057" lat="12.911090">
                <ele>49.800000</ele>
                <time>2018-02-25T03:47:00Z</time>
            </trkpt>
            <trkpt lon="100.957013" lat="12.911082">
                <ele>49.700000</ele>
                <time>2018-02-25T03:47:01Z</time>
            </trkpt>
            <trkpt lon="100.956970" lat="12.911077">
                <ele>49.600000</ele>
                <time>2018-02-25T03:47:02Z</time>
            </trkpt>
            <trkpt lon="100.956931" lat="12.911062">
                <ele>49.500000</ele>
                <time>2018-02-25T03:47:03Z</time>
            </trkpt>
            <trkpt lon="100.956890" lat="12.911042">
                <ele>49.300000</ele>
                <time>2018-02-25T03:47:04Z</time>
            </trkpt>
            <trkpt lon="100.956841" lat="12.911033">
                <ele>49.200000</ele>
                <time>2018-02-25T03:47:05Z</time>
            </trkpt>
            <trkpt lon="100.956795" lat="12.911018">
                <ele>49.200000</ele>
                <time>2018-02-25T03:47:06Z</time>
            </trkpt>
            <trkpt lon="100.956752" lat="12.911001">
                <ele>49.200000</ele>
                <time>2018-02-25T03:47:07Z</time>
            </trkpt>
            <trkpt lon="100.956706" lat="12.910981">
                <ele>49.100000</ele>
                <time>2018-02-25T03:47:08Z</time>
            </trkpt>
            <trkpt lon="100.956659" lat="12.910969">
                <ele>49.300000</ele>
                <time>2018-02-25T03:47:09Z</time>
            </trkpt>
            <trkpt lon="100.956609" lat="12.910966">
                <ele>49.600000</ele>
                <time>2018-02-25T03:47:10Z</time>
            </trkpt>
            <trkpt lon="100.956571" lat="12.910955">
                <ele>49.700000</ele>
                <time>2018-02-25T03:47:11Z</time>
            </trkpt>
            <trkpt lon="100.956526" lat="12.910946">
                <ele>49.900000</ele>
                <time>2018-02-25T03:47:12Z</time>
            </trkpt>
            <trkpt lon="100.956482" lat="12.910941">
                <ele>50.200000</ele>
                <time>2018-02-25T03:47:13Z</time>
            </trkpt>
            <trkpt lon="100.956439" lat="12.910941">
                <ele>50.400000</ele>
                <time>2018-02-25T03:47:14Z</time>
            </trkpt>
            <trkpt lon="100.956394" lat="12.910926">
                <ele>50.700000</ele>
                <time>2018-02-25T03:47:15Z</time>
            </trkpt>
            <trkpt lon="100.956355" lat="12.910920">
                <ele>50.900000</ele>
                <time>2018-02-25T03:47:16Z</time>
            </trkpt>
            <trkpt lon="100.956303" lat="12.910913">
                <ele>50.900000</ele>
                <time>2018-02-25T03:47:17Z</time>
            </trkpt>
            <trkpt lon="100.956253" lat="12.910902">
                <ele>50.900000</ele>
                <time>2018-02-25T03:47:18Z</time>
            </trkpt>
            <trkpt lon="100.956208" lat="12.910893">
                <ele>50.900000</ele>
                <time>2018-02-25T03:47:19Z</time>
            </trkpt>
            <trkpt lon="100.956157" lat="12.910872">
                <ele>50.700000</ele>
                <time>2018-02-25T03:47:20Z</time>
            </trkpt>
            <trkpt lon="100.956110" lat="12.910856">
                <ele>50.600000</ele>
                <time>2018-02-25T03:47:21Z</time>
            </trkpt>
            <trkpt lon="100.956071" lat="12.910843">
                <ele>50.500000</ele>
                <time>2018-02-25T03:47:22Z</time>
            </trkpt>
            <trkpt lon="100.956035" lat="12.910819">
                <ele>50.800000</ele>
                <time>2018-02-25T03:47:23Z</time>
            </trkpt>
            <trkpt lon="100.956005" lat="12.910810">
                <ele>50.600000</ele>
                <time>2018-02-25T03:47:24Z</time>
            </trkpt>
            <trkpt lon="100.955976" lat="12.910767">
                <ele>50.500000</ele>
                <time>2018-02-25T03:47:25Z</time>
            </trkpt>
            <trkpt lon="100.955958" lat="12.910729">
                <ele>50.600000</ele>
                <time>2018-02-25T03:47:27Z</time>
            </trkpt>
            <trkpt lon="100.955969" lat="12.910676">
                <ele>50.600000</ele>
                <time>2018-02-25T03:47:29Z</time>
            </trkpt>
            <trkpt lon="100.955984" lat="12.910648">
                <ele>50.500000</ele>
                <time>2018-02-25T03:47:30Z</time>
            </trkpt>
            <trkpt lon="100.956001" lat="12.910608">
                <ele>50.500000</ele>
                <time>2018-02-25T03:47:31Z</time>
            </trkpt>
            <trkpt lon="100.956016" lat="12.910562">
                <ele>50.300000</ele>
                <time>2018-02-25T03:47:32Z</time>
            </trkpt>
            <trkpt lon="100.956028" lat="12.910513">
                <ele>50.000000</ele>
                <time>2018-02-25T03:47:33Z</time>
            </trkpt>
            <trkpt lon="100.956045" lat="12.910460">
                <ele>49.700000</ele>
                <time>2018-02-25T03:47:34Z</time>
            </trkpt>
            <trkpt lon="100.956063" lat="12.910412">
                <ele>49.400000</ele>
                <time>2018-02-25T03:47:35Z</time>
            </trkpt>
            <trkpt lon="100.956082" lat="12.910363">
                <ele>49.100000</ele>
                <time>2018-02-25T03:47:36Z</time>
            </trkpt>
            <trkpt lon="100.956102" lat="12.910315">
                <ele>48.800000</ele>
                <time>2018-02-25T03:47:37Z</time>
            </trkpt>
            <trkpt lon="100.956120" lat="12.910266">
                <ele>48.500000</ele>
                <time>2018-02-25T03:47:38Z</time>
            </trkpt>
            <trkpt lon="100.956138" lat="12.910219">
                <ele>48.200000</ele>
                <time>2018-02-25T03:47:39Z</time>
            </trkpt>
            <trkpt lon="100.956159" lat="12.910175">
                <ele>48.000000</ele>
                <time>2018-02-25T03:47:40Z</time>
            </trkpt>
            <trkpt lon="100.956188" lat="12.910139">
                <ele>47.700000</ele>
                <time>2018-02-25T03:47:41Z</time>
            </trkpt>
            <trkpt lon="100.956232" lat="12.910114">
                <ele>47.400000</ele>
                <time>2018-02-25T03:47:42Z</time>
            </trkpt>
            <trkpt lon="100.956270" lat="12.910091">
                <ele>47.000000</ele>
                <time>2018-02-25T03:47:43Z</time>
            </trkpt>
            <trkpt lon="100.956313" lat="12.910078">
                <ele>46.700000</ele>
                <time>2018-02-25T03:47:44Z</time>
            </trkpt>
            <trkpt lon="100.956363" lat="12.910066">
                <ele>46.300000</ele>
                <time>2018-02-25T03:47:45Z</time>
            </trkpt>
            <trkpt lon="100.956405" lat="12.910073">
                <ele>46.100000</ele>
                <time>2018-02-25T03:47:46Z</time>
            </trkpt>
            <trkpt lon="100.956457" lat="12.910072">
                <ele>46.000000</ele>
                <time>2018-02-25T03:47:47Z</time>
            </trkpt>
            <trkpt lon="100.956498" lat="12.910062">
                <ele>45.700000</ele>
                <time>2018-02-25T03:47:48Z</time>
            </trkpt>
            <trkpt lon="100.956537" lat="12.910041">
                <ele>45.200000</ele>
                <time>2018-02-25T03:47:49Z</time>
            </trkpt>
            <trkpt lon="100.956591" lat="12.910017">
                <ele>45.100000</ele>
                <time>2018-02-25T03:47:50Z</time>
            </trkpt>
            <trkpt lon="100.956639" lat="12.909991">
                <ele>45.300000</ele>
                <time>2018-02-25T03:47:51Z</time>
            </trkpt>
            <trkpt lon="100.956679" lat="12.909963">
                <ele>45.500000</ele>
                <time>2018-02-25T03:47:52Z</time>
            </trkpt>
            <trkpt lon="100.956722" lat="12.909933">
                <ele>45.300000</ele>
                <time>2018-02-25T03:47:53Z</time>
            </trkpt>
            <trkpt lon="100.956774" lat="12.909901">
                <ele>44.900000</ele>
                <time>2018-02-25T03:47:54Z</time>
            </trkpt>
            <trkpt lon="100.956817" lat="12.909863">
                <ele>44.500000</ele>
                <time>2018-02-25T03:47:55Z</time>
            </trkpt>
            <trkpt lon="100.956863" lat="12.909827">
                <ele>44.100000</ele>
                <time>2018-02-25T03:47:56Z</time>
            </trkpt>
            <trkpt lon="100.956912" lat="12.909790">
                <ele>43.700000</ele>
                <time>2018-02-25T03:47:57Z</time>
            </trkpt>
            <trkpt lon="100.956960" lat="12.909761">
                <ele>43.500000</ele>
                <time>2018-02-25T03:47:58Z</time>
            </trkpt>
            <trkpt lon="100.957010" lat="12.909731">
                <ele>43.300000</ele>
                <time>2018-02-25T03:47:59Z</time>
            </trkpt>
            <trkpt lon="100.957059" lat="12.909703">
                <ele>43.400000</ele>
                <time>2018-02-25T03:48:00Z</time>
            </trkpt>
            <trkpt lon="100.957114" lat="12.909682">
                <ele>43.500000</ele>
                <time>2018-02-25T03:48:01Z</time>
            </trkpt>
            <trkpt lon="100.957170" lat="12.909663">
                <ele>43.600000</ele>
                <time>2018-02-25T03:48:02Z</time>
            </trkpt>
            <trkpt lon="100.957220" lat="12.909660">
                <ele>43.800000</ele>
                <time>2018-02-25T03:48:03Z</time>
            </trkpt>
            <trkpt lon="100.957278" lat="12.909659">
                <ele>44.100000</ele>
                <time>2018-02-25T03:48:04Z</time>
            </trkpt>
            <trkpt lon="100.957332" lat="12.909661">
                <ele>44.500000</ele>
                <time>2018-02-25T03:48:05Z</time>
            </trkpt>
            <trkpt lon="100.957394" lat="12.909664">
                <ele>44.900000</ele>
                <time>2018-02-25T03:48:06Z</time>
            </trkpt>
            <trkpt lon="100.957448" lat="12.909668">
                <ele>45.200000</ele>
                <time>2018-02-25T03:48:07Z</time>
            </trkpt>
            <trkpt lon="100.957518" lat="12.909677">
                <ele>45.600000</ele>
                <time>2018-02-25T03:48:08Z</time>
            </trkpt>
            <trkpt lon="100.957571" lat="12.909677">
                <ele>45.800000</ele>
                <time>2018-02-25T03:48:09Z</time>
            </trkpt>
            <trkpt lon="100.957634" lat="12.909685">
                <ele>46.100000</ele>
                <time>2018-02-25T03:48:10Z</time>
            </trkpt>
            <trkpt lon="100.957680" lat="12.909690">
                <ele>46.300000</ele>
                <time>2018-02-25T03:48:11Z</time>
            </trkpt>
            <trkpt lon="100.957736" lat="12.909680">
                <ele>46.600000</ele>
                <time>2018-02-25T03:48:12Z</time>
            </trkpt>
            <trkpt lon="100.957788" lat="12.909666">
                <ele>46.700000</ele>
                <time>2018-02-25T03:48:13Z</time>
            </trkpt>
            <trkpt lon="100.957827" lat="12.909636">
                <ele>46.700000</ele>
                <time>2018-02-25T03:48:14Z</time>
            </trkpt>
            <trkpt lon="100.957870" lat="12.909608">
                <ele>46.700000</ele>
                <time>2018-02-25T03:48:15Z</time>
            </trkpt>
            <trkpt lon="100.957902" lat="12.909576">
                <ele>46.700000</ele>
                <time>2018-02-25T03:48:16Z</time>
            </trkpt>
            <trkpt lon="100.957925" lat="12.909540">
                <ele>46.700000</ele>
                <time>2018-02-25T03:48:17Z</time>
            </trkpt>
            <trkpt lon="100.957952" lat="12.909493">
                <ele>46.700000</ele>
                <time>2018-02-25T03:48:18Z</time>
            </trkpt>
            <trkpt lon="100.957978" lat="12.909450">
                <ele>46.900000</ele>
                <time>2018-02-25T03:48:19Z</time>
            </trkpt>
            <trkpt lon="100.957994" lat="12.909406">
                <ele>47.100000</ele>
                <time>2018-02-25T03:48:20Z</time>
            </trkpt>
            <trkpt lon="100.958004" lat="12.909353">
                <ele>47.100000</ele>
                <time>2018-02-25T03:48:21Z</time>
            </trkpt>
            <trkpt lon="100.958014" lat="12.909303">
                <ele>47.100000</ele>
                <time>2018-02-25T03:48:22Z</time>
            </trkpt>
            <trkpt lon="100.958038" lat="12.909251">
                <ele>47.200000</ele>
                <time>2018-02-25T03:48:23Z</time>
            </trkpt>
            <trkpt lon="100.958054" lat="12.909197">
                <ele>47.100000</ele>
                <time>2018-02-25T03:48:24Z</time>
            </trkpt>
            <trkpt lon="100.958067" lat="12.909144">
                <ele>47.000000</ele>
                <time>2018-02-25T03:48:25Z</time>
            </trkpt>
            <trkpt lon="100.958090" lat="12.909097">
                <ele>46.800000</ele>
                <time>2018-02-25T03:48:26Z</time>
            </trkpt>
            <trkpt lon="100.958105" lat="12.909042">
                <ele>46.600000</ele>
                <time>2018-02-25T03:48:27Z</time>
            </trkpt>
            <trkpt lon="100.958120" lat="12.908976">
                <ele>46.300000</ele>
                <time>2018-02-25T03:48:28Z</time>
            </trkpt>
            <trkpt lon="100.958112" lat="12.908912">
                <ele>46.100000</ele>
                <time>2018-02-25T03:48:29Z</time>
            </trkpt>
            <trkpt lon="100.958110" lat="12.908846">
                <ele>46.200000</ele>
                <time>2018-02-25T03:48:30Z</time>
            </trkpt>
            <trkpt lon="100.958107" lat="12.908784">
                <ele>46.400000</ele>
                <time>2018-02-25T03:48:31Z</time>
            </trkpt>
            <trkpt lon="100.958094" lat="12.908719">
                <ele>46.700000</ele>
                <time>2018-02-25T03:48:32Z</time>
            </trkpt>
            <trkpt lon="100.958093" lat="12.908656">
                <ele>46.800000</ele>
                <time>2018-02-25T03:48:33Z</time>
            </trkpt>
            <trkpt lon="100.958094" lat="12.908590">
                <ele>46.900000</ele>
                <time>2018-02-25T03:48:34Z</time>
            </trkpt>
            <trkpt lon="100.958097" lat="12.908522">
                <ele>46.900000</ele>
                <time>2018-02-25T03:48:35Z</time>
            </trkpt>
            <trkpt lon="100.958119" lat="12.908459">
                <ele>46.900000</ele>
                <time>2018-02-25T03:48:36Z</time>
            </trkpt>
            <trkpt lon="100.958134" lat="12.908397">
                <ele>46.800000</ele>
                <time>2018-02-25T03:48:37Z</time>
            </trkpt>
            <trkpt lon="100.958147" lat="12.908338">
                <ele>46.600000</ele>
                <time>2018-02-25T03:48:38Z</time>
            </trkpt>
            <trkpt lon="100.958159" lat="12.908279">
                <ele>46.200000</ele>
                <time>2018-02-25T03:48:39Z</time>
            </trkpt>
            <trkpt lon="100.958166" lat="12.908223">
                <ele>45.900000</ele>
                <time>2018-02-25T03:48:40Z</time>
            </trkpt>
            <trkpt lon="100.958177" lat="12.908169">
                <ele>45.600000</ele>
                <time>2018-02-25T03:48:41Z</time>
            </trkpt>
            <trkpt lon="100.958186" lat="12.908116">
                <ele>45.500000</ele>
                <time>2018-02-25T03:48:42Z</time>
            </trkpt>
            <trkpt lon="100.958191" lat="12.908062">
                <ele>45.100000</ele>
                <time>2018-02-25T03:48:43Z</time>
            </trkpt>
            <trkpt lon="100.958196" lat="12.908005">
                <ele>44.700000</ele>
                <time>2018-02-25T03:48:44Z</time>
            </trkpt>
            <trkpt lon="100.958202" lat="12.907945">
                <ele>44.400000</ele>
                <time>2018-02-25T03:48:45Z</time>
            </trkpt>
            <trkpt lon="100.958209" lat="12.907895">
                <ele>44.200000</ele>
                <time>2018-02-25T03:48:46Z</time>
            </trkpt>
            <trkpt lon="100.958222" lat="12.907841">
                <ele>44.100000</ele>
                <time>2018-02-25T03:48:47Z</time>
            </trkpt>
            <trkpt lon="100.958232" lat="12.907784">
                <ele>44.300000</ele>
                <time>2018-02-25T03:48:48Z</time>
            </trkpt>
            <trkpt lon="100.958242" lat="12.907720">
                <ele>44.400000</ele>
                <time>2018-02-25T03:48:49Z</time>
            </trkpt>
            <trkpt lon="100.958253" lat="12.907670">
                <ele>44.300000</ele>
                <time>2018-02-25T03:48:50Z</time>
            </trkpt>
            <trkpt lon="100.958265" lat="12.907621">
                <ele>44.300000</ele>
                <time>2018-02-25T03:48:51Z</time>
            </trkpt>
            <trkpt lon="100.958281" lat="12.907573">
                <ele>44.400000</ele>
                <time>2018-02-25T03:48:52Z</time>
            </trkpt>
            <trkpt lon="100.958309" lat="12.907530">
                <ele>44.400000</ele>
                <time>2018-02-25T03:48:53Z</time>
            </trkpt>
            <trkpt lon="100.958335" lat="12.907485">
                <ele>44.400000</ele>
                <time>2018-02-25T03:48:54Z</time>
            </trkpt>
            <trkpt lon="100.958359" lat="12.907444">
                <ele>44.400000</ele>
                <time>2018-02-25T03:48:55Z</time>
            </trkpt>
            <trkpt lon="100.958374" lat="12.907409">
                <ele>44.500000</ele>
                <time>2018-02-25T03:48:56Z</time>
            </trkpt>
            <trkpt lon="100.958391" lat="12.907375">
                <ele>44.600000</ele>
                <time>2018-02-25T03:48:57Z</time>
            </trkpt>
            <trkpt lon="100.958400" lat="12.907346">
                <ele>44.700000</ele>
                <time>2018-02-25T03:48:58Z</time>
            </trkpt>
            <trkpt lon="100.958396" lat="12.907315">
                <ele>44.700000</ele>
                <time>2018-02-25T03:48:59Z</time>
            </trkpt>
            <trkpt lon="100.958404" lat="12.907268">
                <ele>44.700000</ele>
                <time>2018-02-25T03:49:00Z</time>
            </trkpt>
            <trkpt lon="100.958403" lat="12.907223">
                <ele>44.600000</ele>
                <time>2018-02-25T03:49:02Z</time>
            </trkpt>
            <trkpt lon="100.958423" lat="12.907175">
                <ele>44.500000</ele>
                <time>2018-02-25T03:49:04Z</time>
            </trkpt>
            <trkpt lon="100.958442" lat="12.907153">
                <ele>44.400000</ele>
                <time>2018-02-25T03:49:05Z</time>
            </trkpt>
            <trkpt lon="100.958463" lat="12.907135">
                <ele>44.400000</ele>
                <time>2018-02-25T03:49:06Z</time>
            </trkpt>
            <trkpt lon="100.958501" lat="12.907112">
                <ele>44.200000</ele>
                <time>2018-02-25T03:49:08Z</time>
            </trkpt>
            <trkpt lon="100.958534" lat="12.907089">
                <ele>44.200000</ele>
                <time>2018-02-25T03:49:10Z</time>
            </trkpt>
            <trkpt lon="100.958567" lat="12.907069">
                <ele>44.200000</ele>
                <time>2018-02-25T03:49:12Z</time>
            </trkpt>
            <trkpt lon="100.958591" lat="12.907035">
                <ele>44.200000</ele>
                <time>2018-02-25T03:49:14Z</time>
            </trkpt>
            <trkpt lon="100.958595" lat="12.907006">
                <ele>44.200000</ele>
                <time>2018-02-25T03:49:15Z</time>
            </trkpt>
            <trkpt lon="100.958599" lat="12.906977">
                <ele>44.200000</ele>
                <time>2018-02-25T03:49:16Z</time>
            </trkpt>
            <trkpt lon="100.958612" lat="12.906931">
                <ele>44.200000</ele>
                <time>2018-02-25T03:49:18Z</time>
            </trkpt>
            <trkpt lon="100.958628" lat="12.906882">
                <ele>44.000000</ele>
                <time>2018-02-25T03:49:20Z</time>
            </trkpt>
            <trkpt lon="100.958641" lat="12.906855">
                <ele>44.100000</ele>
                <time>2018-02-25T03:49:21Z</time>
            </trkpt>
            <trkpt lon="100.958653" lat="12.906828">
                <ele>44.200000</ele>
                <time>2018-02-25T03:49:22Z</time>
            </trkpt>
            <trkpt lon="100.958662" lat="12.906800">
                <ele>44.200000</ele>
                <time>2018-02-25T03:49:23Z</time>
            </trkpt>
            <trkpt lon="100.958664" lat="12.906772">
                <ele>44.200000</ele>
                <time>2018-02-25T03:49:24Z</time>
            </trkpt>
            <trkpt lon="100.958659" lat="12.906744">
                <ele>44.200000</ele>
                <time>2018-02-25T03:49:25Z</time>
            </trkpt>
            <trkpt lon="100.958648" lat="12.906715">
                <ele>44.500000</ele>
                <time>2018-02-25T03:49:26Z</time>
            </trkpt>
            <trkpt lon="100.958633" lat="12.906685">
                <ele>44.900000</ele>
                <time>2018-02-25T03:49:27Z</time>
            </trkpt>
            <trkpt lon="100.958617" lat="12.906657">
                <ele>44.900000</ele>
                <time>2018-02-25T03:49:28Z</time>
            </trkpt>
            <trkpt lon="100.958604" lat="12.906632">
                <ele>45.300000</ele>
                <time>2018-02-25T03:49:29Z</time>
            </trkpt>
            <trkpt lon="100.958586" lat="12.906574">
                <ele>46.000000</ele>
                <time>2018-02-25T03:49:31Z</time>
            </trkpt>
            <trkpt lon="100.958577" lat="12.906538">
                <ele>46.700000</ele>
                <time>2018-02-25T03:49:32Z</time>
            </trkpt>
            <trkpt lon="100.958573" lat="12.906504">
                <ele>47.500000</ele>
                <time>2018-02-25T03:49:33Z</time>
            </trkpt>
            <trkpt lon="100.958578" lat="12.906472">
                <ele>48.200000</ele>
                <time>2018-02-25T03:49:34Z</time>
            </trkpt>
            <trkpt lon="100.958591" lat="12.906442">
                <ele>48.200000</ele>
                <time>2018-02-25T03:49:35Z</time>
            </trkpt>
            <trkpt lon="100.958613" lat="12.906413">
                <ele>49.200000</ele>
                <time>2018-02-25T03:49:36Z</time>
            </trkpt>
            <trkpt lon="100.958636" lat="12.906381">
                <ele>50.200000</ele>
                <time>2018-02-25T03:49:37Z</time>
            </trkpt>
            <trkpt lon="100.958659" lat="12.906349">
                <ele>51.100000</ele>
                <time>2018-02-25T03:49:38Z</time>
            </trkpt>
            <trkpt lon="100.958683" lat="12.906319">
                <ele>51.100000</ele>
                <time>2018-02-25T03:49:39Z</time>
            </trkpt>
            <trkpt lon="100.958709" lat="12.906294">
                <ele>52.200000</ele>
                <time>2018-02-25T03:49:40Z</time>
            </trkpt>
            <trkpt lon="100.958737" lat="12.906275">
                <ele>52.200000</ele>
                <time>2018-02-25T03:49:41Z</time>
            </trkpt>
            <trkpt lon="100.958764" lat="12.906263">
                <ele>53.400000</ele>
                <time>2018-02-25T03:49:42Z</time>
            </trkpt>
            <trkpt lon="100.958792" lat="12.906257">
                <ele>53.200000</ele>
                <time>2018-02-25T03:49:43Z</time>
            </trkpt>
            <trkpt lon="100.958825" lat="12.906254">
                <ele>52.700000</ele>
                <time>2018-02-25T03:49:44Z</time>
            </trkpt>
            <trkpt lon="100.958869" lat="12.906254">
                <ele>52.300000</ele>
                <time>2018-02-25T03:49:45Z</time>
            </trkpt>
            <trkpt lon="100.958915" lat="12.906252">
                <ele>51.800000</ele>
                <time>2018-02-25T03:49:46Z</time>
            </trkpt>
            <trkpt lon="100.958965" lat="12.906251">
                <ele>51.400000</ele>
                <time>2018-02-25T03:49:47Z</time>
            </trkpt>
            <trkpt lon="100.959012" lat="12.906249">
                <ele>51.100000</ele>
                <time>2018-02-25T03:49:48Z</time>
            </trkpt>
            <trkpt lon="100.959056" lat="12.906246">
                <ele>50.800000</ele>
                <time>2018-02-25T03:49:49Z</time>
            </trkpt>
            <trkpt lon="100.959094" lat="12.906245">
                <ele>50.500000</ele>
                <time>2018-02-25T03:49:50Z</time>
            </trkpt>
            <trkpt lon="100.959131" lat="12.906248">
                <ele>50.100000</ele>
                <time>2018-02-25T03:49:51Z</time>
            </trkpt>
            <trkpt lon="100.959168" lat="12.906255">
                <ele>49.600000</ele>
                <time>2018-02-25T03:49:52Z</time>
            </trkpt>
            <trkpt lon="100.959206" lat="12.906262">
                <ele>49.100000</ele>
                <time>2018-02-25T03:49:53Z</time>
            </trkpt>
            <trkpt lon="100.959239" lat="12.906263">
                <ele>49.100000</ele>
                <time>2018-02-25T03:49:54Z</time>
            </trkpt>
            <trkpt lon="100.959271" lat="12.906252">
                <ele>48.600000</ele>
                <time>2018-02-25T03:49:55Z</time>
            </trkpt>
            <trkpt lon="100.959298" lat="12.906228">
                <ele>49.400000</ele>
                <time>2018-02-25T03:49:56Z</time>
            </trkpt>
            <trkpt lon="100.959312" lat="12.906198">
                <ele>49.400000</ele>
                <time>2018-02-25T03:49:57Z</time>
            </trkpt>
            <trkpt lon="100.959324" lat="12.906164">
                <ele>50.600000</ele>
                <time>2018-02-25T03:49:58Z</time>
            </trkpt>
            <trkpt lon="100.959337" lat="12.906126">
                <ele>51.300000</ele>
                <time>2018-02-25T03:49:59Z</time>
            </trkpt>
            <trkpt lon="100.959348" lat="12.906091">
                <ele>52.800000</ele>
                <time>2018-02-25T03:50:00Z</time>
            </trkpt>
            <trkpt lon="100.959360" lat="12.906058">
                <ele>54.200000</ele>
                <time>2018-02-25T03:50:01Z</time>
            </trkpt>
            <trkpt lon="100.959371" lat="12.906022">
                <ele>55.700000</ele>
                <time>2018-02-25T03:50:02Z</time>
            </trkpt>
            <trkpt lon="100.959384" lat="12.905989">
                <ele>55.200000</ele>
                <time>2018-02-25T03:50:03Z</time>
            </trkpt>
            <trkpt lon="100.959404" lat="12.905966">
                <ele>56.700000</ele>
                <time>2018-02-25T03:50:04Z</time>
            </trkpt>
            <trkpt lon="100.959434" lat="12.905948">
                <ele>56.200000</ele>
                <time>2018-02-25T03:50:05Z</time>
            </trkpt>
            <trkpt lon="100.959468" lat="12.905937">
                <ele>56.700000</ele>
                <time>2018-02-25T03:50:06Z</time>
            </trkpt>
            <trkpt lon="100.959502" lat="12.905929">
                <ele>56.600000</ele>
                <time>2018-02-25T03:50:07Z</time>
            </trkpt>
            <trkpt lon="100.959535" lat="12.905924">
                <ele>55.600000</ele>
                <time>2018-02-25T03:50:08Z</time>
            </trkpt>
            <trkpt lon="100.959570" lat="12.905924">
                <ele>54.600000</ele>
                <time>2018-02-25T03:50:09Z</time>
            </trkpt>
            <trkpt lon="100.959614" lat="12.905934">
                <ele>53.600000</ele>
                <time>2018-02-25T03:50:11Z</time>
            </trkpt>
            <trkpt lon="100.959652" lat="12.905952">
                <ele>51.700000</ele>
                <time>2018-02-25T03:50:13Z</time>
            </trkpt>
            <trkpt lon="100.959679" lat="12.905961">
                <ele>50.700000</ele>
                <time>2018-02-25T03:50:17Z</time>
            </trkpt>
            <trkpt lon="100.959711" lat="12.905955">
                <ele>50.700000</ele>
                <time>2018-02-25T03:50:20Z</time>
            </trkpt>
            <trkpt lon="100.959743" lat="12.905946">
                <ele>49.700000</ele>
                <time>2018-02-25T03:50:24Z</time>
            </trkpt>
            <trkpt lon="100.959772" lat="12.905932">
                <ele>49.600000</ele>
                <time>2018-02-25T03:50:28Z</time>
            </trkpt>
            <trkpt lon="100.959811" lat="12.905933">
                <ele>48.900000</ele>
                <time>2018-02-25T03:50:30Z</time>
            </trkpt>
            <trkpt lon="100.959845" lat="12.905938">
                <ele>48.900000</ele>
                <time>2018-02-25T03:50:32Z</time>
            </trkpt>
            <trkpt lon="100.959888" lat="12.905936">
                <ele>48.600000</ele>
                <time>2018-02-25T03:50:34Z</time>
            </trkpt>
            <trkpt lon="100.959932" lat="12.905927">
                <ele>48.400000</ele>
                <time>2018-02-25T03:50:36Z</time>
            </trkpt>
            <trkpt lon="100.959980" lat="12.905909">
                <ele>48.100000</ele>
                <time>2018-02-25T03:50:38Z</time>
            </trkpt>
            <trkpt lon="100.960013" lat="12.905876">
                <ele>48.800000</ele>
                <time>2018-02-25T03:50:40Z</time>
            </trkpt>
            <trkpt lon="100.960045" lat="12.905837">
                <ele>49.900000</ele>
                <time>2018-02-25T03:50:42Z</time>
            </trkpt>
            <trkpt lon="100.960070" lat="12.905821">
                <ele>50.200000</ele>
                <time>2018-02-25T03:50:43Z</time>
            </trkpt>
            <trkpt lon="100.960098" lat="12.905808">
                <ele>50.800000</ele>
                <time>2018-02-25T03:50:44Z</time>
            </trkpt>
            <trkpt lon="100.960126" lat="12.905797">
                <ele>51.000000</ele>
                <time>2018-02-25T03:50:45Z</time>
            </trkpt>
            <trkpt lon="100.960154" lat="12.905784">
                <ele>51.300000</ele>
                <time>2018-02-25T03:50:46Z</time>
            </trkpt>
            <trkpt lon="100.960184" lat="12.905769">
                <ele>51.800000</ele>
                <time>2018-02-25T03:50:47Z</time>
            </trkpt>
            <trkpt lon="100.960212" lat="12.905750">
                <ele>52.000000</ele>
                <time>2018-02-25T03:50:48Z</time>
            </trkpt>
            <trkpt lon="100.960239" lat="12.905730">
                <ele>52.500000</ele>
                <time>2018-02-25T03:50:49Z</time>
            </trkpt>
            <trkpt lon="100.960264" lat="12.905709">
                <ele>52.500000</ele>
                <time>2018-02-25T03:50:50Z</time>
            </trkpt>
            <trkpt lon="100.960286" lat="12.905691">
                <ele>52.700000</ele>
                <time>2018-02-25T03:50:51Z</time>
            </trkpt>
            <trkpt lon="100.960308" lat="12.905673">
                <ele>53.000000</ele>
                <time>2018-02-25T03:50:52Z</time>
            </trkpt>
            <trkpt lon="100.960329" lat="12.905654">
                <ele>52.900000</ele>
                <time>2018-02-25T03:50:53Z</time>
            </trkpt>
            <trkpt lon="100.960367" lat="12.905611">
                <ele>52.900000</ele>
                <time>2018-02-25T03:50:55Z</time>
            </trkpt>
            <trkpt lon="100.960391" lat="12.905588">
                <ele>53.100000</ele>
                <time>2018-02-25T03:50:56Z</time>
            </trkpt>
            <trkpt lon="100.960417" lat="12.905569">
                <ele>52.900000</ele>
                <time>2018-02-25T03:50:57Z</time>
            </trkpt>
            <trkpt lon="100.960447" lat="12.905553">
                <ele>53.100000</ele>
                <time>2018-02-25T03:50:58Z</time>
            </trkpt>
            <trkpt lon="100.960480" lat="12.905542">
                <ele>52.900000</ele>
                <time>2018-02-25T03:50:59Z</time>
            </trkpt>
            <trkpt lon="100.960512" lat="12.905534">
                <ele>52.600000</ele>
                <time>2018-02-25T03:51:00Z</time>
            </trkpt>
            <trkpt lon="100.960546" lat="12.905523">
                <ele>52.400000</ele>
                <time>2018-02-25T03:51:01Z</time>
            </trkpt>
            <trkpt lon="100.960581" lat="12.905512">
                <ele>52.400000</ele>
                <time>2018-02-25T03:51:02Z</time>
            </trkpt>
            <trkpt lon="100.960612" lat="12.905500">
                <ele>52.400000</ele>
                <time>2018-02-25T03:51:03Z</time>
            </trkpt>
            <trkpt lon="100.960639" lat="12.905485">
                <ele>52.100000</ele>
                <time>2018-02-25T03:51:04Z</time>
            </trkpt>
            <trkpt lon="100.960660" lat="12.905468">
                <ele>52.400000</ele>
                <time>2018-02-25T03:51:05Z</time>
            </trkpt>
            <trkpt lon="100.960686" lat="12.905431">
                <ele>52.600000</ele>
                <time>2018-02-25T03:51:07Z</time>
            </trkpt>
            <trkpt lon="100.960710" lat="12.905389">
                <ele>53.000000</ele>
                <time>2018-02-25T03:51:09Z</time>
            </trkpt>
            <trkpt lon="100.960735" lat="12.905352">
                <ele>53.400000</ele>
                <time>2018-02-25T03:51:11Z</time>
            </trkpt>
            <trkpt lon="100.960744" lat="12.905317">
                <ele>53.400000</ele>
                <time>2018-02-25T03:51:13Z</time>
            </trkpt>
            <trkpt lon="100.960751" lat="12.905281">
                <ele>53.500000</ele>
                <time>2018-02-25T03:51:15Z</time>
            </trkpt>
            <trkpt lon="100.960776" lat="12.905250">
                <ele>53.900000</ele>
                <time>2018-02-25T03:51:17Z</time>
            </trkpt>
            <trkpt lon="100.960817" lat="12.905221">
                <ele>54.200000</ele>
                <time>2018-02-25T03:51:19Z</time>
            </trkpt>
            <trkpt lon="100.960868" lat="12.905201">
                <ele>54.000000</ele>
                <time>2018-02-25T03:51:21Z</time>
            </trkpt>
            <trkpt lon="100.960906" lat="12.905194">
                <ele>53.700000</ele>
                <time>2018-02-25T03:51:22Z</time>
            </trkpt>
            <trkpt lon="100.960950" lat="12.905190">
                <ele>53.500000</ele>
                <time>2018-02-25T03:51:23Z</time>
            </trkpt>
            <trkpt lon="100.960980" lat="12.905186">
                <ele>53.700000</ele>
                <time>2018-02-25T03:51:24Z</time>
            </trkpt>
            <trkpt lon="100.961019" lat="12.905182">
                <ele>53.500000</ele>
                <time>2018-02-25T03:51:26Z</time>
            </trkpt>
            <trkpt lon="100.961060" lat="12.905183">
                <ele>53.200000</ele>
                <time>2018-02-25T03:51:29Z</time>
            </trkpt>
            <trkpt lon="100.961098" lat="12.905184">
                <ele>53.000000</ele>
                <time>2018-02-25T03:51:31Z</time>
            </trkpt>
            <trkpt lon="100.961150" lat="12.905195">
                <ele>52.200000</ele>
                <time>2018-02-25T03:51:33Z</time>
            </trkpt>
            <trkpt lon="100.961181" lat="12.905206">
                <ele>52.000000</ele>
                <time>2018-02-25T03:51:34Z</time>
            </trkpt>
            <trkpt lon="100.961214" lat="12.905222">
                <ele>52.000000</ele>
                <time>2018-02-25T03:51:35Z</time>
            </trkpt>
            <trkpt lon="100.961242" lat="12.905238">
                <ele>51.500000</ele>
                <time>2018-02-25T03:51:36Z</time>
            </trkpt>
            <trkpt lon="100.961262" lat="12.905261">
                <ele>51.500000</ele>
                <time>2018-02-25T03:51:37Z</time>
            </trkpt>
            <trkpt lon="100.961284" lat="12.905289">
                <ele>51.100000</ele>
                <time>2018-02-25T03:51:38Z</time>
            </trkpt>
            <trkpt lon="100.961302" lat="12.905316">
                <ele>50.900000</ele>
                <time>2018-02-25T03:51:39Z</time>
            </trkpt>
            <trkpt lon="100.961335" lat="12.905346">
                <ele>50.900000</ele>
                <time>2018-02-25T03:51:41Z</time>
            </trkpt>
            <trkpt lon="100.961383" lat="12.905349">
                <ele>50.900000</ele>
                <time>2018-02-25T03:51:43Z</time>
            </trkpt>
            <trkpt lon="100.961417" lat="12.905329">
                <ele>50.900000</ele>
                <time>2018-02-25T03:51:45Z</time>
            </trkpt>
            <trkpt lon="100.961447" lat="12.905310">
                <ele>51.100000</ele>
                <time>2018-02-25T03:51:47Z</time>
            </trkpt>
            <trkpt lon="100.961477" lat="12.905299">
                <ele>51.100000</ele>
                <time>2018-02-25T03:51:49Z</time>
            </trkpt>
            <trkpt lon="100.961503" lat="12.905278">
                <ele>51.100000</ele>
                <time>2018-02-25T03:51:51Z</time>
            </trkpt>
            <trkpt lon="100.961538" lat="12.905262">
                <ele>51.500000</ele>
                <time>2018-02-25T03:51:53Z</time>
            </trkpt>
            <trkpt lon="100.961568" lat="12.905254">
                <ele>51.500000</ele>
                <time>2018-02-25T03:51:55Z</time>
            </trkpt>
            <trkpt lon="100.961601" lat="12.905244">
                <ele>51.500000</ele>
                <time>2018-02-25T03:51:57Z</time>
            </trkpt>
            <trkpt lon="100.961642" lat="12.905236">
                <ele>51.600000</ele>
                <time>2018-02-25T03:51:59Z</time>
            </trkpt>
            <trkpt lon="100.961677" lat="12.905235">
                <ele>51.600000</ele>
                <time>2018-02-25T03:52:00Z</time>
            </trkpt>
            <trkpt lon="100.961706" lat="12.905235">
                <ele>51.700000</ele>
                <time>2018-02-25T03:52:01Z</time>
            </trkpt>
            <trkpt lon="100.961748" lat="12.905232">
                <ele>52.000000</ele>
                <time>2018-02-25T03:52:03Z</time>
            </trkpt>
            <trkpt lon="100.961779" lat="12.905224">
                <ele>52.800000</ele>
                <time>2018-02-25T03:52:05Z</time>
            </trkpt>
            <trkpt lon="100.961810" lat="12.905219">
                <ele>53.200000</ele>
                <time>2018-02-25T03:52:07Z</time>
            </trkpt>
            <trkpt lon="100.961845" lat="12.905225">
                <ele>53.500000</ele>
                <time>2018-02-25T03:52:09Z</time>
            </trkpt>
            <trkpt lon="100.961871" lat="12.905237">
                <ele>52.900000</ele>
                <time>2018-02-25T03:52:11Z</time>
            </trkpt>
            <trkpt lon="100.961901" lat="12.905251">
                <ele>52.900000</ele>
                <time>2018-02-25T03:52:13Z</time>
            </trkpt>
            <trkpt lon="100.961932" lat="12.905282">
                <ele>52.300000</ele>
                <time>2018-02-25T03:52:15Z</time>
            </trkpt>
            <trkpt lon="100.961954" lat="12.905321">
                <ele>51.800000</ele>
                <time>2018-02-25T03:52:17Z</time>
            </trkpt>
            <trkpt lon="100.961973" lat="12.905344">
                <ele>51.800000</ele>
                <time>2018-02-25T03:52:18Z</time>
            </trkpt>
            <trkpt lon="100.961993" lat="12.905372">
                <ele>51.200000</ele>
                <time>2018-02-25T03:52:19Z</time>
            </trkpt>
            <trkpt lon="100.962018" lat="12.905400">
                <ele>50.600000</ele>
                <time>2018-02-25T03:52:20Z</time>
            </trkpt>
            <trkpt lon="100.962041" lat="12.905420">
                <ele>50.700000</ele>
                <time>2018-02-25T03:52:21Z</time>
            </trkpt>
            <trkpt lon="100.962070" lat="12.905433">
                <ele>50.700000</ele>
                <time>2018-02-25T03:52:22Z</time>
            </trkpt>
            <trkpt lon="100.962111" lat="12.905441">
                <ele>50.400000</ele>
                <time>2018-02-25T03:52:23Z</time>
            </trkpt>
            <trkpt lon="100.962152" lat="12.905446">
                <ele>50.600000</ele>
                <time>2018-02-25T03:52:24Z</time>
            </trkpt>
            <trkpt lon="100.962189" lat="12.905448">
                <ele>50.900000</ele>
                <time>2018-02-25T03:52:25Z</time>
            </trkpt>
            <trkpt lon="100.962220" lat="12.905450">
                <ele>51.100000</ele>
                <time>2018-02-25T03:52:26Z</time>
            </trkpt>
            <trkpt lon="100.962248" lat="12.905450">
                <ele>51.100000</ele>
                <time>2018-02-25T03:52:27Z</time>
            </trkpt>
            <trkpt lon="100.962292" lat="12.905440">
                <ele>51.300000</ele>
                <time>2018-02-25T03:52:29Z</time>
            </trkpt>
            <trkpt lon="100.962319" lat="12.905417">
                <ele>51.900000</ele>
                <time>2018-02-25T03:52:31Z</time>
            </trkpt>
            <trkpt lon="100.962340" lat="12.905387">
                <ele>52.400000</ele>
                <time>2018-02-25T03:52:33Z</time>
            </trkpt>
            <trkpt lon="100.962361" lat="12.905367">
                <ele>52.400000</ele>
                <time>2018-02-25T03:52:35Z</time>
            </trkpt>
            <trkpt lon="100.962384" lat="12.905346">
                <ele>52.800000</ele>
                <time>2018-02-25T03:52:37Z</time>
            </trkpt>
            <trkpt lon="100.962406" lat="12.905309">
                <ele>53.000000</ele>
                <time>2018-02-25T03:52:40Z</time>
            </trkpt>
            <trkpt lon="100.962423" lat="12.905280">
                <ele>53.000000</ele>
                <time>2018-02-25T03:52:43Z</time>
            </trkpt>
            <trkpt lon="100.962446" lat="12.905265">
                <ele>53.300000</ele>
                <time>2018-02-25T03:52:45Z</time>
            </trkpt>
            <trkpt lon="100.962486" lat="12.905255">
                <ele>53.300000</ele>
                <time>2018-02-25T03:52:47Z</time>
            </trkpt>
            <trkpt lon="100.962524" lat="12.905247">
                <ele>53.200000</ele>
                <time>2018-02-25T03:52:49Z</time>
            </trkpt>
            <trkpt lon="100.962567" lat="12.905240">
                <ele>53.200000</ele>
                <time>2018-02-25T03:52:51Z</time>
            </trkpt>
            <trkpt lon="100.962617" lat="12.905240">
                <ele>53.100000</ele>
                <time>2018-02-25T03:52:53Z</time>
            </trkpt>
            <trkpt lon="100.962662" lat="12.905246">
                <ele>53.100000</ele>
                <time>2018-02-25T03:52:55Z</time>
            </trkpt>
            <trkpt lon="100.962703" lat="12.905257">
                <ele>53.100000</ele>
                <time>2018-02-25T03:52:57Z</time>
            </trkpt>
            <trkpt lon="100.962747" lat="12.905283">
                <ele>53.000000</ele>
                <time>2018-02-25T03:52:59Z</time>
            </trkpt>
            <trkpt lon="100.962774" lat="12.905297">
                <ele>53.000000</ele>
                <time>2018-02-25T03:53:00Z</time>
            </trkpt>
            <trkpt lon="100.962810" lat="12.905309">
                <ele>53.000000</ele>
                <time>2018-02-25T03:53:01Z</time>
            </trkpt>
            <trkpt lon="100.962849" lat="12.905317">
                <ele>53.000000</ele>
                <time>2018-02-25T03:53:02Z</time>
            </trkpt>
            <trkpt lon="100.962887" lat="12.905324">
                <ele>53.000000</ele>
                <time>2018-02-25T03:53:03Z</time>
            </trkpt>
            <trkpt lon="100.962919" lat="12.905332">
                <ele>53.100000</ele>
                <time>2018-02-25T03:53:04Z</time>
            </trkpt>
            <trkpt lon="100.962950" lat="12.905340">
                <ele>53.200000</ele>
                <time>2018-02-25T03:53:05Z</time>
            </trkpt>
            <trkpt lon="100.962982" lat="12.905348">
                <ele>53.200000</ele>
                <time>2018-02-25T03:53:06Z</time>
            </trkpt>
            <trkpt lon="100.963015" lat="12.905352">
                <ele>53.400000</ele>
                <time>2018-02-25T03:53:07Z</time>
            </trkpt>
            <trkpt lon="100.963049" lat="12.905355">
                <ele>53.300000</ele>
                <time>2018-02-25T03:53:08Z</time>
            </trkpt>
            <trkpt lon="100.963087" lat="12.905360">
                <ele>53.500000</ele>
                <time>2018-02-25T03:53:09Z</time>
            </trkpt>
            <trkpt lon="100.963127" lat="12.905364">
                <ele>54.000000</ele>
                <time>2018-02-25T03:53:10Z</time>
            </trkpt>
            <trkpt lon="100.963162" lat="12.905366">
                <ele>54.500000</ele>
                <time>2018-02-25T03:53:11Z</time>
            </trkpt>
            <trkpt lon="100.963192" lat="12.905363">
                <ele>54.500000</ele>
                <time>2018-02-25T03:53:12Z</time>
            </trkpt>
            <trkpt lon="100.963222" lat="12.905361">
                <ele>55.000000</ele>
                <time>2018-02-25T03:53:13Z</time>
            </trkpt>
            <trkpt lon="100.963254" lat="12.905362">
                <ele>55.500000</ele>
                <time>2018-02-25T03:53:14Z</time>
            </trkpt>
            <trkpt lon="100.963292" lat="12.905362">
                <ele>55.800000</ele>
                <time>2018-02-25T03:53:15Z</time>
            </trkpt>
            <trkpt lon="100.963334" lat="12.905365">
                <ele>56.200000</ele>
                <time>2018-02-25T03:53:16Z</time>
            </trkpt>
            <trkpt lon="100.963365" lat="12.905369">
                <ele>56.200000</ele>
                <time>2018-02-25T03:53:17Z</time>
            </trkpt>
            <trkpt lon="100.963394" lat="12.905376">
                <ele>56.500000</ele>
                <time>2018-02-25T03:53:18Z</time>
            </trkpt>
            <trkpt lon="100.963428" lat="12.905384">
                <ele>56.800000</ele>
                <time>2018-02-25T03:53:19Z</time>
            </trkpt>
            <trkpt lon="100.963459" lat="12.905389">
                <ele>56.900000</ele>
                <time>2018-02-25T03:53:20Z</time>
            </trkpt>
            <trkpt lon="100.963488" lat="12.905390">
                <ele>56.900000</ele>
                <time>2018-02-25T03:53:21Z</time>
            </trkpt>
            <trkpt lon="100.963527" lat="12.905389">
                <ele>57.100000</ele>
                <time>2018-02-25T03:53:22Z</time>
            </trkpt>
            <trkpt lon="100.963565" lat="12.905389">
                <ele>57.200000</ele>
                <time>2018-02-25T03:53:23Z</time>
            </trkpt>
            <trkpt lon="100.963600" lat="12.905388">
                <ele>57.400000</ele>
                <time>2018-02-25T03:53:24Z</time>
            </trkpt>
            <trkpt lon="100.963633" lat="12.905385">
                <ele>57.500000</ele>
                <time>2018-02-25T03:53:25Z</time>
            </trkpt>
            <trkpt lon="100.963663" lat="12.905380">
                <ele>57.500000</ele>
                <time>2018-02-25T03:53:26Z</time>
            </trkpt>
            <trkpt lon="100.963707" lat="12.905357">
                <ele>57.500000</ele>
                <time>2018-02-25T03:53:28Z</time>
            </trkpt>
            <trkpt lon="100.963723" lat="12.905318">
                <ele>57.600000</ele>
                <time>2018-02-25T03:53:30Z</time>
            </trkpt>
            <trkpt lon="100.963720" lat="12.905270">
                <ele>57.800000</ele>
                <time>2018-02-25T03:53:32Z</time>
            </trkpt>
            <trkpt lon="100.963715" lat="12.905230">
                <ele>58.000000</ele>
                <time>2018-02-25T03:53:34Z</time>
            </trkpt>
            <trkpt lon="100.963710" lat="12.905191">
                <ele>58.200000</ele>
                <time>2018-02-25T03:53:36Z</time>
            </trkpt>
            <trkpt lon="100.963708" lat="12.905156">
                <ele>58.300000</ele>
                <time>2018-02-25T03:53:38Z</time>
            </trkpt>
            <trkpt lon="100.963701" lat="12.905121">
                <ele>58.400000</ele>
                <time>2018-02-25T03:53:40Z</time>
            </trkpt>
            <trkpt lon="100.963691" lat="12.905084">
                <ele>58.600000</ele>
                <time>2018-02-25T03:53:42Z</time>
            </trkpt>
            <trkpt lon="100.963687" lat="12.905045">
                <ele>58.700000</ele>
                <time>2018-02-25T03:53:44Z</time>
            </trkpt>
            <trkpt lon="100.963687" lat="12.905007">
                <ele>58.700000</ele>
                <time>2018-02-25T03:53:46Z</time>
            </trkpt>
            <trkpt lon="100.963675" lat="12.904970">
                <ele>58.800000</ele>
                <time>2018-02-25T03:53:48Z</time>
            </trkpt>
            <trkpt lon="100.963652" lat="12.904930">
                <ele>58.800000</ele>
                <time>2018-02-25T03:53:50Z</time>
            </trkpt>
            <trkpt lon="100.963642" lat="12.904884">
                <ele>58.800000</ele>
                <time>2018-02-25T03:53:52Z</time>
            </trkpt>
            <trkpt lon="100.963643" lat="12.904834">
                <ele>58.900000</ele>
                <time>2018-02-25T03:53:54Z</time>
            </trkpt>
            <trkpt lon="100.963629" lat="12.904787">
                <ele>59.000000</ele>
                <time>2018-02-25T03:53:56Z</time>
            </trkpt>
            <trkpt lon="100.963617" lat="12.904762">
                <ele>58.800000</ele>
                <time>2018-02-25T03:53:57Z</time>
            </trkpt>
            <trkpt lon="100.963606" lat="12.904737">
                <ele>58.800000</ele>
                <time>2018-02-25T03:53:58Z</time>
            </trkpt>
            <trkpt lon="100.963597" lat="12.904686">
                <ele>58.900000</ele>
                <time>2018-02-25T03:54:00Z</time>
            </trkpt>
            <trkpt lon="100.963601" lat="12.904636">
                <ele>59.000000</ele>
                <time>2018-02-25T03:54:02Z</time>
            </trkpt>
            <trkpt lon="100.963625" lat="12.904595">
                <ele>59.200000</ele>
                <time>2018-02-25T03:54:04Z</time>
            </trkpt>
            <trkpt lon="100.963667" lat="12.904559">
                <ele>59.700000</ele>
                <time>2018-02-25T03:54:06Z</time>
            </trkpt>
            <trkpt lon="100.963689" lat="12.904541">
                <ele>60.500000</ele>
                <time>2018-02-25T03:54:07Z</time>
            </trkpt>
            <trkpt lon="100.963723" lat="12.904503">
                <ele>61.300000</ele>
                <time>2018-02-25T03:54:09Z</time>
            </trkpt>
            <trkpt lon="100.963735" lat="12.904478">
                <ele>61.300000</ele>
                <time>2018-02-25T03:54:10Z</time>
            </trkpt>
            <trkpt lon="100.963755" lat="12.904431">
                <ele>62.300000</ele>
                <time>2018-02-25T03:54:12Z</time>
            </trkpt>
            <trkpt lon="100.963790" lat="12.904389">
                <ele>62.600000</ele>
                <time>2018-02-25T03:54:14Z</time>
            </trkpt>
            <trkpt lon="100.963814" lat="12.904372">
                <ele>62.900000</ele>
                <time>2018-02-25T03:54:15Z</time>
            </trkpt>
            <trkpt lon="100.963841" lat="12.904357">
                <ele>63.200000</ele>
                <time>2018-02-25T03:54:16Z</time>
            </trkpt>
            <trkpt lon="100.963868" lat="12.904343">
                <ele>63.400000</ele>
                <time>2018-02-25T03:54:17Z</time>
            </trkpt>
            <trkpt lon="100.963895" lat="12.904328">
                <ele>63.700000</ele>
                <time>2018-02-25T03:54:18Z</time>
            </trkpt>
            <trkpt lon="100.963921" lat="12.904312">
                <ele>63.900000</ele>
                <time>2018-02-25T03:54:19Z</time>
            </trkpt>
            <trkpt lon="100.963945" lat="12.904294">
                <ele>64.100000</ele>
                <time>2018-02-25T03:54:20Z</time>
            </trkpt>
            <trkpt lon="100.963971" lat="12.904276">
                <ele>64.400000</ele>
                <time>2018-02-25T03:54:21Z</time>
            </trkpt>
            <trkpt lon="100.963996" lat="12.904258">
                <ele>64.600000</ele>
                <time>2018-02-25T03:54:22Z</time>
            </trkpt>
            <trkpt lon="100.964025" lat="12.904241">
                <ele>64.800000</ele>
                <time>2018-02-25T03:54:23Z</time>
            </trkpt>
            <trkpt lon="100.964052" lat="12.904223">
                <ele>65.000000</ele>
                <time>2018-02-25T03:54:24Z</time>
            </trkpt>
            <trkpt lon="100.964071" lat="12.904201">
                <ele>65.100000</ele>
                <time>2018-02-25T03:54:25Z</time>
            </trkpt>
            <trkpt lon="100.964084" lat="12.904174">
                <ele>65.300000</ele>
                <time>2018-02-25T03:54:26Z</time>
            </trkpt>
            <trkpt lon="100.964091" lat="12.904147">
                <ele>65.500000</ele>
                <time>2018-02-25T03:54:27Z</time>
            </trkpt>
            <trkpt lon="100.964096" lat="12.904120">
                <ele>65.800000</ele>
                <time>2018-02-25T03:54:28Z</time>
            </trkpt>
            <trkpt lon="100.964092" lat="12.904068">
                <ele>66.100000</ele>
                <time>2018-02-25T03:54:30Z</time>
            </trkpt>
            <trkpt lon="100.964079" lat="12.904038">
                <ele>66.300000</ele>
                <time>2018-02-25T03:54:31Z</time>
            </trkpt>
            <trkpt lon="100.964047" lat="12.903994">
                <ele>65.800000</ele>
                <time>2018-02-25T03:54:33Z</time>
            </trkpt>
            <trkpt lon="100.964035" lat="12.903964">
                <ele>65.800000</ele>
                <time>2018-02-25T03:54:34Z</time>
            </trkpt>
            <trkpt lon="100.964032" lat="12.903934">
                <ele>65.800000</ele>
                <time>2018-02-25T03:54:35Z</time>
            </trkpt>
            <trkpt lon="100.964036" lat="12.903903">
                <ele>65.800000</ele>
                <time>2018-02-25T03:54:36Z</time>
            </trkpt>
            <trkpt lon="100.964040" lat="12.903872">
                <ele>65.800000</ele>
                <time>2018-02-25T03:54:37Z</time>
            </trkpt>
            <trkpt lon="100.964044" lat="12.903842">
                <ele>65.800000</ele>
                <time>2018-02-25T03:54:38Z</time>
            </trkpt>
            <trkpt lon="100.964046" lat="12.903809">
                <ele>65.800000</ele>
                <time>2018-02-25T03:54:39Z</time>
            </trkpt>
            <trkpt lon="100.964048" lat="12.903776">
                <ele>65.800000</ele>
                <time>2018-02-25T03:54:40Z</time>
            </trkpt>
            <trkpt lon="100.964048" lat="12.903743">
                <ele>65.800000</ele>
                <time>2018-02-25T03:54:41Z</time>
            </trkpt>
            <trkpt lon="100.964047" lat="12.903709">
                <ele>65.800000</ele>
                <time>2018-02-25T03:54:42Z</time>
            </trkpt>
            <trkpt lon="100.964047" lat="12.903676">
                <ele>65.800000</ele>
                <time>2018-02-25T03:54:43Z</time>
            </trkpt>
            <trkpt lon="100.964052" lat="12.903645">
                <ele>65.800000</ele>
                <time>2018-02-25T03:54:44Z</time>
            </trkpt>
            <trkpt lon="100.964062" lat="12.903615">
                <ele>66.300000</ele>
                <time>2018-02-25T03:54:45Z</time>
            </trkpt>
            <trkpt lon="100.964074" lat="12.903588">
                <ele>66.200000</ele>
                <time>2018-02-25T03:54:46Z</time>
            </trkpt>
            <trkpt lon="100.964083" lat="12.903557">
                <ele>66.100000</ele>
                <time>2018-02-25T03:54:47Z</time>
            </trkpt>
            <trkpt lon="100.964085" lat="12.903523">
                <ele>65.900000</ele>
                <time>2018-02-25T03:54:48Z</time>
            </trkpt>
            <trkpt lon="100.964084" lat="12.903489">
                <ele>65.700000</ele>
                <time>2018-02-25T03:54:49Z</time>
            </trkpt>
            <trkpt lon="100.964086" lat="12.903456">
                <ele>65.500000</ele>
                <time>2018-02-25T03:54:50Z</time>
            </trkpt>
            <trkpt lon="100.964094" lat="12.903424">
                <ele>65.400000</ele>
                <time>2018-02-25T03:54:51Z</time>
            </trkpt>
            <trkpt lon="100.964102" lat="12.903394">
                <ele>65.700000</ele>
                <time>2018-02-25T03:54:52Z</time>
            </trkpt>
            <trkpt lon="100.964106" lat="12.903363">
                <ele>65.500000</ele>
                <time>2018-02-25T03:54:53Z</time>
            </trkpt>
            <trkpt lon="100.964108" lat="12.903326">
                <ele>65.400000</ele>
                <time>2018-02-25T03:54:54Z</time>
            </trkpt>
            <trkpt lon="100.964107" lat="12.903290">
                <ele>65.300000</ele>
                <time>2018-02-25T03:54:55Z</time>
            </trkpt>
            <trkpt lon="100.964107" lat="12.903258">
                <ele>65.300000</ele>
                <time>2018-02-25T03:54:56Z</time>
            </trkpt>
            <trkpt lon="100.964112" lat="12.903228">
                <ele>65.300000</ele>
                <time>2018-02-25T03:54:57Z</time>
            </trkpt>
            <trkpt lon="100.964126" lat="12.903202">
                <ele>65.200000</ele>
                <time>2018-02-25T03:54:58Z</time>
            </trkpt>
            <trkpt lon="100.964147" lat="12.903180">
                <ele>65.200000</ele>
                <time>2018-02-25T03:54:59Z</time>
            </trkpt>
            <trkpt lon="100.964171" lat="12.903159">
                <ele>65.100000</ele>
                <time>2018-02-25T03:55:00Z</time>
            </trkpt>
            <trkpt lon="100.964197" lat="12.903138">
                <ele>65.000000</ele>
                <time>2018-02-25T03:55:01Z</time>
            </trkpt>
            <trkpt lon="100.964219" lat="12.903119">
                <ele>65.000000</ele>
                <time>2018-02-25T03:55:02Z</time>
            </trkpt>
            <trkpt lon="100.964240" lat="12.903100">
                <ele>65.000000</ele>
                <time>2018-02-25T03:55:03Z</time>
            </trkpt>
            <trkpt lon="100.964263" lat="12.903079">
                <ele>65.000000</ele>
                <time>2018-02-25T03:55:04Z</time>
            </trkpt>
            <trkpt lon="100.964289" lat="12.903056">
                <ele>65.000000</ele>
                <time>2018-02-25T03:55:05Z</time>
            </trkpt>
            <trkpt lon="100.964316" lat="12.903032">
                <ele>64.900000</ele>
                <time>2018-02-25T03:55:06Z</time>
            </trkpt>
            <trkpt lon="100.964342" lat="12.903006">
                <ele>64.700000</ele>
                <time>2018-02-25T03:55:07Z</time>
            </trkpt>
            <trkpt lon="100.964370" lat="12.902976">
                <ele>64.700000</ele>
                <time>2018-02-25T03:55:08Z</time>
            </trkpt>
            <trkpt lon="100.964395" lat="12.902944">
                <ele>64.800000</ele>
                <time>2018-02-25T03:55:09Z</time>
            </trkpt>
            <trkpt lon="100.964411" lat="12.902911">
                <ele>64.900000</ele>
                <time>2018-02-25T03:55:10Z</time>
            </trkpt>
            <trkpt lon="100.964419" lat="12.902878">
                <ele>65.100000</ele>
                <time>2018-02-25T03:55:11Z</time>
            </trkpt>
            <trkpt lon="100.964422" lat="12.902844">
                <ele>65.100000</ele>
                <time>2018-02-25T03:55:12Z</time>
            </trkpt>
            <trkpt lon="100.964421" lat="12.902808">
                <ele>65.200000</ele>
                <time>2018-02-25T03:55:13Z</time>
            </trkpt>
            <trkpt lon="100.964422" lat="12.902771">
                <ele>65.300000</ele>
                <time>2018-02-25T03:55:14Z</time>
            </trkpt>
            <trkpt lon="100.964426" lat="12.902734">
                <ele>65.300000</ele>
                <time>2018-02-25T03:55:15Z</time>
            </trkpt>
            <trkpt lon="100.964432" lat="12.902699">
                <ele>65.300000</ele>
                <time>2018-02-25T03:55:16Z</time>
            </trkpt>
            <trkpt lon="100.964441" lat="12.902664">
                <ele>65.300000</ele>
                <time>2018-02-25T03:55:17Z</time>
            </trkpt>
            <trkpt lon="100.964453" lat="12.902631">
                <ele>65.300000</ele>
                <time>2018-02-25T03:55:18Z</time>
            </trkpt>
            <trkpt lon="100.964470" lat="12.902595">
                <ele>65.300000</ele>
                <time>2018-02-25T03:55:19Z</time>
            </trkpt>
            <trkpt lon="100.964488" lat="12.902557">
                <ele>65.200000</ele>
                <time>2018-02-25T03:55:20Z</time>
            </trkpt>
            <trkpt lon="100.964505" lat="12.902521">
                <ele>65.100000</ele>
                <time>2018-02-25T03:55:21Z</time>
            </trkpt>
            <trkpt lon="100.964521" lat="12.902484">
                <ele>65.000000</ele>
                <time>2018-02-25T03:55:22Z</time>
            </trkpt>
            <trkpt lon="100.964538" lat="12.902448">
                <ele>64.900000</ele>
                <time>2018-02-25T03:55:23Z</time>
            </trkpt>
            <trkpt lon="100.964557" lat="12.902417">
                <ele>64.900000</ele>
                <time>2018-02-25T03:55:24Z</time>
            </trkpt>
            <trkpt lon="100.964575" lat="12.902396">
                <ele>64.800000</ele>
                <time>2018-02-25T03:55:25Z</time>
            </trkpt>
            <trkpt lon="100.964600" lat="12.902383">
                <ele>64.800000</ele>
                <time>2018-02-25T03:55:26Z</time>
            </trkpt>
            <trkpt lon="100.964634" lat="12.902378">
                <ele>64.800000</ele>
                <time>2018-02-25T03:55:27Z</time>
            </trkpt>
            <trkpt lon="100.964669" lat="12.902382">
                <ele>64.800000</ele>
                <time>2018-02-25T03:55:28Z</time>
            </trkpt>
            <trkpt lon="100.964710" lat="12.902388">
                <ele>64.800000</ele>
                <time>2018-02-25T03:55:29Z</time>
            </trkpt>
            <trkpt lon="100.964754" lat="12.902394">
                <ele>64.700000</ele>
                <time>2018-02-25T03:55:30Z</time>
            </trkpt>
            <trkpt lon="100.964793" lat="12.902400">
                <ele>65.000000</ele>
                <time>2018-02-25T03:55:31Z</time>
            </trkpt>
            <trkpt lon="100.964832" lat="12.902408">
                <ele>65.500000</ele>
                <time>2018-02-25T03:55:32Z</time>
            </trkpt>
            <trkpt lon="100.964870" lat="12.902418">
                <ele>65.500000</ele>
                <time>2018-02-25T03:55:33Z</time>
            </trkpt>
            <trkpt lon="100.964909" lat="12.902427">
                <ele>66.000000</ele>
                <time>2018-02-25T03:55:34Z</time>
            </trkpt>
            <trkpt lon="100.964948" lat="12.902435">
                <ele>66.500000</ele>
                <time>2018-02-25T03:55:35Z</time>
            </trkpt>
            <trkpt lon="100.964985" lat="12.902442">
                <ele>66.800000</ele>
                <time>2018-02-25T03:55:36Z</time>
            </trkpt>
            <trkpt lon="100.965022" lat="12.902450">
                <ele>67.000000</ele>
                <time>2018-02-25T03:55:37Z</time>
            </trkpt>
            <trkpt lon="100.965061" lat="12.902459">
                <ele>67.300000</ele>
                <time>2018-02-25T03:55:38Z</time>
            </trkpt>
            <trkpt lon="100.965092" lat="12.902466">
                <ele>67.500000</ele>
                <time>2018-02-25T03:55:39Z</time>
            </trkpt>
            <trkpt lon="100.965123" lat="12.902472">
                <ele>67.500000</ele>
                <time>2018-02-25T03:55:40Z</time>
            </trkpt>
            <trkpt lon="100.965154" lat="12.902477">
                <ele>67.600000</ele>
                <time>2018-02-25T03:55:41Z</time>
            </trkpt>
            <trkpt lon="100.965196" lat="12.902484">
                <ele>67.600000</ele>
                <time>2018-02-25T03:55:43Z</time>
            </trkpt>
            <trkpt lon="100.965227" lat="12.902457">
                <ele>67.600000</ele>
                <time>2018-02-25T03:55:45Z</time>
            </trkpt>
            <trkpt lon="100.965238" lat="12.902429">
                <ele>67.600000</ele>
                <time>2018-02-25T03:55:46Z</time>
            </trkpt>
            <trkpt lon="100.965249" lat="12.902400">
                <ele>67.700000</ele>
                <time>2018-02-25T03:55:47Z</time>
            </trkpt>
            <trkpt lon="100.965264" lat="12.902374">
                <ele>68.000000</ele>
                <time>2018-02-25T03:55:48Z</time>
            </trkpt>
            <trkpt lon="100.965287" lat="12.902353">
                <ele>68.000000</ele>
                <time>2018-02-25T03:55:49Z</time>
            </trkpt>
            <trkpt lon="100.965315" lat="12.902341">
                <ele>68.300000</ele>
                <time>2018-02-25T03:55:50Z</time>
            </trkpt>
            <trkpt lon="100.965344" lat="12.902337">
                <ele>68.300000</ele>
                <time>2018-02-25T03:55:51Z</time>
            </trkpt>
            <trkpt lon="100.965373" lat="12.902337">
                <ele>68.300000</ele>
                <time>2018-02-25T03:55:52Z</time>
            </trkpt>
            <trkpt lon="100.965422" lat="12.902329">
                <ele>68.300000</ele>
                <time>2018-02-25T03:55:54Z</time>
            </trkpt>
            <trkpt lon="100.965449" lat="12.902319">
                <ele>68.300000</ele>
                <time>2018-02-25T03:55:55Z</time>
            </trkpt>
            <trkpt lon="100.965480" lat="12.902303">
                <ele>68.300000</ele>
                <time>2018-02-25T03:55:56Z</time>
            </trkpt>
            <trkpt lon="100.965507" lat="12.902284">
                <ele>68.500000</ele>
                <time>2018-02-25T03:55:57Z</time>
            </trkpt>
            <trkpt lon="100.965530" lat="12.902261">
                <ele>68.500000</ele>
                <time>2018-02-25T03:55:58Z</time>
            </trkpt>
            <trkpt lon="100.965549" lat="12.902235">
                <ele>68.800000</ele>
                <time>2018-02-25T03:55:59Z</time>
            </trkpt>
            <trkpt lon="100.965567" lat="12.902204">
                <ele>69.000000</ele>
                <time>2018-02-25T03:56:00Z</time>
            </trkpt>
            <trkpt lon="100.965587" lat="12.902173">
                <ele>69.300000</ele>
                <time>2018-02-25T03:56:01Z</time>
            </trkpt>
            <trkpt lon="100.965605" lat="12.902147">
                <ele>69.300000</ele>
                <time>2018-02-25T03:56:02Z</time>
            </trkpt>
            <trkpt lon="100.965621" lat="12.902119">
                <ele>69.600000</ele>
                <time>2018-02-25T03:56:03Z</time>
            </trkpt>
            <trkpt lon="100.965639" lat="12.902090">
                <ele>69.800000</ele>
                <time>2018-02-25T03:56:04Z</time>
            </trkpt>
            <trkpt lon="100.965660" lat="12.902067">
                <ele>70.000000</ele>
                <time>2018-02-25T03:56:05Z</time>
            </trkpt>
            <trkpt lon="100.965686" lat="12.902050">
                <ele>70.200000</ele>
                <time>2018-02-25T03:56:06Z</time>
            </trkpt>
            <trkpt lon="100.965717" lat="12.902032">
                <ele>70.300000</ele>
                <time>2018-02-25T03:56:07Z</time>
            </trkpt>
            <trkpt lon="100.965751" lat="12.902010">
                <ele>70.500000</ele>
                <time>2018-02-25T03:56:08Z</time>
            </trkpt>
            <trkpt lon="100.965775" lat="12.901984">
                <ele>70.700000</ele>
                <time>2018-02-25T03:56:09Z</time>
            </trkpt>
            <trkpt lon="100.965786" lat="12.901955">
                <ele>70.700000</ele>
                <time>2018-02-25T03:56:10Z</time>
            </trkpt>
            <trkpt lon="100.965786" lat="12.901924">
                <ele>70.700000</ele>
                <time>2018-02-25T03:56:11Z</time>
            </trkpt>
            <trkpt lon="100.965785" lat="12.901894">
                <ele>70.700000</ele>
                <time>2018-02-25T03:56:12Z</time>
            </trkpt>
            <trkpt lon="100.965791" lat="12.901862">
                <ele>70.700000</ele>
                <time>2018-02-25T03:56:13Z</time>
            </trkpt>
            <trkpt lon="100.965806" lat="12.901832">
                <ele>70.700000</ele>
                <time>2018-02-25T03:56:14Z</time>
            </trkpt>
            <trkpt lon="100.965831" lat="12.901811">
                <ele>70.700000</ele>
                <time>2018-02-25T03:56:15Z</time>
            </trkpt>
            <trkpt lon="100.965865" lat="12.901795">
                <ele>70.700000</ele>
                <time>2018-02-25T03:56:16Z</time>
            </trkpt>
            <trkpt lon="100.965900" lat="12.901783">
                <ele>70.700000</ele>
                <time>2018-02-25T03:56:17Z</time>
            </trkpt>
            <trkpt lon="100.965927" lat="12.901770">
                <ele>70.700000</ele>
                <time>2018-02-25T03:56:18Z</time>
            </trkpt>
            <trkpt lon="100.965956" lat="12.901756">
                <ele>70.800000</ele>
                <time>2018-02-25T03:56:19Z</time>
            </trkpt>
            <trkpt lon="100.965991" lat="12.901747">
                <ele>70.600000</ele>
                <time>2018-02-25T03:56:20Z</time>
            </trkpt>
            <trkpt lon="100.966030" lat="12.901745">
                <ele>70.300000</ele>
                <time>2018-02-25T03:56:21Z</time>
            </trkpt>
            <trkpt lon="100.966071" lat="12.901746">
                <ele>70.300000</ele>
                <time>2018-02-25T03:56:22Z</time>
            </trkpt>
            <trkpt lon="100.966111" lat="12.901745">
                <ele>70.100000</ele>
                <time>2018-02-25T03:56:23Z</time>
            </trkpt>
            <trkpt lon="100.966143" lat="12.901738">
                <ele>69.900000</ele>
                <time>2018-02-25T03:56:24Z</time>
            </trkpt>
            <trkpt lon="100.966174" lat="12.901728">
                <ele>69.600000</ele>
                <time>2018-02-25T03:56:25Z</time>
            </trkpt>
            <trkpt lon="100.966205" lat="12.901717">
                <ele>69.400000</ele>
                <time>2018-02-25T03:56:26Z</time>
            </trkpt>
            <trkpt lon="100.966241" lat="12.901697">
                <ele>69.400000</ele>
                <time>2018-02-25T03:56:27Z</time>
            </trkpt>
            <trkpt lon="100.966278" lat="12.901670">
                <ele>69.100000</ele>
                <time>2018-02-25T03:56:28Z</time>
            </trkpt>
            <trkpt lon="100.966311" lat="12.901643">
                <ele>68.900000</ele>
                <time>2018-02-25T03:56:29Z</time>
            </trkpt>
            <trkpt lon="100.966342" lat="12.901616">
                <ele>68.800000</ele>
                <time>2018-02-25T03:56:30Z</time>
            </trkpt>
            <trkpt lon="100.966371" lat="12.901584">
                <ele>68.900000</ele>
                <time>2018-02-25T03:56:31Z</time>
            </trkpt>
            <trkpt lon="100.966396" lat="12.901548">
                <ele>68.900000</ele>
                <time>2018-02-25T03:56:32Z</time>
            </trkpt>
            <trkpt lon="100.966410" lat="12.901515">
                <ele>69.200000</ele>
                <time>2018-02-25T03:56:33Z</time>
            </trkpt>
            <trkpt lon="100.966421" lat="12.901490">
                <ele>69.400000</ele>
                <time>2018-02-25T03:56:34Z</time>
            </trkpt>
            <trkpt lon="100.966439" lat="12.901467">
                <ele>69.400000</ele>
                <time>2018-02-25T03:56:40Z</time>
            </trkpt>
            <trkpt lon="100.966446" lat="12.901438">
                <ele>69.700000</ele>
                <time>2018-02-25T03:56:42Z</time>
            </trkpt>
            <trkpt lon="100.966462" lat="12.901411">
                <ele>69.900000</ele>
                <time>2018-02-25T03:56:43Z</time>
            </trkpt>
            <trkpt lon="100.966485" lat="12.901384">
                <ele>69.900000</ele>
                <time>2018-02-25T03:56:44Z</time>
            </trkpt>
            <trkpt lon="100.966517" lat="12.901361">
                <ele>70.400000</ele>
                <time>2018-02-25T03:56:45Z</time>
            </trkpt>
            <trkpt lon="100.966552" lat="12.901349">
                <ele>70.600000</ele>
                <time>2018-02-25T03:56:46Z</time>
            </trkpt>
            <trkpt lon="100.966595" lat="12.901353">
                <ele>70.900000</ele>
                <time>2018-02-25T03:56:47Z</time>
            </trkpt>
            <trkpt lon="100.966635" lat="12.901372">
                <ele>71.100000</ele>
                <time>2018-02-25T03:56:48Z</time>
            </trkpt>
            <trkpt lon="100.966665" lat="12.901397">
                <ele>70.900000</ele>
                <time>2018-02-25T03:56:49Z</time>
            </trkpt>
            <trkpt lon="100.966693" lat="12.901427">
                <ele>70.900000</ele>
                <time>2018-02-25T03:56:50Z</time>
            </trkpt>
            <trkpt lon="100.966721" lat="12.901461">
                <ele>71.100000</ele>
                <time>2018-02-25T03:56:51Z</time>
            </trkpt>
            <trkpt lon="100.966746" lat="12.901500">
                <ele>70.900000</ele>
                <time>2018-02-25T03:56:52Z</time>
            </trkpt>
            <trkpt lon="100.966764" lat="12.901545">
                <ele>70.900000</ele>
                <time>2018-02-25T03:56:53Z</time>
            </trkpt>
            <trkpt lon="100.966779" lat="12.901592">
                <ele>70.600000</ele>
                <time>2018-02-25T03:56:54Z</time>
            </trkpt>
            <trkpt lon="100.966798" lat="12.901634">
                <ele>70.600000</ele>
                <time>2018-02-25T03:56:55Z</time>
            </trkpt>
            <trkpt lon="100.966823" lat="12.901669">
                <ele>70.800000</ele>
                <time>2018-02-25T03:56:56Z</time>
            </trkpt>
            <trkpt lon="100.966851" lat="12.901702">
                <ele>71.200000</ele>
                <time>2018-02-25T03:56:57Z</time>
            </trkpt>
            <trkpt lon="100.966882" lat="12.901722">
                <ele>71.200000</ele>
                <time>2018-02-25T03:56:58Z</time>
            </trkpt>
            <trkpt lon="100.966915" lat="12.901731">
                <ele>71.700000</ele>
                <time>2018-02-25T03:56:59Z</time>
            </trkpt>
            <trkpt lon="100.966955" lat="12.901724">
                <ele>72.200000</ele>
                <time>2018-02-25T03:57:00Z</time>
            </trkpt>
            <trkpt lon="100.966998" lat="12.901714">
                <ele>72.400000</ele>
                <time>2018-02-25T03:57:01Z</time>
            </trkpt>
            <trkpt lon="100.967043" lat="12.901709">
                <ele>72.600000</ele>
                <time>2018-02-25T03:57:02Z</time>
            </trkpt>
            <trkpt lon="100.967087" lat="12.901712">
                <ele>72.700000</ele>
                <time>2018-02-25T03:57:03Z</time>
            </trkpt>
            <trkpt lon="100.967123" lat="12.901716">
                <ele>72.900000</ele>
                <time>2018-02-25T03:57:04Z</time>
            </trkpt>
            <trkpt lon="100.967141" lat="12.901690">
                <ele>72.800000</ele>
                <time>2018-02-25T03:57:05Z</time>
            </trkpt>
            <trkpt lon="100.967180" lat="12.901670">
                <ele>72.900000</ele>
                <time>2018-02-25T03:57:06Z</time>
            </trkpt>
            <trkpt lon="100.967216" lat="12.901641">
                <ele>72.800000</ele>
                <time>2018-02-25T03:57:07Z</time>
            </trkpt>
            <trkpt lon="100.967249" lat="12.901609">
                <ele>72.500000</ele>
                <time>2018-02-25T03:57:08Z</time>
            </trkpt>
            <trkpt lon="100.967286" lat="12.901577">
                <ele>72.300000</ele>
                <time>2018-02-25T03:57:09Z</time>
            </trkpt>
            <trkpt lon="100.967326" lat="12.901550">
                <ele>72.000000</ele>
                <time>2018-02-25T03:57:10Z</time>
            </trkpt>
            <trkpt lon="100.967363" lat="12.901519">
                <ele>72.000000</ele>
                <time>2018-02-25T03:57:11Z</time>
            </trkpt>
            <trkpt lon="100.967397" lat="12.901502">
                <ele>72.000000</ele>
                <time>2018-02-25T03:57:12Z</time>
            </trkpt>
            <trkpt lon="100.967425" lat="12.901482">
                <ele>72.000000</ele>
                <time>2018-02-25T03:57:13Z</time>
            </trkpt>
            <trkpt lon="100.967467" lat="12.901461">
                <ele>72.000000</ele>
                <time>2018-02-25T03:57:14Z</time>
            </trkpt>
            <trkpt lon="100.967509" lat="12.901442">
                <ele>72.000000</ele>
                <time>2018-02-25T03:57:15Z</time>
            </trkpt>
            <trkpt lon="100.967549" lat="12.901425">
                <ele>72.100000</ele>
                <time>2018-02-25T03:57:16Z</time>
            </trkpt>
            <trkpt lon="100.967589" lat="12.901401">
                <ele>72.400000</ele>
                <time>2018-02-25T03:57:17Z</time>
            </trkpt>
            <trkpt lon="100.967624" lat="12.901376">
                <ele>72.600000</ele>
                <time>2018-02-25T03:57:18Z</time>
            </trkpt>
            <trkpt lon="100.967642" lat="12.901341">
                <ele>72.600000</ele>
                <time>2018-02-25T03:57:19Z</time>
            </trkpt>
            <trkpt lon="100.967685" lat="12.901323">
                <ele>72.900000</ele>
                <time>2018-02-25T03:57:20Z</time>
            </trkpt>
            <trkpt lon="100.967729" lat="12.901294">
                <ele>72.800000</ele>
                <time>2018-02-25T03:57:21Z</time>
            </trkpt>
            <trkpt lon="100.967749" lat="12.901265">
                <ele>72.600000</ele>
                <time>2018-02-25T03:57:22Z</time>
            </trkpt>
            <trkpt lon="100.967751" lat="12.901222">
                <ele>72.600000</ele>
                <time>2018-02-25T03:57:23Z</time>
            </trkpt>
            <trkpt lon="100.967752" lat="12.901187">
                <ele>72.700000</ele>
                <time>2018-02-25T03:57:24Z</time>
            </trkpt>
            <trkpt lon="100.967739" lat="12.901147">
                <ele>73.000000</ele>
                <time>2018-02-25T03:57:25Z</time>
            </trkpt>
            <trkpt lon="100.967723" lat="12.901107">
                <ele>73.000000</ele>
                <time>2018-02-25T03:57:26Z</time>
            </trkpt>
            <trkpt lon="100.967701" lat="12.901072">
                <ele>73.000000</ele>
                <time>2018-02-25T03:57:27Z</time>
            </trkpt>
            <trkpt lon="100.967680" lat="12.901045">
                <ele>73.000000</ele>
                <time>2018-02-25T03:57:28Z</time>
            </trkpt>
            <trkpt lon="100.967655" lat="12.901018">
                <ele>73.000000</ele>
                <time>2018-02-25T03:57:29Z</time>
            </trkpt>
            <trkpt lon="100.967623" lat="12.900986">
                <ele>73.300000</ele>
                <time>2018-02-25T03:57:30Z</time>
            </trkpt>
            <trkpt lon="100.967595" lat="12.900957">
                <ele>73.300000</ele>
                <time>2018-02-25T03:57:31Z</time>
            </trkpt>
            <trkpt lon="100.967561" lat="12.900945">
                <ele>73.000000</ele>
                <time>2018-02-25T03:57:32Z</time>
            </trkpt>
            <trkpt lon="100.967525" lat="12.900967">
                <ele>72.600000</ele>
                <time>2018-02-25T03:57:33Z</time>
            </trkpt>
            <trkpt lon="100.967489" lat="12.900970">
                <ele>72.700000</ele>
                <time>2018-02-25T03:57:34Z</time>
            </trkpt>
            <trkpt lon="100.967455" lat="12.900967">
                <ele>72.700000</ele>
                <time>2018-02-25T03:57:35Z</time>
            </trkpt>
            <trkpt lon="100.967417" lat="12.900954">
                <ele>72.900000</ele>
                <time>2018-02-25T03:57:36Z</time>
            </trkpt>
            <trkpt lon="100.967385" lat="12.900940">
                <ele>72.900000</ele>
                <time>2018-02-25T03:57:37Z</time>
            </trkpt>
            <trkpt lon="100.967355" lat="12.900928">
                <ele>73.000000</ele>
                <time>2018-02-25T03:57:38Z</time>
            </trkpt>
            <trkpt lon="100.967323" lat="12.900914">
                <ele>73.300000</ele>
                <time>2018-02-25T03:57:39Z</time>
            </trkpt>
            <trkpt lon="100.967297" lat="12.900900">
                <ele>73.500000</ele>
                <time>2018-02-25T03:57:40Z</time>
            </trkpt>
            <trkpt lon="100.967270" lat="12.900885">
                <ele>73.800000</ele>
                <time>2018-02-25T03:57:41Z</time>
            </trkpt>
            <trkpt lon="100.967233" lat="12.900867">
                <ele>74.000000</ele>
                <time>2018-02-25T03:57:42Z</time>
            </trkpt>
            <trkpt lon="100.967196" lat="12.900869">
                <ele>74.300000</ele>
                <time>2018-02-25T03:57:43Z</time>
            </trkpt>
            <trkpt lon="100.967157" lat="12.900885">
                <ele>74.300000</ele>
                <time>2018-02-25T03:57:44Z</time>
            </trkpt>
            <trkpt lon="100.967122" lat="12.900905">
                <ele>74.500000</ele>
                <time>2018-02-25T03:57:45Z</time>
            </trkpt>
            <trkpt lon="100.967086" lat="12.900927">
                <ele>74.500000</ele>
                <time>2018-02-25T03:57:46Z</time>
            </trkpt>
            <trkpt lon="100.967045" lat="12.900965">
                <ele>74.500000</ele>
                <time>2018-02-25T03:57:47Z</time>
            </trkpt>
            <trkpt lon="100.967009" lat="12.900985">
                <ele>74.700000</ele>
                <time>2018-02-25T03:57:48Z</time>
            </trkpt>
            <trkpt lon="100.966973" lat="12.901007">
                <ele>74.500000</ele>
                <time>2018-02-25T03:57:49Z</time>
            </trkpt>
            <trkpt lon="100.966937" lat="12.901031">
                <ele>74.500000</ele>
                <time>2018-02-25T03:57:50Z</time>
            </trkpt>
            <trkpt lon="100.966889" lat="12.901023">
                <ele>74.500000</ele>
                <time>2018-02-25T03:57:51Z</time>
            </trkpt>
            <trkpt lon="100.966847" lat="12.901046">
                <ele>74.200000</ele>
                <time>2018-02-25T03:57:52Z</time>
            </trkpt>
            <trkpt lon="100.966804" lat="12.901059">
                <ele>74.200000</ele>
                <time>2018-02-25T03:57:53Z</time>
            </trkpt>
            <trkpt lon="100.966766" lat="12.901068">
                <ele>73.900000</ele>
                <time>2018-02-25T03:57:54Z</time>
            </trkpt>
            <trkpt lon="100.966727" lat="12.901057">
                <ele>73.700000</ele>
                <time>2018-02-25T03:57:55Z</time>
            </trkpt>
            <trkpt lon="100.966681" lat="12.901049">
                <ele>73.400000</ele>
                <time>2018-02-25T03:57:56Z</time>
            </trkpt>
            <trkpt lon="100.966628" lat="12.901047">
                <ele>73.300000</ele>
                <time>2018-02-25T03:57:57Z</time>
            </trkpt>
            <trkpt lon="100.966585" lat="12.901036">
                <ele>73.500000</ele>
                <time>2018-02-25T03:57:58Z</time>
            </trkpt>
            <trkpt lon="100.966544" lat="12.900997">
                <ele>73.800000</ele>
                <time>2018-02-25T03:57:59Z</time>
            </trkpt>
            <trkpt lon="100.966514" lat="12.900970">
                <ele>73.800000</ele>
                <time>2018-02-25T03:58:00Z</time>
            </trkpt>
            <trkpt lon="100.966485" lat="12.900945">
                <ele>73.900000</ele>
                <time>2018-02-25T03:58:01Z</time>
            </trkpt>
            <trkpt lon="100.966456" lat="12.900924">
                <ele>73.700000</ele>
                <time>2018-02-25T03:58:02Z</time>
            </trkpt>
            <trkpt lon="100.966429" lat="12.900911">
                <ele>73.900000</ele>
                <time>2018-02-25T03:58:03Z</time>
            </trkpt>
            <trkpt lon="100.966395" lat="12.900905">
                <ele>73.700000</ele>
                <time>2018-02-25T03:58:05Z</time>
            </trkpt>
            <trkpt lon="100.966368" lat="12.900926">
                <ele>73.200000</ele>
                <time>2018-02-25T03:58:06Z</time>
            </trkpt>
            <trkpt lon="100.966308" lat="12.900930">
                <ele>73.000000</ele>
                <time>2018-02-25T03:58:08Z</time>
            </trkpt>
            <trkpt lon="100.966273" lat="12.900907">
                <ele>72.900000</ele>
                <time>2018-02-25T03:58:10Z</time>
            </trkpt>
            <trkpt lon="100.966236" lat="12.900887">
                <ele>72.700000</ele>
                <time>2018-02-25T03:58:12Z</time>
            </trkpt>
            <trkpt lon="100.966210" lat="12.900869">
                <ele>72.800000</ele>
                <time>2018-02-25T03:58:14Z</time>
            </trkpt>
            <trkpt lon="100.966198" lat="12.900836">
                <ele>72.400000</ele>
                <time>2018-02-25T03:58:16Z</time>
            </trkpt>
            <trkpt lon="100.966200" lat="12.900806">
                <ele>72.500000</ele>
                <time>2018-02-25T03:58:18Z</time>
            </trkpt>
            <trkpt lon="100.966219" lat="12.900771">
                <ele>73.000000</ele>
                <time>2018-02-25T03:58:20Z</time>
            </trkpt>
            <trkpt lon="100.966230" lat="12.900743">
                <ele>73.000000</ele>
                <time>2018-02-25T03:58:21Z</time>
            </trkpt>
            <trkpt lon="100.966243" lat="12.900711">
                <ele>73.000000</ele>
                <time>2018-02-25T03:58:22Z</time>
            </trkpt>
            <trkpt lon="100.966251" lat="12.900680">
                <ele>73.300000</ele>
                <time>2018-02-25T03:58:23Z</time>
            </trkpt>
            <trkpt lon="100.966254" lat="12.900651">
                <ele>73.200000</ele>
                <time>2018-02-25T03:58:24Z</time>
            </trkpt>
            <trkpt lon="100.966258" lat="12.900622">
                <ele>73.000000</ele>
                <time>2018-02-25T03:58:25Z</time>
            </trkpt>
            <trkpt lon="100.966279" lat="12.900576">
                <ele>73.000000</ele>
                <time>2018-02-25T03:58:27Z</time>
            </trkpt>
            <trkpt lon="100.966302" lat="12.900552">
                <ele>73.300000</ele>
                <time>2018-02-25T03:58:28Z</time>
            </trkpt>
            <trkpt lon="100.966329" lat="12.900526">
                <ele>73.500000</ele>
                <time>2018-02-25T03:58:29Z</time>
            </trkpt>
            <trkpt lon="100.966356" lat="12.900501">
                <ele>74.100000</ele>
                <time>2018-02-25T03:58:30Z</time>
            </trkpt>
            <trkpt lon="100.966386" lat="12.900478">
                <ele>74.400000</ele>
                <time>2018-02-25T03:58:31Z</time>
            </trkpt>
            <trkpt lon="100.966422" lat="12.900462">
                <ele>74.800000</ele>
                <time>2018-02-25T03:58:32Z</time>
            </trkpt>
            <trkpt lon="100.966497" lat="12.900495">
                <ele>75.200000</ele>
                <time>2018-02-25T03:58:33Z</time>
            </trkpt>
            <trkpt lon="100.966540" lat="12.900508">
                <ele>75.400000</ele>
                <time>2018-02-25T03:58:34Z</time>
            </trkpt>
            <trkpt lon="100.966568" lat="12.900518">
                <ele>75.700000</ele>
                <time>2018-02-25T03:58:35Z</time>
            </trkpt>
            <trkpt lon="100.966603" lat="12.900516">
                <ele>75.900000</ele>
                <time>2018-02-25T03:58:36Z</time>
            </trkpt>
            <trkpt lon="100.966636" lat="12.900488">
                <ele>76.200000</ele>
                <time>2018-02-25T03:58:37Z</time>
            </trkpt>
            <trkpt lon="100.966664" lat="12.900467">
                <ele>76.200000</ele>
                <time>2018-02-25T03:58:38Z</time>
            </trkpt>
            <trkpt lon="100.966696" lat="12.900447">
                <ele>76.300000</ele>
                <time>2018-02-25T03:58:39Z</time>
            </trkpt>
            <trkpt lon="100.966737" lat="12.900440">
                <ele>76.200000</ele>
                <time>2018-02-25T03:58:40Z</time>
            </trkpt>
            <trkpt lon="100.966777" lat="12.900440">
                <ele>76.200000</ele>
                <time>2018-02-25T03:58:41Z</time>
            </trkpt>
            <trkpt lon="100.966818" lat="12.900464">
                <ele>75.900000</ele>
                <time>2018-02-25T03:58:42Z</time>
            </trkpt>
            <trkpt lon="100.966846" lat="12.900459">
                <ele>76.000000</ele>
                <time>2018-02-25T03:58:43Z</time>
            </trkpt>
            <trkpt lon="100.966877" lat="12.900465">
                <ele>75.800000</ele>
                <time>2018-02-25T03:58:44Z</time>
            </trkpt>
            <trkpt lon="100.966912" lat="12.900459">
                <ele>75.800000</ele>
                <time>2018-02-25T03:58:45Z</time>
            </trkpt>
            <trkpt lon="100.966956" lat="12.900442">
                <ele>75.600000</ele>
                <time>2018-02-25T03:58:46Z</time>
            </trkpt>
            <trkpt lon="100.966997" lat="12.900437">
                <ele>75.400000</ele>
                <time>2018-02-25T03:58:47Z</time>
            </trkpt>
            <trkpt lon="100.967041" lat="12.900424">
                <ele>75.300000</ele>
                <time>2018-02-25T03:58:48Z</time>
            </trkpt>
            <trkpt lon="100.967075" lat="12.900414">
                <ele>75.300000</ele>
                <time>2018-02-25T03:58:49Z</time>
            </trkpt>
            <trkpt lon="100.967113" lat="12.900396">
                <ele>75.300000</ele>
                <time>2018-02-25T03:58:50Z</time>
            </trkpt>
            <trkpt lon="100.967149" lat="12.900371">
                <ele>75.000000</ele>
                <time>2018-02-25T03:58:51Z</time>
            </trkpt>
            <trkpt lon="100.967188" lat="12.900356">
                <ele>74.900000</ele>
                <time>2018-02-25T03:58:52Z</time>
            </trkpt>
            <trkpt lon="100.967219" lat="12.900340">
                <ele>74.900000</ele>
                <time>2018-02-25T03:58:53Z</time>
            </trkpt>
            <trkpt lon="100.967252" lat="12.900315">
                <ele>74.400000</ele>
                <time>2018-02-25T03:58:54Z</time>
            </trkpt>
            <trkpt lon="100.967281" lat="12.900284">
                <ele>73.900000</ele>
                <time>2018-02-25T03:58:55Z</time>
            </trkpt>
            <trkpt lon="100.967297" lat="12.900255">
                <ele>73.900000</ele>
                <time>2018-02-25T03:58:56Z</time>
            </trkpt>
            <trkpt lon="100.967307" lat="12.900217">
                <ele>73.600000</ele>
                <time>2018-02-25T03:58:57Z</time>
            </trkpt>
            <trkpt lon="100.967321" lat="12.900175">
                <ele>73.100000</ele>
                <time>2018-02-25T03:58:58Z</time>
            </trkpt>
            <trkpt lon="100.967338" lat="12.900127">
                <ele>72.900000</ele>
                <time>2018-02-25T03:58:59Z</time>
            </trkpt>
            <trkpt lon="100.967354" lat="12.900087">
                <ele>72.600000</ele>
                <time>2018-02-25T03:59:00Z</time>
            </trkpt>
            <trkpt lon="100.967344" lat="12.900048">
                <ele>72.300000</ele>
                <time>2018-02-25T03:59:01Z</time>
            </trkpt>
            <trkpt lon="100.967340" lat="12.900011">
                <ele>71.800000</ele>
                <time>2018-02-25T03:59:02Z</time>
            </trkpt>
            <trkpt lon="100.967308" lat="12.899973">
                <ele>71.600000</ele>
                <time>2018-02-25T03:59:03Z</time>
            </trkpt>
            <trkpt lon="100.967275" lat="12.899947">
                <ele>71.100000</ele>
                <time>2018-02-25T03:59:04Z</time>
            </trkpt>
            <trkpt lon="100.967244" lat="12.899930">
                <ele>71.300000</ele>
                <time>2018-02-25T03:59:05Z</time>
            </trkpt>
            <trkpt lon="100.967207" lat="12.899907">
                <ele>71.200000</ele>
                <time>2018-02-25T03:59:06Z</time>
            </trkpt>
            <trkpt lon="100.967165" lat="12.899887">
                <ele>71.400000</ele>
                <time>2018-02-25T03:59:07Z</time>
            </trkpt>
            <trkpt lon="100.967122" lat="12.899859">
                <ele>71.400000</ele>
                <time>2018-02-25T03:59:08Z</time>
            </trkpt>
            <trkpt lon="100.967096" lat="12.899840">
                <ele>71.700000</ele>
                <time>2018-02-25T03:59:09Z</time>
            </trkpt>
            <trkpt lon="100.967062" lat="12.899815">
                <ele>71.400000</ele>
                <time>2018-02-25T03:59:10Z</time>
            </trkpt>
            <trkpt lon="100.967030" lat="12.899784">
                <ele>71.400000</ele>
                <time>2018-02-25T03:59:11Z</time>
            </trkpt>
            <trkpt lon="100.967004" lat="12.899754">
                <ele>71.600000</ele>
                <time>2018-02-25T03:59:12Z</time>
            </trkpt>
            <trkpt lon="100.966980" lat="12.899725">
                <ele>71.400000</ele>
                <time>2018-02-25T03:59:13Z</time>
            </trkpt>
            <trkpt lon="100.966949" lat="12.899700">
                <ele>71.400000</ele>
                <time>2018-02-25T03:59:14Z</time>
            </trkpt>
            <trkpt lon="100.966928" lat="12.899673">
                <ele>71.400000</ele>
                <time>2018-02-25T03:59:15Z</time>
            </trkpt>
            <trkpt lon="100.966914" lat="12.899647">
                <ele>71.400000</ele>
                <time>2018-02-25T03:59:16Z</time>
            </trkpt>
            <trkpt lon="100.966894" lat="12.899625">
                <ele>71.400000</ele>
                <time>2018-02-25T03:59:17Z</time>
            </trkpt>
            <trkpt lon="100.966883" lat="12.899581">
                <ele>71.400000</ele>
                <time>2018-02-25T03:59:19Z</time>
            </trkpt>
            <trkpt lon="100.966878" lat="12.899550">
                <ele>71.300000</ele>
                <time>2018-02-25T03:59:20Z</time>
            </trkpt>
            <trkpt lon="100.966877" lat="12.899514">
                <ele>71.300000</ele>
                <time>2018-02-25T03:59:21Z</time>
            </trkpt>
            <trkpt lon="100.966880" lat="12.899476">
                <ele>71.300000</ele>
                <time>2018-02-25T03:59:22Z</time>
            </trkpt>
            <trkpt lon="100.966887" lat="12.899436">
                <ele>71.300000</ele>
                <time>2018-02-25T03:59:23Z</time>
            </trkpt>
            <trkpt lon="100.966894" lat="12.899394">
                <ele>71.300000</ele>
                <time>2018-02-25T03:59:24Z</time>
            </trkpt>
            <trkpt lon="100.966901" lat="12.899350">
                <ele>71.400000</ele>
                <time>2018-02-25T03:59:25Z</time>
            </trkpt>
            <trkpt lon="100.966904" lat="12.899305">
                <ele>71.500000</ele>
                <time>2018-02-25T03:59:26Z</time>
            </trkpt>
            <trkpt lon="100.966889" lat="12.899256">
                <ele>71.500000</ele>
                <time>2018-02-25T03:59:27Z</time>
            </trkpt>
            <trkpt lon="100.966868" lat="12.899219">
                <ele>70.800000</ele>
                <time>2018-02-25T03:59:28Z</time>
            </trkpt>
            <trkpt lon="100.966837" lat="12.899182">
                <ele>70.400000</ele>
                <time>2018-02-25T03:59:29Z</time>
            </trkpt>
            <trkpt lon="100.966809" lat="12.899151">
                <ele>70.300000</ele>
                <time>2018-02-25T03:59:30Z</time>
            </trkpt>
            <trkpt lon="100.966777" lat="12.899115">
                <ele>70.100000</ele>
                <time>2018-02-25T03:59:31Z</time>
            </trkpt>
            <trkpt lon="100.966755" lat="12.899084">
                <ele>69.800000</ele>
                <time>2018-02-25T03:59:32Z</time>
            </trkpt>
            <trkpt lon="100.966720" lat="12.899055">
                <ele>69.800000</ele>
                <time>2018-02-25T03:59:33Z</time>
            </trkpt>
            <trkpt lon="100.966684" lat="12.899012">
                <ele>69.800000</ele>
                <time>2018-02-25T03:59:34Z</time>
            </trkpt>
            <trkpt lon="100.966658" lat="12.898980">
                <ele>69.800000</ele>
                <time>2018-02-25T03:59:35Z</time>
            </trkpt>
            <trkpt lon="100.966629" lat="12.898950">
                <ele>69.800000</ele>
                <time>2018-02-25T03:59:36Z</time>
            </trkpt>
            <trkpt lon="100.966599" lat="12.898911">
                <ele>69.900000</ele>
                <time>2018-02-25T03:59:37Z</time>
            </trkpt>
            <trkpt lon="100.966576" lat="12.898878">
                <ele>69.600000</ele>
                <time>2018-02-25T03:59:38Z</time>
            </trkpt>
            <trkpt lon="100.966556" lat="12.898843">
                <ele>69.800000</ele>
                <time>2018-02-25T03:59:39Z</time>
            </trkpt>
            <trkpt lon="100.966553" lat="12.898811">
                <ele>70.100000</ele>
                <time>2018-02-25T03:59:40Z</time>
            </trkpt>
            <trkpt lon="100.966563" lat="12.898761">
                <ele>70.300000</ele>
                <time>2018-02-25T03:59:41Z</time>
            </trkpt>
            <trkpt lon="100.966565" lat="12.898720">
                <ele>70.500000</ele>
                <time>2018-02-25T03:59:42Z</time>
            </trkpt>
            <trkpt lon="100.966572" lat="12.898685">
                <ele>70.600000</ele>
                <time>2018-02-25T03:59:43Z</time>
            </trkpt>
            <trkpt lon="100.966591" lat="12.898643">
                <ele>70.800000</ele>
                <time>2018-02-25T03:59:44Z</time>
            </trkpt>
            <trkpt lon="100.966600" lat="12.898602">
                <ele>70.800000</ele>
                <time>2018-02-25T03:59:45Z</time>
            </trkpt>
            <trkpt lon="100.966606" lat="12.898554">
                <ele>70.900000</ele>
                <time>2018-02-25T03:59:46Z</time>
            </trkpt>
            <trkpt lon="100.966594" lat="12.898513">
                <ele>71.100000</ele>
                <time>2018-02-25T03:59:47Z</time>
            </trkpt>
            <trkpt lon="100.966566" lat="12.898469">
                <ele>71.400000</ele>
                <time>2018-02-25T03:59:48Z</time>
            </trkpt>
            <trkpt lon="100.966541" lat="12.898435">
                <ele>71.600000</ele>
                <time>2018-02-25T03:59:49Z</time>
            </trkpt>
            <trkpt lon="100.966510" lat="12.898398">
                <ele>71.700000</ele>
                <time>2018-02-25T03:59:50Z</time>
            </trkpt>
            <trkpt lon="100.966479" lat="12.898369">
                <ele>71.700000</ele>
                <time>2018-02-25T03:59:51Z</time>
            </trkpt>
            <trkpt lon="100.966442" lat="12.898364">
                <ele>71.700000</ele>
                <time>2018-02-25T03:59:52Z</time>
            </trkpt>
            <trkpt lon="100.966405" lat="12.898362">
                <ele>71.600000</ele>
                <time>2018-02-25T03:59:53Z</time>
            </trkpt>
            <trkpt lon="100.966362" lat="12.898366">
                <ele>71.600000</ele>
                <time>2018-02-25T03:59:54Z</time>
            </trkpt>
            <trkpt lon="100.966322" lat="12.898356">
                <ele>71.600000</ele>
                <time>2018-02-25T03:59:55Z</time>
            </trkpt>
            <trkpt lon="100.966275" lat="12.898352">
                <ele>71.500000</ele>
                <time>2018-02-25T03:59:56Z</time>
            </trkpt>
            <trkpt lon="100.966228" lat="12.898331">
                <ele>71.500000</ele>
                <time>2018-02-25T03:59:57Z</time>
            </trkpt>
            <trkpt lon="100.966190" lat="12.898323">
                <ele>71.500000</ele>
                <time>2018-02-25T03:59:58Z</time>
            </trkpt>
            <trkpt lon="100.966151" lat="12.898320">
                <ele>71.400000</ele>
                <time>2018-02-25T03:59:59Z</time>
            </trkpt>
            <trkpt lon="100.966119" lat="12.898296">
                <ele>71.400000</ele>
                <time>2018-02-25T04:00:00Z</time>
            </trkpt>
            <trkpt lon="100.966103" lat="12.898257">
                <ele>71.300000</ele>
                <time>2018-02-25T04:00:01Z</time>
            </trkpt>
            <trkpt lon="100.966094" lat="12.898218">
                <ele>71.300000</ele>
                <time>2018-02-25T04:00:02Z</time>
            </trkpt>
            <trkpt lon="100.966087" lat="12.898182">
                <ele>71.300000</ele>
                <time>2018-02-25T04:00:03Z</time>
            </trkpt>
            <trkpt lon="100.966080" lat="12.898142">
                <ele>71.200000</ele>
                <time>2018-02-25T04:00:04Z</time>
            </trkpt>
            <trkpt lon="100.966059" lat="12.898100">
                <ele>71.200000</ele>
                <time>2018-02-25T04:00:05Z</time>
            </trkpt>
            <trkpt lon="100.966036" lat="12.898061">
                <ele>71.200000</ele>
                <time>2018-02-25T04:00:06Z</time>
            </trkpt>
            <trkpt lon="100.966011" lat="12.898032">
                <ele>71.400000</ele>
                <time>2018-02-25T04:00:07Z</time>
            </trkpt>
            <trkpt lon="100.965974" lat="12.897992">
                <ele>71.500000</ele>
                <time>2018-02-25T04:00:08Z</time>
            </trkpt>
            <trkpt lon="100.965946" lat="12.897955">
                <ele>71.700000</ele>
                <time>2018-02-25T04:00:09Z</time>
            </trkpt>
            <trkpt lon="100.965923" lat="12.897924">
                <ele>72.200000</ele>
                <time>2018-02-25T04:00:10Z</time>
            </trkpt>
            <trkpt lon="100.965910" lat="12.897887">
                <ele>72.400000</ele>
                <time>2018-02-25T04:00:11Z</time>
            </trkpt>
            <trkpt lon="100.965876" lat="12.897847">
                <ele>72.700000</ele>
                <time>2018-02-25T04:00:12Z</time>
            </trkpt>
            <trkpt lon="100.965841" lat="12.897816">
                <ele>72.800000</ele>
                <time>2018-02-25T04:00:13Z</time>
            </trkpt>
            <trkpt lon="100.965805" lat="12.897803">
                <ele>72.900000</ele>
                <time>2018-02-25T04:00:14Z</time>
            </trkpt>
            <trkpt lon="100.965757" lat="12.897789">
                <ele>72.900000</ele>
                <time>2018-02-25T04:00:15Z</time>
            </trkpt>
            <trkpt lon="100.965713" lat="12.897746">
                <ele>72.800000</ele>
                <time>2018-02-25T04:00:16Z</time>
            </trkpt>
            <trkpt lon="100.965708" lat="12.897674">
                <ele>73.000000</ele>
                <time>2018-02-25T04:00:18Z</time>
            </trkpt>
            <trkpt lon="100.965716" lat="12.897635">
                <ele>73.100000</ele>
                <time>2018-02-25T04:00:19Z</time>
            </trkpt>
            <trkpt lon="100.965721" lat="12.897584">
                <ele>73.200000</ele>
                <time>2018-02-25T04:00:20Z</time>
            </trkpt>
            <trkpt lon="100.965727" lat="12.897534">
                <ele>73.200000</ele>
                <time>2018-02-25T04:00:21Z</time>
            </trkpt>
            <trkpt lon="100.965737" lat="12.897484">
                <ele>73.100000</ele>
                <time>2018-02-25T04:00:22Z</time>
            </trkpt>
            <trkpt lon="100.965746" lat="12.897441">
                <ele>72.800000</ele>
                <time>2018-02-25T04:00:23Z</time>
            </trkpt>
            <trkpt lon="100.965757" lat="12.897392">
                <ele>72.400000</ele>
                <time>2018-02-25T04:00:24Z</time>
            </trkpt>
            <trkpt lon="100.965771" lat="12.897348">
                <ele>71.800000</ele>
                <time>2018-02-25T04:00:25Z</time>
            </trkpt>
            <trkpt lon="100.965788" lat="12.897304">
                <ele>71.200000</ele>
                <time>2018-02-25T04:00:26Z</time>
            </trkpt>
            <trkpt lon="100.965810" lat="12.897263">
                <ele>70.600000</ele>
                <time>2018-02-25T04:00:27Z</time>
            </trkpt>
            <trkpt lon="100.965816" lat="12.897207">
                <ele>70.200000</ele>
                <time>2018-02-25T04:00:28Z</time>
            </trkpt>
            <trkpt lon="100.965825" lat="12.897161">
                <ele>69.900000</ele>
                <time>2018-02-25T04:00:29Z</time>
            </trkpt>
            <trkpt lon="100.965832" lat="12.897110">
                <ele>69.500000</ele>
                <time>2018-02-25T04:00:30Z</time>
            </trkpt>
            <trkpt lon="100.965844" lat="12.897065">
                <ele>69.200000</ele>
                <time>2018-02-25T04:00:31Z</time>
            </trkpt>
            <trkpt lon="100.965860" lat="12.897031">
                <ele>69.200000</ele>
                <time>2018-02-25T04:00:32Z</time>
            </trkpt>
            <trkpt lon="100.965873" lat="12.897003">
                <ele>68.900000</ele>
                <time>2018-02-25T04:00:33Z</time>
            </trkpt>
            <trkpt lon="100.965868" lat="12.896961">
                <ele>68.600000</ele>
                <time>2018-02-25T04:00:34Z</time>
            </trkpt>
            <trkpt lon="100.965855" lat="12.896912">
                <ele>68.300000</ele>
                <time>2018-02-25T04:00:35Z</time>
            </trkpt>
            <trkpt lon="100.965865" lat="12.896861">
                <ele>68.100000</ele>
                <time>2018-02-25T04:00:36Z</time>
            </trkpt>
            <trkpt lon="100.965871" lat="12.896810">
                <ele>68.100000</ele>
                <time>2018-02-25T04:00:37Z</time>
            </trkpt>
            <trkpt lon="100.965878" lat="12.896760">
                <ele>68.100000</ele>
                <time>2018-02-25T04:00:38Z</time>
            </trkpt>
            <trkpt lon="100.965889" lat="12.896704">
                <ele>68.000000</ele>
                <time>2018-02-25T04:00:39Z</time>
            </trkpt>
            <trkpt lon="100.965902" lat="12.896646">
                <ele>68.000000</ele>
                <time>2018-02-25T04:00:40Z</time>
            </trkpt>
            <trkpt lon="100.965889" lat="12.896595">
                <ele>68.000000</ele>
                <time>2018-02-25T04:00:41Z</time>
            </trkpt>
            <trkpt lon="100.965887" lat="12.896549">
                <ele>68.000000</ele>
                <time>2018-02-25T04:00:42Z</time>
            </trkpt>
            <trkpt lon="100.965890" lat="12.896507">
                <ele>68.000000</ele>
                <time>2018-02-25T04:00:43Z</time>
            </trkpt>
            <trkpt lon="100.965908" lat="12.896460">
                <ele>68.000000</ele>
                <time>2018-02-25T04:00:44Z</time>
            </trkpt>
            <trkpt lon="100.965931" lat="12.896417">
                <ele>68.000000</ele>
                <time>2018-02-25T04:00:45Z</time>
            </trkpt>
            <trkpt lon="100.965934" lat="12.896373">
                <ele>68.000000</ele>
                <time>2018-02-25T04:00:46Z</time>
            </trkpt>
            <trkpt lon="100.965936" lat="12.896330">
                <ele>68.000000</ele>
                <time>2018-02-25T04:00:47Z</time>
            </trkpt>
            <trkpt lon="100.965953" lat="12.896279">
                <ele>67.900000</ele>
                <time>2018-02-25T04:00:48Z</time>
            </trkpt>
            <trkpt lon="100.965942" lat="12.896231">
                <ele>67.900000</ele>
                <time>2018-02-25T04:00:49Z</time>
            </trkpt>
            <trkpt lon="100.965936" lat="12.896184">
                <ele>67.900000</ele>
                <time>2018-02-25T04:00:50Z</time>
            </trkpt>
            <trkpt lon="100.965953" lat="12.896131">
                <ele>67.900000</ele>
                <time>2018-02-25T04:00:51Z</time>
            </trkpt>
            <trkpt lon="100.965967" lat="12.896085">
                <ele>67.900000</ele>
                <time>2018-02-25T04:00:52Z</time>
            </trkpt>
            <trkpt lon="100.965989" lat="12.896035">
                <ele>67.900000</ele>
                <time>2018-02-25T04:00:53Z</time>
            </trkpt>
            <trkpt lon="100.966011" lat="12.895988">
                <ele>67.900000</ele>
                <time>2018-02-25T04:00:54Z</time>
            </trkpt>
            <trkpt lon="100.966033" lat="12.895934">
                <ele>67.900000</ele>
                <time>2018-02-25T04:00:55Z</time>
            </trkpt>
            <trkpt lon="100.966050" lat="12.895881">
                <ele>67.900000</ele>
                <time>2018-02-25T04:00:56Z</time>
            </trkpt>
            <trkpt lon="100.966078" lat="12.895830">
                <ele>67.900000</ele>
                <time>2018-02-25T04:00:57Z</time>
            </trkpt>
            <trkpt lon="100.966110" lat="12.895773">
                <ele>67.900000</ele>
                <time>2018-02-25T04:00:58Z</time>
            </trkpt>
            <trkpt lon="100.966135" lat="12.895721">
                <ele>68.000000</ele>
                <time>2018-02-25T04:00:59Z</time>
            </trkpt>
            <trkpt lon="100.966162" lat="12.895671">
                <ele>68.000000</ele>
                <time>2018-02-25T04:01:00Z</time>
            </trkpt>
            <trkpt lon="100.966178" lat="12.895615">
                <ele>68.000000</ele>
                <time>2018-02-25T04:01:01Z</time>
            </trkpt>
            <trkpt lon="100.966193" lat="12.895557">
                <ele>68.000000</ele>
                <time>2018-02-25T04:01:02Z</time>
            </trkpt>
            <trkpt lon="100.966203" lat="12.895496">
                <ele>67.900000</ele>
                <time>2018-02-25T04:01:03Z</time>
            </trkpt>
            <trkpt lon="100.966199" lat="12.895437">
                <ele>67.900000</ele>
                <time>2018-02-25T04:01:04Z</time>
            </trkpt>
            <trkpt lon="100.966192" lat="12.895385">
                <ele>67.900000</ele>
                <time>2018-02-25T04:01:05Z</time>
            </trkpt>
            <trkpt lon="100.966176" lat="12.895331">
                <ele>67.800000</ele>
                <time>2018-02-25T04:01:06Z</time>
            </trkpt>
            <trkpt lon="100.966154" lat="12.895291">
                <ele>67.700000</ele>
                <time>2018-02-25T04:01:07Z</time>
            </trkpt>
            <trkpt lon="100.966139" lat="12.895247">
                <ele>67.500000</ele>
                <time>2018-02-25T04:01:08Z</time>
            </trkpt>
            <trkpt lon="100.966133" lat="12.895210">
                <ele>67.400000</ele>
                <time>2018-02-25T04:01:09Z</time>
            </trkpt>
            <trkpt lon="100.966121" lat="12.895168">
                <ele>67.300000</ele>
                <time>2018-02-25T04:01:10Z</time>
            </trkpt>
            <trkpt lon="100.966124" lat="12.895132">
                <ele>66.800000</ele>
                <time>2018-02-25T04:01:11Z</time>
            </trkpt>
            <trkpt lon="100.966146" lat="12.895102">
                <ele>66.700000</ele>
                <time>2018-02-25T04:01:12Z</time>
            </trkpt>
            <trkpt lon="100.966167" lat="12.895076">
                <ele>66.700000</ele>
                <time>2018-02-25T04:01:13Z</time>
            </trkpt>
            <trkpt lon="100.966195" lat="12.895052">
                <ele>66.600000</ele>
                <time>2018-02-25T04:01:14Z</time>
            </trkpt>
            <trkpt lon="100.966245" lat="12.895038">
                <ele>66.500000</ele>
                <time>2018-02-25T04:01:15Z</time>
            </trkpt>
            <trkpt lon="100.966294" lat="12.895027">
                <ele>66.500000</ele>
                <time>2018-02-25T04:01:16Z</time>
            </trkpt>
            <trkpt lon="100.966329" lat="12.895006">
                <ele>66.400000</ele>
                <time>2018-02-25T04:01:17Z</time>
            </trkpt>
            <trkpt lon="100.966376" lat="12.894991">
                <ele>66.400000</ele>
                <time>2018-02-25T04:01:18Z</time>
            </trkpt>
            <trkpt lon="100.966426" lat="12.894968">
                <ele>66.300000</ele>
                <time>2018-02-25T04:01:19Z</time>
            </trkpt>
            <trkpt lon="100.966464" lat="12.894937">
                <ele>66.300000</ele>
                <time>2018-02-25T04:01:20Z</time>
            </trkpt>
            <trkpt lon="100.966512" lat="12.894923">
                <ele>66.200000</ele>
                <time>2018-02-25T04:01:21Z</time>
            </trkpt>
            <trkpt lon="100.966550" lat="12.894901">
                <ele>66.200000</ele>
                <time>2018-02-25T04:01:22Z</time>
            </trkpt>
            <trkpt lon="100.966606" lat="12.894889">
                <ele>66.100000</ele>
                <time>2018-02-25T04:01:23Z</time>
            </trkpt>
            <trkpt lon="100.966652" lat="12.894870">
                <ele>66.100000</ele>
                <time>2018-02-25T04:01:24Z</time>
            </trkpt>
            <trkpt lon="100.966710" lat="12.894855">
                <ele>66.100000</ele>
                <time>2018-02-25T04:01:25Z</time>
            </trkpt>
            <trkpt lon="100.966759" lat="12.894841">
                <ele>66.000000</ele>
                <time>2018-02-25T04:01:26Z</time>
            </trkpt>
            <trkpt lon="100.966814" lat="12.894827">
                <ele>65.900000</ele>
                <time>2018-02-25T04:01:27Z</time>
            </trkpt>
            <trkpt lon="100.966902" lat="12.894831">
                <ele>65.800000</ele>
                <time>2018-02-25T04:01:28Z</time>
            </trkpt>
            <trkpt lon="100.966951" lat="12.894818">
                <ele>65.800000</ele>
                <time>2018-02-25T04:01:29Z</time>
            </trkpt>
            <trkpt lon="100.966987" lat="12.894800">
                <ele>65.700000</ele>
                <time>2018-02-25T04:01:30Z</time>
            </trkpt>
            <trkpt lon="100.967031" lat="12.894782">
                <ele>65.700000</ele>
                <time>2018-02-25T04:01:31Z</time>
            </trkpt>
            <trkpt lon="100.967066" lat="12.894762">
                <ele>65.600000</ele>
                <time>2018-02-25T04:01:32Z</time>
            </trkpt>
            <trkpt lon="100.967113" lat="12.894744">
                <ele>65.500000</ele>
                <time>2018-02-25T04:01:33Z</time>
            </trkpt>
            <trkpt lon="100.967163" lat="12.894730">
                <ele>65.400000</ele>
                <time>2018-02-25T04:01:34Z</time>
            </trkpt>
            <trkpt lon="100.967215" lat="12.894711">
                <ele>65.300000</ele>
                <time>2018-02-25T04:01:35Z</time>
            </trkpt>
            <trkpt lon="100.967274" lat="12.894690">
                <ele>65.200000</ele>
                <time>2018-02-25T04:01:36Z</time>
            </trkpt>
            <trkpt lon="100.967327" lat="12.894666">
                <ele>65.200000</ele>
                <time>2018-02-25T04:01:37Z</time>
            </trkpt>
            <trkpt lon="100.967386" lat="12.894665">
                <ele>65.100000</ele>
                <time>2018-02-25T04:01:38Z</time>
            </trkpt>
            <trkpt lon="100.967433" lat="12.894649">
                <ele>65.000000</ele>
                <time>2018-02-25T04:01:39Z</time>
            </trkpt>
            <trkpt lon="100.967484" lat="12.894635">
                <ele>64.900000</ele>
                <time>2018-02-25T04:01:40Z</time>
            </trkpt>
            <trkpt lon="100.967522" lat="12.894608">
                <ele>64.900000</ele>
                <time>2018-02-25T04:01:41Z</time>
            </trkpt>
            <trkpt lon="100.967584" lat="12.894614">
                <ele>64.800000</ele>
                <time>2018-02-25T04:01:42Z</time>
            </trkpt>
            <trkpt lon="100.967624" lat="12.894584">
                <ele>64.700000</ele>
                <time>2018-02-25T04:01:43Z</time>
            </trkpt>
            <trkpt lon="100.967681" lat="12.894572">
                <ele>64.600000</ele>
                <time>2018-02-25T04:01:44Z</time>
            </trkpt>
            <trkpt lon="100.967745" lat="12.894554">
                <ele>64.500000</ele>
                <time>2018-02-25T04:01:45Z</time>
            </trkpt>
            <trkpt lon="100.967813" lat="12.894545">
                <ele>64.300000</ele>
                <time>2018-02-25T04:01:46Z</time>
            </trkpt>
            <trkpt lon="100.967882" lat="12.894530">
                <ele>64.200000</ele>
                <time>2018-02-25T04:01:47Z</time>
            </trkpt>
            <trkpt lon="100.967949" lat="12.894521">
                <ele>64.100000</ele>
                <time>2018-02-25T04:01:48Z</time>
            </trkpt>
            <trkpt lon="100.967995" lat="12.894523">
                <ele>64.000000</ele>
                <time>2018-02-25T04:01:49Z</time>
            </trkpt>
            <trkpt lon="100.968052" lat="12.894515">
                <ele>64.000000</ele>
                <time>2018-02-25T04:01:50Z</time>
            </trkpt>
            <trkpt lon="100.968125" lat="12.894500">
                <ele>63.800000</ele>
                <time>2018-02-25T04:01:51Z</time>
            </trkpt>
            <trkpt lon="100.968193" lat="12.894499">
                <ele>63.700000</ele>
                <time>2018-02-25T04:01:52Z</time>
            </trkpt>
            <trkpt lon="100.968253" lat="12.894492">
                <ele>63.700000</ele>
                <time>2018-02-25T04:01:53Z</time>
            </trkpt>
            <trkpt lon="100.968300" lat="12.894474">
                <ele>63.600000</ele>
                <time>2018-02-25T04:01:54Z</time>
            </trkpt>
            <trkpt lon="100.968362" lat="12.894471">
                <ele>63.500000</ele>
                <time>2018-02-25T04:01:55Z</time>
            </trkpt>
            <trkpt lon="100.968421" lat="12.894464">
                <ele>63.400000</ele>
                <time>2018-02-25T04:01:56Z</time>
            </trkpt>
            <trkpt lon="100.968488" lat="12.894460">
                <ele>63.300000</ele>
                <time>2018-02-25T04:01:57Z</time>
            </trkpt>
            <trkpt lon="100.968553" lat="12.894447">
                <ele>63.200000</ele>
                <time>2018-02-25T04:01:58Z</time>
            </trkpt>
            <trkpt lon="100.968613" lat="12.894439">
                <ele>63.100000</ele>
                <time>2018-02-25T04:01:59Z</time>
            </trkpt>
            <trkpt lon="100.968695" lat="12.894449">
                <ele>62.900000</ele>
                <time>2018-02-25T04:02:00Z</time>
            </trkpt>
            <trkpt lon="100.968760" lat="12.894453">
                <ele>62.800000</ele>
                <time>2018-02-25T04:02:01Z</time>
            </trkpt>
            <trkpt lon="100.968837" lat="12.894467">
                <ele>62.700000</ele>
                <time>2018-02-25T04:02:02Z</time>
            </trkpt>
            <trkpt lon="100.968920" lat="12.894477">
                <ele>62.500000</ele>
                <time>2018-02-25T04:02:03Z</time>
            </trkpt>
            <trkpt lon="100.968967" lat="12.894514">
                <ele>62.300000</ele>
                <time>2018-02-25T04:02:04Z</time>
            </trkpt>
            <trkpt lon="100.968993" lat="12.894548">
                <ele>62.200000</ele>
                <time>2018-02-25T04:02:05Z</time>
            </trkpt>
            <trkpt lon="100.969008" lat="12.894580">
                <ele>62.100000</ele>
                <time>2018-02-25T04:02:06Z</time>
            </trkpt>
            <trkpt lon="100.969002" lat="12.894621">
                <ele>62.000000</ele>
                <time>2018-02-25T04:02:07Z</time>
            </trkpt>
            <trkpt lon="100.968989" lat="12.894666">
                <ele>61.900000</ele>
                <time>2018-02-25T04:02:08Z</time>
            </trkpt>
            <trkpt lon="100.968974" lat="12.894705">
                <ele>61.800000</ele>
                <time>2018-02-25T04:02:09Z</time>
            </trkpt>
            <trkpt lon="100.968956" lat="12.894745">
                <ele>61.800000</ele>
                <time>2018-02-25T04:02:10Z</time>
            </trkpt>
            <trkpt lon="100.968954" lat="12.894778">
                <ele>61.800000</ele>
                <time>2018-02-25T04:02:11Z</time>
            </trkpt>
            <trkpt lon="100.968946" lat="12.894814">
                <ele>62.000000</ele>
                <time>2018-02-25T04:02:12Z</time>
            </trkpt>
            <trkpt lon="100.968931" lat="12.894844">
                <ele>62.000000</ele>
                <time>2018-02-25T04:02:13Z</time>
            </trkpt>
            <trkpt lon="100.968918" lat="12.894873">
                <ele>62.100000</ele>
                <time>2018-02-25T04:02:14Z</time>
            </trkpt>
            <trkpt lon="100.968902" lat="12.894902">
                <ele>62.300000</ele>
                <time>2018-02-25T04:02:15Z</time>
            </trkpt>
            <trkpt lon="100.968883" lat="12.894927">
                <ele>62.300000</ele>
                <time>2018-02-25T04:02:16Z</time>
            </trkpt>
            <trkpt lon="100.968865" lat="12.894954">
                <ele>62.300000</ele>
                <time>2018-02-25T04:02:17Z</time>
            </trkpt>
            <trkpt lon="100.968843" lat="12.894981">
                <ele>62.300000</ele>
                <time>2018-02-25T04:02:18Z</time>
            </trkpt>
            <trkpt lon="100.968818" lat="12.895010">
                <ele>62.400000</ele>
                <time>2018-02-25T04:02:19Z</time>
            </trkpt>
            <trkpt lon="100.968791" lat="12.895040">
                <ele>62.400000</ele>
                <time>2018-02-25T04:02:20Z</time>
            </trkpt>
            <trkpt lon="100.968768" lat="12.895070">
                <ele>62.500000</ele>
                <time>2018-02-25T04:02:21Z</time>
            </trkpt>
            <trkpt lon="100.968747" lat="12.895099">
                <ele>62.500000</ele>
                <time>2018-02-25T04:02:22Z</time>
            </trkpt>
            <trkpt lon="100.968726" lat="12.895131">
                <ele>62.600000</ele>
                <time>2018-02-25T04:02:23Z</time>
            </trkpt>
            <trkpt lon="100.968706" lat="12.895165">
                <ele>62.900000</ele>
                <time>2018-02-25T04:02:24Z</time>
            </trkpt>
            <trkpt lon="100.968683" lat="12.895199">
                <ele>62.900000</ele>
                <time>2018-02-25T04:02:25Z</time>
            </trkpt>
            <trkpt lon="100.968661" lat="12.895229">
                <ele>62.900000</ele>
                <time>2018-02-25T04:02:26Z</time>
            </trkpt>
            <trkpt lon="100.968639" lat="12.895259">
                <ele>63.000000</ele>
                <time>2018-02-25T04:02:27Z</time>
            </trkpt>
            <trkpt lon="100.968617" lat="12.895289">
                <ele>63.600000</ele>
                <time>2018-02-25T04:02:28Z</time>
            </trkpt>
            <trkpt lon="100.968598" lat="12.895318">
                <ele>64.000000</ele>
                <time>2018-02-25T04:02:29Z</time>
            </trkpt>
            <trkpt lon="100.968580" lat="12.895346">
                <ele>64.000000</ele>
                <time>2018-02-25T04:02:30Z</time>
            </trkpt>
            <trkpt lon="100.968562" lat="12.895371">
                <ele>64.500000</ele>
                <time>2018-02-25T04:02:31Z</time>
            </trkpt>
            <trkpt lon="100.968541" lat="12.895391">
                <ele>64.400000</ele>
                <time>2018-02-25T04:02:32Z</time>
            </trkpt>
            <trkpt lon="100.968515" lat="12.895407">
                <ele>64.400000</ele>
                <time>2018-02-25T04:02:33Z</time>
            </trkpt>
            <trkpt lon="100.968484" lat="12.895421">
                <ele>64.500000</ele>
                <time>2018-02-25T04:02:34Z</time>
            </trkpt>
            <trkpt lon="100.968455" lat="12.895435">
                <ele>64.200000</ele>
                <time>2018-02-25T04:02:35Z</time>
            </trkpt>
            <trkpt lon="100.968427" lat="12.895454">
                <ele>64.200000</ele>
                <time>2018-02-25T04:02:36Z</time>
            </trkpt>
            <trkpt lon="100.968398" lat="12.895481">
                <ele>64.300000</ele>
                <time>2018-02-25T04:02:37Z</time>
            </trkpt>
            <trkpt lon="100.968373" lat="12.895509">
                <ele>64.500000</ele>
                <time>2018-02-25T04:02:38Z</time>
            </trkpt>
            <trkpt lon="100.968354" lat="12.895535">
                <ele>64.800000</ele>
                <time>2018-02-25T04:02:39Z</time>
            </trkpt>
            <trkpt lon="100.968337" lat="12.895556">
                <ele>64.800000</ele>
                <time>2018-02-25T04:02:40Z</time>
            </trkpt>
            <trkpt lon="100.968309" lat="12.895604">
                <ele>65.000000</ele>
                <time>2018-02-25T04:02:42Z</time>
            </trkpt>
            <trkpt lon="100.968295" lat="12.895631">
                <ele>65.100000</ele>
                <time>2018-02-25T04:02:43Z</time>
            </trkpt>
            <trkpt lon="100.968279" lat="12.895655">
                <ele>65.100000</ele>
                <time>2018-02-25T04:02:44Z</time>
            </trkpt>
            <trkpt lon="100.968239" lat="12.895688">
                <ele>65.100000</ele>
                <time>2018-02-25T04:02:46Z</time>
            </trkpt>
            <trkpt lon="100.968212" lat="12.895698">
                <ele>65.000000</ele>
                <time>2018-02-25T04:02:47Z</time>
            </trkpt>
            <trkpt lon="100.968183" lat="12.895703">
                <ele>65.000000</ele>
                <time>2018-02-25T04:02:48Z</time>
            </trkpt>
            <trkpt lon="100.968151" lat="12.895699">
                <ele>64.800000</ele>
                <time>2018-02-25T04:02:49Z</time>
            </trkpt>
            <trkpt lon="100.968121" lat="12.895690">
                <ele>64.700000</ele>
                <time>2018-02-25T04:02:50Z</time>
            </trkpt>
            <trkpt lon="100.968095" lat="12.895678">
                <ele>64.700000</ele>
                <time>2018-02-25T04:02:51Z</time>
            </trkpt>
            <trkpt lon="100.968068" lat="12.895670">
                <ele>64.400000</ele>
                <time>2018-02-25T04:02:52Z</time>
            </trkpt>
            <trkpt lon="100.968038" lat="12.895666">
                <ele>64.200000</ele>
                <time>2018-02-25T04:02:53Z</time>
            </trkpt>
            <trkpt lon="100.968010" lat="12.895670">
                <ele>64.300000</ele>
                <time>2018-02-25T04:02:54Z</time>
            </trkpt>
            <trkpt lon="100.967960" lat="12.895695">
                <ele>64.100000</ele>
                <time>2018-02-25T04:02:56Z</time>
            </trkpt>
            <trkpt lon="100.967939" lat="12.895715">
                <ele>64.100000</ele>
                <time>2018-02-25T04:02:57Z</time>
            </trkpt>
            <trkpt lon="100.967891" lat="12.895740">
                <ele>64.300000</ele>
                <time>2018-02-25T04:02:59Z</time>
            </trkpt>
            <trkpt lon="100.967859" lat="12.895744">
                <ele>64.400000</ele>
                <time>2018-02-25T04:03:00Z</time>
            </trkpt>
            <trkpt lon="100.967826" lat="12.895739">
                <ele>64.400000</ele>
                <time>2018-02-25T04:03:01Z</time>
            </trkpt>
            <trkpt lon="100.967793" lat="12.895730">
                <ele>64.100000</ele>
                <time>2018-02-25T04:03:02Z</time>
            </trkpt>
            <trkpt lon="100.967759" lat="12.895720">
                <ele>64.100000</ele>
                <time>2018-02-25T04:03:03Z</time>
            </trkpt>
            <trkpt lon="100.967730" lat="12.895712">
                <ele>64.200000</ele>
                <time>2018-02-25T04:03:04Z</time>
            </trkpt>
            <trkpt lon="100.967702" lat="12.895709">
                <ele>64.400000</ele>
                <time>2018-02-25T04:03:05Z</time>
            </trkpt>
            <trkpt lon="100.967672" lat="12.895714">
                <ele>64.400000</ele>
                <time>2018-02-25T04:03:06Z</time>
            </trkpt>
            <trkpt lon="100.967645" lat="12.895731">
                <ele>64.700000</ele>
                <time>2018-02-25T04:03:07Z</time>
            </trkpt>
            <trkpt lon="100.967623" lat="12.895755">
                <ele>64.900000</ele>
                <time>2018-02-25T04:03:08Z</time>
            </trkpt>
            <trkpt lon="100.967605" lat="12.895781">
                <ele>65.300000</ele>
                <time>2018-02-25T04:03:09Z</time>
            </trkpt>
            <trkpt lon="100.967585" lat="12.895808">
                <ele>65.300000</ele>
                <time>2018-02-25T04:03:10Z</time>
            </trkpt>
            <trkpt lon="100.967566" lat="12.895837">
                <ele>65.500000</ele>
                <time>2018-02-25T04:03:11Z</time>
            </trkpt>
            <trkpt lon="100.967545" lat="12.895864">
                <ele>65.600000</ele>
                <time>2018-02-25T04:03:12Z</time>
            </trkpt>
            <trkpt lon="100.967522" lat="12.895888">
                <ele>65.600000</ele>
                <time>2018-02-25T04:03:13Z</time>
            </trkpt>
            <trkpt lon="100.967495" lat="12.895906">
                <ele>65.700000</ele>
                <time>2018-02-25T04:03:14Z</time>
            </trkpt>
            <trkpt lon="100.967463" lat="12.895917">
                <ele>65.700000</ele>
                <time>2018-02-25T04:03:15Z</time>
            </trkpt>
            <trkpt lon="100.967429" lat="12.895923">
                <ele>65.700000</ele>
                <time>2018-02-25T04:03:16Z</time>
            </trkpt>
            <trkpt lon="100.967395" lat="12.895924">
                <ele>65.800000</ele>
                <time>2018-02-25T04:03:17Z</time>
            </trkpt>
            <trkpt lon="100.967361" lat="12.895919">
                <ele>65.800000</ele>
                <time>2018-02-25T04:03:18Z</time>
            </trkpt>
            <trkpt lon="100.967329" lat="12.895899">
                <ele>65.800000</ele>
                <time>2018-02-25T04:03:19Z</time>
            </trkpt>
            <trkpt lon="100.967303" lat="12.895873">
                <ele>66.100000</ele>
                <time>2018-02-25T04:03:20Z</time>
            </trkpt>
            <trkpt lon="100.967285" lat="12.895840">
                <ele>66.100000</ele>
                <time>2018-02-25T04:03:21Z</time>
            </trkpt>
            <trkpt lon="100.967274" lat="12.895805">
                <ele>66.100000</ele>
                <time>2018-02-25T04:03:22Z</time>
            </trkpt>
            <trkpt lon="100.967273" lat="12.895769">
                <ele>66.400000</ele>
                <time>2018-02-25T04:03:23Z</time>
            </trkpt>
            <trkpt lon="100.967278" lat="12.895739">
                <ele>66.100000</ele>
                <time>2018-02-25T04:03:24Z</time>
            </trkpt>
            <trkpt lon="100.967275" lat="12.895700">
                <ele>66.000000</ele>
                <time>2018-02-25T04:03:26Z</time>
            </trkpt>
            <trkpt lon="100.967227" lat="12.895692">
                <ele>66.600000</ele>
                <time>2018-02-25T04:03:28Z</time>
            </trkpt>
            <trkpt lon="100.967194" lat="12.895705">
                <ele>66.600000</ele>
                <time>2018-02-25T04:03:29Z</time>
            </trkpt>
            <trkpt lon="100.967167" lat="12.895728">
                <ele>67.100000</ele>
                <time>2018-02-25T04:03:30Z</time>
            </trkpt>
            <trkpt lon="100.967151" lat="12.895759">
                <ele>67.300000</ele>
                <time>2018-02-25T04:03:31Z</time>
            </trkpt>
            <trkpt lon="100.967134" lat="12.895794">
                <ele>67.800000</ele>
                <time>2018-02-25T04:03:32Z</time>
            </trkpt>
            <trkpt lon="100.967117" lat="12.895829">
                <ele>67.700000</ele>
                <time>2018-02-25T04:03:33Z</time>
            </trkpt>
            <trkpt lon="100.967093" lat="12.895861">
                <ele>67.900000</ele>
                <time>2018-02-25T04:03:34Z</time>
            </trkpt>
            <trkpt lon="100.967065" lat="12.895887">
                <ele>67.900000</ele>
                <time>2018-02-25T04:03:35Z</time>
            </trkpt>
            <trkpt lon="100.967036" lat="12.895906">
                <ele>68.000000</ele>
                <time>2018-02-25T04:03:36Z</time>
            </trkpt>
            <trkpt lon="100.967003" lat="12.895917">
                <ele>68.300000</ele>
                <time>2018-02-25T04:03:37Z</time>
            </trkpt>
            <trkpt lon="100.966966" lat="12.895915">
                <ele>68.600000</ele>
                <time>2018-02-25T04:03:38Z</time>
            </trkpt>
            <trkpt lon="100.966933" lat="12.895909">
                <ele>68.700000</ele>
                <time>2018-02-25T04:03:39Z</time>
            </trkpt>
            <trkpt lon="100.966902" lat="12.895913">
                <ele>69.000000</ele>
                <time>2018-02-25T04:03:40Z</time>
            </trkpt>
            <trkpt lon="100.966874" lat="12.895927">
                <ele>69.200000</ele>
                <time>2018-02-25T04:03:41Z</time>
            </trkpt>
            <trkpt lon="100.966849" lat="12.895944">
                <ele>69.300000</ele>
                <time>2018-02-25T04:03:42Z</time>
            </trkpt>
            <trkpt lon="100.966795" lat="12.895942">
                <ele>69.600000</ele>
                <time>2018-02-25T04:03:44Z</time>
            </trkpt>
            <trkpt lon="100.966763" lat="12.895922">
                <ele>69.600000</ele>
                <time>2018-02-25T04:03:45Z</time>
            </trkpt>
            <trkpt lon="100.966735" lat="12.895896">
                <ele>69.600000</ele>
                <time>2018-02-25T04:03:46Z</time>
            </trkpt>
            <trkpt lon="100.966712" lat="12.895874">
                <ele>69.500000</ele>
                <time>2018-02-25T04:03:47Z</time>
            </trkpt>
            <trkpt lon="100.966689" lat="12.895858">
                <ele>69.500000</ele>
                <time>2018-02-25T04:03:48Z</time>
            </trkpt>
            <trkpt lon="100.966633" lat="12.895861">
                <ele>69.400000</ele>
                <time>2018-02-25T04:03:50Z</time>
            </trkpt>
            <trkpt lon="100.966606" lat="12.895882">
                <ele>69.200000</ele>
                <time>2018-02-25T04:03:51Z</time>
            </trkpt>
            <trkpt lon="100.966585" lat="12.895907">
                <ele>69.100000</ele>
                <time>2018-02-25T04:03:52Z</time>
            </trkpt>
            <trkpt lon="100.966565" lat="12.895935">
                <ele>69.100000</ele>
                <time>2018-02-25T04:03:53Z</time>
            </trkpt>
            <trkpt lon="100.966553" lat="12.895964">
                <ele>69.300000</ele>
                <time>2018-02-25T04:03:54Z</time>
            </trkpt>
            <trkpt lon="100.966554" lat="12.895993">
                <ele>69.500000</ele>
                <time>2018-02-25T04:03:55Z</time>
            </trkpt>
            <trkpt lon="100.966568" lat="12.896026">
                <ele>69.600000</ele>
                <time>2018-02-25T04:03:56Z</time>
            </trkpt>
            <trkpt lon="100.966593" lat="12.896053">
                <ele>69.700000</ele>
                <time>2018-02-25T04:03:57Z</time>
            </trkpt>
            <trkpt lon="100.966617" lat="12.896075">
                <ele>69.700000</ele>
                <time>2018-02-25T04:03:58Z</time>
            </trkpt>
            <trkpt lon="100.966647" lat="12.896092">
                <ele>69.800000</ele>
                <time>2018-02-25T04:03:59Z</time>
            </trkpt>
            <trkpt lon="100.966681" lat="12.896106">
                <ele>69.800000</ele>
                <time>2018-02-25T04:04:00Z</time>
            </trkpt>
            <trkpt lon="100.966711" lat="12.896123">
                <ele>69.900000</ele>
                <time>2018-02-25T04:04:01Z</time>
            </trkpt>
            <trkpt lon="100.966737" lat="12.896146">
                <ele>69.900000</ele>
                <time>2018-02-25T04:04:02Z</time>
            </trkpt>
            <trkpt lon="100.966760" lat="12.896172">
                <ele>69.700000</ele>
                <time>2018-02-25T04:04:03Z</time>
            </trkpt>
            <trkpt lon="100.966787" lat="12.896198">
                <ele>69.500000</ele>
                <time>2018-02-25T04:04:04Z</time>
            </trkpt>
            <trkpt lon="100.966817" lat="12.896219">
                <ele>69.300000</ele>
                <time>2018-02-25T04:04:05Z</time>
            </trkpt>
            <trkpt lon="100.966846" lat="12.896232">
                <ele>69.000000</ele>
                <time>2018-02-25T04:04:06Z</time>
            </trkpt>
            <trkpt lon="100.966874" lat="12.896241">
                <ele>68.700000</ele>
                <time>2018-02-25T04:04:07Z</time>
            </trkpt>
            <trkpt lon="100.966902" lat="12.896250">
                <ele>68.500000</ele>
                <time>2018-02-25T04:04:08Z</time>
            </trkpt>
            <trkpt lon="100.966932" lat="12.896263">
                <ele>68.200000</ele>
                <time>2018-02-25T04:04:09Z</time>
            </trkpt>
            <trkpt lon="100.966970" lat="12.896275">
                <ele>68.300000</ele>
                <time>2018-02-25T04:04:10Z</time>
            </trkpt>
            <trkpt lon="100.967010" lat="12.896286">
                <ele>68.100000</ele>
                <time>2018-02-25T04:04:11Z</time>
            </trkpt>
            <trkpt lon="100.967053" lat="12.896296">
                <ele>68.000000</ele>
                <time>2018-02-25T04:04:12Z</time>
            </trkpt>
            <trkpt lon="100.967094" lat="12.896312">
                <ele>68.000000</ele>
                <time>2018-02-25T04:04:13Z</time>
            </trkpt>
            <trkpt lon="100.967127" lat="12.896339">
                <ele>67.800000</ele>
                <time>2018-02-25T04:04:14Z</time>
            </trkpt>
            <trkpt lon="100.967145" lat="12.896376">
                <ele>67.400000</ele>
                <time>2018-02-25T04:04:15Z</time>
            </trkpt>
            <trkpt lon="100.967149" lat="12.896418">
                <ele>67.300000</ele>
                <time>2018-02-25T04:04:16Z</time>
            </trkpt>
            <trkpt lon="100.967143" lat="12.896458">
                <ele>67.500000</ele>
                <time>2018-02-25T04:04:17Z</time>
            </trkpt>
            <trkpt lon="100.967125" lat="12.896495">
                <ele>67.500000</ele>
                <time>2018-02-25T04:04:18Z</time>
            </trkpt>
            <trkpt lon="100.967093" lat="12.896523">
                <ele>67.600000</ele>
                <time>2018-02-25T04:04:19Z</time>
            </trkpt>
            <trkpt lon="100.967054" lat="12.896541">
                <ele>67.500000</ele>
                <time>2018-02-25T04:04:20Z</time>
            </trkpt>
            <trkpt lon="100.967008" lat="12.896545">
                <ele>67.500000</ele>
                <time>2018-02-25T04:04:21Z</time>
            </trkpt>
            <trkpt lon="100.966962" lat="12.896542">
                <ele>67.500000</ele>
                <time>2018-02-25T04:04:22Z</time>
            </trkpt>
            <trkpt lon="100.966919" lat="12.896535">
                <ele>67.500000</ele>
                <time>2018-02-25T04:04:23Z</time>
            </trkpt>
            <trkpt lon="100.966875" lat="12.896529">
                <ele>67.500000</ele>
                <time>2018-02-25T04:04:24Z</time>
            </trkpt>
            <trkpt lon="100.966842" lat="12.896533">
                <ele>67.700000</ele>
                <time>2018-02-25T04:04:25Z</time>
            </trkpt>
            <trkpt lon="100.966822" lat="12.896555">
                <ele>67.700000</ele>
                <time>2018-02-25T04:04:26Z</time>
            </trkpt>
            <trkpt lon="100.966818" lat="12.896587">
                <ele>67.500000</ele>
                <time>2018-02-25T04:04:27Z</time>
            </trkpt>
            <trkpt lon="100.966829" lat="12.896619">
                <ele>67.500000</ele>
                <time>2018-02-25T04:04:28Z</time>
            </trkpt>
            <trkpt lon="100.966850" lat="12.896647">
                <ele>67.400000</ele>
                <time>2018-02-25T04:04:29Z</time>
            </trkpt>
            <trkpt lon="100.966880" lat="12.896672">
                <ele>67.400000</ele>
                <time>2018-02-25T04:04:30Z</time>
            </trkpt>
            <trkpt lon="100.966917" lat="12.896689">
                <ele>67.400000</ele>
                <time>2018-02-25T04:04:31Z</time>
            </trkpt>
            <trkpt lon="100.966952" lat="12.896702">
                <ele>67.500000</ele>
                <time>2018-02-25T04:04:32Z</time>
            </trkpt>
            <trkpt lon="100.966988" lat="12.896709">
                <ele>67.600000</ele>
                <time>2018-02-25T04:04:33Z</time>
            </trkpt>
            <trkpt lon="100.967027" lat="12.896707">
                <ele>67.600000</ele>
                <time>2018-02-25T04:04:34Z</time>
            </trkpt>
            <trkpt lon="100.967067" lat="12.896696">
                <ele>67.600000</ele>
                <time>2018-02-25T04:04:35Z</time>
            </trkpt>
            <trkpt lon="100.967105" lat="12.896681">
                <ele>67.600000</ele>
                <time>2018-02-25T04:04:36Z</time>
            </trkpt>
            <trkpt lon="100.967138" lat="12.896667">
                <ele>67.600000</ele>
                <time>2018-02-25T04:04:37Z</time>
            </trkpt>
            <trkpt lon="100.967173" lat="12.896651">
                <ele>67.800000</ele>
                <time>2018-02-25T04:04:38Z</time>
            </trkpt>
            <trkpt lon="100.967209" lat="12.896626">
                <ele>67.800000</ele>
                <time>2018-02-25T04:04:39Z</time>
            </trkpt>
            <trkpt lon="100.967235" lat="12.896585">
                <ele>67.800000</ele>
                <time>2018-02-25T04:04:40Z</time>
            </trkpt>
            <trkpt lon="100.967264" lat="12.896554">
                <ele>67.700000</ele>
                <time>2018-02-25T04:04:41Z</time>
            </trkpt>
            <trkpt lon="100.967287" lat="12.896520">
                <ele>67.600000</ele>
                <time>2018-02-25T04:04:42Z</time>
            </trkpt>
            <trkpt lon="100.967300" lat="12.896482">
                <ele>67.600000</ele>
                <time>2018-02-25T04:04:43Z</time>
            </trkpt>
            <trkpt lon="100.967314" lat="12.896441">
                <ele>67.700000</ele>
                <time>2018-02-25T04:04:44Z</time>
            </trkpt>
            <trkpt lon="100.967333" lat="12.896401">
                <ele>68.100000</ele>
                <time>2018-02-25T04:04:45Z</time>
            </trkpt>
            <trkpt lon="100.967356" lat="12.896370">
                <ele>68.100000</ele>
                <time>2018-02-25T04:04:46Z</time>
            </trkpt>
            <trkpt lon="100.967393" lat="12.896346">
                <ele>68.600000</ele>
                <time>2018-02-25T04:04:47Z</time>
            </trkpt>
            <trkpt lon="100.967434" lat="12.896327">
                <ele>68.700000</ele>
                <time>2018-02-25T04:04:48Z</time>
            </trkpt>
            <trkpt lon="100.967473" lat="12.896310">
                <ele>69.000000</ele>
                <time>2018-02-25T04:04:49Z</time>
            </trkpt>
            <trkpt lon="100.967511" lat="12.896300">
                <ele>69.100000</ele>
                <time>2018-02-25T04:04:50Z</time>
            </trkpt>
            <trkpt lon="100.967557" lat="12.896275">
                <ele>69.200000</ele>
                <time>2018-02-25T04:04:51Z</time>
            </trkpt>
            <trkpt lon="100.967589" lat="12.896249">
                <ele>69.200000</ele>
                <time>2018-02-25T04:04:52Z</time>
            </trkpt>
            <trkpt lon="100.967621" lat="12.896215">
                <ele>69.300000</ele>
                <time>2018-02-25T04:04:53Z</time>
            </trkpt>
            <trkpt lon="100.967635" lat="12.896169">
                <ele>69.300000</ele>
                <time>2018-02-25T04:04:54Z</time>
            </trkpt>
            <trkpt lon="100.967673" lat="12.896136">
                <ele>69.400000</ele>
                <time>2018-02-25T04:04:55Z</time>
            </trkpt>
            <trkpt lon="100.967708" lat="12.896093">
                <ele>69.300000</ele>
                <time>2018-02-25T04:04:56Z</time>
            </trkpt>
            <trkpt lon="100.967737" lat="12.896049">
                <ele>69.200000</ele>
                <time>2018-02-25T04:04:57Z</time>
            </trkpt>
            <trkpt lon="100.967772" lat="12.896014">
                <ele>69.100000</ele>
                <time>2018-02-25T04:04:58Z</time>
            </trkpt>
            <trkpt lon="100.967818" lat="12.895997">
                <ele>69.100000</ele>
                <time>2018-02-25T04:04:59Z</time>
            </trkpt>
            <trkpt lon="100.967857" lat="12.895999">
                <ele>69.100000</ele>
                <time>2018-02-25T04:05:00Z</time>
            </trkpt>
            <trkpt lon="100.967917" lat="12.896028">
                <ele>69.300000</ele>
                <time>2018-02-25T04:05:01Z</time>
            </trkpt>
            <trkpt lon="100.967934" lat="12.896071">
                <ele>69.500000</ele>
                <time>2018-02-25T04:05:02Z</time>
            </trkpt>
            <trkpt lon="100.967925" lat="12.896116">
                <ele>69.600000</ele>
                <time>2018-02-25T04:05:03Z</time>
            </trkpt>
            <trkpt lon="100.967907" lat="12.896157">
                <ele>69.600000</ele>
                <time>2018-02-25T04:05:04Z</time>
            </trkpt>
            <trkpt lon="100.967895" lat="12.896194">
                <ele>69.600000</ele>
                <time>2018-02-25T04:05:05Z</time>
            </trkpt>
            <trkpt lon="100.967896" lat="12.896233">
                <ele>69.600000</ele>
                <time>2018-02-25T04:05:06Z</time>
            </trkpt>
            <trkpt lon="100.967907" lat="12.896270">
                <ele>69.600000</ele>
                <time>2018-02-25T04:05:07Z</time>
            </trkpt>
            <trkpt lon="100.967903" lat="12.896309">
                <ele>69.600000</ele>
                <time>2018-02-25T04:05:08Z</time>
            </trkpt>
            <trkpt lon="100.967876" lat="12.896345">
                <ele>69.600000</ele>
                <time>2018-02-25T04:05:09Z</time>
            </trkpt>
            <trkpt lon="100.967846" lat="12.896368">
                <ele>69.700000</ele>
                <time>2018-02-25T04:05:10Z</time>
            </trkpt>
            <trkpt lon="100.967811" lat="12.896390">
                <ele>69.700000</ele>
                <time>2018-02-25T04:05:11Z</time>
            </trkpt>
            <trkpt lon="100.967779" lat="12.896405">
                <ele>69.700000</ele>
                <time>2018-02-25T04:05:12Z</time>
            </trkpt>
            <trkpt lon="100.967750" lat="12.896415">
                <ele>69.700000</ele>
                <time>2018-02-25T04:05:13Z</time>
            </trkpt>
            <trkpt lon="100.967721" lat="12.896420">
                <ele>69.800000</ele>
                <time>2018-02-25T04:05:14Z</time>
            </trkpt>
            <trkpt lon="100.967692" lat="12.896434">
                <ele>69.800000</ele>
                <time>2018-02-25T04:05:15Z</time>
            </trkpt>
            <trkpt lon="100.967675" lat="12.896462">
                <ele>69.900000</ele>
                <time>2018-02-25T04:05:16Z</time>
            </trkpt>
            <trkpt lon="100.967677" lat="12.896495">
                <ele>69.900000</ele>
                <time>2018-02-25T04:05:17Z</time>
            </trkpt>
            <trkpt lon="100.967697" lat="12.896529">
                <ele>69.900000</ele>
                <time>2018-02-25T04:05:18Z</time>
            </trkpt>
            <trkpt lon="100.967719" lat="12.896564">
                <ele>69.900000</ele>
                <time>2018-02-25T04:05:19Z</time>
            </trkpt>
            <trkpt lon="100.967740" lat="12.896598">
                <ele>69.900000</ele>
                <time>2018-02-25T04:05:20Z</time>
            </trkpt>
            <trkpt lon="100.967768" lat="12.896627">
                <ele>69.900000</ele>
                <time>2018-02-25T04:05:21Z</time>
            </trkpt>
            <trkpt lon="100.967799" lat="12.896654">
                <ele>70.300000</ele>
                <time>2018-02-25T04:05:22Z</time>
            </trkpt>
            <trkpt lon="100.967822" lat="12.896684">
                <ele>70.300000</ele>
                <time>2018-02-25T04:05:23Z</time>
            </trkpt>
            <trkpt lon="100.967829" lat="12.896721">
                <ele>70.600000</ele>
                <time>2018-02-25T04:05:24Z</time>
            </trkpt>
            <trkpt lon="100.967823" lat="12.896763">
                <ele>70.800000</ele>
                <time>2018-02-25T04:05:25Z</time>
            </trkpt>
            <trkpt lon="100.967807" lat="12.896804">
                <ele>70.900000</ele>
                <time>2018-02-25T04:05:26Z</time>
            </trkpt>
            <trkpt lon="100.967783" lat="12.896840">
                <ele>70.900000</ele>
                <time>2018-02-25T04:05:27Z</time>
            </trkpt>
            <trkpt lon="100.967752" lat="12.896872">
                <ele>71.000000</ele>
                <time>2018-02-25T04:05:28Z</time>
            </trkpt>
            <trkpt lon="100.967718" lat="12.896898">
                <ele>71.000000</ele>
                <time>2018-02-25T04:05:29Z</time>
            </trkpt>
            <trkpt lon="100.967686" lat="12.896923">
                <ele>71.300000</ele>
                <time>2018-02-25T04:05:30Z</time>
            </trkpt>
            <trkpt lon="100.967657" lat="12.896951">
                <ele>71.500000</ele>
                <time>2018-02-25T04:05:31Z</time>
            </trkpt>
            <trkpt lon="100.967637" lat="12.896987">
                <ele>71.600000</ele>
                <time>2018-02-25T04:05:32Z</time>
            </trkpt>
            <trkpt lon="100.967637" lat="12.897023">
                <ele>71.700000</ele>
                <time>2018-02-25T04:05:33Z</time>
            </trkpt>
            <trkpt lon="100.967652" lat="12.897056">
                <ele>71.700000</ele>
                <time>2018-02-25T04:05:34Z</time>
            </trkpt>
            <trkpt lon="100.967681" lat="12.897083">
                <ele>71.400000</ele>
                <time>2018-02-25T04:05:35Z</time>
            </trkpt>
            <trkpt lon="100.967713" lat="12.897106">
                <ele>71.300000</ele>
                <time>2018-02-25T04:05:36Z</time>
            </trkpt>
            <trkpt lon="100.967747" lat="12.897126">
                <ele>71.200000</ele>
                <time>2018-02-25T04:05:37Z</time>
            </trkpt>
            <trkpt lon="100.967784" lat="12.897139">
                <ele>71.300000</ele>
                <time>2018-02-25T04:05:38Z</time>
            </trkpt>
            <trkpt lon="100.967823" lat="12.897150">
                <ele>71.400000</ele>
                <time>2018-02-25T04:05:39Z</time>
            </trkpt>
            <trkpt lon="100.967859" lat="12.897166">
                <ele>71.500000</ele>
                <time>2018-02-25T04:05:40Z</time>
            </trkpt>
            <trkpt lon="100.967885" lat="12.897196">
                <ele>71.500000</ele>
                <time>2018-02-25T04:05:41Z</time>
            </trkpt>
            <trkpt lon="100.967901" lat="12.897237">
                <ele>71.400000</ele>
                <time>2018-02-25T04:05:42Z</time>
            </trkpt>
            <trkpt lon="100.967918" lat="12.897280">
                <ele>71.200000</ele>
                <time>2018-02-25T04:05:43Z</time>
            </trkpt>
            <trkpt lon="100.967936" lat="12.897320">
                <ele>71.200000</ele>
                <time>2018-02-25T04:05:44Z</time>
            </trkpt>
            <trkpt lon="100.967964" lat="12.897356">
                <ele>70.800000</ele>
                <time>2018-02-25T04:05:45Z</time>
            </trkpt>
            <trkpt lon="100.967996" lat="12.897387">
                <ele>70.900000</ele>
                <time>2018-02-25T04:05:46Z</time>
            </trkpt>
            <trkpt lon="100.968033" lat="12.897404">
                <ele>70.700000</ele>
                <time>2018-02-25T04:05:47Z</time>
            </trkpt>
            <trkpt lon="100.968075" lat="12.897407">
                <ele>70.600000</ele>
                <time>2018-02-25T04:05:48Z</time>
            </trkpt>
            <trkpt lon="100.968120" lat="12.897398">
                <ele>70.700000</ele>
                <time>2018-02-25T04:05:49Z</time>
            </trkpt>
            <trkpt lon="100.968166" lat="12.897385">
                <ele>70.800000</ele>
                <time>2018-02-25T04:05:50Z</time>
            </trkpt>
            <trkpt lon="100.968225" lat="12.897378">
                <ele>70.800000</ele>
                <time>2018-02-25T04:05:51Z</time>
            </trkpt>
            <trkpt lon="100.968264" lat="12.897404">
                <ele>70.600000</ele>
                <time>2018-02-25T04:05:52Z</time>
            </trkpt>
            <trkpt lon="100.968299" lat="12.897444">
                <ele>70.400000</ele>
                <time>2018-02-25T04:05:53Z</time>
            </trkpt>
            <trkpt lon="100.968334" lat="12.897477">
                <ele>69.800000</ele>
                <time>2018-02-25T04:05:54Z</time>
            </trkpt>
            <trkpt lon="100.968382" lat="12.897502">
                <ele>69.300000</ele>
                <time>2018-02-25T04:05:55Z</time>
            </trkpt>
            <trkpt lon="100.968419" lat="12.897523">
                <ele>69.200000</ele>
                <time>2018-02-25T04:05:56Z</time>
            </trkpt>
            <trkpt lon="100.968462" lat="12.897543">
                <ele>69.000000</ele>
                <time>2018-02-25T04:05:57Z</time>
            </trkpt>
            <trkpt lon="100.968500" lat="12.897576">
                <ele>68.800000</ele>
                <time>2018-02-25T04:05:58Z</time>
            </trkpt>
            <trkpt lon="100.968520" lat="12.897617">
                <ele>68.600000</ele>
                <time>2018-02-25T04:05:59Z</time>
            </trkpt>
            <trkpt lon="100.968543" lat="12.897652">
                <ele>68.600000</ele>
                <time>2018-02-25T04:06:00Z</time>
            </trkpt>
            <trkpt lon="100.968558" lat="12.897698">
                <ele>68.400000</ele>
                <time>2018-02-25T04:06:01Z</time>
            </trkpt>
            <trkpt lon="100.968553" lat="12.897750">
                <ele>68.200000</ele>
                <time>2018-02-25T04:06:02Z</time>
            </trkpt>
            <trkpt lon="100.968560" lat="12.897795">
                <ele>68.200000</ele>
                <time>2018-02-25T04:06:03Z</time>
            </trkpt>
            <trkpt lon="100.968585" lat="12.897834">
                <ele>68.100000</ele>
                <time>2018-02-25T04:06:04Z</time>
            </trkpt>
            <trkpt lon="100.968599" lat="12.897883">
                <ele>68.100000</ele>
                <time>2018-02-25T04:06:05Z</time>
            </trkpt>
            <trkpt lon="100.968607" lat="12.897917">
                <ele>68.100000</ele>
                <time>2018-02-25T04:06:06Z</time>
            </trkpt>
            <trkpt lon="100.968647" lat="12.897943">
                <ele>68.000000</ele>
                <time>2018-02-25T04:06:07Z</time>
            </trkpt>
            <trkpt lon="100.968685" lat="12.897968">
                <ele>68.000000</ele>
                <time>2018-02-25T04:06:08Z</time>
            </trkpt>
            <trkpt lon="100.968716" lat="12.897997">
                <ele>67.900000</ele>
                <time>2018-02-25T04:06:09Z</time>
            </trkpt>
            <trkpt lon="100.968756" lat="12.898017">
                <ele>67.900000</ele>
                <time>2018-02-25T04:06:10Z</time>
            </trkpt>
            <trkpt lon="100.968785" lat="12.898039">
                <ele>67.800000</ele>
                <time>2018-02-25T04:06:11Z</time>
            </trkpt>
            <trkpt lon="100.968820" lat="12.898067">
                <ele>67.800000</ele>
                <time>2018-02-25T04:06:12Z</time>
            </trkpt>
            <trkpt lon="100.968848" lat="12.898099">
                <ele>67.700000</ele>
                <time>2018-02-25T04:06:13Z</time>
            </trkpt>
            <trkpt lon="100.968869" lat="12.898134">
                <ele>67.700000</ele>
                <time>2018-02-25T04:06:14Z</time>
            </trkpt>
            <trkpt lon="100.968906" lat="12.898152">
                <ele>67.700000</ele>
                <time>2018-02-25T04:06:15Z</time>
            </trkpt>
            <trkpt lon="100.968933" lat="12.898177">
                <ele>67.600000</ele>
                <time>2018-02-25T04:06:16Z</time>
            </trkpt>
            <trkpt lon="100.968987" lat="12.898191">
                <ele>67.500000</ele>
                <time>2018-02-25T04:06:17Z</time>
            </trkpt>
            <trkpt lon="100.969027" lat="12.898214">
                <ele>67.500000</ele>
                <time>2018-02-25T04:06:18Z</time>
            </trkpt>
            <trkpt lon="100.969065" lat="12.898242">
                <ele>67.400000</ele>
                <time>2018-02-25T04:06:19Z</time>
            </trkpt>
            <trkpt lon="100.969106" lat="12.898266">
                <ele>67.400000</ele>
                <time>2018-02-25T04:06:20Z</time>
            </trkpt>
            <trkpt lon="100.969147" lat="12.898289">
                <ele>67.300000</ele>
                <time>2018-02-25T04:06:21Z</time>
            </trkpt>
            <trkpt lon="100.969201" lat="12.898302">
                <ele>67.500000</ele>
                <time>2018-02-25T04:06:22Z</time>
            </trkpt>
            <trkpt lon="100.969241" lat="12.898338">
                <ele>67.600000</ele>
                <time>2018-02-25T04:06:23Z</time>
            </trkpt>
            <trkpt lon="100.969249" lat="12.898383">
                <ele>67.600000</ele>
                <time>2018-02-25T04:06:24Z</time>
            </trkpt>
            <trkpt lon="100.969244" lat="12.898419">
                <ele>67.600000</ele>
                <time>2018-02-25T04:06:25Z</time>
            </trkpt>
            <trkpt lon="100.969228" lat="12.898459">
                <ele>67.600000</ele>
                <time>2018-02-25T04:06:26Z</time>
            </trkpt>
            <trkpt lon="100.969202" lat="12.898481">
                <ele>67.600000</ele>
                <time>2018-02-25T04:06:27Z</time>
            </trkpt>
            <trkpt lon="100.969184" lat="12.898508">
                <ele>67.600000</ele>
                <time>2018-02-25T04:06:28Z</time>
            </trkpt>
            <trkpt lon="100.969158" lat="12.898574">
                <ele>67.600000</ele>
                <time>2018-02-25T04:06:30Z</time>
            </trkpt>
            <trkpt lon="100.969153" lat="12.898618">
                <ele>67.500000</ele>
                <time>2018-02-25T04:06:31Z</time>
            </trkpt>
            <trkpt lon="100.969149" lat="12.898650">
                <ele>67.300000</ele>
                <time>2018-02-25T04:06:32Z</time>
            </trkpt>
            <trkpt lon="100.969133" lat="12.898694">
                <ele>67.200000</ele>
                <time>2018-02-25T04:06:33Z</time>
            </trkpt>
            <trkpt lon="100.969124" lat="12.898736">
                <ele>67.000000</ele>
                <time>2018-02-25T04:06:34Z</time>
            </trkpt>
            <trkpt lon="100.969119" lat="12.898776">
                <ele>66.700000</ele>
                <time>2018-02-25T04:06:35Z</time>
            </trkpt>
            <trkpt lon="100.969113" lat="12.898817">
                <ele>66.700000</ele>
                <time>2018-02-25T04:06:36Z</time>
            </trkpt>
            <trkpt lon="100.969103" lat="12.898858">
                <ele>66.600000</ele>
                <time>2018-02-25T04:06:37Z</time>
            </trkpt>
            <trkpt lon="100.969087" lat="12.898896">
                <ele>66.600000</ele>
                <time>2018-02-25T04:06:38Z</time>
            </trkpt>
            <trkpt lon="100.969063" lat="12.898925">
                <ele>66.700000</ele>
                <time>2018-02-25T04:06:39Z</time>
            </trkpt>
            <trkpt lon="100.969032" lat="12.898944">
                <ele>66.900000</ele>
                <time>2018-02-25T04:06:40Z</time>
            </trkpt>
            <trkpt lon="100.968995" lat="12.898952">
                <ele>66.800000</ele>
                <time>2018-02-25T04:06:41Z</time>
            </trkpt>
            <trkpt lon="100.968954" lat="12.898950">
                <ele>67.000000</ele>
                <time>2018-02-25T04:06:42Z</time>
            </trkpt>
            <trkpt lon="100.968911" lat="12.898945">
                <ele>67.200000</ele>
                <time>2018-02-25T04:06:43Z</time>
            </trkpt>
            <trkpt lon="100.968867" lat="12.898945">
                <ele>67.400000</ele>
                <time>2018-02-25T04:06:44Z</time>
            </trkpt>
            <trkpt lon="100.968827" lat="12.898955">
                <ele>67.300000</ele>
                <time>2018-02-25T04:06:45Z</time>
            </trkpt>
            <trkpt lon="100.968798" lat="12.898978">
                <ele>67.400000</ele>
                <time>2018-02-25T04:06:46Z</time>
            </trkpt>
            <trkpt lon="100.968781" lat="12.899013">
                <ele>67.200000</ele>
                <time>2018-02-25T04:06:47Z</time>
            </trkpt>
            <trkpt lon="100.968775" lat="12.899051">
                <ele>67.400000</ele>
                <time>2018-02-25T04:06:48Z</time>
            </trkpt>
            <trkpt lon="100.968774" lat="12.899088">
                <ele>67.200000</ele>
                <time>2018-02-25T04:06:49Z</time>
            </trkpt>
            <trkpt lon="100.968771" lat="12.899127">
                <ele>67.000000</ele>
                <time>2018-02-25T04:06:50Z</time>
            </trkpt>
            <trkpt lon="100.968766" lat="12.899168">
                <ele>66.800000</ele>
                <time>2018-02-25T04:06:51Z</time>
            </trkpt>
            <trkpt lon="100.968763" lat="12.899211">
                <ele>66.500000</ele>
                <time>2018-02-25T04:06:52Z</time>
            </trkpt>
            <trkpt lon="100.968768" lat="12.899252">
                <ele>66.500000</ele>
                <time>2018-02-25T04:06:53Z</time>
            </trkpt>
            <trkpt lon="100.968781" lat="12.899287">
                <ele>66.400000</ele>
                <time>2018-02-25T04:06:54Z</time>
            </trkpt>
            <trkpt lon="100.968807" lat="12.899310">
                <ele>66.300000</ele>
                <time>2018-02-25T04:06:55Z</time>
            </trkpt>
            <trkpt lon="100.968849" lat="12.899325">
                <ele>66.200000</ele>
                <time>2018-02-25T04:06:56Z</time>
            </trkpt>
            <trkpt lon="100.968898" lat="12.899333">
                <ele>65.900000</ele>
                <time>2018-02-25T04:06:57Z</time>
            </trkpt>
            <trkpt lon="100.968977" lat="12.899320">
                <ele>66.200000</ele>
                <time>2018-02-25T04:06:58Z</time>
            </trkpt>
            <trkpt lon="100.969023" lat="12.899339">
                <ele>66.200000</ele>
                <time>2018-02-25T04:06:59Z</time>
            </trkpt>
            <trkpt lon="100.969071" lat="12.899356">
                <ele>66.400000</ele>
                <time>2018-02-25T04:07:00Z</time>
            </trkpt>
            <trkpt lon="100.969119" lat="12.899383">
                <ele>66.400000</ele>
                <time>2018-02-25T04:07:01Z</time>
            </trkpt>
            <trkpt lon="100.969135" lat="12.899430">
                <ele>66.300000</ele>
                <time>2018-02-25T04:07:02Z</time>
            </trkpt>
            <trkpt lon="100.969139" lat="12.899486">
                <ele>66.200000</ele>
                <time>2018-02-25T04:07:03Z</time>
            </trkpt>
            <trkpt lon="100.969147" lat="12.899526">
                <ele>66.000000</ele>
                <time>2018-02-25T04:07:04Z</time>
            </trkpt>
            <trkpt lon="100.969180" lat="12.899571">
                <ele>66.100000</ele>
                <time>2018-02-25T04:07:05Z</time>
            </trkpt>
            <trkpt lon="100.969204" lat="12.899619">
                <ele>65.900000</ele>
                <time>2018-02-25T04:07:06Z</time>
            </trkpt>
            <trkpt lon="100.969205" lat="12.899679">
                <ele>65.700000</ele>
                <time>2018-02-25T04:07:07Z</time>
            </trkpt>
            <trkpt lon="100.969194" lat="12.899719">
                <ele>65.400000</ele>
                <time>2018-02-25T04:07:08Z</time>
            </trkpt>
            <trkpt lon="100.969174" lat="12.899745">
                <ele>65.400000</ele>
                <time>2018-02-25T04:07:09Z</time>
            </trkpt>
            <trkpt lon="100.969137" lat="12.899765">
                <ele>65.500000</ele>
                <time>2018-02-25T04:07:10Z</time>
            </trkpt>
            <trkpt lon="100.969101" lat="12.899767">
                <ele>65.500000</ele>
                <time>2018-02-25T04:07:11Z</time>
            </trkpt>
            <trkpt lon="100.969070" lat="12.899776">
                <ele>65.500000</ele>
                <time>2018-02-25T04:07:12Z</time>
            </trkpt>
            <trkpt lon="100.969036" lat="12.899811">
                <ele>65.800000</ele>
                <time>2018-02-25T04:07:14Z</time>
            </trkpt>
            <trkpt lon="100.969043" lat="12.899846">
                <ele>66.000000</ele>
                <time>2018-02-25T04:07:15Z</time>
            </trkpt>
            <trkpt lon="100.969053" lat="12.899882">
                <ele>66.300000</ele>
                <time>2018-02-25T04:07:16Z</time>
            </trkpt>
            <trkpt lon="100.969038" lat="12.899924">
                <ele>66.500000</ele>
                <time>2018-02-25T04:07:17Z</time>
            </trkpt>
            <trkpt lon="100.969030" lat="12.899965">
                <ele>66.600000</ele>
                <time>2018-02-25T04:07:18Z</time>
            </trkpt>
            <trkpt lon="100.969026" lat="12.900004">
                <ele>66.700000</ele>
                <time>2018-02-25T04:07:19Z</time>
            </trkpt>
            <trkpt lon="100.969028" lat="12.900033">
                <ele>66.700000</ele>
                <time>2018-02-25T04:07:20Z</time>
            </trkpt>
            <trkpt lon="100.969036" lat="12.900064">
                <ele>67.100000</ele>
                <time>2018-02-25T04:07:21Z</time>
            </trkpt>
            <trkpt lon="100.969053" lat="12.900102">
                <ele>67.200000</ele>
                <time>2018-02-25T04:07:22Z</time>
            </trkpt>
            <trkpt lon="100.969066" lat="12.900140">
                <ele>67.200000</ele>
                <time>2018-02-25T04:07:23Z</time>
            </trkpt>
            <trkpt lon="100.969071" lat="12.900177">
                <ele>67.200000</ele>
                <time>2018-02-25T04:07:24Z</time>
            </trkpt>
            <trkpt lon="100.969059" lat="12.900210">
                <ele>67.200000</ele>
                <time>2018-02-25T04:07:25Z</time>
            </trkpt>
            <trkpt lon="100.969031" lat="12.900232">
                <ele>66.900000</ele>
                <time>2018-02-25T04:07:26Z</time>
            </trkpt>
            <trkpt lon="100.968990" lat="12.900235">
                <ele>66.700000</ele>
                <time>2018-02-25T04:07:27Z</time>
            </trkpt>
            <trkpt lon="100.968943" lat="12.900224">
                <ele>66.400000</ele>
                <time>2018-02-25T04:07:28Z</time>
            </trkpt>
            <trkpt lon="100.968900" lat="12.900201">
                <ele>66.100000</ele>
                <time>2018-02-25T04:07:29Z</time>
            </trkpt>
            <trkpt lon="100.968862" lat="12.900177">
                <ele>66.100000</ele>
                <time>2018-02-25T04:07:30Z</time>
            </trkpt>
            <trkpt lon="100.968829" lat="12.900148">
                <ele>65.900000</ele>
                <time>2018-02-25T04:07:31Z</time>
            </trkpt>
            <trkpt lon="100.968797" lat="12.900117">
                <ele>65.600000</ele>
                <time>2018-02-25T04:07:32Z</time>
            </trkpt>
            <trkpt lon="100.968761" lat="12.900094">
                <ele>65.400000</ele>
                <time>2018-02-25T04:07:33Z</time>
            </trkpt>
            <trkpt lon="100.968726" lat="12.900083">
                <ele>65.100000</ele>
                <time>2018-02-25T04:07:34Z</time>
            </trkpt>
            <trkpt lon="100.968696" lat="12.900088">
                <ele>65.100000</ele>
                <time>2018-02-25T04:07:35Z</time>
            </trkpt>
            <trkpt lon="100.968672" lat="12.900106">
                <ele>64.900000</ele>
                <time>2018-02-25T04:07:36Z</time>
            </trkpt>
            <trkpt lon="100.968655" lat="12.900136">
                <ele>65.000000</ele>
                <time>2018-02-25T04:07:37Z</time>
            </trkpt>
            <trkpt lon="100.968647" lat="12.900173">
                <ele>65.000000</ele>
                <time>2018-02-25T04:07:38Z</time>
            </trkpt>
            <trkpt lon="100.968649" lat="12.900214">
                <ele>65.200000</ele>
                <time>2018-02-25T04:07:39Z</time>
            </trkpt>
            <trkpt lon="100.968662" lat="12.900251">
                <ele>65.400000</ele>
                <time>2018-02-25T04:07:40Z</time>
            </trkpt>
            <trkpt lon="100.968690" lat="12.900287">
                <ele>65.400000</ele>
                <time>2018-02-25T04:07:41Z</time>
            </trkpt>
            <trkpt lon="100.968723" lat="12.900327">
                <ele>65.600000</ele>
                <time>2018-02-25T04:07:42Z</time>
            </trkpt>
            <trkpt lon="100.968745" lat="12.900372">
                <ele>66.000000</ele>
                <time>2018-02-25T04:07:43Z</time>
            </trkpt>
            <trkpt lon="100.968747" lat="12.900421">
                <ele>66.600000</ele>
                <time>2018-02-25T04:07:44Z</time>
            </trkpt>
            <trkpt lon="100.968731" lat="12.900465">
                <ele>67.000000</ele>
                <time>2018-02-25T04:07:45Z</time>
            </trkpt>
            <trkpt lon="100.968683" lat="12.900533">
                <ele>67.600000</ele>
                <time>2018-02-25T04:07:47Z</time>
            </trkpt>
            <trkpt lon="100.968655" lat="12.900560">
                <ele>68.000000</ele>
                <time>2018-02-25T04:07:48Z</time>
            </trkpt>
            <trkpt lon="100.968613" lat="12.900575">
                <ele>68.000000</ele>
                <time>2018-02-25T04:07:49Z</time>
            </trkpt>
            <trkpt lon="100.968532" lat="12.900552">
                <ele>68.000000</ele>
                <time>2018-02-25T04:07:50Z</time>
            </trkpt>
            <trkpt lon="100.968487" lat="12.900570">
                <ele>68.000000</ele>
                <time>2018-02-25T04:07:51Z</time>
            </trkpt>
            <trkpt lon="100.968436" lat="12.900589">
                <ele>68.100000</ele>
                <time>2018-02-25T04:07:52Z</time>
            </trkpt>
            <trkpt lon="100.968381" lat="12.900599">
                <ele>68.200000</ele>
                <time>2018-02-25T04:07:54Z</time>
            </trkpt>
            <trkpt lon="100.968356" lat="12.900559">
                <ele>68.100000</ele>
                <time>2018-02-25T04:07:55Z</time>
            </trkpt>
            <trkpt lon="100.968325" lat="12.900537">
                <ele>68.100000</ele>
                <time>2018-02-25T04:07:56Z</time>
            </trkpt>
            <trkpt lon="100.968270" lat="12.900485">
                <ele>68.100000</ele>
                <time>2018-02-25T04:07:57Z</time>
            </trkpt>
            <trkpt lon="100.968240" lat="12.900463">
                <ele>68.400000</ele>
                <time>2018-02-25T04:07:58Z</time>
            </trkpt>
            <trkpt lon="100.968200" lat="12.900458">
                <ele>68.300000</ele>
                <time>2018-02-25T04:07:59Z</time>
            </trkpt>
            <trkpt lon="100.968158" lat="12.900468">
                <ele>68.800000</ele>
                <time>2018-02-25T04:08:00Z</time>
            </trkpt>
            <trkpt lon="100.968124" lat="12.900454">
                <ele>68.800000</ele>
                <time>2018-02-25T04:08:01Z</time>
            </trkpt>
            <trkpt lon="100.968102" lat="12.900433">
                <ele>68.800000</ele>
                <time>2018-02-25T04:08:02Z</time>
            </trkpt>
            <trkpt lon="100.968105" lat="12.900402">
                <ele>68.600000</ele>
                <time>2018-02-25T04:08:03Z</time>
            </trkpt>
            <trkpt lon="100.968102" lat="12.900362">
                <ele>68.300000</ele>
                <time>2018-02-25T04:08:04Z</time>
            </trkpt>
            <trkpt lon="100.968105" lat="12.900320">
                <ele>68.100000</ele>
                <time>2018-02-25T04:08:05Z</time>
            </trkpt>
            <trkpt lon="100.968158" lat="12.900290">
                <ele>67.600000</ele>
                <time>2018-02-25T04:08:07Z</time>
            </trkpt>
            <trkpt lon="100.968238" lat="12.900309">
                <ele>67.300000</ele>
                <time>2018-02-25T04:08:09Z</time>
            </trkpt>
            <trkpt lon="100.968294" lat="12.900307">
                <ele>67.000000</ele>
                <time>2018-02-25T04:08:10Z</time>
            </trkpt>
            <trkpt lon="100.968320" lat="12.900320">
                <ele>66.800000</ele>
                <time>2018-02-25T04:08:12Z</time>
            </trkpt>
            <trkpt lon="100.968353" lat="12.900305">
                <ele>66.500000</ele>
                <time>2018-02-25T04:08:13Z</time>
            </trkpt>
            <trkpt lon="100.968380" lat="12.900269">
                <ele>66.300000</ele>
                <time>2018-02-25T04:08:14Z</time>
            </trkpt>
            <trkpt lon="100.968410" lat="12.900243">
                <ele>65.800000</ele>
                <time>2018-02-25T04:08:15Z</time>
            </trkpt>
            <trkpt lon="100.968396" lat="12.900194">
                <ele>65.500000</ele>
                <time>2018-02-25T04:08:16Z</time>
            </trkpt>
            <trkpt lon="100.968400" lat="12.900158">
                <ele>65.300000</ele>
                <time>2018-02-25T04:08:17Z</time>
            </trkpt>
            <trkpt lon="100.968397" lat="12.900119">
                <ele>65.000000</ele>
                <time>2018-02-25T04:08:18Z</time>
            </trkpt>
            <trkpt lon="100.968398" lat="12.900069">
                <ele>64.800000</ele>
                <time>2018-02-25T04:08:19Z</time>
            </trkpt>
            <trkpt lon="100.968422" lat="12.900036">
                <ele>64.800000</ele>
                <time>2018-02-25T04:08:20Z</time>
            </trkpt>
            <trkpt lon="100.968414" lat="12.899993">
                <ele>64.800000</ele>
                <time>2018-02-25T04:08:21Z</time>
            </trkpt>
            <trkpt lon="100.968381" lat="12.899962">
                <ele>65.000000</ele>
                <time>2018-02-25T04:08:22Z</time>
            </trkpt>
            <trkpt lon="100.968362" lat="12.899929">
                <ele>65.000000</ele>
                <time>2018-02-25T04:08:23Z</time>
            </trkpt>
            <trkpt lon="100.968329" lat="12.899901">
                <ele>64.900000</ele>
                <time>2018-02-25T04:08:24Z</time>
            </trkpt>
            <trkpt lon="100.968303" lat="12.899872">
                <ele>64.900000</ele>
                <time>2018-02-25T04:08:25Z</time>
            </trkpt>
            <trkpt lon="100.968269" lat="12.899843">
                <ele>64.900000</ele>
                <time>2018-02-25T04:08:26Z</time>
            </trkpt>
            <trkpt lon="100.968237" lat="12.899819">
                <ele>64.900000</ele>
                <time>2018-02-25T04:08:27Z</time>
            </trkpt>
            <trkpt lon="100.968195" lat="12.899791">
                <ele>64.900000</ele>
                <time>2018-02-25T04:08:28Z</time>
            </trkpt>
            <trkpt lon="100.968156" lat="12.899782">
                <ele>64.900000</ele>
                <time>2018-02-25T04:08:29Z</time>
            </trkpt>
            <trkpt lon="100.968119" lat="12.899777">
                <ele>64.900000</ele>
                <time>2018-02-25T04:08:30Z</time>
            </trkpt>
            <trkpt lon="100.968084" lat="12.899776">
                <ele>64.900000</ele>
                <time>2018-02-25T04:08:31Z</time>
            </trkpt>
            <trkpt lon="100.968043" lat="12.899767">
                <ele>64.900000</ele>
                <time>2018-02-25T04:08:32Z</time>
            </trkpt>
            <trkpt lon="100.968001" lat="12.899795">
                <ele>64.900000</ele>
                <time>2018-02-25T04:08:33Z</time>
            </trkpt>
            <trkpt lon="100.967984" lat="12.899835">
                <ele>64.900000</ele>
                <time>2018-02-25T04:08:34Z</time>
            </trkpt>
            <trkpt lon="100.967965" lat="12.899870">
                <ele>64.900000</ele>
                <time>2018-02-25T04:08:35Z</time>
            </trkpt>
            <trkpt lon="100.967952" lat="12.899911">
                <ele>64.900000</ele>
                <time>2018-02-25T04:08:36Z</time>
            </trkpt>
            <trkpt lon="100.967944" lat="12.899953">
                <ele>65.200000</ele>
                <time>2018-02-25T04:08:37Z</time>
            </trkpt>
            <trkpt lon="100.967950" lat="12.899986">
                <ele>65.700000</ele>
                <time>2018-02-25T04:08:38Z</time>
            </trkpt>
            <trkpt lon="100.967961" lat="12.900019">
                <ele>66.200000</ele>
                <time>2018-02-25T04:08:39Z</time>
            </trkpt>
            <trkpt lon="100.967974" lat="12.900063">
                <ele>66.700000</ele>
                <time>2018-02-25T04:08:40Z</time>
            </trkpt>
            <trkpt lon="100.967959" lat="12.900106">
                <ele>67.100000</ele>
                <time>2018-02-25T04:08:41Z</time>
            </trkpt>
            <trkpt lon="100.967954" lat="12.900147">
                <ele>67.500000</ele>
                <time>2018-02-25T04:08:42Z</time>
            </trkpt>
            <trkpt lon="100.967955" lat="12.900192">
                <ele>67.900000</ele>
                <time>2018-02-25T04:08:43Z</time>
            </trkpt>
            <trkpt lon="100.967953" lat="12.900238">
                <ele>68.300000</ele>
                <time>2018-02-25T04:08:44Z</time>
            </trkpt>
            <trkpt lon="100.967935" lat="12.900284">
                <ele>68.700000</ele>
                <time>2018-02-25T04:08:45Z</time>
            </trkpt>
            <trkpt lon="100.967911" lat="12.900328">
                <ele>69.400000</ele>
                <time>2018-02-25T04:08:46Z</time>
            </trkpt>
            <trkpt lon="100.967890" lat="12.900365">
                <ele>69.900000</ele>
                <time>2018-02-25T04:08:47Z</time>
            </trkpt>
            <trkpt lon="100.967869" lat="12.900397">
                <ele>70.700000</ele>
                <time>2018-02-25T04:08:48Z</time>
            </trkpt>
            <trkpt lon="100.967844" lat="12.900428">
                <ele>71.000000</ele>
                <time>2018-02-25T04:08:49Z</time>
            </trkpt>
            <trkpt lon="100.967793" lat="12.900478">
                <ele>71.400000</ele>
                <time>2018-02-25T04:08:51Z</time>
            </trkpt>
            <trkpt lon="100.967765" lat="12.900515">
                <ele>71.600000</ele>
                <time>2018-02-25T04:08:52Z</time>
            </trkpt>
            <trkpt lon="100.967709" lat="12.900524">
                <ele>71.700000</ele>
                <time>2018-02-25T04:08:53Z</time>
            </trkpt>
            <trkpt lon="100.967671" lat="12.900551">
                <ele>71.800000</ele>
                <time>2018-02-25T04:08:54Z</time>
            </trkpt>
            <trkpt lon="100.967643" lat="12.900562">
                <ele>71.800000</ele>
                <time>2018-02-25T04:08:55Z</time>
            </trkpt>
            <trkpt lon="100.967603" lat="12.900587">
                <ele>71.700000</ele>
                <time>2018-02-25T04:08:56Z</time>
            </trkpt>
            <trkpt lon="100.967570" lat="12.900589">
                <ele>71.600000</ele>
                <time>2018-02-25T04:08:57Z</time>
            </trkpt>
            <trkpt lon="100.967535" lat="12.900577">
                <ele>71.700000</ele>
                <time>2018-02-25T04:08:58Z</time>
            </trkpt>
            <trkpt lon="100.967501" lat="12.900561">
                <ele>71.700000</ele>
                <time>2018-02-25T04:08:59Z</time>
            </trkpt>
            <trkpt lon="100.967464" lat="12.900542">
                <ele>71.700000</ele>
                <time>2018-02-25T04:09:00Z</time>
            </trkpt>
            <trkpt lon="100.967423" lat="12.900514">
                <ele>71.700000</ele>
                <time>2018-02-25T04:09:01Z</time>
            </trkpt>
            <trkpt lon="100.967382" lat="12.900491">
                <ele>71.700000</ele>
                <time>2018-02-25T04:09:02Z</time>
            </trkpt>
            <trkpt lon="100.967352" lat="12.900480">
                <ele>71.800000</ele>
                <time>2018-02-25T04:09:03Z</time>
            </trkpt>
            <trkpt lon="100.967319" lat="12.900467">
                <ele>71.800000</ele>
                <time>2018-02-25T04:09:04Z</time>
            </trkpt>
            <trkpt lon="100.967283" lat="12.900462">
                <ele>72.000000</ele>
                <time>2018-02-25T04:09:05Z</time>
            </trkpt>
            <trkpt lon="100.967242" lat="12.900467">
                <ele>72.300000</ele>
                <time>2018-02-25T04:09:06Z</time>
            </trkpt>
            <trkpt lon="100.967207" lat="12.900471">
                <ele>72.500000</ele>
                <time>2018-02-25T04:09:07Z</time>
            </trkpt>
            <trkpt lon="100.967179" lat="12.900492">
                <ele>72.700000</ele>
                <time>2018-02-25T04:09:08Z</time>
            </trkpt>
            <trkpt lon="100.967145" lat="12.900518">
                <ele>72.700000</ele>
                <time>2018-02-25T04:09:09Z</time>
            </trkpt>
            <trkpt lon="100.967116" lat="12.900540">
                <ele>72.700000</ele>
                <time>2018-02-25T04:09:10Z</time>
            </trkpt>
            <trkpt lon="100.967091" lat="12.900570">
                <ele>72.700000</ele>
                <time>2018-02-25T04:09:11Z</time>
            </trkpt>
            <trkpt lon="100.967084" lat="12.900600">
                <ele>72.700000</ele>
                <time>2018-02-25T04:09:12Z</time>
            </trkpt>
            <trkpt lon="100.967089" lat="12.900641">
                <ele>72.700000</ele>
                <time>2018-02-25T04:09:13Z</time>
            </trkpt>
            <trkpt lon="100.967108" lat="12.900672">
                <ele>72.600000</ele>
                <time>2018-02-25T04:09:14Z</time>
            </trkpt>
            <trkpt lon="100.967132" lat="12.900697">
                <ele>72.600000</ele>
                <time>2018-02-25T04:09:15Z</time>
            </trkpt>
            <trkpt lon="100.967159" lat="12.900719">
                <ele>72.600000</ele>
                <time>2018-02-25T04:09:16Z</time>
            </trkpt>
            <trkpt lon="100.967192" lat="12.900731">
                <ele>72.500000</ele>
                <time>2018-02-25T04:09:17Z</time>
            </trkpt>
            <trkpt lon="100.967230" lat="12.900738">
                <ele>72.500000</ele>
                <time>2018-02-25T04:09:18Z</time>
            </trkpt>
            <trkpt lon="100.967271" lat="12.900743">
                <ele>72.200000</ele>
                <time>2018-02-25T04:09:19Z</time>
            </trkpt>
            <trkpt lon="100.967313" lat="12.900744">
                <ele>71.900000</ele>
                <time>2018-02-25T04:09:20Z</time>
            </trkpt>
            <trkpt lon="100.967354" lat="12.900745">
                <ele>71.700000</ele>
                <time>2018-02-25T04:09:21Z</time>
            </trkpt>
            <trkpt lon="100.967394" lat="12.900741">
                <ele>71.500000</ele>
                <time>2018-02-25T04:09:22Z</time>
            </trkpt>
            <trkpt lon="100.967463" lat="12.900751">
                <ele>71.000000</ele>
                <time>2018-02-25T04:09:23Z</time>
            </trkpt>
            <trkpt lon="100.967512" lat="12.900764">
                <ele>70.700000</ele>
                <time>2018-02-25T04:09:24Z</time>
            </trkpt>
            <trkpt lon="100.967557" lat="12.900761">
                <ele>70.700000</ele>
                <time>2018-02-25T04:09:25Z</time>
            </trkpt>
            <trkpt lon="100.967607" lat="12.900760">
                <ele>71.000000</ele>
                <time>2018-02-25T04:09:26Z</time>
            </trkpt>
            <trkpt lon="100.967657" lat="12.900760">
                <ele>71.200000</ele>
                <time>2018-02-25T04:09:28Z</time>
            </trkpt>
            <trkpt lon="100.967694" lat="12.900769">
                <ele>71.500000</ele>
                <time>2018-02-25T04:09:29Z</time>
            </trkpt>
            <trkpt lon="100.967738" lat="12.900790">
                <ele>71.500000</ele>
                <time>2018-02-25T04:09:30Z</time>
            </trkpt>
            <trkpt lon="100.967752" lat="12.900831">
                <ele>71.400000</ele>
                <time>2018-02-25T04:09:31Z</time>
            </trkpt>
            <trkpt lon="100.967747" lat="12.900880">
                <ele>71.200000</ele>
                <time>2018-02-25T04:09:32Z</time>
            </trkpt>
            <trkpt lon="100.967757" lat="12.900923">
                <ele>71.000000</ele>
                <time>2018-02-25T04:09:33Z</time>
            </trkpt>
            <trkpt lon="100.967783" lat="12.900961">
                <ele>71.000000</ele>
                <time>2018-02-25T04:09:34Z</time>
            </trkpt>
            <trkpt lon="100.967826" lat="12.900981">
                <ele>70.700000</ele>
                <time>2018-02-25T04:09:35Z</time>
            </trkpt>
            <trkpt lon="100.967861" lat="12.901004">
                <ele>70.600000</ele>
                <time>2018-02-25T04:09:36Z</time>
            </trkpt>
            <trkpt lon="100.967898" lat="12.901020">
                <ele>70.200000</ele>
                <time>2018-02-25T04:09:37Z</time>
            </trkpt>
            <trkpt lon="100.967922" lat="12.901049">
                <ele>69.700000</ele>
                <time>2018-02-25T04:09:38Z</time>
            </trkpt>
            <trkpt lon="100.967951" lat="12.901076">
                <ele>69.700000</ele>
                <time>2018-02-25T04:09:39Z</time>
            </trkpt>
            <trkpt lon="100.967968" lat="12.901111">
                <ele>69.000000</ele>
                <time>2018-02-25T04:09:40Z</time>
            </trkpt>
            <trkpt lon="100.967976" lat="12.901153">
                <ele>68.800000</ele>
                <time>2018-02-25T04:09:41Z</time>
            </trkpt>
            <trkpt lon="100.967984" lat="12.901191">
                <ele>68.500000</ele>
                <time>2018-02-25T04:09:42Z</time>
            </trkpt>
            <trkpt lon="100.967995" lat="12.901234">
                <ele>68.300000</ele>
                <time>2018-02-25T04:09:43Z</time>
            </trkpt>
            <trkpt lon="100.968014" lat="12.901259">
                <ele>67.700000</ele>
                <time>2018-02-25T04:09:44Z</time>
            </trkpt>
            <trkpt lon="100.968079" lat="12.901277">
                <ele>67.300000</ele>
                <time>2018-02-25T04:09:46Z</time>
            </trkpt>
            <trkpt lon="100.968132" lat="12.901239">
                <ele>67.200000</ele>
                <time>2018-02-25T04:09:48Z</time>
            </trkpt>
            <trkpt lon="100.968129" lat="12.901191">
                <ele>67.400000</ele>
                <time>2018-02-25T04:09:49Z</time>
            </trkpt>
            <trkpt lon="100.968135" lat="12.901163">
                <ele>67.400000</ele>
                <time>2018-02-25T04:09:50Z</time>
            </trkpt>
            <trkpt lon="100.968140" lat="12.901128">
                <ele>67.600000</ele>
                <time>2018-02-25T04:09:51Z</time>
            </trkpt>
            <trkpt lon="100.968140" lat="12.901094">
                <ele>67.600000</ele>
                <time>2018-02-25T04:09:52Z</time>
            </trkpt>
            <trkpt lon="100.968145" lat="12.901051">
                <ele>67.800000</ele>
                <time>2018-02-25T04:09:53Z</time>
            </trkpt>
            <trkpt lon="100.968152" lat="12.901009">
                <ele>67.800000</ele>
                <time>2018-02-25T04:09:54Z</time>
            </trkpt>
            <trkpt lon="100.968171" lat="12.900973">
                <ele>67.800000</ele>
                <time>2018-02-25T04:09:55Z</time>
            </trkpt>
            <trkpt lon="100.968198" lat="12.900960">
                <ele>67.500000</ele>
                <time>2018-02-25T04:09:56Z</time>
            </trkpt>
            <trkpt lon="100.968253" lat="12.900951">
                <ele>67.400000</ele>
                <time>2018-02-25T04:09:57Z</time>
            </trkpt>
            <trkpt lon="100.968290" lat="12.900934">
                <ele>67.300000</ele>
                <time>2018-02-25T04:09:58Z</time>
            </trkpt>
            <trkpt lon="100.968336" lat="12.900905">
                <ele>67.400000</ele>
                <time>2018-02-25T04:09:59Z</time>
            </trkpt>
            <trkpt lon="100.968352" lat="12.900864">
                <ele>67.400000</ele>
                <time>2018-02-25T04:10:00Z</time>
            </trkpt>
            <trkpt lon="100.968374" lat="12.900832">
                <ele>67.400000</ele>
                <time>2018-02-25T04:10:01Z</time>
            </trkpt>
            <trkpt lon="100.968389" lat="12.900784">
                <ele>67.400000</ele>
                <time>2018-02-25T04:10:02Z</time>
            </trkpt>
            <trkpt lon="100.968407" lat="12.900741">
                <ele>67.400000</ele>
                <time>2018-02-25T04:10:03Z</time>
            </trkpt>
            <trkpt lon="100.968438" lat="12.900713">
                <ele>67.400000</ele>
                <time>2018-02-25T04:10:04Z</time>
            </trkpt>
            <trkpt lon="100.968471" lat="12.900693">
                <ele>67.300000</ele>
                <time>2018-02-25T04:10:05Z</time>
            </trkpt>
            <trkpt lon="100.968522" lat="12.900671">
                <ele>67.300000</ele>
                <time>2018-02-25T04:10:06Z</time>
            </trkpt>
            <trkpt lon="100.968567" lat="12.900656">
                <ele>67.300000</ele>
                <time>2018-02-25T04:10:07Z</time>
            </trkpt>
            <trkpt lon="100.968599" lat="12.900675">
                <ele>67.200000</ele>
                <time>2018-02-25T04:10:08Z</time>
            </trkpt>
            <trkpt lon="100.968656" lat="12.900692">
                <ele>66.900000</ele>
                <time>2018-02-25T04:10:09Z</time>
            </trkpt>
            <trkpt lon="100.968704" lat="12.900706">
                <ele>66.700000</ele>
                <time>2018-02-25T04:10:10Z</time>
            </trkpt>
            <trkpt lon="100.968746" lat="12.900706">
                <ele>66.600000</ele>
                <time>2018-02-25T04:10:11Z</time>
            </trkpt>
            <trkpt lon="100.968793" lat="12.900705">
                <ele>66.500000</ele>
                <time>2018-02-25T04:10:12Z</time>
            </trkpt>
            <trkpt lon="100.968842" lat="12.900716">
                <ele>66.300000</ele>
                <time>2018-02-25T04:10:13Z</time>
            </trkpt>
            <trkpt lon="100.968882" lat="12.900734">
                <ele>66.300000</ele>
                <time>2018-02-25T04:10:14Z</time>
            </trkpt>
            <trkpt lon="100.968919" lat="12.900775">
                <ele>66.400000</ele>
                <time>2018-02-25T04:10:15Z</time>
            </trkpt>
            <trkpt lon="100.968938" lat="12.900815">
                <ele>66.400000</ele>
                <time>2018-02-25T04:10:16Z</time>
            </trkpt>
            <trkpt lon="100.968973" lat="12.900855">
                <ele>66.700000</ele>
                <time>2018-02-25T04:10:17Z</time>
            </trkpt>
            <trkpt lon="100.968995" lat="12.900889">
                <ele>66.900000</ele>
                <time>2018-02-25T04:10:18Z</time>
            </trkpt>
            <trkpt lon="100.968987" lat="12.900927">
                <ele>66.600000</ele>
                <time>2018-02-25T04:10:19Z</time>
            </trkpt>
            <trkpt lon="100.968977" lat="12.900980">
                <ele>66.600000</ele>
                <time>2018-02-25T04:10:20Z</time>
            </trkpt>
            <trkpt lon="100.968962" lat="12.901021">
                <ele>66.600000</ele>
                <time>2018-02-25T04:10:21Z</time>
            </trkpt>
            <trkpt lon="100.968929" lat="12.901053">
                <ele>66.400000</ele>
                <time>2018-02-25T04:10:22Z</time>
            </trkpt>
            <trkpt lon="100.968890" lat="12.901068">
                <ele>66.100000</ele>
                <time>2018-02-25T04:10:23Z</time>
            </trkpt>
            <trkpt lon="100.968833" lat="12.901041">
                <ele>65.900000</ele>
                <time>2018-02-25T04:10:24Z</time>
            </trkpt>
            <trkpt lon="100.968799" lat="12.901027">
                <ele>65.600000</ele>
                <time>2018-02-25T04:10:25Z</time>
            </trkpt>
            <trkpt lon="100.968763" lat="12.901008">
                <ele>65.400000</ele>
                <time>2018-02-25T04:10:26Z</time>
            </trkpt>
            <trkpt lon="100.968731" lat="12.900996">
                <ele>65.300000</ele>
                <time>2018-02-25T04:10:27Z</time>
            </trkpt>
            <trkpt lon="100.968694" lat="12.900980">
                <ele>65.300000</ele>
                <time>2018-02-25T04:10:28Z</time>
            </trkpt>
            <trkpt lon="100.968658" lat="12.900968">
                <ele>65.400000</ele>
                <time>2018-02-25T04:10:29Z</time>
            </trkpt>
            <trkpt lon="100.968617" lat="12.900953">
                <ele>65.700000</ele>
                <time>2018-02-25T04:10:30Z</time>
            </trkpt>
            <trkpt lon="100.968587" lat="12.900947">
                <ele>65.900000</ele>
                <time>2018-02-25T04:10:31Z</time>
            </trkpt>
            <trkpt lon="100.968555" lat="12.900973">
                <ele>65.900000</ele>
                <time>2018-02-25T04:10:32Z</time>
            </trkpt>
            <trkpt lon="100.968522" lat="12.900999">
                <ele>65.900000</ele>
                <time>2018-02-25T04:10:33Z</time>
            </trkpt>
            <trkpt lon="100.968491" lat="12.901026">
                <ele>65.900000</ele>
                <time>2018-02-25T04:10:34Z</time>
            </trkpt>
            <trkpt lon="100.968469" lat="12.901064">
                <ele>65.900000</ele>
                <time>2018-02-25T04:10:35Z</time>
            </trkpt>
            <trkpt lon="100.968448" lat="12.901106">
                <ele>65.700000</ele>
                <time>2018-02-25T04:10:36Z</time>
            </trkpt>
            <trkpt lon="100.968421" lat="12.901132">
                <ele>65.700000</ele>
                <time>2018-02-25T04:10:37Z</time>
            </trkpt>
            <trkpt lon="100.968387" lat="12.901151">
                <ele>65.900000</ele>
                <time>2018-02-25T04:10:38Z</time>
            </trkpt>
            <trkpt lon="100.968359" lat="12.901173">
                <ele>65.600000</ele>
                <time>2018-02-25T04:10:39Z</time>
            </trkpt>
            <trkpt lon="100.968334" lat="12.901154">
                <ele>66.100000</ele>
                <time>2018-02-25T04:10:40Z</time>
            </trkpt>
            <trkpt lon="100.968316" lat="12.901189">
                <ele>65.800000</ele>
                <time>2018-02-25T04:10:41Z</time>
            </trkpt>
            <trkpt lon="100.968303" lat="12.901229">
                <ele>65.800000</ele>
                <time>2018-02-25T04:10:42Z</time>
            </trkpt>
            <trkpt lon="100.968290" lat="12.901266">
                <ele>65.700000</ele>
                <time>2018-02-25T04:10:43Z</time>
            </trkpt>
            <trkpt lon="100.968275" lat="12.901304">
                <ele>65.700000</ele>
                <time>2018-02-25T04:10:44Z</time>
            </trkpt>
            <trkpt lon="100.968261" lat="12.901336">
                <ele>65.700000</ele>
                <time>2018-02-25T04:10:45Z</time>
            </trkpt>
            <trkpt lon="100.968243" lat="12.901371">
                <ele>65.900000</ele>
                <time>2018-02-25T04:10:46Z</time>
            </trkpt>
            <trkpt lon="100.968223" lat="12.901407">
                <ele>65.900000</ele>
                <time>2018-02-25T04:10:47Z</time>
            </trkpt>
            <trkpt lon="100.968202" lat="12.901440">
                <ele>66.200000</ele>
                <time>2018-02-25T04:10:48Z</time>
            </trkpt>
            <trkpt lon="100.968180" lat="12.901473">
                <ele>66.200000</ele>
                <time>2018-02-25T04:10:49Z</time>
            </trkpt>
            <trkpt lon="100.968157" lat="12.901506">
                <ele>66.600000</ele>
                <time>2018-02-25T04:10:50Z</time>
            </trkpt>
            <trkpt lon="100.968140" lat="12.901537">
                <ele>66.600000</ele>
                <time>2018-02-25T04:10:51Z</time>
            </trkpt>
            <trkpt lon="100.968132" lat="12.901568">
                <ele>67.200000</ele>
                <time>2018-02-25T04:10:52Z</time>
            </trkpt>
            <trkpt lon="100.968128" lat="12.901605">
                <ele>67.300000</ele>
                <time>2018-02-25T04:10:53Z</time>
            </trkpt>
            <trkpt lon="100.968122" lat="12.901645">
                <ele>67.400000</ele>
                <time>2018-02-25T04:10:54Z</time>
            </trkpt>
            <trkpt lon="100.968115" lat="12.901676">
                <ele>67.500000</ele>
                <time>2018-02-25T04:10:55Z</time>
            </trkpt>
            <trkpt lon="100.968095" lat="12.901700">
                <ele>67.500000</ele>
                <time>2018-02-25T04:10:56Z</time>
            </trkpt>
            <trkpt lon="100.968065" lat="12.901713">
                <ele>67.800000</ele>
                <time>2018-02-25T04:10:57Z</time>
            </trkpt>
            <trkpt lon="100.968033" lat="12.901705">
                <ele>68.200000</ele>
                <time>2018-02-25T04:10:58Z</time>
            </trkpt>
            <trkpt lon="100.968002" lat="12.901683">
                <ele>68.700000</ele>
                <time>2018-02-25T04:10:59Z</time>
            </trkpt>
            <trkpt lon="100.967974" lat="12.901658">
                <ele>68.700000</ele>
                <time>2018-02-25T04:11:00Z</time>
            </trkpt>
            <trkpt lon="100.967943" lat="12.901647">
                <ele>69.200000</ele>
                <time>2018-02-25T04:11:01Z</time>
            </trkpt>
            <trkpt lon="100.967910" lat="12.901656">
                <ele>69.700000</ele>
                <time>2018-02-25T04:11:02Z</time>
            </trkpt>
            <trkpt lon="100.967880" lat="12.901681">
                <ele>69.700000</ele>
                <time>2018-02-25T04:11:03Z</time>
            </trkpt>
            <trkpt lon="100.967856" lat="12.901709">
                <ele>70.000000</ele>
                <time>2018-02-25T04:11:04Z</time>
            </trkpt>
            <trkpt lon="100.967832" lat="12.901728">
                <ele>70.000000</ele>
                <time>2018-02-25T04:11:05Z</time>
            </trkpt>
            <trkpt lon="100.967804" lat="12.901739">
                <ele>70.000000</ele>
                <time>2018-02-25T04:11:06Z</time>
            </trkpt>
            <trkpt lon="100.967749" lat="12.901747">
                <ele>70.000000</ele>
                <time>2018-02-25T04:11:08Z</time>
            </trkpt>
            <trkpt lon="100.967713" lat="12.901742">
                <ele>70.000000</ele>
                <time>2018-02-25T04:11:09Z</time>
            </trkpt>
            <trkpt lon="100.967678" lat="12.901731">
                <ele>69.900000</ele>
                <time>2018-02-25T04:11:10Z</time>
            </trkpt>
            <trkpt lon="100.967643" lat="12.901714">
                <ele>69.600000</ele>
                <time>2018-02-25T04:11:11Z</time>
            </trkpt>
            <trkpt lon="100.967606" lat="12.901699">
                <ele>69.300000</ele>
                <time>2018-02-25T04:11:12Z</time>
            </trkpt>
            <trkpt lon="100.967569" lat="12.901689">
                <ele>69.100000</ele>
                <time>2018-02-25T04:11:13Z</time>
            </trkpt>
            <trkpt lon="100.967530" lat="12.901685">
                <ele>68.900000</ele>
                <time>2018-02-25T04:11:14Z</time>
            </trkpt>
            <trkpt lon="100.967489" lat="12.901686">
                <ele>68.900000</ele>
                <time>2018-02-25T04:11:15Z</time>
            </trkpt>
            <trkpt lon="100.967451" lat="12.901686">
                <ele>68.900000</ele>
                <time>2018-02-25T04:11:16Z</time>
            </trkpt>
            <trkpt lon="100.967417" lat="12.901691">
                <ele>68.900000</ele>
                <time>2018-02-25T04:11:17Z</time>
            </trkpt>
            <trkpt lon="100.967388" lat="12.901702">
                <ele>68.900000</ele>
                <time>2018-02-25T04:11:18Z</time>
            </trkpt>
            <trkpt lon="100.967359" lat="12.901724">
                <ele>69.000000</ele>
                <time>2018-02-25T04:11:19Z</time>
            </trkpt>
            <trkpt lon="100.967335" lat="12.901778">
                <ele>68.800000</ele>
                <time>2018-02-25T04:11:20Z</time>
            </trkpt>
            <trkpt lon="100.967332" lat="12.901820">
                <ele>68.600000</ele>
                <time>2018-02-25T04:11:21Z</time>
            </trkpt>
            <trkpt lon="100.967315" lat="12.901852">
                <ele>68.600000</ele>
                <time>2018-02-25T04:11:22Z</time>
            </trkpt>
            <trkpt lon="100.967292" lat="12.901876">
                <ele>68.600000</ele>
                <time>2018-02-25T04:11:23Z</time>
            </trkpt>
            <trkpt lon="100.967263" lat="12.901873">
                <ele>68.800000</ele>
                <time>2018-02-25T04:11:24Z</time>
            </trkpt>
            <trkpt lon="100.967230" lat="12.901865">
                <ele>69.100000</ele>
                <time>2018-02-25T04:11:25Z</time>
            </trkpt>
            <trkpt lon="100.967196" lat="12.901862">
                <ele>69.100000</ele>
                <time>2018-02-25T04:11:26Z</time>
            </trkpt>
            <trkpt lon="100.967159" lat="12.901850">
                <ele>69.200000</ele>
                <time>2018-02-25T04:11:27Z</time>
            </trkpt>
            <trkpt lon="100.967126" lat="12.901840">
                <ele>69.200000</ele>
                <time>2018-02-25T04:11:28Z</time>
            </trkpt>
            <trkpt lon="100.967090" lat="12.901831">
                <ele>69.400000</ele>
                <time>2018-02-25T04:11:29Z</time>
            </trkpt>
            <trkpt lon="100.967050" lat="12.901837">
                <ele>69.400000</ele>
                <time>2018-02-25T04:11:30Z</time>
            </trkpt>
            <trkpt lon="100.967016" lat="12.901842">
                <ele>69.100000</ele>
                <time>2018-02-25T04:11:31Z</time>
            </trkpt>
            <trkpt lon="100.966977" lat="12.901854">
                <ele>69.100000</ele>
                <time>2018-02-25T04:11:32Z</time>
            </trkpt>
            <trkpt lon="100.966936" lat="12.901869">
                <ele>68.900000</ele>
                <time>2018-02-25T04:11:33Z</time>
            </trkpt>
            <trkpt lon="100.966899" lat="12.901880">
                <ele>68.700000</ele>
                <time>2018-02-25T04:11:34Z</time>
            </trkpt>
            <trkpt lon="100.966862" lat="12.901876">
                <ele>68.600000</ele>
                <time>2018-02-25T04:11:35Z</time>
            </trkpt>
            <trkpt lon="100.966830" lat="12.901851">
                <ele>68.300000</ele>
                <time>2018-02-25T04:11:36Z</time>
            </trkpt>
            <trkpt lon="100.966813" lat="12.901817">
                <ele>68.100000</ele>
                <time>2018-02-25T04:11:37Z</time>
            </trkpt>
            <trkpt lon="100.966803" lat="12.901783">
                <ele>67.800000</ele>
                <time>2018-02-25T04:11:38Z</time>
            </trkpt>
            <trkpt lon="100.966788" lat="12.901749">
                <ele>67.400000</ele>
                <time>2018-02-25T04:11:39Z</time>
            </trkpt>
            <trkpt lon="100.966765" lat="12.901718">
                <ele>67.400000</ele>
                <time>2018-02-25T04:11:40Z</time>
            </trkpt>
            <trkpt lon="100.966732" lat="12.901692">
                <ele>67.200000</ele>
                <time>2018-02-25T04:11:41Z</time>
            </trkpt>
            <trkpt lon="100.966697" lat="12.901677">
                <ele>66.900000</ele>
                <time>2018-02-25T04:11:42Z</time>
            </trkpt>
            <trkpt lon="100.966661" lat="12.901677">
                <ele>66.700000</ele>
                <time>2018-02-25T04:11:43Z</time>
            </trkpt>
            <trkpt lon="100.966625" lat="12.901694">
                <ele>66.400000</ele>
                <time>2018-02-25T04:11:44Z</time>
            </trkpt>
            <trkpt lon="100.966593" lat="12.901725">
                <ele>66.400000</ele>
                <time>2018-02-25T04:11:45Z</time>
            </trkpt>
            <trkpt lon="100.966567" lat="12.901763">
                <ele>66.300000</ele>
                <time>2018-02-25T04:11:46Z</time>
            </trkpt>
            <trkpt lon="100.966549" lat="12.901797">
                <ele>66.300000</ele>
                <time>2018-02-25T04:11:47Z</time>
            </trkpt>
            <trkpt lon="100.966533" lat="12.901832">
                <ele>66.300000</ele>
                <time>2018-02-25T04:11:48Z</time>
            </trkpt>
            <trkpt lon="100.966512" lat="12.901862">
                <ele>66.500000</ele>
                <time>2018-02-25T04:11:49Z</time>
            </trkpt>
            <trkpt lon="100.966485" lat="12.901885">
                <ele>66.600000</ele>
                <time>2018-02-25T04:11:50Z</time>
            </trkpt>
            <trkpt lon="100.966449" lat="12.901901">
                <ele>66.600000</ele>
                <time>2018-02-25T04:11:51Z</time>
            </trkpt>
            <trkpt lon="100.966407" lat="12.901912">
                <ele>66.600000</ele>
                <time>2018-02-25T04:11:52Z</time>
            </trkpt>
            <trkpt lon="100.966362" lat="12.901919">
                <ele>66.600000</ele>
                <time>2018-02-25T04:11:53Z</time>
            </trkpt>
            <trkpt lon="100.966321" lat="12.901929">
                <ele>66.700000</ele>
                <time>2018-02-25T04:11:54Z</time>
            </trkpt>
            <trkpt lon="100.966283" lat="12.901947">
                <ele>66.700000</ele>
                <time>2018-02-25T04:11:55Z</time>
            </trkpt>
            <trkpt lon="100.966246" lat="12.901974">
                <ele>66.700000</ele>
                <time>2018-02-25T04:11:56Z</time>
            </trkpt>
            <trkpt lon="100.966208" lat="12.902011">
                <ele>66.700000</ele>
                <time>2018-02-25T04:11:57Z</time>
            </trkpt>
            <trkpt lon="100.966163" lat="12.902027">
                <ele>66.700000</ele>
                <time>2018-02-25T04:11:58Z</time>
            </trkpt>
            <trkpt lon="100.966114" lat="12.902046">
                <ele>66.900000</ele>
                <time>2018-02-25T04:11:59Z</time>
            </trkpt>
            <trkpt lon="100.966068" lat="12.902055">
                <ele>67.200000</ele>
                <time>2018-02-25T04:12:00Z</time>
            </trkpt>
            <trkpt lon="100.966026" lat="12.902074">
                <ele>67.400000</ele>
                <time>2018-02-25T04:12:01Z</time>
            </trkpt>
            <trkpt lon="100.965986" lat="12.902096">
                <ele>67.500000</ele>
                <time>2018-02-25T04:12:02Z</time>
            </trkpt>
            <trkpt lon="100.965956" lat="12.902134">
                <ele>67.200000</ele>
                <time>2018-02-25T04:12:03Z</time>
            </trkpt>
            <trkpt lon="100.965938" lat="12.902174">
                <ele>67.200000</ele>
                <time>2018-02-25T04:12:04Z</time>
            </trkpt>
            <trkpt lon="100.965917" lat="12.902194">
                <ele>67.000000</ele>
                <time>2018-02-25T04:12:05Z</time>
            </trkpt>
            <trkpt lon="100.965900" lat="12.902237">
                <ele>66.700000</ele>
                <time>2018-02-25T04:12:06Z</time>
            </trkpt>
            <trkpt lon="100.965874" lat="12.902273">
                <ele>66.300000</ele>
                <time>2018-02-25T04:12:07Z</time>
            </trkpt>
            <trkpt lon="100.965849" lat="12.902306">
                <ele>65.800000</ele>
                <time>2018-02-25T04:12:08Z</time>
            </trkpt>
            <trkpt lon="100.965825" lat="12.902338">
                <ele>65.800000</ele>
                <time>2018-02-25T04:12:09Z</time>
            </trkpt>
            <trkpt lon="100.965800" lat="12.902364">
                <ele>65.300000</ele>
                <time>2018-02-25T04:12:10Z</time>
            </trkpt>
            <trkpt lon="100.965780" lat="12.902398">
                <ele>64.800000</ele>
                <time>2018-02-25T04:12:11Z</time>
            </trkpt>
            <trkpt lon="100.965767" lat="12.902437">
                <ele>64.600000</ele>
                <time>2018-02-25T04:12:12Z</time>
            </trkpt>
            <trkpt lon="100.965768" lat="12.902475">
                <ele>64.600000</ele>
                <time>2018-02-25T04:12:13Z</time>
            </trkpt>
            <trkpt lon="100.965768" lat="12.902503">
                <ele>64.600000</ele>
                <time>2018-02-25T04:12:14Z</time>
            </trkpt>
            <trkpt lon="100.965778" lat="12.902542">
                <ele>64.500000</ele>
                <time>2018-02-25T04:12:15Z</time>
            </trkpt>
            <trkpt lon="100.965777" lat="12.902570">
                <ele>64.500000</ele>
                <time>2018-02-25T04:12:16Z</time>
            </trkpt>
            <trkpt lon="100.965796" lat="12.902606">
                <ele>64.500000</ele>
                <time>2018-02-25T04:12:17Z</time>
            </trkpt>
            <trkpt lon="100.965820" lat="12.902643">
                <ele>64.500000</ele>
                <time>2018-02-25T04:12:18Z</time>
            </trkpt>
            <trkpt lon="100.965843" lat="12.902677">
                <ele>64.500000</ele>
                <time>2018-02-25T04:12:19Z</time>
            </trkpt>
            <trkpt lon="100.965867" lat="12.902705">
                <ele>64.500000</ele>
                <time>2018-02-25T04:12:20Z</time>
            </trkpt>
            <trkpt lon="100.965939" lat="12.902681">
                <ele>64.500000</ele>
                <time>2018-02-25T04:12:21Z</time>
            </trkpt>
            <trkpt lon="100.966016" lat="12.902676">
                <ele>64.500000</ele>
                <time>2018-02-25T04:12:22Z</time>
            </trkpt>
            <trkpt lon="100.966067" lat="12.902685">
                <ele>64.500000</ele>
                <time>2018-02-25T04:12:23Z</time>
            </trkpt>
            <trkpt lon="100.966108" lat="12.902699">
                <ele>64.500000</ele>
                <time>2018-02-25T04:12:24Z</time>
            </trkpt>
            <trkpt lon="100.966121" lat="12.902729">
                <ele>64.500000</ele>
                <time>2018-02-25T04:12:25Z</time>
            </trkpt>
            <trkpt lon="100.966159" lat="12.902753">
                <ele>64.700000</ele>
                <time>2018-02-25T04:12:26Z</time>
            </trkpt>
            <trkpt lon="100.966186" lat="12.902776">
                <ele>64.800000</ele>
                <time>2018-02-25T04:12:27Z</time>
            </trkpt>
            <trkpt lon="100.966211" lat="12.902817">
                <ele>65.100000</ele>
                <time>2018-02-25T04:12:28Z</time>
            </trkpt>
            <trkpt lon="100.966236" lat="12.902844">
                <ele>65.200000</ele>
                <time>2018-02-25T04:12:29Z</time>
            </trkpt>
            <trkpt lon="100.966258" lat="12.902878">
                <ele>65.300000</ele>
                <time>2018-02-25T04:12:30Z</time>
            </trkpt>
            <trkpt lon="100.966252" lat="12.902925">
                <ele>65.400000</ele>
                <time>2018-02-25T04:12:31Z</time>
            </trkpt>
            <trkpt lon="100.966228" lat="12.902964">
                <ele>65.500000</ele>
                <time>2018-02-25T04:12:32Z</time>
            </trkpt>
            <trkpt lon="100.966195" lat="12.903004">
                <ele>65.500000</ele>
                <time>2018-02-25T04:12:33Z</time>
            </trkpt>
            <trkpt lon="100.966157" lat="12.903032">
                <ele>65.400000</ele>
                <time>2018-02-25T04:12:34Z</time>
            </trkpt>
            <trkpt lon="100.966120" lat="12.903051">
                <ele>65.400000</ele>
                <time>2018-02-25T04:12:35Z</time>
            </trkpt>
            <trkpt lon="100.966075" lat="12.903035">
                <ele>65.300000</ele>
                <time>2018-02-25T04:12:36Z</time>
            </trkpt>
            <trkpt lon="100.966030" lat="12.903039">
                <ele>65.200000</ele>
                <time>2018-02-25T04:12:37Z</time>
            </trkpt>
            <trkpt lon="100.965990" lat="12.903050">
                <ele>65.100000</ele>
                <time>2018-02-25T04:12:38Z</time>
            </trkpt>
            <trkpt lon="100.965949" lat="12.903066">
                <ele>65.300000</ele>
                <time>2018-02-25T04:12:39Z</time>
            </trkpt>
            <trkpt lon="100.965924" lat="12.903097">
                <ele>65.400000</ele>
                <time>2018-02-25T04:12:40Z</time>
            </trkpt>
            <trkpt lon="100.965907" lat="12.903133">
                <ele>65.400000</ele>
                <time>2018-02-25T04:12:41Z</time>
            </trkpt>
            <trkpt lon="100.965894" lat="12.903178">
                <ele>65.400000</ele>
                <time>2018-02-25T04:12:42Z</time>
            </trkpt>
            <trkpt lon="100.965900" lat="12.903214">
                <ele>65.400000</ele>
                <time>2018-02-25T04:12:43Z</time>
            </trkpt>
            <trkpt lon="100.965883" lat="12.903255">
                <ele>65.400000</ele>
                <time>2018-02-25T04:12:44Z</time>
            </trkpt>
            <trkpt lon="100.965877" lat="12.903302">
                <ele>65.400000</ele>
                <time>2018-02-25T04:12:45Z</time>
            </trkpt>
            <trkpt lon="100.965860" lat="12.903349">
                <ele>65.400000</ele>
                <time>2018-02-25T04:12:46Z</time>
            </trkpt>
            <trkpt lon="100.965822" lat="12.903376">
                <ele>65.400000</ele>
                <time>2018-02-25T04:12:47Z</time>
            </trkpt>
            <trkpt lon="100.965774" lat="12.903391">
                <ele>65.300000</ele>
                <time>2018-02-25T04:12:48Z</time>
            </trkpt>
            <trkpt lon="100.965723" lat="12.903400">
                <ele>65.300000</ele>
                <time>2018-02-25T04:12:49Z</time>
            </trkpt>
            <trkpt lon="100.965672" lat="12.903416">
                <ele>65.300000</ele>
                <time>2018-02-25T04:12:50Z</time>
            </trkpt>
            <trkpt lon="100.965625" lat="12.903428">
                <ele>65.300000</ele>
                <time>2018-02-25T04:12:51Z</time>
            </trkpt>
            <trkpt lon="100.965577" lat="12.903441">
                <ele>65.200000</ele>
                <time>2018-02-25T04:12:52Z</time>
            </trkpt>
            <trkpt lon="100.965531" lat="12.903442">
                <ele>65.200000</ele>
                <time>2018-02-25T04:12:53Z</time>
            </trkpt>
            <trkpt lon="100.965486" lat="12.903438">
                <ele>65.200000</ele>
                <time>2018-02-25T04:12:54Z</time>
            </trkpt>
            <trkpt lon="100.965435" lat="12.903439">
                <ele>65.100000</ele>
                <time>2018-02-25T04:12:55Z</time>
            </trkpt>
            <trkpt lon="100.965394" lat="12.903440">
                <ele>64.900000</ele>
                <time>2018-02-25T04:12:56Z</time>
            </trkpt>
            <trkpt lon="100.965344" lat="12.903443">
                <ele>64.600000</ele>
                <time>2018-02-25T04:12:57Z</time>
            </trkpt>
            <trkpt lon="100.965289" lat="12.903446">
                <ele>64.100000</ele>
                <time>2018-02-25T04:12:58Z</time>
            </trkpt>
            <trkpt lon="100.965233" lat="12.903453">
                <ele>63.800000</ele>
                <time>2018-02-25T04:12:59Z</time>
            </trkpt>
            <trkpt lon="100.965193" lat="12.903444">
                <ele>63.600000</ele>
                <time>2018-02-25T04:13:00Z</time>
            </trkpt>
            <trkpt lon="100.965161" lat="12.903470">
                <ele>63.300000</ele>
                <time>2018-02-25T04:13:01Z</time>
            </trkpt>
            <trkpt lon="100.965131" lat="12.903509">
                <ele>63.100000</ele>
                <time>2018-02-25T04:13:02Z</time>
            </trkpt>
            <trkpt lon="100.965081" lat="12.903547">
                <ele>62.500000</ele>
                <time>2018-02-25T04:13:03Z</time>
            </trkpt>
            <trkpt lon="100.965019" lat="12.903546">
                <ele>62.400000</ele>
                <time>2018-02-25T04:13:04Z</time>
            </trkpt>
            <trkpt lon="100.964964" lat="12.903541">
                <ele>62.300000</ele>
                <time>2018-02-25T04:13:05Z</time>
            </trkpt>
            <trkpt lon="100.964916" lat="12.903525">
                <ele>62.200000</ele>
                <time>2018-02-25T04:13:06Z</time>
            </trkpt>
            <trkpt lon="100.964876" lat="12.903508">
                <ele>62.000000</ele>
                <time>2018-02-25T04:13:07Z</time>
            </trkpt>
            <trkpt lon="100.964833" lat="12.903503">
                <ele>61.900000</ele>
                <time>2018-02-25T04:13:08Z</time>
            </trkpt>
            <trkpt lon="100.964785" lat="12.903503">
                <ele>61.700000</ele>
                <time>2018-02-25T04:13:09Z</time>
            </trkpt>
            <trkpt lon="100.964742" lat="12.903510">
                <ele>61.600000</ele>
                <time>2018-02-25T04:13:10Z</time>
            </trkpt>
            <trkpt lon="100.964717" lat="12.903548">
                <ele>61.900000</ele>
                <time>2018-02-25T04:13:11Z</time>
            </trkpt>
            <trkpt lon="100.964711" lat="12.903586">
                <ele>62.100000</ele>
                <time>2018-02-25T04:13:12Z</time>
            </trkpt>
            <trkpt lon="100.964710" lat="12.903626">
                <ele>62.200000</ele>
                <time>2018-02-25T04:13:13Z</time>
            </trkpt>
            <trkpt lon="100.964688" lat="12.903673">
                <ele>62.400000</ele>
                <time>2018-02-25T04:13:14Z</time>
            </trkpt>
            <trkpt lon="100.964648" lat="12.903691">
                <ele>62.700000</ele>
                <time>2018-02-25T04:13:15Z</time>
            </trkpt>
            <trkpt lon="100.964598" lat="12.903703">
                <ele>62.800000</ele>
                <time>2018-02-25T04:13:16Z</time>
            </trkpt>
            <trkpt lon="100.964568" lat="12.903729">
                <ele>63.300000</ele>
                <time>2018-02-25T04:13:17Z</time>
            </trkpt>
            <trkpt lon="100.964554" lat="12.903754">
                <ele>63.300000</ele>
                <time>2018-02-25T04:13:18Z</time>
            </trkpt>
            <trkpt lon="100.964548" lat="12.903799">
                <ele>63.500000</ele>
                <time>2018-02-25T04:13:19Z</time>
            </trkpt>
            <trkpt lon="100.964550" lat="12.903839">
                <ele>63.700000</ele>
                <time>2018-02-25T04:13:20Z</time>
            </trkpt>
            <trkpt lon="100.964554" lat="12.903876">
                <ele>63.900000</ele>
                <time>2018-02-25T04:13:21Z</time>
            </trkpt>
            <trkpt lon="100.964559" lat="12.903911">
                <ele>64.000000</ele>
                <time>2018-02-25T04:13:22Z</time>
            </trkpt>
            <trkpt lon="100.964560" lat="12.903952">
                <ele>64.100000</ele>
                <time>2018-02-25T04:13:23Z</time>
            </trkpt>
            <trkpt lon="100.964560" lat="12.903988">
                <ele>64.100000</ele>
                <time>2018-02-25T04:13:24Z</time>
            </trkpt>
            <trkpt lon="100.964570" lat="12.904020">
                <ele>64.100000</ele>
                <time>2018-02-25T04:13:25Z</time>
            </trkpt>
            <trkpt lon="100.964599" lat="12.904052">
                <ele>64.100000</ele>
                <time>2018-02-25T04:13:26Z</time>
            </trkpt>
            <trkpt lon="100.964679" lat="12.904041">
                <ele>63.700000</ele>
                <time>2018-02-25T04:13:27Z</time>
            </trkpt>
            <trkpt lon="100.964715" lat="12.904049">
                <ele>63.400000</ele>
                <time>2018-02-25T04:13:28Z</time>
            </trkpt>
            <trkpt lon="100.964755" lat="12.904055">
                <ele>63.100000</ele>
                <time>2018-02-25T04:13:29Z</time>
            </trkpt>
            <trkpt lon="100.964794" lat="12.904059">
                <ele>62.900000</ele>
                <time>2018-02-25T04:13:30Z</time>
            </trkpt>
            <trkpt lon="100.964839" lat="12.904068">
                <ele>62.600000</ele>
                <time>2018-02-25T04:13:31Z</time>
            </trkpt>
            <trkpt lon="100.964880" lat="12.904072">
                <ele>62.400000</ele>
                <time>2018-02-25T04:13:32Z</time>
            </trkpt>
            <trkpt lon="100.964926" lat="12.904087">
                <ele>62.100000</ele>
                <time>2018-02-25T04:13:33Z</time>
            </trkpt>
            <trkpt lon="100.964960" lat="12.904087">
                <ele>62.100000</ele>
                <time>2018-02-25T04:13:34Z</time>
            </trkpt>
            <trkpt lon="100.964987" lat="12.904078">
                <ele>62.100000</ele>
                <time>2018-02-25T04:13:35Z</time>
            </trkpt>
            <trkpt lon="100.965018" lat="12.904065">
                <ele>62.000000</ele>
                <time>2018-02-25T04:13:36Z</time>
            </trkpt>
            <trkpt lon="100.965047" lat="12.904043">
                <ele>62.000000</ele>
                <time>2018-02-25T04:13:37Z</time>
            </trkpt>
            <trkpt lon="100.965085" lat="12.904027">
                <ele>62.000000</ele>
                <time>2018-02-25T04:13:38Z</time>
            </trkpt>
            <trkpt lon="100.965124" lat="12.904018">
                <ele>62.000000</ele>
                <time>2018-02-25T04:13:39Z</time>
            </trkpt>
            <trkpt lon="100.965162" lat="12.904013">
                <ele>62.000000</ele>
                <time>2018-02-25T04:13:40Z</time>
            </trkpt>
            <trkpt lon="100.965204" lat="12.904009">
                <ele>62.000000</ele>
                <time>2018-02-25T04:13:41Z</time>
            </trkpt>
            <trkpt lon="100.965258" lat="12.904021">
                <ele>62.000000</ele>
                <time>2018-02-25T04:13:42Z</time>
            </trkpt>
            <trkpt lon="100.965307" lat="12.904032">
                <ele>62.100000</ele>
                <time>2018-02-25T04:13:43Z</time>
            </trkpt>
            <trkpt lon="100.965370" lat="12.904039">
                <ele>62.300000</ele>
                <time>2018-02-25T04:13:44Z</time>
            </trkpt>
            <trkpt lon="100.965397" lat="12.904064">
                <ele>62.600000</ele>
                <time>2018-02-25T04:13:45Z</time>
            </trkpt>
            <trkpt lon="100.965435" lat="12.904077">
                <ele>62.800000</ele>
                <time>2018-02-25T04:13:46Z</time>
            </trkpt>
            <trkpt lon="100.965472" lat="12.904097">
                <ele>63.100000</ele>
                <time>2018-02-25T04:13:47Z</time>
            </trkpt>
            <trkpt lon="100.965511" lat="12.904097">
                <ele>63.000000</ele>
                <time>2018-02-25T04:13:48Z</time>
            </trkpt>
            <trkpt lon="100.965551" lat="12.904090">
                <ele>63.300000</ele>
                <time>2018-02-25T04:13:49Z</time>
            </trkpt>
            <trkpt lon="100.965592" lat="12.904074">
                <ele>63.600000</ele>
                <time>2018-02-25T04:13:50Z</time>
            </trkpt>
            <trkpt lon="100.965623" lat="12.904061">
                <ele>63.900000</ele>
                <time>2018-02-25T04:13:51Z</time>
            </trkpt>
            <trkpt lon="100.965639" lat="12.904035">
                <ele>63.900000</ele>
                <time>2018-02-25T04:13:52Z</time>
            </trkpt>
            <trkpt lon="100.965609" lat="12.903979">
                <ele>63.800000</ele>
                <time>2018-02-25T04:13:54Z</time>
            </trkpt>
            <trkpt lon="100.965558" lat="12.903978">
                <ele>63.400000</ele>
                <time>2018-02-25T04:13:56Z</time>
            </trkpt>
            <trkpt lon="100.965513" lat="12.903982">
                <ele>62.600000</ele>
                <time>2018-02-25T04:13:57Z</time>
            </trkpt>
            <trkpt lon="100.965475" lat="12.903969">
                <ele>62.400000</ele>
                <time>2018-02-25T04:13:58Z</time>
            </trkpt>
            <trkpt lon="100.965442" lat="12.903943">
                <ele>62.000000</ele>
                <time>2018-02-25T04:13:59Z</time>
            </trkpt>
            <trkpt lon="100.965414" lat="12.903909">
                <ele>62.000000</ele>
                <time>2018-02-25T04:14:00Z</time>
            </trkpt>
            <trkpt lon="100.965387" lat="12.903884">
                <ele>62.200000</ele>
                <time>2018-02-25T04:14:01Z</time>
            </trkpt>
            <trkpt lon="100.965377" lat="12.903843">
                <ele>62.200000</ele>
                <time>2018-02-25T04:14:02Z</time>
            </trkpt>
            <trkpt lon="100.965375" lat="12.903805">
                <ele>62.300000</ele>
                <time>2018-02-25T04:14:03Z</time>
            </trkpt>
            <trkpt lon="100.965389" lat="12.903772">
                <ele>62.500000</ele>
                <time>2018-02-25T04:14:04Z</time>
            </trkpt>
            <trkpt lon="100.965404" lat="12.903734">
                <ele>62.700000</ele>
                <time>2018-02-25T04:14:05Z</time>
            </trkpt>
            <trkpt lon="100.965440" lat="12.903700">
                <ele>63.200000</ele>
                <time>2018-02-25T04:14:06Z</time>
            </trkpt>
            <trkpt lon="100.965477" lat="12.903646">
                <ele>63.600000</ele>
                <time>2018-02-25T04:14:08Z</time>
            </trkpt>
            <trkpt lon="100.965502" lat="12.903622">
                <ele>63.800000</ele>
                <time>2018-02-25T04:14:09Z</time>
            </trkpt>
            <trkpt lon="100.965526" lat="12.903595">
                <ele>64.000000</ele>
                <time>2018-02-25T04:14:10Z</time>
            </trkpt>
            <trkpt lon="100.965573" lat="12.903588">
                <ele>64.000000</ele>
                <time>2018-02-25T04:14:11Z</time>
            </trkpt>
            <trkpt lon="100.965607" lat="12.903590">
                <ele>64.000000</ele>
                <time>2018-02-25T04:14:12Z</time>
            </trkpt>
            <trkpt lon="100.965645" lat="12.903594">
                <ele>64.100000</ele>
                <time>2018-02-25T04:14:13Z</time>
            </trkpt>
            <trkpt lon="100.965683" lat="12.903626">
                <ele>64.000000</ele>
                <time>2018-02-25T04:14:14Z</time>
            </trkpt>
            <trkpt lon="100.965714" lat="12.903648">
                <ele>64.300000</ele>
                <time>2018-02-25T04:14:15Z</time>
            </trkpt>
            <trkpt lon="100.965747" lat="12.903682">
                <ele>64.500000</ele>
                <time>2018-02-25T04:14:16Z</time>
            </trkpt>
            <trkpt lon="100.965775" lat="12.903715">
                <ele>64.700000</ele>
                <time>2018-02-25T04:14:17Z</time>
            </trkpt>
            <trkpt lon="100.965778" lat="12.903759">
                <ele>64.700000</ele>
                <time>2018-02-25T04:14:18Z</time>
            </trkpt>
            <trkpt lon="100.965808" lat="12.903789">
                <ele>64.700000</ele>
                <time>2018-02-25T04:14:19Z</time>
            </trkpt>
            <trkpt lon="100.965815" lat="12.903835">
                <ele>64.800000</ele>
                <time>2018-02-25T04:14:20Z</time>
            </trkpt>
            <trkpt lon="100.965829" lat="12.903876">
                <ele>64.800000</ele>
                <time>2018-02-25T04:14:21Z</time>
            </trkpt>
            <trkpt lon="100.965858" lat="12.903912">
                <ele>64.800000</ele>
                <time>2018-02-25T04:14:22Z</time>
            </trkpt>
            <trkpt lon="100.965879" lat="12.903948">
                <ele>64.800000</ele>
                <time>2018-02-25T04:14:23Z</time>
            </trkpt>
            <trkpt lon="100.965885" lat="12.903984">
                <ele>64.900000</ele>
                <time>2018-02-25T04:14:24Z</time>
            </trkpt>
            <trkpt lon="100.965849" lat="12.904027">
                <ele>64.900000</ele>
                <time>2018-02-25T04:14:25Z</time>
            </trkpt>
            <trkpt lon="100.965806" lat="12.904061">
                <ele>64.700000</ele>
                <time>2018-02-25T04:14:26Z</time>
            </trkpt>
            <trkpt lon="100.965761" lat="12.904080">
                <ele>64.400000</ele>
                <time>2018-02-25T04:14:27Z</time>
            </trkpt>
            <trkpt lon="100.965724" lat="12.904086">
                <ele>64.200000</ele>
                <time>2018-02-25T04:14:28Z</time>
            </trkpt>
            <trkpt lon="100.965683" lat="12.904105">
                <ele>63.900000</ele>
                <time>2018-02-25T04:14:29Z</time>
            </trkpt>
            <trkpt lon="100.965669" lat="12.904155">
                <ele>63.900000</ele>
                <time>2018-02-25T04:14:30Z</time>
            </trkpt>
            <trkpt lon="100.965642" lat="12.904200">
                <ele>63.700000</ele>
                <time>2018-02-25T04:14:31Z</time>
            </trkpt>
            <trkpt lon="100.965616" lat="12.904244">
                <ele>63.700000</ele>
                <time>2018-02-25T04:14:32Z</time>
            </trkpt>
            <trkpt lon="100.965586" lat="12.904277">
                <ele>63.400000</ele>
                <time>2018-02-25T04:14:33Z</time>
            </trkpt>
            <trkpt lon="100.965531" lat="12.904294">
                <ele>63.100000</ele>
                <time>2018-02-25T04:14:34Z</time>
            </trkpt>
            <trkpt lon="100.965482" lat="12.904300">
                <ele>62.800000</ele>
                <time>2018-02-25T04:14:35Z</time>
            </trkpt>
            <trkpt lon="100.965435" lat="12.904304">
                <ele>62.500000</ele>
                <time>2018-02-25T04:14:36Z</time>
            </trkpt>
            <trkpt lon="100.965400" lat="12.904299">
                <ele>62.300000</ele>
                <time>2018-02-25T04:14:37Z</time>
            </trkpt>
            <trkpt lon="100.965370" lat="12.904272">
                <ele>62.100000</ele>
                <time>2018-02-25T04:14:38Z</time>
            </trkpt>
            <trkpt lon="100.965339" lat="12.904221">
                <ele>61.900000</ele>
                <time>2018-02-25T04:14:39Z</time>
            </trkpt>
            <trkpt lon="100.965318" lat="12.904194">
                <ele>61.900000</ele>
                <time>2018-02-25T04:14:40Z</time>
            </trkpt>
            <trkpt lon="100.965283" lat="12.904158">
                <ele>61.700000</ele>
                <time>2018-02-25T04:14:41Z</time>
            </trkpt>
            <trkpt lon="100.965251" lat="12.904137">
                <ele>61.700000</ele>
                <time>2018-02-25T04:14:42Z</time>
            </trkpt>
            <trkpt lon="100.965207" lat="12.904126">
                <ele>61.700000</ele>
                <time>2018-02-25T04:14:43Z</time>
            </trkpt>
            <trkpt lon="100.965171" lat="12.904126">
                <ele>61.600000</ele>
                <time>2018-02-25T04:14:44Z</time>
            </trkpt>
            <trkpt lon="100.965139" lat="12.904138">
                <ele>61.600000</ele>
                <time>2018-02-25T04:14:45Z</time>
            </trkpt>
            <trkpt lon="100.965125" lat="12.904164">
                <ele>61.600000</ele>
                <time>2018-02-25T04:14:46Z</time>
            </trkpt>
            <trkpt lon="100.965091" lat="12.904193">
                <ele>61.600000</ele>
                <time>2018-02-25T04:14:47Z</time>
            </trkpt>
            <trkpt lon="100.965057" lat="12.904223">
                <ele>61.600000</ele>
                <time>2018-02-25T04:14:48Z</time>
            </trkpt>
            <trkpt lon="100.965014" lat="12.904227">
                <ele>61.600000</ele>
                <time>2018-02-25T04:14:49Z</time>
            </trkpt>
            <trkpt lon="100.964972" lat="12.904232">
                <ele>61.600000</ele>
                <time>2018-02-25T04:14:50Z</time>
            </trkpt>
            <trkpt lon="100.964921" lat="12.904235">
                <ele>61.700000</ele>
                <time>2018-02-25T04:14:51Z</time>
            </trkpt>
            <trkpt lon="100.964886" lat="12.904263">
                <ele>61.900000</ele>
                <time>2018-02-25T04:14:52Z</time>
            </trkpt>
            <trkpt lon="100.964844" lat="12.904280">
                <ele>62.200000</ele>
                <time>2018-02-25T04:14:53Z</time>
            </trkpt>
            <trkpt lon="100.964805" lat="12.904300">
                <ele>62.400000</ele>
                <time>2018-02-25T04:14:54Z</time>
            </trkpt>
            <trkpt lon="100.964781" lat="12.904336">
                <ele>62.600000</ele>
                <time>2018-02-25T04:14:55Z</time>
            </trkpt>
            <trkpt lon="100.964758" lat="12.904376">
                <ele>62.600000</ele>
                <time>2018-02-25T04:14:56Z</time>
            </trkpt>
            <trkpt lon="100.964732" lat="12.904405">
                <ele>62.600000</ele>
                <time>2018-02-25T04:14:57Z</time>
            </trkpt>
            <trkpt lon="100.964692" lat="12.904431">
                <ele>62.600000</ele>
                <time>2018-02-25T04:14:58Z</time>
            </trkpt>
            <trkpt lon="100.964664" lat="12.904471">
                <ele>62.600000</ele>
                <time>2018-02-25T04:14:59Z</time>
            </trkpt>
            <trkpt lon="100.964651" lat="12.904514">
                <ele>62.500000</ele>
                <time>2018-02-25T04:15:00Z</time>
            </trkpt>
            <trkpt lon="100.964643" lat="12.904566">
                <ele>62.500000</ele>
                <time>2018-02-25T04:15:01Z</time>
            </trkpt>
            <trkpt lon="100.964647" lat="12.904607">
                <ele>62.500000</ele>
                <time>2018-02-25T04:15:02Z</time>
            </trkpt>
            <trkpt lon="100.964648" lat="12.904645">
                <ele>62.200000</ele>
                <time>2018-02-25T04:15:03Z</time>
            </trkpt>
            <trkpt lon="100.964654" lat="12.904673">
                <ele>62.200000</ele>
                <time>2018-02-25T04:15:04Z</time>
            </trkpt>
            <trkpt lon="100.964667" lat="12.904699">
                <ele>62.200000</ele>
                <time>2018-02-25T04:15:05Z</time>
            </trkpt>
            <trkpt lon="100.964695" lat="12.904717">
                <ele>62.200000</ele>
                <time>2018-02-25T04:15:06Z</time>
            </trkpt>
            <trkpt lon="100.964730" lat="12.904733">
                <ele>62.200000</ele>
                <time>2018-02-25T04:15:07Z</time>
            </trkpt>
            <trkpt lon="100.964768" lat="12.904750">
                <ele>62.400000</ele>
                <time>2018-02-25T04:15:08Z</time>
            </trkpt>
            <trkpt lon="100.964808" lat="12.904770">
                <ele>62.500000</ele>
                <time>2018-02-25T04:15:09Z</time>
            </trkpt>
            <trkpt lon="100.964849" lat="12.904777">
                <ele>62.500000</ele>
                <time>2018-02-25T04:15:10Z</time>
            </trkpt>
            <trkpt lon="100.964891" lat="12.904776">
                <ele>62.500000</ele>
                <time>2018-02-25T04:15:11Z</time>
            </trkpt>
            <trkpt lon="100.964936" lat="12.904780">
                <ele>62.500000</ele>
                <time>2018-02-25T04:15:12Z</time>
            </trkpt>
            <trkpt lon="100.964977" lat="12.904774">
                <ele>62.500000</ele>
                <time>2018-02-25T04:15:13Z</time>
            </trkpt>
            <trkpt lon="100.965032" lat="12.904762">
                <ele>62.500000</ele>
                <time>2018-02-25T04:15:14Z</time>
            </trkpt>
            <trkpt lon="100.965086" lat="12.904775">
                <ele>62.500000</ele>
                <time>2018-02-25T04:15:15Z</time>
            </trkpt>
            <trkpt lon="100.965141" lat="12.904808">
                <ele>62.400000</ele>
                <time>2018-02-25T04:15:16Z</time>
            </trkpt>
            <trkpt lon="100.965174" lat="12.904837">
                <ele>62.300000</ele>
                <time>2018-02-25T04:15:17Z</time>
            </trkpt>
            <trkpt lon="100.965194" lat="12.904875">
                <ele>62.200000</ele>
                <time>2018-02-25T04:15:18Z</time>
            </trkpt>
            <trkpt lon="100.965228" lat="12.904903">
                <ele>61.800000</ele>
                <time>2018-02-25T04:15:19Z</time>
            </trkpt>
            <trkpt lon="100.965250" lat="12.904937">
                <ele>61.600000</ele>
                <time>2018-02-25T04:15:20Z</time>
            </trkpt>
            <trkpt lon="100.965282" lat="12.904962">
                <ele>61.400000</ele>
                <time>2018-02-25T04:15:21Z</time>
            </trkpt>
            <trkpt lon="100.965333" lat="12.904962">
                <ele>61.300000</ele>
                <time>2018-02-25T04:15:22Z</time>
            </trkpt>
            <trkpt lon="100.965392" lat="12.904969">
                <ele>61.300000</ele>
                <time>2018-02-25T04:15:23Z</time>
            </trkpt>
            <trkpt lon="100.965427" lat="12.904968">
                <ele>61.300000</ele>
                <time>2018-02-25T04:15:24Z</time>
            </trkpt>
            <trkpt lon="100.965471" lat="12.904968">
                <ele>61.300000</ele>
                <time>2018-02-25T04:15:25Z</time>
            </trkpt>
            <trkpt lon="100.965511" lat="12.904973">
                <ele>61.500000</ele>
                <time>2018-02-25T04:15:26Z</time>
            </trkpt>
            <trkpt lon="100.965551" lat="12.904981">
                <ele>61.500000</ele>
                <time>2018-02-25T04:15:27Z</time>
            </trkpt>
            <trkpt lon="100.965595" lat="12.904990">
                <ele>61.700000</ele>
                <time>2018-02-25T04:15:28Z</time>
            </trkpt>
            <trkpt lon="100.965638" lat="12.905004">
                <ele>62.000000</ele>
                <time>2018-02-25T04:15:29Z</time>
            </trkpt>
            <trkpt lon="100.965676" lat="12.905019">
                <ele>61.800000</ele>
                <time>2018-02-25T04:15:30Z</time>
            </trkpt>
            <trkpt lon="100.965721" lat="12.905034">
                <ele>61.800000</ele>
                <time>2018-02-25T04:15:31Z</time>
            </trkpt>
            <trkpt lon="100.965765" lat="12.905036">
                <ele>61.800000</ele>
                <time>2018-02-25T04:15:32Z</time>
            </trkpt>
            <trkpt lon="100.965813" lat="12.905054">
                <ele>61.700000</ele>
                <time>2018-02-25T04:15:33Z</time>
            </trkpt>
            <trkpt lon="100.965859" lat="12.905062">
                <ele>61.900000</ele>
                <time>2018-02-25T04:15:34Z</time>
            </trkpt>
            <trkpt lon="100.965890" lat="12.905086">
                <ele>61.900000</ele>
                <time>2018-02-25T04:15:35Z</time>
            </trkpt>
            <trkpt lon="100.965918" lat="12.905097">
                <ele>62.200000</ele>
                <time>2018-02-25T04:15:36Z</time>
            </trkpt>
            <trkpt lon="100.965953" lat="12.905112">
                <ele>62.200000</ele>
                <time>2018-02-25T04:15:37Z</time>
            </trkpt>
            <trkpt lon="100.966009" lat="12.905157">
                <ele>62.500000</ele>
                <time>2018-02-25T04:15:39Z</time>
            </trkpt>
            <trkpt lon="100.966041" lat="12.905177">
                <ele>62.900000</ele>
                <time>2018-02-25T04:15:40Z</time>
            </trkpt>
            <trkpt lon="100.966079" lat="12.905194">
                <ele>62.800000</ele>
                <time>2018-02-25T04:15:41Z</time>
            </trkpt>
            <trkpt lon="100.966126" lat="12.905191">
                <ele>63.000000</ele>
                <time>2018-02-25T04:15:42Z</time>
            </trkpt>
            <trkpt lon="100.966163" lat="12.905200">
                <ele>63.400000</ele>
                <time>2018-02-25T04:15:43Z</time>
            </trkpt>
            <trkpt lon="100.966194" lat="12.905220">
                <ele>63.400000</ele>
                <time>2018-02-25T04:15:44Z</time>
            </trkpt>
            <trkpt lon="100.966232" lat="12.905226">
                <ele>63.800000</ele>
                <time>2018-02-25T04:15:45Z</time>
            </trkpt>
            <trkpt lon="100.966273" lat="12.905225">
                <ele>64.200000</ele>
                <time>2018-02-25T04:15:46Z</time>
            </trkpt>
            <trkpt lon="100.966313" lat="12.905227">
                <ele>64.500000</ele>
                <time>2018-02-25T04:15:47Z</time>
            </trkpt>
            <trkpt lon="100.966359" lat="12.905219">
                <ele>64.800000</ele>
                <time>2018-02-25T04:15:48Z</time>
            </trkpt>
            <trkpt lon="100.966388" lat="12.905224">
                <ele>65.100000</ele>
                <time>2018-02-25T04:15:49Z</time>
            </trkpt>
            <trkpt lon="100.966430" lat="12.905222">
                <ele>65.300000</ele>
                <time>2018-02-25T04:15:50Z</time>
            </trkpt>
            <trkpt lon="100.966473" lat="12.905222">
                <ele>65.600000</ele>
                <time>2018-02-25T04:15:51Z</time>
            </trkpt>
            <trkpt lon="100.966518" lat="12.905215">
                <ele>65.800000</ele>
                <time>2018-02-25T04:15:52Z</time>
            </trkpt>
            <trkpt lon="100.966561" lat="12.905207">
                <ele>66.100000</ele>
                <time>2018-02-25T04:15:53Z</time>
            </trkpt>
            <trkpt lon="100.966603" lat="12.905206">
                <ele>66.300000</ele>
                <time>2018-02-25T04:15:54Z</time>
            </trkpt>
            <trkpt lon="100.966654" lat="12.905208">
                <ele>66.500000</ele>
                <time>2018-02-25T04:15:55Z</time>
            </trkpt>
            <trkpt lon="100.966682" lat="12.905205">
                <ele>66.900000</ele>
                <time>2018-02-25T04:15:56Z</time>
            </trkpt>
            <trkpt lon="100.966728" lat="12.905213">
                <ele>67.300000</ele>
                <time>2018-02-25T04:15:57Z</time>
            </trkpt>
            <trkpt lon="100.966780" lat="12.905216">
                <ele>67.700000</ele>
                <time>2018-02-25T04:15:58Z</time>
            </trkpt>
            <trkpt lon="100.966825" lat="12.905214">
                <ele>68.100000</ele>
                <time>2018-02-25T04:15:59Z</time>
            </trkpt>
            <trkpt lon="100.966871" lat="12.905212">
                <ele>68.200000</ele>
                <time>2018-02-25T04:16:00Z</time>
            </trkpt>
            <trkpt lon="100.966909" lat="12.905212">
                <ele>68.200000</ele>
                <time>2018-02-25T04:16:01Z</time>
            </trkpt>
            <trkpt lon="100.966956" lat="12.905218">
                <ele>68.200000</ele>
                <time>2018-02-25T04:16:02Z</time>
            </trkpt>
            <trkpt lon="100.966998" lat="12.905220">
                <ele>68.200000</ele>
                <time>2018-02-25T04:16:03Z</time>
            </trkpt>
            <trkpt lon="100.967032" lat="12.905216">
                <ele>68.100000</ele>
                <time>2018-02-25T04:16:04Z</time>
            </trkpt>
            <trkpt lon="100.967080" lat="12.905222">
                <ele>67.900000</ele>
                <time>2018-02-25T04:16:05Z</time>
            </trkpt>
            <trkpt lon="100.967120" lat="12.905221">
                <ele>67.800000</ele>
                <time>2018-02-25T04:16:06Z</time>
            </trkpt>
            <trkpt lon="100.967170" lat="12.905218">
                <ele>67.600000</ele>
                <time>2018-02-25T04:16:07Z</time>
            </trkpt>
            <trkpt lon="100.967220" lat="12.905212">
                <ele>67.400000</ele>
                <time>2018-02-25T04:16:08Z</time>
            </trkpt>
            <trkpt lon="100.967266" lat="12.905208">
                <ele>67.100000</ele>
                <time>2018-02-25T04:16:09Z</time>
            </trkpt>
            <trkpt lon="100.967310" lat="12.905205">
                <ele>66.900000</ele>
                <time>2018-02-25T04:16:10Z</time>
            </trkpt>
            <trkpt lon="100.967351" lat="12.905206">
                <ele>66.600000</ele>
                <time>2018-02-25T04:16:11Z</time>
            </trkpt>
            <trkpt lon="100.967392" lat="12.905210">
                <ele>66.500000</ele>
                <time>2018-02-25T04:16:12Z</time>
            </trkpt>
            <trkpt lon="100.967435" lat="12.905213">
                <ele>66.300000</ele>
                <time>2018-02-25T04:16:13Z</time>
            </trkpt>
            <trkpt lon="100.967474" lat="12.905217">
                <ele>66.200000</ele>
                <time>2018-02-25T04:16:14Z</time>
            </trkpt>
            <trkpt lon="100.967509" lat="12.905238">
                <ele>66.100000</ele>
                <time>2018-02-25T04:16:15Z</time>
            </trkpt>
            <trkpt lon="100.967547" lat="12.905231">
                <ele>66.200000</ele>
                <time>2018-02-25T04:16:16Z</time>
            </trkpt>
            <trkpt lon="100.967591" lat="12.905218">
                <ele>66.500000</ele>
                <time>2018-02-25T04:16:17Z</time>
            </trkpt>
            <trkpt lon="100.967636" lat="12.905226">
                <ele>66.700000</ele>
                <time>2018-02-25T04:16:18Z</time>
            </trkpt>
            <trkpt lon="100.967670" lat="12.905236">
                <ele>67.000000</ele>
                <time>2018-02-25T04:16:19Z</time>
            </trkpt>
            <trkpt lon="100.967718" lat="12.905233">
                <ele>67.100000</ele>
                <time>2018-02-25T04:16:20Z</time>
            </trkpt>
            <trkpt lon="100.967756" lat="12.905233">
                <ele>67.100000</ele>
                <time>2018-02-25T04:16:21Z</time>
            </trkpt>
            <trkpt lon="100.967799" lat="12.905232">
                <ele>67.100000</ele>
                <time>2018-02-25T04:16:22Z</time>
            </trkpt>
            <trkpt lon="100.967838" lat="12.905226">
                <ele>67.400000</ele>
                <time>2018-02-25T04:16:23Z</time>
            </trkpt>
            <trkpt lon="100.967879" lat="12.905227">
                <ele>67.700000</ele>
                <time>2018-02-25T04:16:24Z</time>
            </trkpt>
            <trkpt lon="100.967922" lat="12.905217">
                <ele>68.000000</ele>
                <time>2018-02-25T04:16:25Z</time>
            </trkpt>
            <trkpt lon="100.967968" lat="12.905217">
                <ele>68.300000</ele>
                <time>2018-02-25T04:16:26Z</time>
            </trkpt>
            <trkpt lon="100.968014" lat="12.905214">
                <ele>68.700000</ele>
                <time>2018-02-25T04:16:27Z</time>
            </trkpt>
            <trkpt lon="100.968060" lat="12.905209">
                <ele>68.900000</ele>
                <time>2018-02-25T04:16:28Z</time>
            </trkpt>
            <trkpt lon="100.968111" lat="12.905201">
                <ele>69.100000</ele>
                <time>2018-02-25T04:16:29Z</time>
            </trkpt>
            <trkpt lon="100.968151" lat="12.905212">
                <ele>69.200000</ele>
                <time>2018-02-25T04:16:30Z</time>
            </trkpt>
            <trkpt lon="100.968201" lat="12.905213">
                <ele>69.300000</ele>
                <time>2018-02-25T04:16:31Z</time>
            </trkpt>
            <trkpt lon="100.968250" lat="12.905218">
                <ele>69.400000</ele>
                <time>2018-02-25T04:16:32Z</time>
            </trkpt>
            <trkpt lon="100.968304" lat="12.905211">
                <ele>69.400000</ele>
                <time>2018-02-25T04:16:33Z</time>
            </trkpt>
            <trkpt lon="100.968341" lat="12.905221">
                <ele>69.400000</ele>
                <time>2018-02-25T04:16:34Z</time>
            </trkpt>
            <trkpt lon="100.968402" lat="12.905218">
                <ele>69.400000</ele>
                <time>2018-02-25T04:16:35Z</time>
            </trkpt>
            <trkpt lon="100.968447" lat="12.905212">
                <ele>69.400000</ele>
                <time>2018-02-25T04:16:36Z</time>
            </trkpt>
            <trkpt lon="100.968490" lat="12.905201">
                <ele>69.400000</ele>
                <time>2018-02-25T04:16:37Z</time>
            </trkpt>
            <trkpt lon="100.968539" lat="12.905202">
                <ele>69.400000</ele>
                <time>2018-02-25T04:16:38Z</time>
            </trkpt>
            <trkpt lon="100.968581" lat="12.905202">
                <ele>69.200000</ele>
                <time>2018-02-25T04:16:39Z</time>
            </trkpt>
            <trkpt lon="100.968628" lat="12.905192">
                <ele>68.900000</ele>
                <time>2018-02-25T04:16:40Z</time>
            </trkpt>
            <trkpt lon="100.968657" lat="12.905197">
                <ele>68.700000</ele>
                <time>2018-02-25T04:16:41Z</time>
            </trkpt>
            <trkpt lon="100.968691" lat="12.905202">
                <ele>68.400000</ele>
                <time>2018-02-25T04:16:42Z</time>
            </trkpt>
            <trkpt lon="100.968720" lat="12.905187">
                <ele>68.400000</ele>
                <time>2018-02-25T04:16:43Z</time>
            </trkpt>
            <trkpt lon="100.968753" lat="12.905163">
                <ele>68.600000</ele>
                <time>2018-02-25T04:16:44Z</time>
            </trkpt>
            <trkpt lon="100.968782" lat="12.905148">
                <ele>68.600000</ele>
                <time>2018-02-25T04:16:45Z</time>
            </trkpt>
            <trkpt lon="100.968816" lat="12.905113">
                <ele>68.800000</ele>
                <time>2018-02-25T04:16:46Z</time>
            </trkpt>
            <trkpt lon="100.968848" lat="12.905087">
                <ele>68.900000</ele>
                <time>2018-02-25T04:16:47Z</time>
            </trkpt>
            <trkpt lon="100.968892" lat="12.905056">
                <ele>68.900000</ele>
                <time>2018-02-25T04:16:48Z</time>
            </trkpt>
            <trkpt lon="100.968944" lat="12.905038">
                <ele>68.900000</ele>
                <time>2018-02-25T04:16:49Z</time>
            </trkpt>
            <trkpt lon="100.968987" lat="12.905016">
                <ele>69.100000</ele>
                <time>2018-02-25T04:16:50Z</time>
            </trkpt>
            <trkpt lon="100.969029" lat="12.905001">
                <ele>69.300000</ele>
                <time>2018-02-25T04:16:51Z</time>
            </trkpt>
            <trkpt lon="100.969072" lat="12.904986">
                <ele>69.400000</ele>
                <time>2018-02-25T04:16:52Z</time>
            </trkpt>
            <trkpt lon="100.969101" lat="12.904971">
                <ele>69.900000</ele>
                <time>2018-02-25T04:16:53Z</time>
            </trkpt>
            <trkpt lon="100.969138" lat="12.904957">
                <ele>70.100000</ele>
                <time>2018-02-25T04:16:54Z</time>
            </trkpt>
            <trkpt lon="100.969184" lat="12.904944">
                <ele>70.400000</ele>
                <time>2018-02-25T04:16:55Z</time>
            </trkpt>
            <trkpt lon="100.969232" lat="12.904936">
                <ele>70.600000</ele>
                <time>2018-02-25T04:16:56Z</time>
            </trkpt>
            <trkpt lon="100.969274" lat="12.904918">
                <ele>70.700000</ele>
                <time>2018-02-25T04:16:57Z</time>
            </trkpt>
            <trkpt lon="100.969318" lat="12.904903">
                <ele>70.700000</ele>
                <time>2018-02-25T04:16:58Z</time>
            </trkpt>
            <trkpt lon="100.969359" lat="12.904880">
                <ele>70.700000</ele>
                <time>2018-02-25T04:16:59Z</time>
            </trkpt>
            <trkpt lon="100.969398" lat="12.904882">
                <ele>70.700000</ele>
                <time>2018-02-25T04:17:00Z</time>
            </trkpt>
            <trkpt lon="100.969462" lat="12.904889">
                <ele>70.700000</ele>
                <time>2018-02-25T04:17:02Z</time>
            </trkpt>
            <trkpt lon="100.969487" lat="12.904903">
                <ele>70.800000</ele>
                <time>2018-02-25T04:17:03Z</time>
            </trkpt>
            <trkpt lon="100.969523" lat="12.904916">
                <ele>70.800000</ele>
                <time>2018-02-25T04:17:05Z</time>
            </trkpt>
            <trkpt lon="100.969551" lat="12.904933">
                <ele>70.800000</ele>
                <time>2018-02-25T04:17:06Z</time>
            </trkpt>
            <trkpt lon="100.969563" lat="12.904976">
                <ele>70.900000</ele>
                <time>2018-02-25T04:17:08Z</time>
            </trkpt>
            <trkpt lon="100.969581" lat="12.905006">
                <ele>70.900000</ele>
                <time>2018-02-25T04:17:09Z</time>
            </trkpt>
            <trkpt lon="100.969596" lat="12.905038">
                <ele>70.900000</ele>
                <time>2018-02-25T04:17:10Z</time>
            </trkpt>
            <trkpt lon="100.969611" lat="12.905068">
                <ele>71.000000</ele>
                <time>2018-02-25T04:17:11Z</time>
            </trkpt>
            <trkpt lon="100.969628" lat="12.905099">
                <ele>71.000000</ele>
                <time>2018-02-25T04:17:12Z</time>
            </trkpt>
            <trkpt lon="100.969643" lat="12.905132">
                <ele>71.000000</ele>
                <time>2018-02-25T04:17:13Z</time>
            </trkpt>
            <trkpt lon="100.969657" lat="12.905165">
                <ele>71.100000</ele>
                <time>2018-02-25T04:17:14Z</time>
            </trkpt>
            <trkpt lon="100.969672" lat="12.905201">
                <ele>71.100000</ele>
                <time>2018-02-25T04:17:15Z</time>
            </trkpt>
            <trkpt lon="100.969686" lat="12.905234">
                <ele>71.100000</ele>
                <time>2018-02-25T04:17:16Z</time>
            </trkpt>
            <trkpt lon="100.969700" lat="12.905265">
                <ele>71.200000</ele>
                <time>2018-02-25T04:17:17Z</time>
            </trkpt>
            <trkpt lon="100.969715" lat="12.905298">
                <ele>71.200000</ele>
                <time>2018-02-25T04:17:18Z</time>
            </trkpt>
            <trkpt lon="100.969728" lat="12.905329">
                <ele>71.200000</ele>
                <time>2018-02-25T04:17:19Z</time>
            </trkpt>
            <trkpt lon="100.969742" lat="12.905358">
                <ele>71.300000</ele>
                <time>2018-02-25T04:17:20Z</time>
            </trkpt>
            <trkpt lon="100.969758" lat="12.905386">
                <ele>71.300000</ele>
                <time>2018-02-25T04:17:21Z</time>
            </trkpt>
            <trkpt lon="100.969773" lat="12.905416">
                <ele>71.300000</ele>
                <time>2018-02-25T04:17:22Z</time>
            </trkpt>
            <trkpt lon="100.969791" lat="12.905450">
                <ele>71.400000</ele>
                <time>2018-02-25T04:17:23Z</time>
            </trkpt>
            <trkpt lon="100.969808" lat="12.905486">
                <ele>71.400000</ele>
                <time>2018-02-25T04:17:24Z</time>
            </trkpt>
            <trkpt lon="100.969820" lat="12.905522">
                <ele>71.500000</ele>
                <time>2018-02-25T04:17:25Z</time>
            </trkpt>
            <trkpt lon="100.969829" lat="12.905560">
                <ele>71.500000</ele>
                <time>2018-02-25T04:17:26Z</time>
            </trkpt>
            <trkpt lon="100.969832" lat="12.905599">
                <ele>71.600000</ele>
                <time>2018-02-25T04:17:27Z</time>
            </trkpt>
            <trkpt lon="100.969833" lat="12.905637">
                <ele>71.600000</ele>
                <time>2018-02-25T04:17:28Z</time>
            </trkpt>
            <trkpt lon="100.969834" lat="12.905674">
                <ele>71.700000</ele>
                <time>2018-02-25T04:17:29Z</time>
            </trkpt>
            <trkpt lon="100.969831" lat="12.905711">
                <ele>71.800000</ele>
                <time>2018-02-25T04:17:30Z</time>
            </trkpt>
            <trkpt lon="100.969828" lat="12.905749">
                <ele>71.800000</ele>
                <time>2018-02-25T04:17:31Z</time>
            </trkpt>
            <trkpt lon="100.969824" lat="12.905786">
                <ele>71.800000</ele>
                <time>2018-02-25T04:17:32Z</time>
            </trkpt>
            <trkpt lon="100.969820" lat="12.905822">
                <ele>71.900000</ele>
                <time>2018-02-25T04:17:33Z</time>
            </trkpt>
            <trkpt lon="100.969817" lat="12.905860">
                <ele>71.900000</ele>
                <time>2018-02-25T04:17:34Z</time>
            </trkpt>
            <trkpt lon="100.969813" lat="12.905897">
                <ele>71.900000</ele>
                <time>2018-02-25T04:17:35Z</time>
            </trkpt>
            <trkpt lon="100.969807" lat="12.905934">
                <ele>71.900000</ele>
                <time>2018-02-25T04:17:36Z</time>
            </trkpt>
            <trkpt lon="100.969796" lat="12.905972">
                <ele>72.000000</ele>
                <time>2018-02-25T04:17:37Z</time>
            </trkpt>
            <trkpt lon="100.969778" lat="12.906012">
                <ele>72.000000</ele>
                <time>2018-02-25T04:17:38Z</time>
            </trkpt>
            <trkpt lon="100.969755" lat="12.906051">
                <ele>72.000000</ele>
                <time>2018-02-25T04:17:39Z</time>
            </trkpt>
            <trkpt lon="100.969727" lat="12.906088">
                <ele>71.900000</ele>
                <time>2018-02-25T04:17:40Z</time>
            </trkpt>
            <trkpt lon="100.969698" lat="12.906119">
                <ele>71.900000</ele>
                <time>2018-02-25T04:17:41Z</time>
            </trkpt>
            <trkpt lon="100.969670" lat="12.906148">
                <ele>71.900000</ele>
                <time>2018-02-25T04:17:42Z</time>
            </trkpt>
            <trkpt lon="100.969642" lat="12.906177">
                <ele>71.900000</ele>
                <time>2018-02-25T04:17:43Z</time>
            </trkpt>
            <trkpt lon="100.969620" lat="12.906200">
                <ele>71.900000</ele>
                <time>2018-02-25T04:17:44Z</time>
            </trkpt>
            <trkpt lon="100.969595" lat="12.906220">
                <ele>71.900000</ele>
                <time>2018-02-25T04:17:45Z</time>
            </trkpt>
            <trkpt lon="100.969568" lat="12.906242">
                <ele>71.900000</ele>
                <time>2018-02-25T04:17:46Z</time>
            </trkpt>
            <trkpt lon="100.969542" lat="12.906262">
                <ele>71.900000</ele>
                <time>2018-02-25T04:17:47Z</time>
            </trkpt>
            <trkpt lon="100.969508" lat="12.906289">
                <ele>72.000000</ele>
                <time>2018-02-25T04:17:49Z</time>
            </trkpt>
            <trkpt lon="100.969464" lat="12.906329">
                <ele>72.000000</ele>
                <time>2018-02-25T04:17:51Z</time>
            </trkpt>
            <trkpt lon="100.969445" lat="12.906357">
                <ele>72.000000</ele>
                <time>2018-02-25T04:17:52Z</time>
            </trkpt>
            <trkpt lon="100.969434" lat="12.906391">
                <ele>71.900000</ele>
                <time>2018-02-25T04:17:53Z</time>
            </trkpt>
            <trkpt lon="100.969432" lat="12.906433">
                <ele>71.800000</ele>
                <time>2018-02-25T04:17:54Z</time>
            </trkpt>
            <trkpt lon="100.969444" lat="12.906474">
                <ele>71.700000</ele>
                <time>2018-02-25T04:17:55Z</time>
            </trkpt>
            <trkpt lon="100.969467" lat="12.906513">
                <ele>71.600000</ele>
                <time>2018-02-25T04:17:56Z</time>
            </trkpt>
            <trkpt lon="100.969499" lat="12.906544">
                <ele>71.500000</ele>
                <time>2018-02-25T04:17:57Z</time>
            </trkpt>
            <trkpt lon="100.969538" lat="12.906567">
                <ele>71.500000</ele>
                <time>2018-02-25T04:17:58Z</time>
            </trkpt>
            <trkpt lon="100.969582" lat="12.906579">
                <ele>71.400000</ele>
                <time>2018-02-25T04:17:59Z</time>
            </trkpt>
            <trkpt lon="100.969680" lat="12.906542">
                <ele>71.300000</ele>
                <time>2018-02-25T04:18:00Z</time>
            </trkpt>
            <trkpt lon="100.969727" lat="12.906538">
                <ele>71.300000</ele>
                <time>2018-02-25T04:18:01Z</time>
            </trkpt>
            <trkpt lon="100.969769" lat="12.906529">
                <ele>71.300000</ele>
                <time>2018-02-25T04:18:02Z</time>
            </trkpt>
            <trkpt lon="100.969810" lat="12.906525">
                <ele>71.200000</ele>
                <time>2018-02-25T04:18:03Z</time>
            </trkpt>
            <trkpt lon="100.969858" lat="12.906510">
                <ele>71.200000</ele>
                <time>2018-02-25T04:18:04Z</time>
            </trkpt>
            <trkpt lon="100.969900" lat="12.906507">
                <ele>71.200000</ele>
                <time>2018-02-25T04:18:05Z</time>
            </trkpt>
            <trkpt lon="100.969939" lat="12.906509">
                <ele>71.200000</ele>
                <time>2018-02-25T04:18:06Z</time>
            </trkpt>
            <trkpt lon="100.969980" lat="12.906512">
                <ele>71.100000</ele>
                <time>2018-02-25T04:18:07Z</time>
            </trkpt>
            <trkpt lon="100.970026" lat="12.906502">
                <ele>71.100000</ele>
                <time>2018-02-25T04:18:08Z</time>
            </trkpt>
            <trkpt lon="100.970064" lat="12.906497">
                <ele>71.100000</ele>
                <time>2018-02-25T04:18:09Z</time>
            </trkpt>
            <trkpt lon="100.970117" lat="12.906501">
                <ele>71.100000</ele>
                <time>2018-02-25T04:18:10Z</time>
            </trkpt>
            <trkpt lon="100.970159" lat="12.906504">
                <ele>71.100000</ele>
                <time>2018-02-25T04:18:11Z</time>
            </trkpt>
            <trkpt lon="100.970206" lat="12.906505">
                <ele>71.100000</ele>
                <time>2018-02-25T04:18:12Z</time>
            </trkpt>
            <trkpt lon="100.970256" lat="12.906499">
                <ele>71.200000</ele>
                <time>2018-02-25T04:18:13Z</time>
            </trkpt>
            <trkpt lon="100.970297" lat="12.906492">
                <ele>71.200000</ele>
                <time>2018-02-25T04:18:14Z</time>
            </trkpt>
            <trkpt lon="100.970351" lat="12.906502">
                <ele>71.200000</ele>
                <time>2018-02-25T04:18:15Z</time>
            </trkpt>
            <trkpt lon="100.970404" lat="12.906497">
                <ele>71.200000</ele>
                <time>2018-02-25T04:18:16Z</time>
            </trkpt>
            <trkpt lon="100.970448" lat="12.906497">
                <ele>71.300000</ele>
                <time>2018-02-25T04:18:17Z</time>
            </trkpt>
            <trkpt lon="100.970489" lat="12.906490">
                <ele>71.300000</ele>
                <time>2018-02-25T04:18:18Z</time>
            </trkpt>
            <trkpt lon="100.970555" lat="12.906485">
                <ele>71.400000</ele>
                <time>2018-02-25T04:18:19Z</time>
            </trkpt>
            <trkpt lon="100.970596" lat="12.906476">
                <ele>71.400000</ele>
                <time>2018-02-25T04:18:20Z</time>
            </trkpt>
            <trkpt lon="100.970648" lat="12.906469">
                <ele>71.400000</ele>
                <time>2018-02-25T04:18:21Z</time>
            </trkpt>
            <trkpt lon="100.970692" lat="12.906469">
                <ele>71.400000</ele>
                <time>2018-02-25T04:18:22Z</time>
            </trkpt>
            <trkpt lon="100.970740" lat="12.906470">
                <ele>71.400000</ele>
                <time>2018-02-25T04:18:23Z</time>
            </trkpt>
            <trkpt lon="100.970772" lat="12.906485">
                <ele>71.400000</ele>
                <time>2018-02-25T04:18:24Z</time>
            </trkpt>
            <trkpt lon="100.970818" lat="12.906474">
                <ele>71.400000</ele>
                <time>2018-02-25T04:18:25Z</time>
            </trkpt>
            <trkpt lon="100.970857" lat="12.906470">
                <ele>71.400000</ele>
                <time>2018-02-25T04:18:26Z</time>
            </trkpt>
            <trkpt lon="100.970906" lat="12.906469">
                <ele>71.300000</ele>
                <time>2018-02-25T04:18:27Z</time>
            </trkpt>
            <trkpt lon="100.970962" lat="12.906455">
                <ele>71.300000</ele>
                <time>2018-02-25T04:18:28Z</time>
            </trkpt>
            <trkpt lon="100.971014" lat="12.906443">
                <ele>71.300000</ele>
                <time>2018-02-25T04:18:29Z</time>
            </trkpt>
            <trkpt lon="100.971067" lat="12.906440">
                <ele>71.200000</ele>
                <time>2018-02-25T04:18:30Z</time>
            </trkpt>
            <trkpt lon="100.971110" lat="12.906436">
                <ele>71.200000</ele>
                <time>2018-02-25T04:18:31Z</time>
            </trkpt>
            <trkpt lon="100.971154" lat="12.906435">
                <ele>71.200000</ele>
                <time>2018-02-25T04:18:32Z</time>
            </trkpt>
            <trkpt lon="100.971206" lat="12.906433">
                <ele>71.100000</ele>
                <time>2018-02-25T04:18:33Z</time>
            </trkpt>
            <trkpt lon="100.971260" lat="12.906438">
                <ele>71.100000</ele>
                <time>2018-02-25T04:18:34Z</time>
            </trkpt>
            <trkpt lon="100.971308" lat="12.906428">
                <ele>71.100000</ele>
                <time>2018-02-25T04:18:35Z</time>
            </trkpt>
            <trkpt lon="100.971352" lat="12.906421">
                <ele>71.000000</ele>
                <time>2018-02-25T04:18:36Z</time>
            </trkpt>
            <trkpt lon="100.971406" lat="12.906420">
                <ele>71.000000</ele>
                <time>2018-02-25T04:18:37Z</time>
            </trkpt>
            <trkpt lon="100.971447" lat="12.906412">
                <ele>71.000000</ele>
                <time>2018-02-25T04:18:38Z</time>
            </trkpt>
            <trkpt lon="100.971498" lat="12.906405">
                <ele>71.000000</ele>
                <time>2018-02-25T04:18:39Z</time>
            </trkpt>
            <trkpt lon="100.971533" lat="12.906410">
                <ele>71.000000</ele>
                <time>2018-02-25T04:18:40Z</time>
            </trkpt>
            <trkpt lon="100.971588" lat="12.906396">
                <ele>70.900000</ele>
                <time>2018-02-25T04:18:41Z</time>
            </trkpt>
            <trkpt lon="100.971637" lat="12.906383">
                <ele>70.900000</ele>
                <time>2018-02-25T04:18:42Z</time>
            </trkpt>
            <trkpt lon="100.971689" lat="12.906377">
                <ele>70.900000</ele>
                <time>2018-02-25T04:18:43Z</time>
            </trkpt>
            <trkpt lon="100.971735" lat="12.906368">
                <ele>70.900000</ele>
                <time>2018-02-25T04:18:44Z</time>
            </trkpt>
            <trkpt lon="100.971785" lat="12.906357">
                <ele>70.800000</ele>
                <time>2018-02-25T04:18:45Z</time>
            </trkpt>
            <trkpt lon="100.971829" lat="12.906352">
                <ele>70.800000</ele>
                <time>2018-02-25T04:18:46Z</time>
            </trkpt>
            <trkpt lon="100.971870" lat="12.906349">
                <ele>70.800000</ele>
                <time>2018-02-25T04:18:47Z</time>
            </trkpt>
            <trkpt lon="100.971912" lat="12.906343">
                <ele>70.800000</ele>
                <time>2018-02-25T04:18:48Z</time>
            </trkpt>
            <trkpt lon="100.971958" lat="12.906327">
                <ele>70.800000</ele>
                <time>2018-02-25T04:18:49Z</time>
            </trkpt>
            <trkpt lon="100.971993" lat="12.906332">
                <ele>70.800000</ele>
                <time>2018-02-25T04:18:50Z</time>
            </trkpt>
            <trkpt lon="100.972032" lat="12.906326">
                <ele>70.800000</ele>
                <time>2018-02-25T04:18:51Z</time>
            </trkpt>
            <trkpt lon="100.972078" lat="12.906316">
                <ele>70.800000</ele>
                <time>2018-02-25T04:18:52Z</time>
            </trkpt>
            <trkpt lon="100.972119" lat="12.906301">
                <ele>70.800000</ele>
                <time>2018-02-25T04:18:53Z</time>
            </trkpt>
            <trkpt lon="100.972159" lat="12.906285">
                <ele>70.800000</ele>
                <time>2018-02-25T04:18:54Z</time>
            </trkpt>
            <trkpt lon="100.972197" lat="12.906265">
                <ele>70.800000</ele>
                <time>2018-02-25T04:18:55Z</time>
            </trkpt>
            <trkpt lon="100.972235" lat="12.906245">
                <ele>70.700000</ele>
                <time>2018-02-25T04:18:56Z</time>
            </trkpt>
            <trkpt lon="100.972273" lat="12.906225">
                <ele>70.700000</ele>
                <time>2018-02-25T04:18:57Z</time>
            </trkpt>
            <trkpt lon="100.972310" lat="12.906203">
                <ele>70.700000</ele>
                <time>2018-02-25T04:18:58Z</time>
            </trkpt>
            <trkpt lon="100.972348" lat="12.906179">
                <ele>70.700000</ele>
                <time>2018-02-25T04:18:59Z</time>
            </trkpt>
            <trkpt lon="100.972382" lat="12.906154">
                <ele>70.700000</ele>
                <time>2018-02-25T04:19:00Z</time>
            </trkpt>
            <trkpt lon="100.972413" lat="12.906129">
                <ele>70.800000</ele>
                <time>2018-02-25T04:19:01Z</time>
            </trkpt>
            <trkpt lon="100.972443" lat="12.906102">
                <ele>70.800000</ele>
                <time>2018-02-25T04:19:02Z</time>
            </trkpt>
            <trkpt lon="100.972472" lat="12.906076">
                <ele>70.800000</ele>
                <time>2018-02-25T04:19:03Z</time>
            </trkpt>
            <trkpt lon="100.972501" lat="12.906051">
                <ele>70.800000</ele>
                <time>2018-02-25T04:19:04Z</time>
            </trkpt>
            <trkpt lon="100.972529" lat="12.906028">
                <ele>70.800000</ele>
                <time>2018-02-25T04:19:05Z</time>
            </trkpt>
            <trkpt lon="100.972561" lat="12.906011">
                <ele>70.800000</ele>
                <time>2018-02-25T04:19:06Z</time>
            </trkpt>
            <trkpt lon="100.972595" lat="12.906004">
                <ele>70.900000</ele>
                <time>2018-02-25T04:19:07Z</time>
            </trkpt>
            <trkpt lon="100.972632" lat="12.906005">
                <ele>70.900000</ele>
                <time>2018-02-25T04:19:08Z</time>
            </trkpt>
            <trkpt lon="100.972671" lat="12.906018">
                <ele>70.900000</ele>
                <time>2018-02-25T04:19:09Z</time>
            </trkpt>
            <trkpt lon="100.972709" lat="12.906039">
                <ele>71.000000</ele>
                <time>2018-02-25T04:19:10Z</time>
            </trkpt>
            <trkpt lon="100.972745" lat="12.906063">
                <ele>70.900000</ele>
                <time>2018-02-25T04:19:11Z</time>
            </trkpt>
            <trkpt lon="100.972777" lat="12.906083">
                <ele>71.300000</ele>
                <time>2018-02-25T04:19:12Z</time>
            </trkpt>
            <trkpt lon="100.972812" lat="12.906096">
                <ele>71.300000</ele>
                <time>2018-02-25T04:19:13Z</time>
            </trkpt>
            <trkpt lon="100.972850" lat="12.906099">
                <ele>71.400000</ele>
                <time>2018-02-25T04:19:14Z</time>
            </trkpt>
            <trkpt lon="100.972888" lat="12.906095">
                <ele>71.400000</ele>
                <time>2018-02-25T04:19:15Z</time>
            </trkpt>
            <trkpt lon="100.972925" lat="12.906088">
                <ele>71.500000</ele>
                <time>2018-02-25T04:19:16Z</time>
            </trkpt>
            <trkpt lon="100.972960" lat="12.906079">
                <ele>71.600000</ele>
                <time>2018-02-25T04:19:17Z</time>
            </trkpt>
            <trkpt lon="100.972993" lat="12.906069">
                <ele>71.600000</ele>
                <time>2018-02-25T04:19:18Z</time>
            </trkpt>
            <trkpt lon="100.973026" lat="12.906059">
                <ele>71.300000</ele>
                <time>2018-02-25T04:19:19Z</time>
            </trkpt>
            <trkpt lon="100.973061" lat="12.906050">
                <ele>71.300000</ele>
                <time>2018-02-25T04:19:20Z</time>
            </trkpt>
            <trkpt lon="100.973100" lat="12.906042">
                <ele>71.500000</ele>
                <time>2018-02-25T04:19:21Z</time>
            </trkpt>
            <trkpt lon="100.973139" lat="12.906040">
                <ele>71.700000</ele>
                <time>2018-02-25T04:19:22Z</time>
            </trkpt>
            <trkpt lon="100.973173" lat="12.906046">
                <ele>71.800000</ele>
                <time>2018-02-25T04:19:23Z</time>
            </trkpt>
            <trkpt lon="100.973206" lat="12.906055">
                <ele>72.100000</ele>
                <time>2018-02-25T04:19:24Z</time>
            </trkpt>
            <trkpt lon="100.973241" lat="12.906060">
                <ele>72.400000</ele>
                <time>2018-02-25T04:19:25Z</time>
            </trkpt>
            <trkpt lon="100.973276" lat="12.906060">
                <ele>72.500000</ele>
                <time>2018-02-25T04:19:26Z</time>
            </trkpt>
            <trkpt lon="100.973309" lat="12.906056">
                <ele>72.800000</ele>
                <time>2018-02-25T04:19:27Z</time>
            </trkpt>
            <trkpt lon="100.973347" lat="12.906053">
                <ele>73.100000</ele>
                <time>2018-02-25T04:19:28Z</time>
            </trkpt>
            <trkpt lon="100.973383" lat="12.906051">
                <ele>73.500000</ele>
                <time>2018-02-25T04:19:29Z</time>
            </trkpt>
            <trkpt lon="100.973417" lat="12.906048">
                <ele>73.900000</ele>
                <time>2018-02-25T04:19:30Z</time>
            </trkpt>
            <trkpt lon="100.973455" lat="12.906048">
                <ele>74.400000</ele>
                <time>2018-02-25T04:19:31Z</time>
            </trkpt>
            <trkpt lon="100.973488" lat="12.906058">
                <ele>74.500000</ele>
                <time>2018-02-25T04:19:32Z</time>
            </trkpt>
            <trkpt lon="100.973513" lat="12.906082">
                <ele>75.400000</ele>
                <time>2018-02-25T04:19:33Z</time>
            </trkpt>
            <trkpt lon="100.973524" lat="12.906119">
                <ele>75.800000</ele>
                <time>2018-02-25T04:19:34Z</time>
            </trkpt>
            <trkpt lon="100.973524" lat="12.906159">
                <ele>75.900000</ele>
                <time>2018-02-25T04:19:35Z</time>
            </trkpt>
            <trkpt lon="100.973521" lat="12.906199">
                <ele>76.000000</ele>
                <time>2018-02-25T04:19:36Z</time>
            </trkpt>
            <trkpt lon="100.973519" lat="12.906239">
                <ele>76.100000</ele>
                <time>2018-02-25T04:19:37Z</time>
            </trkpt>
            <trkpt lon="100.973518" lat="12.906278">
                <ele>76.200000</ele>
                <time>2018-02-25T04:19:38Z</time>
            </trkpt>
            <trkpt lon="100.973519" lat="12.906317">
                <ele>76.300000</ele>
                <time>2018-02-25T04:19:39Z</time>
            </trkpt>
            <trkpt lon="100.973526" lat="12.906354">
                <ele>76.400000</ele>
                <time>2018-02-25T04:19:40Z</time>
            </trkpt>
            <trkpt lon="100.973537" lat="12.906388">
                <ele>76.400000</ele>
                <time>2018-02-25T04:19:41Z</time>
            </trkpt>
            <trkpt lon="100.973590" lat="12.906394">
                <ele>76.700000</ele>
                <time>2018-02-25T04:19:42Z</time>
            </trkpt>
            <trkpt lon="100.973637" lat="12.906393">
                <ele>76.800000</ele>
                <time>2018-02-25T04:19:43Z</time>
            </trkpt>
            <trkpt lon="100.973683" lat="12.906393">
                <ele>76.800000</ele>
                <time>2018-02-25T04:19:44Z</time>
            </trkpt>
            <trkpt lon="100.973727" lat="12.906390">
                <ele>76.900000</ele>
                <time>2018-02-25T04:19:45Z</time>
            </trkpt>
            <trkpt lon="100.973772" lat="12.906388">
                <ele>77.000000</ele>
                <time>2018-02-25T04:19:46Z</time>
            </trkpt>
            <trkpt lon="100.973814" lat="12.906392">
                <ele>77.000000</ele>
                <time>2018-02-25T04:19:47Z</time>
            </trkpt>
            <trkpt lon="100.973872" lat="12.906392">
                <ele>77.100000</ele>
                <time>2018-02-25T04:19:48Z</time>
            </trkpt>
            <trkpt lon="100.973942" lat="12.906395">
                <ele>77.300000</ele>
                <time>2018-02-25T04:19:50Z</time>
            </trkpt>
            <trkpt lon="100.973986" lat="12.906389">
                <ele>77.500000</ele>
                <time>2018-02-25T04:19:51Z</time>
            </trkpt>
            <trkpt lon="100.974051" lat="12.906386">
                <ele>77.700000</ele>
                <time>2018-02-25T04:19:53Z</time>
            </trkpt>
            <trkpt lon="100.974085" lat="12.906372">
                <ele>77.900000</ele>
                <time>2018-02-25T04:19:54Z</time>
            </trkpt>
            <trkpt lon="100.974121" lat="12.906350">
                <ele>78.200000</ele>
                <time>2018-02-25T04:19:55Z</time>
            </trkpt>
            <trkpt lon="100.974155" lat="12.906334">
                <ele>78.400000</ele>
                <time>2018-02-25T04:19:56Z</time>
            </trkpt>
            <trkpt lon="100.974204" lat="12.906350">
                <ele>78.500000</ele>
                <time>2018-02-25T04:19:57Z</time>
            </trkpt>
            <trkpt lon="100.974234" lat="12.906340">
                <ele>78.500000</ele>
                <time>2018-02-25T04:19:58Z</time>
            </trkpt>
            <trkpt lon="100.974268" lat="12.906338">
                <ele>78.500000</ele>
                <time>2018-02-25T04:19:59Z</time>
            </trkpt>
            <trkpt lon="100.974297" lat="12.906325">
                <ele>78.400000</ele>
                <time>2018-02-25T04:20:00Z</time>
            </trkpt>
            <trkpt lon="100.974321" lat="12.906310">
                <ele>78.400000</ele>
                <time>2018-02-25T04:20:01Z</time>
            </trkpt>
            <trkpt lon="100.974343" lat="12.906291">
                <ele>78.400000</ele>
                <time>2018-02-25T04:20:02Z</time>
            </trkpt>
            <trkpt lon="100.974357" lat="12.906268">
                <ele>78.300000</ele>
                <time>2018-02-25T04:20:03Z</time>
            </trkpt>
            <trkpt lon="100.974375" lat="12.906214">
                <ele>78.100000</ele>
                <time>2018-02-25T04:20:05Z</time>
            </trkpt>
            <trkpt lon="100.974385" lat="12.906187">
                <ele>78.000000</ele>
                <time>2018-02-25T04:20:06Z</time>
            </trkpt>
            <trkpt lon="100.974431" lat="12.906133">
                <ele>77.800000</ele>
                <time>2018-02-25T04:24:20Z</time>
            </trkpt>
        </trkseg>
    </trk>
</gpx>